<?xml version="1.0" encoding="UTF-8" standalone="no" ?>
<gpx xmlns="http://www.topografix.com/GPX/1/1" xmlns:xsi="http://www.w3.org/2001/XMLSchema-instance" xsi:schemaLocation="http://www.topografix.com/GPX/1/1 http://www.topografix.com/GPX/1/1/gpx.xsd" version="1.1" creator="VisuGPX - https://www.visugpx.com">
  <metadata>
    <name>Rando VTT vers Champcevinel</name>
    <desc><![CDATA[Petite rando du dimanche de 3 Vététistes amateurs. Aucun désir de performance !!]]></desc>
  </metadata>
  <trk>
    <name><![CDATA[19 nov. 2017 9:23:29 AM]]></name>
    <trkseg>
      <trkpt lat="45.17829" lon="0.70797">
        <ele>104</ele>
        <time>2017-11-19T08:23:47.000Z</time>
      </trkpt>
      <trkpt lat="45.17819" lon="0.70796">
        <ele>121</ele>
        <time>2017-11-19T08:23:51.000Z</time>
      </trkpt>
      <trkpt lat="45.17828" lon="0.70795">
        <ele>128</ele>
        <time>2017-11-19T08:25:23.000Z</time>
      </trkpt>
      <trkpt lat="45.17838" lon="0.70787">
        <ele>132</ele>
        <time>2017-11-19T08:25:42.000Z</time>
      </trkpt>
      <trkpt lat="45.17847" lon="0.70777">
        <ele>136</ele>
        <time>2017-11-19T08:25:46.000Z</time>
      </trkpt>
      <trkpt lat="45.17856" lon="0.7077">
        <ele>138</ele>
        <time>2017-11-19T08:25:49.000Z</time>
      </trkpt>
      <trkpt lat="45.17867" lon="0.70763">
        <ele>138</ele>
        <time>2017-11-19T08:25:52.000Z</time>
      </trkpt>
      <trkpt lat="45.17877" lon="0.70757">
        <ele>136</ele>
        <time>2017-11-19T08:25:55.000Z</time>
      </trkpt>
      <trkpt lat="45.17887" lon="0.70748">
        <ele>135</ele>
        <time>2017-11-19T08:25:59.000Z</time>
      </trkpt>
      <trkpt lat="45.17896" lon="0.70739">
        <ele>133</ele>
        <time>2017-11-19T08:26:02.000Z</time>
      </trkpt>
      <trkpt lat="45.17907" lon="0.7073">
        <ele>133</ele>
        <time>2017-11-19T08:26:05.000Z</time>
      </trkpt>
      <trkpt lat="45.17917" lon="0.70722">
        <ele>132</ele>
        <time>2017-11-19T08:26:08.000Z</time>
      </trkpt>
      <trkpt lat="45.17926" lon="0.70713">
        <ele>131</ele>
        <time>2017-11-19T08:26:11.000Z</time>
      </trkpt>
      <trkpt lat="45.17936" lon="0.70704">
        <ele>130</ele>
        <time>2017-11-19T08:26:14.000Z</time>
      </trkpt>
      <trkpt lat="45.17945" lon="0.70694">
        <ele>130</ele>
        <time>2017-11-19T08:26:17.000Z</time>
      </trkpt>
      <trkpt lat="45.17955" lon="0.70684">
        <ele>132</ele>
        <time>2017-11-19T08:26:20.000Z</time>
      </trkpt>
      <trkpt lat="45.17965" lon="0.70676">
        <ele>132</ele>
        <time>2017-11-19T08:26:23.000Z</time>
      </trkpt>
      <trkpt lat="45.17976" lon="0.70667">
        <ele>134</ele>
        <time>2017-11-19T08:26:26.000Z</time>
      </trkpt>
      <trkpt lat="45.17987" lon="0.70658">
        <ele>135</ele>
        <time>2017-11-19T08:26:29.000Z</time>
      </trkpt>
      <trkpt lat="45.17997" lon="0.7065">
        <ele>134</ele>
        <time>2017-11-19T08:26:32.000Z</time>
      </trkpt>
      <trkpt lat="45.18008" lon="0.70641">
        <ele>134</ele>
        <time>2017-11-19T08:26:35.000Z</time>
      </trkpt>
      <trkpt lat="45.18019" lon="0.70634">
        <ele>133</ele>
        <time>2017-11-19T08:26:38.000Z</time>
      </trkpt>
      <trkpt lat="45.18029" lon="0.70624">
        <ele>134</ele>
        <time>2017-11-19T08:26:41.000Z</time>
      </trkpt>
      <trkpt lat="45.18038" lon="0.70617">
        <ele>134</ele>
        <time>2017-11-19T08:26:44.000Z</time>
      </trkpt>
      <trkpt lat="45.18048" lon="0.70613">
        <ele>130</ele>
        <time>2017-11-19T08:26:48.000Z</time>
      </trkpt>
      <trkpt lat="45.18063" lon="0.70603">
        <ele>128</ele>
        <time>2017-11-19T08:26:51.000Z</time>
      </trkpt>
      <trkpt lat="45.18071" lon="0.70594">
        <ele>127</ele>
        <time>2017-11-19T08:26:53.000Z</time>
      </trkpt>
      <trkpt lat="45.18079" lon="0.70584">
        <ele>129</ele>
        <time>2017-11-19T08:26:55.000Z</time>
      </trkpt>
      <trkpt lat="45.18087" lon="0.70579">
        <ele>128</ele>
        <time>2017-11-19T08:26:57.000Z</time>
      </trkpt>
      <trkpt lat="45.18099" lon="0.70572">
        <ele>127</ele>
        <time>2017-11-19T08:27:00.000Z</time>
      </trkpt>
      <trkpt lat="45.18106" lon="0.70564">
        <ele>127</ele>
        <time>2017-11-19T08:27:02.000Z</time>
      </trkpt>
      <trkpt lat="45.18115" lon="0.70557">
        <ele>129</ele>
        <time>2017-11-19T08:27:04.000Z</time>
      </trkpt>
      <trkpt lat="45.18127" lon="0.70549">
        <ele>130</ele>
        <time>2017-11-19T08:27:07.000Z</time>
      </trkpt>
      <trkpt lat="45.18136" lon="0.70538">
        <ele>130</ele>
        <time>2017-11-19T08:27:10.000Z</time>
      </trkpt>
      <trkpt lat="45.18145" lon="0.70534">
        <ele>131</ele>
        <time>2017-11-19T08:27:12.000Z</time>
      </trkpt>
      <trkpt lat="45.18153" lon="0.70527">
        <ele>130</ele>
        <time>2017-11-19T08:27:14.000Z</time>
      </trkpt>
      <trkpt lat="45.18163" lon="0.70519">
        <ele>128</ele>
        <time>2017-11-19T08:27:17.000Z</time>
      </trkpt>
      <trkpt lat="45.18172" lon="0.70508">
        <ele>128</ele>
        <time>2017-11-19T08:27:20.000Z</time>
      </trkpt>
      <trkpt lat="45.18183" lon="0.70498">
        <ele>127</ele>
        <time>2017-11-19T08:27:23.000Z</time>
      </trkpt>
      <trkpt lat="45.18193" lon="0.70487">
        <ele>127</ele>
        <time>2017-11-19T08:27:26.000Z</time>
      </trkpt>
      <trkpt lat="45.18204" lon="0.70478">
        <ele>130</ele>
        <time>2017-11-19T08:27:29.000Z</time>
      </trkpt>
      <trkpt lat="45.18217" lon="0.70468">
        <ele>132</ele>
        <time>2017-11-19T08:27:32.000Z</time>
      </trkpt>
      <trkpt lat="45.18228" lon="0.7046">
        <ele>132</ele>
        <time>2017-11-19T08:27:35.000Z</time>
      </trkpt>
      <trkpt lat="45.18239" lon="0.70451">
        <ele>132</ele>
        <time>2017-11-19T08:27:38.000Z</time>
      </trkpt>
      <trkpt lat="45.1825" lon="0.70443">
        <ele>133</ele>
        <time>2017-11-19T08:27:41.000Z</time>
      </trkpt>
      <trkpt lat="45.1826" lon="0.70435">
        <ele>134</ele>
        <time>2017-11-19T08:27:44.000Z</time>
      </trkpt>
      <trkpt lat="45.18268" lon="0.70427">
        <ele>134</ele>
        <time>2017-11-19T08:27:46.000Z</time>
      </trkpt>
      <trkpt lat="45.18279" lon="0.70421">
        <ele>135</ele>
        <time>2017-11-19T08:27:49.000Z</time>
      </trkpt>
      <trkpt lat="45.18287" lon="0.70414">
        <ele>136</ele>
        <time>2017-11-19T08:27:51.000Z</time>
      </trkpt>
      <trkpt lat="45.18296" lon="0.70408">
        <ele>137</ele>
        <time>2017-11-19T08:27:53.000Z</time>
      </trkpt>
      <trkpt lat="45.18304" lon="0.704">
        <ele>137</ele>
        <time>2017-11-19T08:27:55.000Z</time>
      </trkpt>
      <trkpt lat="45.18313" lon="0.70392">
        <ele>138</ele>
        <time>2017-11-19T08:27:58.000Z</time>
      </trkpt>
      <trkpt lat="45.18321" lon="0.7038">
        <ele>138</ele>
        <time>2017-11-19T08:28:02.000Z</time>
      </trkpt>
      <trkpt lat="45.18327" lon="0.70369">
        <ele>137</ele>
        <time>2017-11-19T08:28:05.000Z</time>
      </trkpt>
      <trkpt lat="45.18335" lon="0.70358">
        <ele>141</ele>
        <time>2017-11-19T08:28:07.101Z</time>
      </trkpt>
      <trkpt lat="45.18331" lon="0.70344">
        <ele>141</ele>
        <time>2017-11-19T08:28:08.101Z</time>
      </trkpt>
      <trkpt lat="45.1834" lon="0.70353">
        <ele>133</ele>
        <time>2017-11-19T08:28:10.101Z</time>
      </trkpt>
      <trkpt lat="45.18358" lon="0.70362">
        <ele>146</ele>
        <time>2017-11-19T08:28:12.101Z</time>
      </trkpt>
      <trkpt lat="45.18355" lon="0.70375">
        <ele>131</ele>
        <time>2017-11-19T08:28:15.101Z</time>
      </trkpt>
      <trkpt lat="45.18361" lon="0.70386">
        <ele>127</ele>
        <time>2017-11-19T08:28:18.101Z</time>
      </trkpt>
      <trkpt lat="45.18354" lon="0.70374">
        <ele>119</ele>
        <time>2017-11-19T08:28:20.000Z</time>
      </trkpt>
      <trkpt lat="45.18363" lon="0.7038">
        <ele>127</ele>
        <time>2017-11-19T08:28:22.000Z</time>
      </trkpt>
      <trkpt lat="45.18374" lon="0.70384">
        <ele>126</ele>
        <time>2017-11-19T08:28:25.000Z</time>
      </trkpt>
      <trkpt lat="45.18384" lon="0.70384">
        <ele>127</ele>
        <time>2017-11-19T08:28:28.000Z</time>
      </trkpt>
      <trkpt lat="45.18393" lon="0.7038">
        <ele>131</ele>
        <time>2017-11-19T08:28:31.000Z</time>
      </trkpt>
      <trkpt lat="45.18401" lon="0.70369">
        <ele>131</ele>
        <time>2017-11-19T08:28:34.000Z</time>
      </trkpt>
      <trkpt lat="45.18408" lon="0.70358">
        <ele>132</ele>
        <time>2017-11-19T08:28:37.000Z</time>
      </trkpt>
      <trkpt lat="45.18416" lon="0.70346">
        <ele>131</ele>
        <time>2017-11-19T08:28:40.000Z</time>
      </trkpt>
      <trkpt lat="45.18424" lon="0.70335">
        <ele>131</ele>
        <time>2017-11-19T08:28:43.000Z</time>
      </trkpt>
      <trkpt lat="45.18433" lon="0.70325">
        <ele>130</ele>
        <time>2017-11-19T08:28:46.000Z</time>
      </trkpt>
      <trkpt lat="45.18443" lon="0.70316">
        <ele>131</ele>
        <time>2017-11-19T08:28:49.000Z</time>
      </trkpt>
      <trkpt lat="45.18452" lon="0.70304">
        <ele>133</ele>
        <time>2017-11-19T08:28:52.000Z</time>
      </trkpt>
      <trkpt lat="45.18458" lon="0.70294">
        <ele>131</ele>
        <time>2017-11-19T08:28:54.000Z</time>
      </trkpt>
      <trkpt lat="45.18465" lon="0.70278">
        <ele>130</ele>
        <time>2017-11-19T08:28:57.000Z</time>
      </trkpt>
      <trkpt lat="45.18471" lon="0.70264">
        <ele>133</ele>
        <time>2017-11-19T08:29:00.000Z</time>
      </trkpt>
      <trkpt lat="45.1848" lon="0.70251">
        <ele>131</ele>
        <time>2017-11-19T08:29:03.000Z</time>
      </trkpt>
      <trkpt lat="45.18488" lon="0.70239">
        <ele>131</ele>
        <time>2017-11-19T08:29:06.000Z</time>
      </trkpt>
      <trkpt lat="45.18496" lon="0.70227">
        <ele>131</ele>
        <time>2017-11-19T08:29:09.000Z</time>
      </trkpt>
      <trkpt lat="45.18503" lon="0.70213">
        <ele>133</ele>
        <time>2017-11-19T08:29:12.000Z</time>
      </trkpt>
      <trkpt lat="45.1851" lon="0.70199">
        <ele>131</ele>
        <time>2017-11-19T08:29:15.000Z</time>
      </trkpt>
      <trkpt lat="45.18517" lon="0.70182">
        <ele>134</ele>
        <time>2017-11-19T08:29:18.000Z</time>
      </trkpt>
      <trkpt lat="45.18521" lon="0.7017">
        <ele>135</ele>
        <time>2017-11-19T08:29:20.000Z</time>
      </trkpt>
      <trkpt lat="45.18525" lon="0.70156">
        <ele>135</ele>
        <time>2017-11-19T08:29:22.000Z</time>
      </trkpt>
      <trkpt lat="45.18529" lon="0.70139">
        <ele>135</ele>
        <time>2017-11-19T08:29:24.000Z</time>
      </trkpt>
      <trkpt lat="45.18534" lon="0.70123">
        <ele>136</ele>
        <time>2017-11-19T08:29:27.000Z</time>
      </trkpt>
      <trkpt lat="45.18542" lon="0.7011">
        <ele>137</ele>
        <time>2017-11-19T08:29:30.000Z</time>
      </trkpt>
      <trkpt lat="45.18547" lon="0.70099">
        <ele>137</ele>
        <time>2017-11-19T08:29:32.000Z</time>
      </trkpt>
      <trkpt lat="45.18562" lon="0.70087">
        <ele>137</ele>
        <time>2017-11-19T08:29:35.000Z</time>
      </trkpt>
      <trkpt lat="45.18573" lon="0.70079">
        <ele>134</ele>
        <time>2017-11-19T08:29:37.000Z</time>
      </trkpt>
      <trkpt lat="45.18583" lon="0.70068">
        <ele>136</ele>
        <time>2017-11-19T08:29:40.000Z</time>
      </trkpt>
      <trkpt lat="45.18593" lon="0.70057">
        <ele>137</ele>
        <time>2017-11-19T08:29:43.000Z</time>
      </trkpt>
      <trkpt lat="45.18603" lon="0.70046">
        <ele>133</ele>
        <time>2017-11-19T08:29:46.000Z</time>
      </trkpt>
      <trkpt lat="45.18612" lon="0.7004">
        <ele>132</ele>
        <time>2017-11-19T08:29:48.000Z</time>
      </trkpt>
      <trkpt lat="45.18625" lon="0.70034">
        <ele>130</ele>
        <time>2017-11-19T08:29:51.000Z</time>
      </trkpt>
      <trkpt lat="45.18633" lon="0.70029">
        <ele>130</ele>
        <time>2017-11-19T08:29:53.000Z</time>
      </trkpt>
      <trkpt lat="45.18642" lon="0.70025">
        <ele>130</ele>
        <time>2017-11-19T08:29:55.000Z</time>
      </trkpt>
      <trkpt lat="45.18656" lon="0.70019">
        <ele>130</ele>
        <time>2017-11-19T08:29:58.000Z</time>
      </trkpt>
      <trkpt lat="45.18666" lon="0.70014">
        <ele>131</ele>
        <time>2017-11-19T08:30:00.000Z</time>
      </trkpt>
      <trkpt lat="45.18675" lon="0.70011">
        <ele>130</ele>
        <time>2017-11-19T08:30:02.000Z</time>
      </trkpt>
      <trkpt lat="45.18687" lon="0.70008">
        <ele>128</ele>
        <time>2017-11-19T08:30:05.000Z</time>
      </trkpt>
      <trkpt lat="45.18696" lon="0.70005">
        <ele>128</ele>
        <time>2017-11-19T08:30:07.000Z</time>
      </trkpt>
      <trkpt lat="45.18705" lon="0.70003">
        <ele>128</ele>
        <time>2017-11-19T08:30:09.000Z</time>
      </trkpt>
      <trkpt lat="45.18718" lon="0.69999">
        <ele>129</ele>
        <time>2017-11-19T08:30:12.000Z</time>
      </trkpt>
      <trkpt lat="45.18731" lon="0.69995">
        <ele>129</ele>
        <time>2017-11-19T08:30:15.000Z</time>
      </trkpt>
      <trkpt lat="45.18741" lon="0.69996">
        <ele>130</ele>
        <time>2017-11-19T08:30:17.000Z</time>
      </trkpt>
      <trkpt lat="45.18751" lon="0.69992">
        <ele>130</ele>
        <time>2017-11-19T08:30:19.000Z</time>
      </trkpt>
      <trkpt lat="45.18763" lon="0.6999">
        <ele>131</ele>
        <time>2017-11-19T08:30:22.000Z</time>
      </trkpt>
      <trkpt lat="45.18773" lon="0.69988">
        <ele>130</ele>
        <time>2017-11-19T08:30:24.000Z</time>
      </trkpt>
      <trkpt lat="45.18786" lon="0.69987">
        <ele>130</ele>
        <time>2017-11-19T08:30:27.000Z</time>
      </trkpt>
      <trkpt lat="45.18796" lon="0.69986">
        <ele>130</ele>
        <time>2017-11-19T08:30:29.000Z</time>
      </trkpt>
      <trkpt lat="45.18809" lon="0.69982">
        <ele>129</ele>
        <time>2017-11-19T08:30:32.000Z</time>
      </trkpt>
      <trkpt lat="45.18818" lon="0.6998">
        <ele>129</ele>
        <time>2017-11-19T08:30:34.000Z</time>
      </trkpt>
      <trkpt lat="45.18827" lon="0.6998">
        <ele>129</ele>
        <time>2017-11-19T08:30:36.000Z</time>
      </trkpt>
      <trkpt lat="45.18836" lon="0.69978">
        <ele>128</ele>
        <time>2017-11-19T08:30:38.000Z</time>
      </trkpt>
      <trkpt lat="45.18845" lon="0.69975">
        <ele>128</ele>
        <time>2017-11-19T08:30:40.000Z</time>
      </trkpt>
      <trkpt lat="45.18857" lon="0.6997">
        <ele>128</ele>
        <time>2017-11-19T08:30:43.000Z</time>
      </trkpt>
      <trkpt lat="45.18866" lon="0.69968">
        <ele>128</ele>
        <time>2017-11-19T08:30:45.000Z</time>
      </trkpt>
      <trkpt lat="45.18879" lon="0.69962">
        <ele>132</ele>
        <time>2017-11-19T08:30:48.000Z</time>
      </trkpt>
      <trkpt lat="45.18888" lon="0.69958">
        <ele>131</ele>
        <time>2017-11-19T08:30:50.000Z</time>
      </trkpt>
      <trkpt lat="45.18897" lon="0.69957">
        <ele>130</ele>
        <time>2017-11-19T08:30:52.000Z</time>
      </trkpt>
      <trkpt lat="45.18906" lon="0.69951">
        <ele>130</ele>
        <time>2017-11-19T08:30:54.000Z</time>
      </trkpt>
      <trkpt lat="45.18917" lon="0.69947">
        <ele>130</ele>
        <time>2017-11-19T08:30:57.000Z</time>
      </trkpt>
      <trkpt lat="45.1893" lon="0.69945">
        <ele>128</ele>
        <time>2017-11-19T08:31:00.000Z</time>
      </trkpt>
      <trkpt lat="45.18942" lon="0.69942">
        <ele>129</ele>
        <time>2017-11-19T08:31:03.000Z</time>
      </trkpt>
      <trkpt lat="45.18955" lon="0.69938">
        <ele>127</ele>
        <time>2017-11-19T08:31:06.000Z</time>
      </trkpt>
      <trkpt lat="45.18963" lon="0.69934">
        <ele>128</ele>
        <time>2017-11-19T08:31:08.000Z</time>
      </trkpt>
      <trkpt lat="45.18976" lon="0.69928">
        <ele>127</ele>
        <time>2017-11-19T08:31:11.000Z</time>
      </trkpt>
      <trkpt lat="45.18988" lon="0.69924">
        <ele>126</ele>
        <time>2017-11-19T08:31:14.000Z</time>
      </trkpt>
      <trkpt lat="45.18997" lon="0.69921">
        <ele>124</ele>
        <time>2017-11-19T08:31:16.000Z</time>
      </trkpt>
      <trkpt lat="45.1901" lon="0.69917">
        <ele>122</ele>
        <time>2017-11-19T08:31:19.000Z</time>
      </trkpt>
      <trkpt lat="45.19021" lon="0.69915">
        <ele>121</ele>
        <time>2017-11-19T08:31:21.000Z</time>
      </trkpt>
      <trkpt lat="45.1903" lon="0.69909">
        <ele>122</ele>
        <time>2017-11-19T08:31:23.000Z</time>
      </trkpt>
      <trkpt lat="45.19039" lon="0.69904">
        <ele>122</ele>
        <time>2017-11-19T08:31:25.000Z</time>
      </trkpt>
      <trkpt lat="45.19052" lon="0.699">
        <ele>123</ele>
        <time>2017-11-19T08:31:28.000Z</time>
      </trkpt>
      <trkpt lat="45.19062" lon="0.69896">
        <ele>126</ele>
        <time>2017-11-19T08:31:30.000Z</time>
      </trkpt>
      <trkpt lat="45.19072" lon="0.69891">
        <ele>126</ele>
        <time>2017-11-19T08:31:32.000Z</time>
      </trkpt>
      <trkpt lat="45.19083" lon="0.69886">
        <ele>127</ele>
        <time>2017-11-19T08:31:35.000Z</time>
      </trkpt>
      <trkpt lat="45.19096" lon="0.69883">
        <ele>127</ele>
        <time>2017-11-19T08:31:38.000Z</time>
      </trkpt>
      <trkpt lat="45.19109" lon="0.69878">
        <ele>126</ele>
        <time>2017-11-19T08:31:41.000Z</time>
      </trkpt>
      <trkpt lat="45.19122" lon="0.69872">
        <ele>124</ele>
        <time>2017-11-19T08:31:44.000Z</time>
      </trkpt>
      <trkpt lat="45.19131" lon="0.69867">
        <ele>125</ele>
        <time>2017-11-19T08:31:46.000Z</time>
      </trkpt>
      <trkpt lat="45.19141" lon="0.69865">
        <ele>126</ele>
        <time>2017-11-19T08:31:48.000Z</time>
      </trkpt>
      <trkpt lat="45.19151" lon="0.69861">
        <ele>126</ele>
        <time>2017-11-19T08:31:50.000Z</time>
      </trkpt>
      <trkpt lat="45.1916" lon="0.69859">
        <ele>125</ele>
        <time>2017-11-19T08:31:52.000Z</time>
      </trkpt>
      <trkpt lat="45.19169" lon="0.69856">
        <ele>127</ele>
        <time>2017-11-19T08:31:54.000Z</time>
      </trkpt>
      <trkpt lat="45.19177" lon="0.69851">
        <ele>128</ele>
        <time>2017-11-19T08:31:56.000Z</time>
      </trkpt>
      <trkpt lat="45.19186" lon="0.69847">
        <ele>127</ele>
        <time>2017-11-19T08:31:58.000Z</time>
      </trkpt>
      <trkpt lat="45.19195" lon="0.69844">
        <ele>127</ele>
        <time>2017-11-19T08:32:00.000Z</time>
      </trkpt>
      <trkpt lat="45.19204" lon="0.69839">
        <ele>128</ele>
        <time>2017-11-19T08:32:02.000Z</time>
      </trkpt>
      <trkpt lat="45.19217" lon="0.69834">
        <ele>129</ele>
        <time>2017-11-19T08:32:05.000Z</time>
      </trkpt>
      <trkpt lat="45.19228" lon="0.69827">
        <ele>127</ele>
        <time>2017-11-19T08:32:08.000Z</time>
      </trkpt>
      <trkpt lat="45.19241" lon="0.69822">
        <ele>128</ele>
        <time>2017-11-19T08:32:11.000Z</time>
      </trkpt>
      <trkpt lat="45.19249" lon="0.69815">
        <ele>127</ele>
        <time>2017-11-19T08:32:13.000Z</time>
      </trkpt>
      <trkpt lat="45.19261" lon="0.69821">
        <ele>129</ele>
        <time>2017-11-19T08:32:16.000Z</time>
      </trkpt>
      <trkpt lat="45.19271" lon="0.69824">
        <ele>130</ele>
        <time>2017-11-19T08:32:19.000Z</time>
      </trkpt>
      <trkpt lat="45.1928" lon="0.69817">
        <ele>132</ele>
        <time>2017-11-19T08:32:22.000Z</time>
      </trkpt>
      <trkpt lat="45.19289" lon="0.6981">
        <ele>131</ele>
        <time>2017-11-19T08:32:25.000Z</time>
      </trkpt>
      <trkpt lat="45.193" lon="0.69812">
        <ele>133</ele>
        <time>2017-11-19T08:32:28.000Z</time>
      </trkpt>
      <trkpt lat="45.1931" lon="0.69808">
        <ele>133</ele>
        <time>2017-11-19T08:32:31.000Z</time>
      </trkpt>
      <trkpt lat="45.1932" lon="0.698">
        <ele>131</ele>
        <time>2017-11-19T08:32:34.000Z</time>
      </trkpt>
      <trkpt lat="45.19331" lon="0.69793">
        <ele>131</ele>
        <time>2017-11-19T08:32:37.000Z</time>
      </trkpt>
      <trkpt lat="45.1934" lon="0.69787">
        <ele>131</ele>
        <time>2017-11-19T08:32:39.000Z</time>
      </trkpt>
      <trkpt lat="45.19351" lon="0.69785">
        <ele>130</ele>
        <time>2017-11-19T08:32:41.000Z</time>
      </trkpt>
      <trkpt lat="45.1936" lon="0.69779">
        <ele>130</ele>
        <time>2017-11-19T08:32:43.000Z</time>
      </trkpt>
      <trkpt lat="45.19368" lon="0.69775">
        <ele>132</ele>
        <time>2017-11-19T08:32:45.000Z</time>
      </trkpt>
      <trkpt lat="45.19378" lon="0.6977">
        <ele>131</ele>
        <time>2017-11-19T08:32:47.000Z</time>
      </trkpt>
      <trkpt lat="45.19387" lon="0.69768">
        <ele>131</ele>
        <time>2017-11-19T08:32:49.000Z</time>
      </trkpt>
      <trkpt lat="45.19396" lon="0.69762">
        <ele>132</ele>
        <time>2017-11-19T08:32:51.000Z</time>
      </trkpt>
      <trkpt lat="45.19405" lon="0.69758">
        <ele>131</ele>
        <time>2017-11-19T08:32:53.000Z</time>
      </trkpt>
      <trkpt lat="45.19414" lon="0.69758">
        <ele>129</ele>
        <time>2017-11-19T08:32:55.000Z</time>
      </trkpt>
      <trkpt lat="45.19426" lon="0.69753">
        <ele>129</ele>
        <time>2017-11-19T08:32:58.000Z</time>
      </trkpt>
      <trkpt lat="45.19436" lon="0.69747">
        <ele>130</ele>
        <time>2017-11-19T08:33:00.000Z</time>
      </trkpt>
      <trkpt lat="45.19445" lon="0.69746">
        <ele>132</ele>
        <time>2017-11-19T08:33:02.000Z</time>
      </trkpt>
      <trkpt lat="45.19457" lon="0.6974">
        <ele>130</ele>
        <time>2017-11-19T08:33:05.000Z</time>
      </trkpt>
      <trkpt lat="45.19469" lon="0.69735">
        <ele>129</ele>
        <time>2017-11-19T08:33:08.000Z</time>
      </trkpt>
      <trkpt lat="45.19478" lon="0.69731">
        <ele>130</ele>
        <time>2017-11-19T08:33:10.000Z</time>
      </trkpt>
      <trkpt lat="45.19488" lon="0.69727">
        <ele>129</ele>
        <time>2017-11-19T08:33:12.000Z</time>
      </trkpt>
      <trkpt lat="45.19497" lon="0.69723">
        <ele>130</ele>
        <time>2017-11-19T08:33:14.000Z</time>
      </trkpt>
      <trkpt lat="45.1951" lon="0.69715">
        <ele>132</ele>
        <time>2017-11-19T08:33:17.000Z</time>
      </trkpt>
      <trkpt lat="45.19519" lon="0.69711">
        <ele>132</ele>
        <time>2017-11-19T08:33:19.000Z</time>
      </trkpt>
      <trkpt lat="45.19528" lon="0.69705">
        <ele>131</ele>
        <time>2017-11-19T08:33:21.000Z</time>
      </trkpt>
      <trkpt lat="45.19539" lon="0.69701">
        <ele>130</ele>
        <time>2017-11-19T08:33:23.000Z</time>
      </trkpt>
      <trkpt lat="45.19547" lon="0.69695">
        <ele>129</ele>
        <time>2017-11-19T08:33:25.000Z</time>
      </trkpt>
      <trkpt lat="45.19556" lon="0.69691">
        <ele>129</ele>
        <time>2017-11-19T08:33:27.000Z</time>
      </trkpt>
      <trkpt lat="45.19566" lon="0.69688">
        <ele>130</ele>
        <time>2017-11-19T08:33:29.000Z</time>
      </trkpt>
      <trkpt lat="45.19579" lon="0.69682">
        <ele>131</ele>
        <time>2017-11-19T08:33:32.000Z</time>
      </trkpt>
      <trkpt lat="45.19592" lon="0.69677">
        <ele>129</ele>
        <time>2017-11-19T08:33:35.000Z</time>
      </trkpt>
      <trkpt lat="45.19601" lon="0.69673">
        <ele>128</ele>
        <time>2017-11-19T08:33:37.000Z</time>
      </trkpt>
      <trkpt lat="45.19611" lon="0.69668">
        <ele>126</ele>
        <time>2017-11-19T08:33:40.000Z</time>
      </trkpt>
      <trkpt lat="45.19624" lon="0.69657">
        <ele>127</ele>
        <time>2017-11-19T08:33:43.000Z</time>
      </trkpt>
      <trkpt lat="45.19634" lon="0.69654">
        <ele>129</ele>
        <time>2017-11-19T08:33:45.000Z</time>
      </trkpt>
      <trkpt lat="45.19643" lon="0.69649">
        <ele>130</ele>
        <time>2017-11-19T08:33:47.000Z</time>
      </trkpt>
      <trkpt lat="45.19652" lon="0.69644">
        <ele>130</ele>
        <time>2017-11-19T08:33:49.000Z</time>
      </trkpt>
      <trkpt lat="45.19661" lon="0.69637">
        <ele>131</ele>
        <time>2017-11-19T08:33:51.000Z</time>
      </trkpt>
      <trkpt lat="45.19671" lon="0.69633">
        <ele>130</ele>
        <time>2017-11-19T08:33:53.000Z</time>
      </trkpt>
      <trkpt lat="45.1968" lon="0.69626">
        <ele>129</ele>
        <time>2017-11-19T08:33:55.000Z</time>
      </trkpt>
      <trkpt lat="45.1969" lon="0.6962">
        <ele>128</ele>
        <time>2017-11-19T08:33:57.000Z</time>
      </trkpt>
      <trkpt lat="45.197" lon="0.69614">
        <ele>128</ele>
        <time>2017-11-19T08:33:59.000Z</time>
      </trkpt>
      <trkpt lat="45.19709" lon="0.6961">
        <ele>128</ele>
        <time>2017-11-19T08:34:01.000Z</time>
      </trkpt>
      <trkpt lat="45.19723" lon="0.69606">
        <ele>126</ele>
        <time>2017-11-19T08:34:04.000Z</time>
      </trkpt>
      <trkpt lat="45.19734" lon="0.69601">
        <ele>126</ele>
        <time>2017-11-19T08:34:06.000Z</time>
      </trkpt>
      <trkpt lat="45.19744" lon="0.69597">
        <ele>126</ele>
        <time>2017-11-19T08:34:08.000Z</time>
      </trkpt>
      <trkpt lat="45.19754" lon="0.69594">
        <ele>126</ele>
        <time>2017-11-19T08:34:11.000Z</time>
      </trkpt>
      <trkpt lat="45.19764" lon="0.69587">
        <ele>125</ele>
        <time>2017-11-19T08:34:13.000Z</time>
      </trkpt>
      <trkpt lat="45.19774" lon="0.69581">
        <ele>125</ele>
        <time>2017-11-19T08:34:15.000Z</time>
      </trkpt>
      <trkpt lat="45.19787" lon="0.69574">
        <ele>127</ele>
        <time>2017-11-19T08:34:18.000Z</time>
      </trkpt>
      <trkpt lat="45.19804" lon="0.69566">
        <ele>125</ele>
        <time>2017-11-19T08:34:22.000Z</time>
      </trkpt>
      <trkpt lat="45.19814" lon="0.69564">
        <ele>123</ele>
        <time>2017-11-19T08:34:24.000Z</time>
      </trkpt>
      <trkpt lat="45.19823" lon="0.69559">
        <ele>124</ele>
        <time>2017-11-19T08:34:26.000Z</time>
      </trkpt>
      <trkpt lat="45.19835" lon="0.69551">
        <ele>125</ele>
        <time>2017-11-19T08:34:29.000Z</time>
      </trkpt>
      <trkpt lat="45.19844" lon="0.69546">
        <ele>124</ele>
        <time>2017-11-19T08:34:32.000Z</time>
      </trkpt>
      <trkpt lat="45.19853" lon="0.69538">
        <ele>123</ele>
        <time>2017-11-19T08:34:35.000Z</time>
      </trkpt>
      <trkpt lat="45.19862" lon="0.69531">
        <ele>124</ele>
        <time>2017-11-19T08:34:38.000Z</time>
      </trkpt>
      <trkpt lat="45.19872" lon="0.69524">
        <ele>124</ele>
        <time>2017-11-19T08:34:42.000Z</time>
      </trkpt>
      <trkpt lat="45.19881" lon="0.69522">
        <ele>124</ele>
        <time>2017-11-19T08:34:47.000Z</time>
      </trkpt>
      <trkpt lat="45.19876" lon="0.69544">
        <ele>125</ele>
        <time>2017-11-19T08:34:53.000Z</time>
      </trkpt>
      <trkpt lat="45.1987" lon="0.69562">
        <ele>124</ele>
        <time>2017-11-19T08:34:56.000Z</time>
      </trkpt>
      <trkpt lat="45.1987" lon="0.6958">
        <ele>122</ele>
        <time>2017-11-19T08:34:59.000Z</time>
      </trkpt>
      <trkpt lat="45.19865" lon="0.69594">
        <ele>121</ele>
        <time>2017-11-19T08:35:03.000Z</time>
      </trkpt>
      <trkpt lat="45.19862" lon="0.69609">
        <ele>123</ele>
        <time>2017-11-19T08:35:06.000Z</time>
      </trkpt>
      <trkpt lat="45.19864" lon="0.69622">
        <ele>124</ele>
        <time>2017-11-19T08:35:09.000Z</time>
      </trkpt>
      <trkpt lat="45.19862" lon="0.69642">
        <ele>126</ele>
        <time>2017-11-19T08:35:14.000Z</time>
      </trkpt>
      <trkpt lat="45.19859" lon="0.69659">
        <ele>128</ele>
        <time>2017-11-19T08:35:18.000Z</time>
      </trkpt>
      <trkpt lat="45.19855" lon="0.69673">
        <ele>131</ele>
        <time>2017-11-19T08:35:21.000Z</time>
      </trkpt>
      <trkpt lat="45.19849" lon="0.69686">
        <ele>132</ele>
        <time>2017-11-19T08:35:25.000Z</time>
      </trkpt>
      <trkpt lat="45.19848" lon="0.69702">
        <ele>132</ele>
        <time>2017-11-19T08:35:31.000Z</time>
      </trkpt>
      <trkpt lat="45.19851" lon="0.69718">
        <ele>135</ele>
        <time>2017-11-19T08:35:34.000Z</time>
      </trkpt>
      <trkpt lat="45.19855" lon="0.69732">
        <ele>134</ele>
        <time>2017-11-19T08:35:37.000Z</time>
      </trkpt>
      <trkpt lat="45.19861" lon="0.69743">
        <ele>131</ele>
        <time>2017-11-19T08:35:40.000Z</time>
      </trkpt>
      <trkpt lat="45.19869" lon="0.6976">
        <ele>133</ele>
        <time>2017-11-19T08:35:44.000Z</time>
      </trkpt>
      <trkpt lat="45.19873" lon="0.69774">
        <ele>133</ele>
        <time>2017-11-19T08:35:47.000Z</time>
      </trkpt>
      <trkpt lat="45.19875" lon="0.69786">
        <ele>132</ele>
        <time>2017-11-19T08:35:50.000Z</time>
      </trkpt>
      <trkpt lat="45.19882" lon="0.69798">
        <ele>135</ele>
        <time>2017-11-19T08:35:53.000Z</time>
      </trkpt>
      <trkpt lat="45.19888" lon="0.69809">
        <ele>136</ele>
        <time>2017-11-19T08:35:57.000Z</time>
      </trkpt>
      <trkpt lat="45.19897" lon="0.69815">
        <ele>133</ele>
        <time>2017-11-19T08:36:02.000Z</time>
      </trkpt>
      <trkpt lat="45.19905" lon="0.69804">
        <ele>132</ele>
        <time>2017-11-19T08:36:05.000Z</time>
      </trkpt>
      <trkpt lat="45.19912" lon="0.69796">
        <ele>131</ele>
        <time>2017-11-19T08:36:09.000Z</time>
      </trkpt>
      <trkpt lat="45.1992" lon="0.6979">
        <ele>131</ele>
        <time>2017-11-19T08:36:13.000Z</time>
      </trkpt>
      <trkpt lat="45.19928" lon="0.69781">
        <ele>134</ele>
        <time>2017-11-19T08:36:19.000Z</time>
      </trkpt>
      <trkpt lat="45.19941" lon="0.69788">
        <ele>132</ele>
        <time>2017-11-19T08:36:24.000Z</time>
      </trkpt>
      <trkpt lat="45.19943" lon="0.69804">
        <ele>132</ele>
        <time>2017-11-19T08:36:30.000Z</time>
      </trkpt>
      <trkpt lat="45.19954" lon="0.69806">
        <ele>136</ele>
        <time>2017-11-19T08:37:03.000Z</time>
      </trkpt>
      <trkpt lat="45.19964" lon="0.69811">
        <ele>133</ele>
        <time>2017-11-19T08:37:07.000Z</time>
      </trkpt>
      <trkpt lat="45.19974" lon="0.69818">
        <ele>131</ele>
        <time>2017-11-19T08:37:11.000Z</time>
      </trkpt>
      <trkpt lat="45.19985" lon="0.69824">
        <ele>133</ele>
        <time>2017-11-19T08:37:14.000Z</time>
      </trkpt>
      <trkpt lat="45.19999" lon="0.69825">
        <ele>133</ele>
        <time>2017-11-19T08:37:18.000Z</time>
      </trkpt>
      <trkpt lat="45.20005" lon="0.69836">
        <ele>133</ele>
        <time>2017-11-19T08:37:21.000Z</time>
      </trkpt>
      <trkpt lat="45.20009" lon="0.69848">
        <ele>133</ele>
        <time>2017-11-19T08:37:24.000Z</time>
      </trkpt>
      <trkpt lat="45.20016" lon="0.69857">
        <ele>133</ele>
        <time>2017-11-19T08:37:27.000Z</time>
      </trkpt>
      <trkpt lat="45.20027" lon="0.69858">
        <ele>133</ele>
        <time>2017-11-19T08:37:32.000Z</time>
      </trkpt>
      <trkpt lat="45.20037" lon="0.69849">
        <ele>135</ele>
        <time>2017-11-19T08:37:36.000Z</time>
      </trkpt>
      <trkpt lat="45.20044" lon="0.69839">
        <ele>136</ele>
        <time>2017-11-19T08:37:39.000Z</time>
      </trkpt>
      <trkpt lat="45.20052" lon="0.6983">
        <ele>136</ele>
        <time>2017-11-19T08:37:42.000Z</time>
      </trkpt>
      <trkpt lat="45.20068" lon="0.6982">
        <ele>131</ele>
        <time>2017-11-19T08:37:48.000Z</time>
      </trkpt>
      <trkpt lat="45.20079" lon="0.69814">
        <ele>131</ele>
        <time>2017-11-19T08:37:51.000Z</time>
      </trkpt>
      <trkpt lat="45.20091" lon="0.69799">
        <ele>133</ele>
        <time>2017-11-19T08:37:55.000Z</time>
      </trkpt>
      <trkpt lat="45.20094" lon="0.69783">
        <ele>134</ele>
        <time>2017-11-19T08:37:58.000Z</time>
      </trkpt>
      <trkpt lat="45.20104" lon="0.69773">
        <ele>134</ele>
        <time>2017-11-19T08:38:02.000Z</time>
      </trkpt>
      <trkpt lat="45.20113" lon="0.6978">
        <ele>135</ele>
        <time>2017-11-19T08:38:05.000Z</time>
      </trkpt>
      <trkpt lat="45.20123" lon="0.69787">
        <ele>134</ele>
        <time>2017-11-19T08:38:08.000Z</time>
      </trkpt>
      <trkpt lat="45.20134" lon="0.69793">
        <ele>132</ele>
        <time>2017-11-19T08:38:11.000Z</time>
      </trkpt>
      <trkpt lat="45.20142" lon="0.698">
        <ele>132</ele>
        <time>2017-11-19T08:38:14.000Z</time>
      </trkpt>
      <trkpt lat="45.20153" lon="0.69807">
        <ele>132</ele>
        <time>2017-11-19T08:38:17.000Z</time>
      </trkpt>
      <trkpt lat="45.20163" lon="0.69814">
        <ele>132</ele>
        <time>2017-11-19T08:38:20.000Z</time>
      </trkpt>
      <trkpt lat="45.20172" lon="0.6982">
        <ele>131</ele>
        <time>2017-11-19T08:38:23.000Z</time>
      </trkpt>
      <trkpt lat="45.20182" lon="0.69828">
        <ele>132</ele>
        <time>2017-11-19T08:38:26.000Z</time>
      </trkpt>
      <trkpt lat="45.2019" lon="0.69832">
        <ele>133</ele>
        <time>2017-11-19T08:38:28.000Z</time>
      </trkpt>
      <trkpt lat="45.202" lon="0.69838">
        <ele>134</ele>
        <time>2017-11-19T08:38:31.000Z</time>
      </trkpt>
      <trkpt lat="45.20209" lon="0.69844">
        <ele>134</ele>
        <time>2017-11-19T08:38:34.000Z</time>
      </trkpt>
      <trkpt lat="45.20219" lon="0.6985">
        <ele>135</ele>
        <time>2017-11-19T08:38:37.000Z</time>
      </trkpt>
      <trkpt lat="45.20228" lon="0.69854">
        <ele>136</ele>
        <time>2017-11-19T08:38:39.000Z</time>
      </trkpt>
      <trkpt lat="45.20239" lon="0.69859">
        <ele>133</ele>
        <time>2017-11-19T08:38:42.000Z</time>
      </trkpt>
      <trkpt lat="45.20251" lon="0.69862">
        <ele>133</ele>
        <time>2017-11-19T08:38:46.000Z</time>
      </trkpt>
      <trkpt lat="45.20264" lon="0.69864">
        <ele>135</ele>
        <time>2017-11-19T08:38:49.000Z</time>
      </trkpt>
      <trkpt lat="45.20277" lon="0.69866">
        <ele>132</ele>
        <time>2017-11-19T08:38:52.000Z</time>
      </trkpt>
      <trkpt lat="45.20289" lon="0.6987">
        <ele>133</ele>
        <time>2017-11-19T08:38:55.000Z</time>
      </trkpt>
      <trkpt lat="45.20301" lon="0.69876">
        <ele>134</ele>
        <time>2017-11-19T08:38:58.000Z</time>
      </trkpt>
      <trkpt lat="45.20313" lon="0.69884">
        <ele>134</ele>
        <time>2017-11-19T08:39:01.000Z</time>
      </trkpt>
      <trkpt lat="45.20323" lon="0.69894">
        <ele>135</ele>
        <time>2017-11-19T08:39:04.000Z</time>
      </trkpt>
      <trkpt lat="45.20333" lon="0.69903">
        <ele>136</ele>
        <time>2017-11-19T08:39:07.000Z</time>
      </trkpt>
      <trkpt lat="45.20343" lon="0.69912">
        <ele>138</ele>
        <time>2017-11-19T08:39:10.000Z</time>
      </trkpt>
      <trkpt lat="45.20353" lon="0.6992">
        <ele>139</ele>
        <time>2017-11-19T08:39:13.000Z</time>
      </trkpt>
      <trkpt lat="45.20363" lon="0.69927">
        <ele>139</ele>
        <time>2017-11-19T08:39:17.000Z</time>
      </trkpt>
      <trkpt lat="45.20371" lon="0.69935">
        <ele>140</ele>
        <time>2017-11-19T08:39:21.000Z</time>
      </trkpt>
      <trkpt lat="45.20381" lon="0.69943">
        <ele>141</ele>
        <time>2017-11-19T08:39:26.000Z</time>
      </trkpt>
      <trkpt lat="45.20389" lon="0.6995">
        <ele>141</ele>
        <time>2017-11-19T08:39:30.000Z</time>
      </trkpt>
      <trkpt lat="45.204" lon="0.69959">
        <ele>143</ele>
        <time>2017-11-19T08:39:36.000Z</time>
      </trkpt>
      <trkpt lat="45.20408" lon="0.69964">
        <ele>146</ele>
        <time>2017-11-19T08:39:41.000Z</time>
      </trkpt>
      <trkpt lat="45.20418" lon="0.69967">
        <ele>149</ele>
        <time>2017-11-19T08:39:46.000Z</time>
      </trkpt>
      <trkpt lat="45.20427" lon="0.69974">
        <ele>151</ele>
        <time>2017-11-19T08:39:51.000Z</time>
      </trkpt>
      <trkpt lat="45.20432" lon="0.69986">
        <ele>149</ele>
        <time>2017-11-19T08:39:59.000Z</time>
      </trkpt>
      <trkpt lat="45.2044" lon="0.69996">
        <ele>149</ele>
        <time>2017-11-19T08:40:04.000Z</time>
      </trkpt>
      <trkpt lat="45.20449" lon="0.70003">
        <ele>150</ele>
        <time>2017-11-19T08:40:08.000Z</time>
      </trkpt>
      <trkpt lat="45.20458" lon="0.70009">
        <ele>150</ele>
        <time>2017-11-19T08:40:12.000Z</time>
      </trkpt>
      <trkpt lat="45.2047" lon="0.70013">
        <ele>151</ele>
        <time>2017-11-19T08:40:17.000Z</time>
      </trkpt>
      <trkpt lat="45.20482" lon="0.70019">
        <ele>149</ele>
        <time>2017-11-19T08:40:23.000Z</time>
      </trkpt>
      <trkpt lat="45.20491" lon="0.70025">
        <ele>148</ele>
        <time>2017-11-19T08:40:28.000Z</time>
      </trkpt>
      <trkpt lat="45.20502" lon="0.70023">
        <ele>149</ele>
        <time>2017-11-19T08:40:36.000Z</time>
      </trkpt>
      <trkpt lat="45.20511" lon="0.70026">
        <ele>152</ele>
        <time>2017-11-19T08:40:40.000Z</time>
      </trkpt>
      <trkpt lat="45.2052" lon="0.70034">
        <ele>153</ele>
        <time>2017-11-19T08:40:44.000Z</time>
      </trkpt>
      <trkpt lat="45.2053" lon="0.70038">
        <ele>154</ele>
        <time>2017-11-19T08:40:51.000Z</time>
      </trkpt>
      <trkpt lat="45.20541" lon="0.70036">
        <ele>155</ele>
        <time>2017-11-19T08:40:56.000Z</time>
      </trkpt>
      <trkpt lat="45.20549" lon="0.70035">
        <ele>154</ele>
        <time>2017-11-19T08:41:02.000Z</time>
      </trkpt>
      <trkpt lat="45.20558" lon="0.70039">
        <ele>152</ele>
        <time>2017-11-19T08:41:05.000Z</time>
      </trkpt>
      <trkpt lat="45.20567" lon="0.70043">
        <ele>152</ele>
        <time>2017-11-19T08:41:09.000Z</time>
      </trkpt>
      <trkpt lat="45.20576" lon="0.70045">
        <ele>153</ele>
        <time>2017-11-19T08:41:13.000Z</time>
      </trkpt>
      <trkpt lat="45.20586" lon="0.70048">
        <ele>154</ele>
        <time>2017-11-19T08:41:19.000Z</time>
      </trkpt>
      <trkpt lat="45.20596" lon="0.70054">
        <ele>155</ele>
        <time>2017-11-19T08:41:24.000Z</time>
      </trkpt>
      <trkpt lat="45.20606" lon="0.70059">
        <ele>155</ele>
        <time>2017-11-19T08:41:27.000Z</time>
      </trkpt>
      <trkpt lat="45.20615" lon="0.70067">
        <ele>156</ele>
        <time>2017-11-19T08:41:31.000Z</time>
      </trkpt>
      <trkpt lat="45.20623" lon="0.70074">
        <ele>155</ele>
        <time>2017-11-19T08:41:36.000Z</time>
      </trkpt>
      <trkpt lat="45.20633" lon="0.70083">
        <ele>156</ele>
        <time>2017-11-19T08:41:42.000Z</time>
      </trkpt>
      <trkpt lat="45.2064" lon="0.70093">
        <ele>157</ele>
        <time>2017-11-19T08:41:49.000Z</time>
      </trkpt>
      <trkpt lat="45.20647" lon="0.70101">
        <ele>160</ele>
        <time>2017-11-19T08:41:58.000Z</time>
      </trkpt>
      <trkpt lat="45.20656" lon="0.70109">
        <ele>160</ele>
        <time>2017-11-19T08:42:02.000Z</time>
      </trkpt>
      <trkpt lat="45.20664" lon="0.70116">
        <ele>160</ele>
        <time>2017-11-19T08:42:05.000Z</time>
      </trkpt>
      <trkpt lat="45.20674" lon="0.70123">
        <ele>161</ele>
        <time>2017-11-19T08:42:10.000Z</time>
      </trkpt>
      <trkpt lat="45.20684" lon="0.7013">
        <ele>163</ele>
        <time>2017-11-19T08:42:15.000Z</time>
      </trkpt>
      <trkpt lat="45.20693" lon="0.7014">
        <ele>161</ele>
        <time>2017-11-19T08:42:21.000Z</time>
      </trkpt>
      <trkpt lat="45.20702" lon="0.70145">
        <ele>165</ele>
        <time>2017-11-19T08:42:25.000Z</time>
      </trkpt>
      <trkpt lat="45.20711" lon="0.70151">
        <ele>163</ele>
        <time>2017-11-19T08:42:30.000Z</time>
      </trkpt>
      <trkpt lat="45.20721" lon="0.7016">
        <ele>163</ele>
        <time>2017-11-19T08:42:36.000Z</time>
      </trkpt>
      <trkpt lat="45.20729" lon="0.70171">
        <ele>154</ele>
        <time>2017-11-19T08:42:41.000Z</time>
      </trkpt>
      <trkpt lat="45.20737" lon="0.7018">
        <ele>164</ele>
        <time>2017-11-19T08:42:46.000Z</time>
      </trkpt>
      <trkpt lat="45.20739" lon="0.70194">
        <ele>159</ele>
        <time>2017-11-19T08:42:51.000Z</time>
      </trkpt>
      <trkpt lat="45.20729" lon="0.70195">
        <ele>164</ele>
        <time>2017-11-19T08:42:56.000Z</time>
      </trkpt>
      <trkpt lat="45.20717" lon="0.70191">
        <ele>157</ele>
        <time>2017-11-19T08:43:01.000Z</time>
      </trkpt>
      <trkpt lat="45.20709" lon="0.70184">
        <ele>164</ele>
        <time>2017-11-19T08:43:05.000Z</time>
      </trkpt>
      <trkpt lat="45.207" lon="0.7018">
        <ele>169</ele>
        <time>2017-11-19T08:43:09.000Z</time>
      </trkpt>
      <trkpt lat="45.2069" lon="0.70177">
        <ele>168</ele>
        <time>2017-11-19T08:43:16.000Z</time>
      </trkpt>
      <trkpt lat="45.20678" lon="0.70172">
        <ele>167</ele>
        <time>2017-11-19T08:43:21.000Z</time>
      </trkpt>
      <trkpt lat="45.20669" lon="0.70166">
        <ele>169</ele>
        <time>2017-11-19T08:43:25.000Z</time>
      </trkpt>
      <trkpt lat="45.2066" lon="0.70164">
        <ele>170</ele>
        <time>2017-11-19T08:43:32.000Z</time>
      </trkpt>
      <trkpt lat="45.20651" lon="0.7016">
        <ele>168</ele>
        <time>2017-11-19T08:43:39.000Z</time>
      </trkpt>
      <trkpt lat="45.20642" lon="0.70155">
        <ele>170</ele>
        <time>2017-11-19T08:43:43.000Z</time>
      </trkpt>
      <trkpt lat="45.20631" lon="0.70153">
        <ele>172</ele>
        <time>2017-11-19T08:43:50.000Z</time>
      </trkpt>
      <trkpt lat="45.20618" lon="0.7015">
        <ele>173</ele>
        <time>2017-11-19T08:43:55.000Z</time>
      </trkpt>
      <trkpt lat="45.20608" lon="0.70147">
        <ele>171</ele>
        <time>2017-11-19T08:43:59.000Z</time>
      </trkpt>
      <trkpt lat="45.20598" lon="0.70144">
        <ele>171</ele>
        <time>2017-11-19T08:44:04.000Z</time>
      </trkpt>
      <trkpt lat="45.20587" lon="0.70145">
        <ele>175</ele>
        <time>2017-11-19T08:44:09.000Z</time>
      </trkpt>
      <trkpt lat="45.20577" lon="0.70144">
        <ele>177</ele>
        <time>2017-11-19T08:44:15.000Z</time>
      </trkpt>
      <trkpt lat="45.20564" lon="0.7014">
        <ele>177</ele>
        <time>2017-11-19T08:44:22.000Z</time>
      </trkpt>
      <trkpt lat="45.20554" lon="0.70142">
        <ele>178</ele>
        <time>2017-11-19T08:44:27.000Z</time>
      </trkpt>
      <trkpt lat="45.20543" lon="0.70142">
        <ele>180</ele>
        <time>2017-11-19T08:44:33.000Z</time>
      </trkpt>
      <trkpt lat="45.20533" lon="0.70145">
        <ele>178</ele>
        <time>2017-11-19T08:44:37.000Z</time>
      </trkpt>
      <trkpt lat="45.20521" lon="0.70147">
        <ele>176</ele>
        <time>2017-11-19T08:44:42.000Z</time>
      </trkpt>
      <trkpt lat="45.20511" lon="0.70151">
        <ele>176</ele>
        <time>2017-11-19T08:44:48.000Z</time>
      </trkpt>
      <trkpt lat="45.20502" lon="0.70155">
        <ele>178</ele>
        <time>2017-11-19T08:44:54.000Z</time>
      </trkpt>
      <trkpt lat="45.20493" lon="0.70162">
        <ele>181</ele>
        <time>2017-11-19T08:44:59.000Z</time>
      </trkpt>
      <trkpt lat="45.20485" lon="0.70169">
        <ele>181</ele>
        <time>2017-11-19T08:45:03.000Z</time>
      </trkpt>
      <trkpt lat="45.20477" lon="0.70179">
        <ele>178</ele>
        <time>2017-11-19T08:45:08.000Z</time>
      </trkpt>
      <trkpt lat="45.2047" lon="0.7019">
        <ele>179</ele>
        <time>2017-11-19T08:45:12.000Z</time>
      </trkpt>
      <trkpt lat="45.20464" lon="0.70201">
        <ele>160</ele>
        <time>2017-11-19T08:45:17.000Z</time>
      </trkpt>
      <trkpt lat="45.20459" lon="0.70214">
        <ele>175</ele>
        <time>2017-11-19T08:45:22.000Z</time>
      </trkpt>
      <trkpt lat="45.20452" lon="0.70222">
        <ele>177</ele>
        <time>2017-11-19T08:45:27.000Z</time>
      </trkpt>
      <trkpt lat="45.20444" lon="0.70235">
        <ele>182</ele>
        <time>2017-11-19T08:45:34.000Z</time>
      </trkpt>
      <trkpt lat="45.20437" lon="0.70247">
        <ele>185</ele>
        <time>2017-11-19T08:45:41.000Z</time>
      </trkpt>
      <trkpt lat="45.20428" lon="0.70258">
        <ele>184</ele>
        <time>2017-11-19T08:45:47.000Z</time>
      </trkpt>
      <trkpt lat="45.20419" lon="0.70268">
        <ele>187</ele>
        <time>2017-11-19T08:45:54.000Z</time>
      </trkpt>
      <trkpt lat="45.20412" lon="0.70278">
        <ele>199</ele>
        <time>2017-11-19T08:45:58.000Z</time>
      </trkpt>
      <trkpt lat="45.20401" lon="0.70283">
        <ele>191</ele>
        <time>2017-11-19T08:46:04.000Z</time>
      </trkpt>
      <trkpt lat="45.20392" lon="0.70279">
        <ele>189</ele>
        <time>2017-11-19T08:46:09.000Z</time>
      </trkpt>
      <trkpt lat="45.20388" lon="0.70266">
        <ele>187</ele>
        <time>2017-11-19T08:46:14.000Z</time>
      </trkpt>
      <trkpt lat="45.20386" lon="0.70252">
        <ele>189</ele>
        <time>2017-11-19T08:46:19.000Z</time>
      </trkpt>
      <trkpt lat="45.2038" lon="0.70241">
        <ele>189</ele>
        <time>2017-11-19T08:46:24.000Z</time>
      </trkpt>
      <trkpt lat="45.20374" lon="0.70232">
        <ele>187</ele>
        <time>2017-11-19T08:46:29.000Z</time>
      </trkpt>
      <trkpt lat="45.20364" lon="0.70235">
        <ele>188</ele>
        <time>2017-11-19T08:46:35.000Z</time>
      </trkpt>
      <trkpt lat="45.20355" lon="0.70241">
        <ele>189</ele>
        <time>2017-11-19T08:46:42.000Z</time>
      </trkpt>
      <trkpt lat="45.20345" lon="0.70246">
        <ele>193</ele>
        <time>2017-11-19T08:46:49.000Z</time>
      </trkpt>
      <trkpt lat="45.20339" lon="0.70259">
        <ele>195</ele>
        <time>2017-11-19T08:46:57.000Z</time>
      </trkpt>
      <trkpt lat="45.20342" lon="0.70272">
        <ele>197</ele>
        <time>2017-11-19T08:47:05.000Z</time>
      </trkpt>
      <trkpt lat="45.20342" lon="0.70285">
        <ele>198</ele>
        <time>2017-11-19T08:47:14.000Z</time>
      </trkpt>
      <trkpt lat="45.20339" lon="0.70297">
        <ele>201</ele>
        <time>2017-11-19T08:47:21.000Z</time>
      </trkpt>
      <trkpt lat="45.20336" lon="0.7031">
        <ele>201</ele>
        <time>2017-11-19T08:47:28.000Z</time>
      </trkpt>
      <trkpt lat="45.20334" lon="0.70322">
        <ele>199</ele>
        <time>2017-11-19T08:47:36.000Z</time>
      </trkpt>
      <trkpt lat="45.20335" lon="0.70337">
        <ele>199</ele>
        <time>2017-11-19T08:47:43.000Z</time>
      </trkpt>
      <trkpt lat="45.20342" lon="0.70348">
        <ele>198</ele>
        <time>2017-11-19T08:47:49.000Z</time>
      </trkpt>
      <trkpt lat="45.20345" lon="0.70362">
        <ele>203</ele>
        <time>2017-11-19T08:47:55.000Z</time>
      </trkpt>
      <trkpt lat="45.20343" lon="0.70374">
        <ele>202</ele>
        <time>2017-11-19T08:48:05.000Z</time>
      </trkpt>
      <trkpt lat="45.20345" lon="0.70388">
        <ele>202</ele>
        <time>2017-11-19T08:48:12.000Z</time>
      </trkpt>
      <trkpt lat="45.20348" lon="0.70402">
        <ele>203</ele>
        <time>2017-11-19T08:48:17.000Z</time>
      </trkpt>
      <trkpt lat="45.20353" lon="0.70413">
        <ele>205</ele>
        <time>2017-11-19T08:48:23.000Z</time>
      </trkpt>
      <trkpt lat="45.20356" lon="0.70425">
        <ele>205</ele>
        <time>2017-11-19T08:48:28.000Z</time>
      </trkpt>
      <trkpt lat="45.20364" lon="0.70438">
        <ele>208</ele>
        <time>2017-11-19T08:48:36.000Z</time>
      </trkpt>
      <trkpt lat="45.20369" lon="0.70451">
        <ele>211</ele>
        <time>2017-11-19T08:48:41.000Z</time>
      </trkpt>
      <trkpt lat="45.20375" lon="0.70462">
        <ele>213</ele>
        <time>2017-11-19T08:48:46.000Z</time>
      </trkpt>
      <trkpt lat="45.2038" lon="0.70473">
        <ele>210</ele>
        <time>2017-11-19T08:48:50.000Z</time>
      </trkpt>
      <trkpt lat="45.2039" lon="0.70484">
        <ele>214</ele>
        <time>2017-11-19T08:48:56.000Z</time>
      </trkpt>
      <trkpt lat="45.20399" lon="0.70489">
        <ele>211</ele>
        <time>2017-11-19T08:49:02.000Z</time>
      </trkpt>
      <trkpt lat="45.20409" lon="0.7049">
        <ele>209</ele>
        <time>2017-11-19T08:49:09.000Z</time>
      </trkpt>
      <trkpt lat="45.20418" lon="0.70489">
        <ele>208</ele>
        <time>2017-11-19T08:49:14.000Z</time>
      </trkpt>
      <trkpt lat="45.20428" lon="0.70489">
        <ele>212</ele>
        <time>2017-11-19T08:49:20.000Z</time>
      </trkpt>
      <trkpt lat="45.20437" lon="0.7048">
        <ele>221</ele>
        <time>2017-11-19T08:49:30.000Z</time>
      </trkpt>
      <trkpt lat="45.20446" lon="0.7048">
        <ele>223</ele>
        <time>2017-11-19T08:49:39.000Z</time>
      </trkpt>
      <trkpt lat="45.20457" lon="0.7048">
        <ele>228</ele>
        <time>2017-11-19T08:49:45.000Z</time>
      </trkpt>
      <trkpt lat="45.20466" lon="0.70472">
        <ele>229</ele>
        <time>2017-11-19T08:49:50.000Z</time>
      </trkpt>
      <trkpt lat="45.20475" lon="0.7047">
        <ele>226</ele>
        <time>2017-11-19T08:49:57.000Z</time>
      </trkpt>
      <trkpt lat="45.20484" lon="0.70472">
        <ele>228</ele>
        <time>2017-11-19T08:50:03.000Z</time>
      </trkpt>
      <trkpt lat="45.20494" lon="0.70471">
        <ele>227</ele>
        <time>2017-11-19T08:50:09.000Z</time>
      </trkpt>
      <trkpt lat="45.20503" lon="0.7047">
        <ele>226</ele>
        <time>2017-11-19T08:50:14.000Z</time>
      </trkpt>
      <trkpt lat="45.20515" lon="0.70469">
        <ele>230</ele>
        <time>2017-11-19T08:50:21.000Z</time>
      </trkpt>
      <trkpt lat="45.20525" lon="0.70468">
        <ele>228</ele>
        <time>2017-11-19T08:50:26.000Z</time>
      </trkpt>
      <trkpt lat="45.20535" lon="0.70466">
        <ele>226</ele>
        <time>2017-11-19T08:50:31.000Z</time>
      </trkpt>
      <trkpt lat="45.20545" lon="0.70466">
        <ele>223</ele>
        <time>2017-11-19T08:50:36.000Z</time>
      </trkpt>
      <trkpt lat="45.20554" lon="0.70467">
        <ele>223</ele>
        <time>2017-11-19T08:50:39.000Z</time>
      </trkpt>
      <trkpt lat="45.20565" lon="0.70463">
        <ele>224</ele>
        <time>2017-11-19T08:50:43.000Z</time>
      </trkpt>
      <trkpt lat="45.20575" lon="0.70458">
        <ele>226</ele>
        <time>2017-11-19T08:50:47.000Z</time>
      </trkpt>
      <trkpt lat="45.20584" lon="0.70459">
        <ele>203</ele>
        <time>2017-11-19T08:50:51.000Z</time>
      </trkpt>
      <trkpt lat="45.20594" lon="0.70464">
        <ele>221</ele>
        <time>2017-11-19T08:50:57.000Z</time>
      </trkpt>
      <trkpt lat="45.20603" lon="0.70474">
        <ele>224</ele>
        <time>2017-11-19T08:51:02.000Z</time>
      </trkpt>
      <trkpt lat="45.2061" lon="0.70483">
        <ele>224</ele>
        <time>2017-11-19T08:51:05.000Z</time>
      </trkpt>
      <trkpt lat="45.20613" lon="0.70495">
        <ele>223</ele>
        <time>2017-11-19T08:51:09.000Z</time>
      </trkpt>
      <trkpt lat="45.20616" lon="0.70508">
        <ele>224</ele>
        <time>2017-11-19T08:51:13.000Z</time>
      </trkpt>
      <trkpt lat="45.20616" lon="0.70524">
        <ele>223</ele>
        <time>2017-11-19T08:51:17.000Z</time>
      </trkpt>
      <trkpt lat="45.20615" lon="0.70538">
        <ele>224</ele>
        <time>2017-11-19T08:51:21.000Z</time>
      </trkpt>
      <trkpt lat="45.20619" lon="0.70551">
        <ele>225</ele>
        <time>2017-11-19T08:51:25.000Z</time>
      </trkpt>
      <trkpt lat="45.20626" lon="0.70563">
        <ele>225</ele>
        <time>2017-11-19T08:51:29.000Z</time>
      </trkpt>
      <trkpt lat="45.20634" lon="0.70573">
        <ele>227</ele>
        <time>2017-11-19T08:51:34.000Z</time>
      </trkpt>
      <trkpt lat="45.20641" lon="0.70583">
        <ele>228</ele>
        <time>2017-11-19T08:51:38.000Z</time>
      </trkpt>
      <trkpt lat="45.20646" lon="0.70595">
        <ele>170</ele>
        <time>2017-11-19T08:51:42.000Z</time>
      </trkpt>
      <trkpt lat="45.20652" lon="0.70606">
        <ele>212</ele>
        <time>2017-11-19T08:51:46.000Z</time>
      </trkpt>
      <trkpt lat="45.20662" lon="0.70623">
        <ele>224</ele>
        <time>2017-11-19T08:51:51.000Z</time>
      </trkpt>
      <trkpt lat="45.20668" lon="0.70634">
        <ele>227</ele>
        <time>2017-11-19T08:51:54.000Z</time>
      </trkpt>
      <trkpt lat="45.20674" lon="0.70646">
        <ele>229</ele>
        <time>2017-11-19T08:51:58.000Z</time>
      </trkpt>
      <trkpt lat="45.2068" lon="0.70657">
        <ele>232</ele>
        <time>2017-11-19T08:52:02.000Z</time>
      </trkpt>
      <trkpt lat="45.20688" lon="0.7067">
        <ele>233</ele>
        <time>2017-11-19T08:52:06.000Z</time>
      </trkpt>
      <trkpt lat="45.20696" lon="0.70687">
        <ele>236</ele>
        <time>2017-11-19T08:52:11.000Z</time>
      </trkpt>
      <trkpt lat="45.20702" lon="0.70699">
        <ele>234</ele>
        <time>2017-11-19T08:52:15.000Z</time>
      </trkpt>
      <trkpt lat="45.20709" lon="0.70709">
        <ele>236</ele>
        <time>2017-11-19T08:52:19.000Z</time>
      </trkpt>
      <trkpt lat="45.20716" lon="0.70719">
        <ele>233</ele>
        <time>2017-11-19T08:52:22.000Z</time>
      </trkpt>
      <trkpt lat="45.20727" lon="0.70737">
        <ele>229</ele>
        <time>2017-11-19T08:52:27.000Z</time>
      </trkpt>
      <trkpt lat="45.20737" lon="0.7075">
        <ele>228</ele>
        <time>2017-11-19T08:52:32.000Z</time>
      </trkpt>
      <trkpt lat="45.20743" lon="0.70761">
        <ele>228</ele>
        <time>2017-11-19T08:52:35.000Z</time>
      </trkpt>
      <trkpt lat="45.20748" lon="0.70774">
        <ele>231</ele>
        <time>2017-11-19T08:52:39.000Z</time>
      </trkpt>
      <trkpt lat="45.20755" lon="0.70789">
        <ele>231</ele>
        <time>2017-11-19T08:52:43.000Z</time>
      </trkpt>
      <trkpt lat="45.20762" lon="0.70801">
        <ele>232</ele>
        <time>2017-11-19T08:52:46.000Z</time>
      </trkpt>
      <trkpt lat="45.20767" lon="0.70814">
        <ele>234</ele>
        <time>2017-11-19T08:52:50.000Z</time>
      </trkpt>
      <trkpt lat="45.20771" lon="0.70829">
        <ele>235</ele>
        <time>2017-11-19T08:52:55.000Z</time>
      </trkpt>
      <trkpt lat="45.20773" lon="0.70841">
        <ele>236</ele>
        <time>2017-11-19T08:52:59.000Z</time>
      </trkpt>
      <trkpt lat="45.20782" lon="0.70857">
        <ele>237</ele>
        <time>2017-11-19T08:53:03.000Z</time>
      </trkpt>
      <trkpt lat="45.20789" lon="0.70869">
        <ele>236</ele>
        <time>2017-11-19T08:53:07.000Z</time>
      </trkpt>
      <trkpt lat="45.20794" lon="0.7088">
        <ele>207</ele>
        <time>2017-11-19T08:53:10.000Z</time>
      </trkpt>
      <trkpt lat="45.20799" lon="0.70895">
        <ele>226</ele>
        <time>2017-11-19T08:53:14.000Z</time>
      </trkpt>
      <trkpt lat="45.20801" lon="0.70908">
        <ele>233</ele>
        <time>2017-11-19T08:53:17.000Z</time>
      </trkpt>
      <trkpt lat="45.20802" lon="0.70921">
        <ele>235</ele>
        <time>2017-11-19T08:53:20.000Z</time>
      </trkpt>
      <trkpt lat="45.20804" lon="0.70934">
        <ele>236</ele>
        <time>2017-11-19T08:53:23.000Z</time>
      </trkpt>
      <trkpt lat="45.20804" lon="0.70948">
        <ele>236</ele>
        <time>2017-11-19T08:53:26.000Z</time>
      </trkpt>
      <trkpt lat="45.20802" lon="0.70962">
        <ele>235</ele>
        <time>2017-11-19T08:53:29.000Z</time>
      </trkpt>
      <trkpt lat="45.20799" lon="0.70977">
        <ele>238</ele>
        <time>2017-11-19T08:53:33.000Z</time>
      </trkpt>
      <trkpt lat="45.20797" lon="0.70991">
        <ele>237</ele>
        <time>2017-11-19T08:53:37.000Z</time>
      </trkpt>
      <trkpt lat="45.20793" lon="0.7101">
        <ele>236</ele>
        <time>2017-11-19T08:53:41.000Z</time>
      </trkpt>
      <trkpt lat="45.20791" lon="0.71023">
        <ele>237</ele>
        <time>2017-11-19T08:53:43.000Z</time>
      </trkpt>
      <trkpt lat="45.20789" lon="0.71039">
        <ele>236</ele>
        <time>2017-11-19T08:53:46.000Z</time>
      </trkpt>
      <trkpt lat="45.20787" lon="0.71054">
        <ele>236</ele>
        <time>2017-11-19T08:53:49.000Z</time>
      </trkpt>
      <trkpt lat="45.20786" lon="0.71071">
        <ele>238</ele>
        <time>2017-11-19T08:53:52.000Z</time>
      </trkpt>
      <trkpt lat="45.20784" lon="0.71088">
        <ele>236</ele>
        <time>2017-11-19T08:53:55.000Z</time>
      </trkpt>
      <trkpt lat="45.20783" lon="0.71107">
        <ele>237</ele>
        <time>2017-11-19T08:53:58.000Z</time>
      </trkpt>
      <trkpt lat="45.20779" lon="0.71123">
        <ele>238</ele>
        <time>2017-11-19T08:54:01.000Z</time>
      </trkpt>
      <trkpt lat="45.20777" lon="0.71141">
        <ele>238</ele>
        <time>2017-11-19T08:54:04.000Z</time>
      </trkpt>
      <trkpt lat="45.20776" lon="0.71156">
        <ele>235</ele>
        <time>2017-11-19T08:54:06.000Z</time>
      </trkpt>
      <trkpt lat="45.20776" lon="0.71173">
        <ele>235</ele>
        <time>2017-11-19T08:54:08.000Z</time>
      </trkpt>
      <trkpt lat="45.20777" lon="0.7119">
        <ele>236</ele>
        <time>2017-11-19T08:54:10.000Z</time>
      </trkpt>
      <trkpt lat="45.20777" lon="0.71209">
        <ele>237</ele>
        <time>2017-11-19T08:54:12.000Z</time>
      </trkpt>
      <trkpt lat="45.2078" lon="0.71223">
        <ele>236</ele>
        <time>2017-11-19T08:54:14.000Z</time>
      </trkpt>
      <trkpt lat="45.20775" lon="0.71238">
        <ele>236</ele>
        <time>2017-11-19T08:54:16.000Z</time>
      </trkpt>
      <trkpt lat="45.20777" lon="0.71256">
        <ele>237</ele>
        <time>2017-11-19T08:54:18.000Z</time>
      </trkpt>
      <trkpt lat="45.20775" lon="0.71274">
        <ele>236</ele>
        <time>2017-11-19T08:54:21.000Z</time>
      </trkpt>
      <trkpt lat="45.20771" lon="0.71286">
        <ele>235</ele>
        <time>2017-11-19T08:54:23.000Z</time>
      </trkpt>
      <trkpt lat="45.20771" lon="0.71301">
        <ele>233</ele>
        <time>2017-11-19T08:54:26.000Z</time>
      </trkpt>
      <trkpt lat="45.20769" lon="0.71319">
        <ele>233</ele>
        <time>2017-11-19T08:54:29.000Z</time>
      </trkpt>
      <trkpt lat="45.20768" lon="0.71333">
        <ele>234</ele>
        <time>2017-11-19T08:54:32.000Z</time>
      </trkpt>
      <trkpt lat="45.20768" lon="0.71348">
        <ele>234</ele>
        <time>2017-11-19T08:54:36.000Z</time>
      </trkpt>
      <trkpt lat="45.20768" lon="0.71362">
        <ele>233</ele>
        <time>2017-11-19T08:54:39.000Z</time>
      </trkpt>
      <trkpt lat="45.20774" lon="0.71376">
        <ele>234</ele>
        <time>2017-11-19T08:54:42.000Z</time>
      </trkpt>
      <trkpt lat="45.20783" lon="0.71388">
        <ele>232</ele>
        <time>2017-11-19T08:54:45.000Z</time>
      </trkpt>
      <trkpt lat="45.20792" lon="0.71399">
        <ele>233</ele>
        <time>2017-11-19T08:54:48.000Z</time>
      </trkpt>
      <trkpt lat="45.20799" lon="0.71408">
        <ele>236</ele>
        <time>2017-11-19T08:54:50.000Z</time>
      </trkpt>
      <trkpt lat="45.20809" lon="0.71419">
        <ele>235</ele>
        <time>2017-11-19T08:54:53.000Z</time>
      </trkpt>
      <trkpt lat="45.20818" lon="0.7143">
        <ele>234</ele>
        <time>2017-11-19T08:54:56.000Z</time>
      </trkpt>
      <trkpt lat="45.20828" lon="0.7144">
        <ele>234</ele>
        <time>2017-11-19T08:54:59.000Z</time>
      </trkpt>
      <trkpt lat="45.20835" lon="0.71452">
        <ele>234</ele>
        <time>2017-11-19T08:55:02.000Z</time>
      </trkpt>
      <trkpt lat="45.20841" lon="0.71464">
        <ele>234</ele>
        <time>2017-11-19T08:55:05.000Z</time>
      </trkpt>
      <trkpt lat="45.20846" lon="0.71478">
        <ele>233</ele>
        <time>2017-11-19T08:55:08.000Z</time>
      </trkpt>
      <trkpt lat="45.20845" lon="0.71494">
        <ele>231</ele>
        <time>2017-11-19T08:55:11.000Z</time>
      </trkpt>
      <trkpt lat="45.20841" lon="0.71509">
        <ele>230</ele>
        <time>2017-11-19T08:55:14.000Z</time>
      </trkpt>
      <trkpt lat="45.20833" lon="0.71521">
        <ele>231</ele>
        <time>2017-11-19T08:55:17.000Z</time>
      </trkpt>
      <trkpt lat="45.20826" lon="0.71529">
        <ele>231</ele>
        <time>2017-11-19T08:55:20.000Z</time>
      </trkpt>
      <trkpt lat="45.20819" lon="0.71538">
        <ele>231</ele>
        <time>2017-11-19T08:55:23.000Z</time>
      </trkpt>
      <trkpt lat="45.20811" lon="0.7155">
        <ele>230</ele>
        <time>2017-11-19T08:55:27.000Z</time>
      </trkpt>
      <trkpt lat="45.20807" lon="0.71562">
        <ele>231</ele>
        <time>2017-11-19T08:55:30.000Z</time>
      </trkpt>
      <trkpt lat="45.20803" lon="0.71574">
        <ele>232</ele>
        <time>2017-11-19T08:55:34.000Z</time>
      </trkpt>
      <trkpt lat="45.20799" lon="0.71586">
        <ele>233</ele>
        <time>2017-11-19T08:55:38.000Z</time>
      </trkpt>
      <trkpt lat="45.20804" lon="0.71601">
        <ele>233</ele>
        <time>2017-11-19T08:55:42.000Z</time>
      </trkpt>
      <trkpt lat="45.20815" lon="0.71611">
        <ele>231</ele>
        <time>2017-11-19T08:55:45.000Z</time>
      </trkpt>
      <trkpt lat="45.20823" lon="0.71616">
        <ele>233</ele>
        <time>2017-11-19T08:55:47.000Z</time>
      </trkpt>
      <trkpt lat="45.20835" lon="0.71621">
        <ele>233</ele>
        <time>2017-11-19T08:55:50.000Z</time>
      </trkpt>
      <trkpt lat="45.20847" lon="0.71625">
        <ele>232</ele>
        <time>2017-11-19T08:55:53.000Z</time>
      </trkpt>
      <trkpt lat="45.20858" lon="0.71624">
        <ele>229</ele>
        <time>2017-11-19T08:55:57.000Z</time>
      </trkpt>
      <trkpt lat="45.20871" lon="0.71623">
        <ele>231</ele>
        <time>2017-11-19T08:56:01.000Z</time>
      </trkpt>
      <trkpt lat="45.20882" lon="0.71622">
        <ele>232</ele>
        <time>2017-11-19T08:56:05.000Z</time>
      </trkpt>
      <trkpt lat="45.20892" lon="0.71623">
        <ele>234</ele>
        <time>2017-11-19T08:56:09.000Z</time>
      </trkpt>
      <trkpt lat="45.20902" lon="0.71626">
        <ele>234</ele>
        <time>2017-11-19T08:56:13.000Z</time>
      </trkpt>
      <trkpt lat="45.20911" lon="0.71637">
        <ele>234</ele>
        <time>2017-11-19T08:56:17.000Z</time>
      </trkpt>
      <trkpt lat="45.20921" lon="0.71646">
        <ele>232</ele>
        <time>2017-11-19T08:56:21.000Z</time>
      </trkpt>
      <trkpt lat="45.2093" lon="0.71654">
        <ele>233</ele>
        <time>2017-11-19T08:56:25.000Z</time>
      </trkpt>
      <trkpt lat="45.20937" lon="0.71661">
        <ele>230</ele>
        <time>2017-11-19T08:56:29.000Z</time>
      </trkpt>
      <trkpt lat="45.20947" lon="0.7167">
        <ele>232</ele>
        <time>2017-11-19T08:56:33.000Z</time>
      </trkpt>
      <trkpt lat="45.20955" lon="0.71678">
        <ele>231</ele>
        <time>2017-11-19T08:56:36.000Z</time>
      </trkpt>
      <trkpt lat="45.20963" lon="0.71685">
        <ele>233</ele>
        <time>2017-11-19T08:56:39.000Z</time>
      </trkpt>
      <trkpt lat="45.20974" lon="0.71693">
        <ele>232</ele>
        <time>2017-11-19T08:56:43.000Z</time>
      </trkpt>
      <trkpt lat="45.20982" lon="0.71699">
        <ele>233</ele>
        <time>2017-11-19T08:56:46.000Z</time>
      </trkpt>
      <trkpt lat="45.20992" lon="0.71709">
        <ele>234</ele>
        <time>2017-11-19T08:56:50.000Z</time>
      </trkpt>
      <trkpt lat="45.21001" lon="0.71716">
        <ele>236</ele>
        <time>2017-11-19T08:56:53.000Z</time>
      </trkpt>
      <trkpt lat="45.2101" lon="0.71722">
        <ele>237</ele>
        <time>2017-11-19T08:56:56.000Z</time>
      </trkpt>
      <trkpt lat="45.2102" lon="0.71731">
        <ele>237</ele>
        <time>2017-11-19T08:57:00.000Z</time>
      </trkpt>
      <trkpt lat="45.21028" lon="0.71739">
        <ele>238</ele>
        <time>2017-11-19T08:57:03.000Z</time>
      </trkpt>
      <trkpt lat="45.21037" lon="0.71748">
        <ele>239</ele>
        <time>2017-11-19T08:57:07.000Z</time>
      </trkpt>
      <trkpt lat="45.21046" lon="0.71756">
        <ele>237</ele>
        <time>2017-11-19T08:57:11.000Z</time>
      </trkpt>
      <trkpt lat="45.21056" lon="0.71762">
        <ele>238</ele>
        <time>2017-11-19T08:57:16.000Z</time>
      </trkpt>
      <trkpt lat="45.21066" lon="0.71765">
        <ele>237</ele>
        <time>2017-11-19T08:57:20.000Z</time>
      </trkpt>
      <trkpt lat="45.21077" lon="0.71768">
        <ele>239</ele>
        <time>2017-11-19T08:57:24.000Z</time>
      </trkpt>
      <trkpt lat="45.21087" lon="0.71767">
        <ele>240</ele>
        <time>2017-11-19T08:57:28.000Z</time>
      </trkpt>
      <trkpt lat="45.21096" lon="0.71767">
        <ele>241</ele>
        <time>2017-11-19T08:57:32.000Z</time>
      </trkpt>
      <trkpt lat="45.21108" lon="0.71769">
        <ele>242</ele>
        <time>2017-11-19T08:57:36.000Z</time>
      </trkpt>
      <trkpt lat="45.21117" lon="0.71768">
        <ele>243</ele>
        <time>2017-11-19T08:57:39.000Z</time>
      </trkpt>
      <trkpt lat="45.21128" lon="0.7177">
        <ele>242</ele>
        <time>2017-11-19T08:57:44.000Z</time>
      </trkpt>
      <trkpt lat="45.21138" lon="0.71773">
        <ele>244</ele>
        <time>2017-11-19T08:57:50.000Z</time>
      </trkpt>
      <trkpt lat="45.21149" lon="0.71776">
        <ele>243</ele>
        <time>2017-11-19T08:57:55.000Z</time>
      </trkpt>
      <trkpt lat="45.21156" lon="0.71785">
        <ele>242</ele>
        <time>2017-11-19T08:57:59.000Z</time>
      </trkpt>
      <trkpt lat="45.21162" lon="0.71796">
        <ele>243</ele>
        <time>2017-11-19T08:58:02.000Z</time>
      </trkpt>
      <trkpt lat="45.21168" lon="0.71809">
        <ele>246</ele>
        <time>2017-11-19T08:58:06.000Z</time>
      </trkpt>
      <trkpt lat="45.21172" lon="0.71822">
        <ele>248</ele>
        <time>2017-11-19T08:58:10.000Z</time>
      </trkpt>
      <trkpt lat="45.21176" lon="0.71835">
        <ele>248</ele>
        <time>2017-11-19T08:58:14.000Z</time>
      </trkpt>
      <trkpt lat="45.2118" lon="0.71851">
        <ele>246</ele>
        <time>2017-11-19T08:58:18.000Z</time>
      </trkpt>
      <trkpt lat="45.21186" lon="0.71865">
        <ele>245</ele>
        <time>2017-11-19T08:58:21.000Z</time>
      </trkpt>
      <trkpt lat="45.21192" lon="0.71876">
        <ele>243</ele>
        <time>2017-11-19T08:58:24.000Z</time>
      </trkpt>
      <trkpt lat="45.21195" lon="0.71889">
        <ele>245</ele>
        <time>2017-11-19T08:58:27.000Z</time>
      </trkpt>
      <trkpt lat="45.212" lon="0.71905">
        <ele>247</ele>
        <time>2017-11-19T08:58:31.000Z</time>
      </trkpt>
      <trkpt lat="45.21204" lon="0.71916">
        <ele>247</ele>
        <time>2017-11-19T08:58:34.000Z</time>
      </trkpt>
      <trkpt lat="45.21208" lon="0.7193">
        <ele>247</ele>
        <time>2017-11-19T08:58:38.000Z</time>
      </trkpt>
      <trkpt lat="45.21209" lon="0.71943">
        <ele>245</ele>
        <time>2017-11-19T08:58:41.000Z</time>
      </trkpt>
      <trkpt lat="45.21211" lon="0.71957">
        <ele>243</ele>
        <time>2017-11-19T08:58:44.000Z</time>
      </trkpt>
      <trkpt lat="45.21213" lon="0.71973">
        <ele>245</ele>
        <time>2017-11-19T08:58:47.000Z</time>
      </trkpt>
      <trkpt lat="45.21212" lon="0.71988">
        <ele>247</ele>
        <time>2017-11-19T08:58:50.000Z</time>
      </trkpt>
      <trkpt lat="45.21209" lon="0.72002">
        <ele>249</ele>
        <time>2017-11-19T08:58:53.000Z</time>
      </trkpt>
      <trkpt lat="45.21206" lon="0.72016">
        <ele>250</ele>
        <time>2017-11-19T08:58:56.000Z</time>
      </trkpt>
      <trkpt lat="45.21206" lon="0.72029">
        <ele>249</ele>
        <time>2017-11-19T08:58:59.000Z</time>
      </trkpt>
      <trkpt lat="45.21207" lon="0.72043">
        <ele>248</ele>
        <time>2017-11-19T08:59:02.000Z</time>
      </trkpt>
      <trkpt lat="45.21207" lon="0.72057">
        <ele>249</ele>
        <time>2017-11-19T08:59:05.000Z</time>
      </trkpt>
      <trkpt lat="45.21206" lon="0.7207">
        <ele>248</ele>
        <time>2017-11-19T08:59:09.000Z</time>
      </trkpt>
      <trkpt lat="45.21204" lon="0.72084">
        <ele>251</ele>
        <time>2017-11-19T08:59:13.000Z</time>
      </trkpt>
      <trkpt lat="45.21204" lon="0.72097">
        <ele>249</ele>
        <time>2017-11-19T08:59:17.000Z</time>
      </trkpt>
      <trkpt lat="45.21204" lon="0.72112">
        <ele>248</ele>
        <time>2017-11-19T08:59:22.000Z</time>
      </trkpt>
      <trkpt lat="45.21212" lon="0.72119">
        <ele>248</ele>
        <time>2017-11-19T08:59:26.000Z</time>
      </trkpt>
      <trkpt lat="45.21223" lon="0.7212">
        <ele>250</ele>
        <time>2017-11-19T08:59:30.000Z</time>
      </trkpt>
      <trkpt lat="45.21233" lon="0.72123">
        <ele>250</ele>
        <time>2017-11-19T08:59:34.000Z</time>
      </trkpt>
      <trkpt lat="45.21242" lon="0.72131">
        <ele>250</ele>
        <time>2017-11-19T08:59:38.000Z</time>
      </trkpt>
      <trkpt lat="45.21249" lon="0.72142">
        <ele>249</ele>
        <time>2017-11-19T08:59:42.000Z</time>
      </trkpt>
      <trkpt lat="45.21257" lon="0.72152">
        <ele>250</ele>
        <time>2017-11-19T08:59:46.000Z</time>
      </trkpt>
      <trkpt lat="45.21266" lon="0.72159">
        <ele>249</ele>
        <time>2017-11-19T08:59:50.000Z</time>
      </trkpt>
      <trkpt lat="45.21277" lon="0.72164">
        <ele>248</ele>
        <time>2017-11-19T08:59:54.000Z</time>
      </trkpt>
      <trkpt lat="45.21287" lon="0.72169">
        <ele>248</ele>
        <time>2017-11-19T08:59:58.000Z</time>
      </trkpt>
      <trkpt lat="45.21297" lon="0.72173">
        <ele>249</ele>
        <time>2017-11-19T09:00:02.000Z</time>
      </trkpt>
      <trkpt lat="45.21308" lon="0.7218">
        <ele>249</ele>
        <time>2017-11-19T09:00:06.000Z</time>
      </trkpt>
      <trkpt lat="45.21318" lon="0.72186">
        <ele>250</ele>
        <time>2017-11-19T09:00:10.000Z</time>
      </trkpt>
      <trkpt lat="45.21329" lon="0.72192">
        <ele>250</ele>
        <time>2017-11-19T09:00:14.000Z</time>
      </trkpt>
      <trkpt lat="45.21338" lon="0.72198">
        <ele>250</ele>
        <time>2017-11-19T09:00:17.000Z</time>
      </trkpt>
      <trkpt lat="45.21346" lon="0.72203">
        <ele>250</ele>
        <time>2017-11-19T09:00:20.000Z</time>
      </trkpt>
      <trkpt lat="45.21357" lon="0.72211">
        <ele>250</ele>
        <time>2017-11-19T09:00:24.000Z</time>
      </trkpt>
      <trkpt lat="45.21365" lon="0.72218">
        <ele>250</ele>
        <time>2017-11-19T09:00:27.000Z</time>
      </trkpt>
      <trkpt lat="45.21372" lon="0.72226">
        <ele>249</ele>
        <time>2017-11-19T09:00:30.000Z</time>
      </trkpt>
      <trkpt lat="45.2138" lon="0.72233">
        <ele>250</ele>
        <time>2017-11-19T09:00:33.000Z</time>
      </trkpt>
      <trkpt lat="45.21388" lon="0.72244">
        <ele>249</ele>
        <time>2017-11-19T09:00:37.000Z</time>
      </trkpt>
      <trkpt lat="45.21397" lon="0.72253">
        <ele>249</ele>
        <time>2017-11-19T09:00:41.000Z</time>
      </trkpt>
      <trkpt lat="45.21407" lon="0.72262">
        <ele>250</ele>
        <time>2017-11-19T09:00:45.000Z</time>
      </trkpt>
      <trkpt lat="45.21417" lon="0.7227">
        <ele>251</ele>
        <time>2017-11-19T09:00:49.000Z</time>
      </trkpt>
      <trkpt lat="45.21426" lon="0.72279">
        <ele>252</ele>
        <time>2017-11-19T09:00:53.000Z</time>
      </trkpt>
      <trkpt lat="45.21436" lon="0.72286">
        <ele>252</ele>
        <time>2017-11-19T09:00:57.000Z</time>
      </trkpt>
      <trkpt lat="45.21445" lon="0.72293">
        <ele>253</ele>
        <time>2017-11-19T09:01:01.000Z</time>
      </trkpt>
      <trkpt lat="45.21455" lon="0.72299">
        <ele>253</ele>
        <time>2017-11-19T09:01:05.000Z</time>
      </trkpt>
      <trkpt lat="45.21464" lon="0.72306">
        <ele>253</ele>
        <time>2017-11-19T09:01:09.000Z</time>
      </trkpt>
      <trkpt lat="45.21473" lon="0.72311">
        <ele>253</ele>
        <time>2017-11-19T09:01:14.000Z</time>
      </trkpt>
      <trkpt lat="45.21483" lon="0.72316">
        <ele>253</ele>
        <time>2017-11-19T09:01:19.000Z</time>
      </trkpt>
      <trkpt lat="45.21492" lon="0.72324">
        <ele>252</ele>
        <time>2017-11-19T09:01:24.000Z</time>
      </trkpt>
      <trkpt lat="45.21498" lon="0.72336">
        <ele>252</ele>
        <time>2017-11-19T09:01:27.000Z</time>
      </trkpt>
      <trkpt lat="45.21504" lon="0.72348">
        <ele>253</ele>
        <time>2017-11-19T09:01:30.000Z</time>
      </trkpt>
      <trkpt lat="45.2151" lon="0.72362">
        <ele>252</ele>
        <time>2017-11-19T09:01:33.000Z</time>
      </trkpt>
      <trkpt lat="45.21515" lon="0.72377">
        <ele>254</ele>
        <time>2017-11-19T09:01:36.000Z</time>
      </trkpt>
      <trkpt lat="45.21521" lon="0.72392">
        <ele>253</ele>
        <time>2017-11-19T09:01:39.000Z</time>
      </trkpt>
      <trkpt lat="45.21525" lon="0.72407">
        <ele>255</ele>
        <time>2017-11-19T09:01:42.000Z</time>
      </trkpt>
      <trkpt lat="45.21527" lon="0.72421">
        <ele>255</ele>
        <time>2017-11-19T09:01:45.000Z</time>
      </trkpt>
      <trkpt lat="45.21526" lon="0.72436">
        <ele>253</ele>
        <time>2017-11-19T09:01:48.000Z</time>
      </trkpt>
      <trkpt lat="45.21524" lon="0.72451">
        <ele>255</ele>
        <time>2017-11-19T09:01:51.000Z</time>
      </trkpt>
      <trkpt lat="45.21521" lon="0.72465">
        <ele>254</ele>
        <time>2017-11-19T09:01:54.000Z</time>
      </trkpt>
      <trkpt lat="45.2152" lon="0.7248">
        <ele>256</ele>
        <time>2017-11-19T09:01:58.000Z</time>
      </trkpt>
      <trkpt lat="45.2152" lon="0.72495">
        <ele>256</ele>
        <time>2017-11-19T09:02:03.000Z</time>
      </trkpt>
      <trkpt lat="45.21521" lon="0.72509">
        <ele>256</ele>
        <time>2017-11-19T09:02:07.000Z</time>
      </trkpt>
      <trkpt lat="45.21524" lon="0.72526">
        <ele>258</ele>
        <time>2017-11-19T09:02:11.000Z</time>
      </trkpt>
      <trkpt lat="45.21526" lon="0.7254">
        <ele>259</ele>
        <time>2017-11-19T09:02:15.000Z</time>
      </trkpt>
      <trkpt lat="45.21526" lon="0.72556">
        <ele>259</ele>
        <time>2017-11-19T09:02:21.000Z</time>
      </trkpt>
      <trkpt lat="45.21523" lon="0.72572">
        <ele>261</ele>
        <time>2017-11-19T09:02:25.000Z</time>
      </trkpt>
      <trkpt lat="45.21514" lon="0.72574">
        <ele>263</ele>
        <time>2017-11-19T09:02:28.000Z</time>
      </trkpt>
      <trkpt lat="45.21505" lon="0.72572">
        <ele>265</ele>
        <time>2017-11-19T09:02:31.000Z</time>
      </trkpt>
      <trkpt lat="45.21494" lon="0.7257">
        <ele>266</ele>
        <time>2017-11-19T09:02:34.000Z</time>
      </trkpt>
      <trkpt lat="45.21483" lon="0.72568">
        <ele>265</ele>
        <time>2017-11-19T09:02:37.000Z</time>
      </trkpt>
      <trkpt lat="45.21471" lon="0.72567">
        <ele>264</ele>
        <time>2017-11-19T09:02:40.000Z</time>
      </trkpt>
      <trkpt lat="45.2146" lon="0.72569">
        <ele>265</ele>
        <time>2017-11-19T09:02:43.000Z</time>
      </trkpt>
      <trkpt lat="45.21449" lon="0.7257">
        <ele>261</ele>
        <time>2017-11-19T09:02:46.000Z</time>
      </trkpt>
      <trkpt lat="45.21439" lon="0.7257">
        <ele>260</ele>
        <time>2017-11-19T09:02:48.000Z</time>
      </trkpt>
      <trkpt lat="45.21429" lon="0.72569">
        <ele>258</ele>
        <time>2017-11-19T09:02:50.000Z</time>
      </trkpt>
      <trkpt lat="45.21415" lon="0.72568">
        <ele>258</ele>
        <time>2017-11-19T09:02:53.000Z</time>
      </trkpt>
      <trkpt lat="45.21404" lon="0.72567">
        <ele>256</ele>
        <time>2017-11-19T09:02:55.000Z</time>
      </trkpt>
      <trkpt lat="45.21391" lon="0.72568">
        <ele>254</ele>
        <time>2017-11-19T09:02:58.000Z</time>
      </trkpt>
      <trkpt lat="45.2138" lon="0.72571">
        <ele>252</ele>
        <time>2017-11-19T09:03:00.000Z</time>
      </trkpt>
      <trkpt lat="45.21368" lon="0.72577">
        <ele>252</ele>
        <time>2017-11-19T09:03:02.000Z</time>
      </trkpt>
      <trkpt lat="45.21355" lon="0.72585">
        <ele>251</ele>
        <time>2017-11-19T09:03:04.000Z</time>
      </trkpt>
      <trkpt lat="45.21343" lon="0.72594">
        <ele>250</ele>
        <time>2017-11-19T09:03:06.000Z</time>
      </trkpt>
      <trkpt lat="45.2133" lon="0.72603">
        <ele>250</ele>
        <time>2017-11-19T09:03:08.000Z</time>
      </trkpt>
      <trkpt lat="45.21317" lon="0.72614">
        <ele>249</ele>
        <time>2017-11-19T09:03:10.000Z</time>
      </trkpt>
      <trkpt lat="45.21304" lon="0.72623">
        <ele>249</ele>
        <time>2017-11-19T09:03:12.000Z</time>
      </trkpt>
      <trkpt lat="45.21292" lon="0.72632">
        <ele>249</ele>
        <time>2017-11-19T09:03:14.000Z</time>
      </trkpt>
      <trkpt lat="45.21281" lon="0.7264">
        <ele>249</ele>
        <time>2017-11-19T09:03:16.000Z</time>
      </trkpt>
      <trkpt lat="45.2127" lon="0.72649">
        <ele>250</ele>
        <time>2017-11-19T09:03:18.000Z</time>
      </trkpt>
      <trkpt lat="45.21258" lon="0.72655">
        <ele>247</ele>
        <time>2017-11-19T09:03:20.000Z</time>
      </trkpt>
      <trkpt lat="45.21248" lon="0.72659">
        <ele>246</ele>
        <time>2017-11-19T09:03:22.000Z</time>
      </trkpt>
      <trkpt lat="45.21238" lon="0.72664">
        <ele>247</ele>
        <time>2017-11-19T09:03:24.000Z</time>
      </trkpt>
      <trkpt lat="45.21233" lon="0.72674">
        <ele>246</ele>
        <time>2017-11-19T09:03:26.000Z</time>
      </trkpt>
      <trkpt lat="45.21236" lon="0.72687">
        <ele>245</ele>
        <time>2017-11-19T09:03:29.000Z</time>
      </trkpt>
      <trkpt lat="45.21247" lon="0.72697">
        <ele>245</ele>
        <time>2017-11-19T09:03:32.000Z</time>
      </trkpt>
      <trkpt lat="45.21259" lon="0.72704">
        <ele>245</ele>
        <time>2017-11-19T09:03:35.000Z</time>
      </trkpt>
      <trkpt lat="45.21268" lon="0.72709">
        <ele>246</ele>
        <time>2017-11-19T09:03:37.000Z</time>
      </trkpt>
      <trkpt lat="45.21277" lon="0.72713">
        <ele>245</ele>
        <time>2017-11-19T09:03:39.000Z</time>
      </trkpt>
      <trkpt lat="45.21286" lon="0.72716">
        <ele>244</ele>
        <time>2017-11-19T09:03:41.000Z</time>
      </trkpt>
      <trkpt lat="45.21298" lon="0.72719">
        <ele>243</ele>
        <time>2017-11-19T09:03:44.000Z</time>
      </trkpt>
      <trkpt lat="45.21308" lon="0.72721">
        <ele>245</ele>
        <time>2017-11-19T09:03:47.000Z</time>
      </trkpt>
      <trkpt lat="45.21317" lon="0.72723">
        <ele>246</ele>
        <time>2017-11-19T09:03:50.000Z</time>
      </trkpt>
      <trkpt lat="45.21329" lon="0.72726">
        <ele>247</ele>
        <time>2017-11-19T09:03:54.000Z</time>
      </trkpt>
      <trkpt lat="45.21338" lon="0.72729">
        <ele>247</ele>
        <time>2017-11-19T09:03:59.000Z</time>
      </trkpt>
      <trkpt lat="45.21351" lon="0.72734">
        <ele>248</ele>
        <time>2017-11-19T09:04:05.000Z</time>
      </trkpt>
      <trkpt lat="45.21359" lon="0.72741">
        <ele>246</ele>
        <time>2017-11-19T09:04:09.000Z</time>
      </trkpt>
      <trkpt lat="45.21369" lon="0.72747">
        <ele>244</ele>
        <time>2017-11-19T09:04:13.000Z</time>
      </trkpt>
      <trkpt lat="45.21381" lon="0.72751">
        <ele>241</ele>
        <time>2017-11-19T09:04:17.000Z</time>
      </trkpt>
      <trkpt lat="45.21391" lon="0.72757">
        <ele>243</ele>
        <time>2017-11-19T09:04:21.000Z</time>
      </trkpt>
      <trkpt lat="45.21401" lon="0.72764">
        <ele>244</ele>
        <time>2017-11-19T09:04:25.000Z</time>
      </trkpt>
      <trkpt lat="45.21412" lon="0.72768">
        <ele>244</ele>
        <time>2017-11-19T09:04:29.000Z</time>
      </trkpt>
      <trkpt lat="45.21421" lon="0.72773">
        <ele>244</ele>
        <time>2017-11-19T09:04:32.000Z</time>
      </trkpt>
      <trkpt lat="45.2143" lon="0.72778">
        <ele>245</ele>
        <time>2017-11-19T09:04:35.000Z</time>
      </trkpt>
      <trkpt lat="45.2144" lon="0.72782">
        <ele>245</ele>
        <time>2017-11-19T09:04:38.000Z</time>
      </trkpt>
      <trkpt lat="45.21451" lon="0.72787">
        <ele>244</ele>
        <time>2017-11-19T09:04:42.000Z</time>
      </trkpt>
      <trkpt lat="45.21459" lon="0.72792">
        <ele>244</ele>
        <time>2017-11-19T09:04:45.000Z</time>
      </trkpt>
      <trkpt lat="45.21469" lon="0.72796">
        <ele>244</ele>
        <time>2017-11-19T09:04:48.000Z</time>
      </trkpt>
      <trkpt lat="45.21479" lon="0.72799">
        <ele>244</ele>
        <time>2017-11-19T09:04:51.000Z</time>
      </trkpt>
      <trkpt lat="45.2149" lon="0.72803">
        <ele>244</ele>
        <time>2017-11-19T09:04:54.000Z</time>
      </trkpt>
      <trkpt lat="45.21499" lon="0.72806">
        <ele>243</ele>
        <time>2017-11-19T09:04:56.000Z</time>
      </trkpt>
      <trkpt lat="45.21508" lon="0.7281">
        <ele>242</ele>
        <time>2017-11-19T09:04:58.000Z</time>
      </trkpt>
      <trkpt lat="45.21519" lon="0.72815">
        <ele>242</ele>
        <time>2017-11-19T09:05:00.000Z</time>
      </trkpt>
      <trkpt lat="45.2153" lon="0.7282">
        <ele>241</ele>
        <time>2017-11-19T09:05:02.000Z</time>
      </trkpt>
      <trkpt lat="45.21541" lon="0.72826">
        <ele>240</ele>
        <time>2017-11-19T09:05:04.000Z</time>
      </trkpt>
      <trkpt lat="45.2155" lon="0.72831">
        <ele>241</ele>
        <time>2017-11-19T09:05:06.000Z</time>
      </trkpt>
      <trkpt lat="45.21558" lon="0.72836">
        <ele>240</ele>
        <time>2017-11-19T09:05:08.000Z</time>
      </trkpt>
      <trkpt lat="45.21567" lon="0.72844">
        <ele>241</ele>
        <time>2017-11-19T09:05:11.000Z</time>
      </trkpt>
      <trkpt lat="45.21576" lon="0.72851">
        <ele>240</ele>
        <time>2017-11-19T09:05:14.000Z</time>
      </trkpt>
      <trkpt lat="45.21587" lon="0.72858">
        <ele>243</ele>
        <time>2017-11-19T09:05:18.000Z</time>
      </trkpt>
      <trkpt lat="45.21595" lon="0.72864">
        <ele>243</ele>
        <time>2017-11-19T09:05:21.000Z</time>
      </trkpt>
      <trkpt lat="45.21603" lon="0.72867">
        <ele>242</ele>
        <time>2017-11-19T09:05:24.000Z</time>
      </trkpt>
      <trkpt lat="45.21612" lon="0.7287">
        <ele>242</ele>
        <time>2017-11-19T09:05:27.000Z</time>
      </trkpt>
      <trkpt lat="45.21622" lon="0.72874">
        <ele>243</ele>
        <time>2017-11-19T09:05:30.000Z</time>
      </trkpt>
      <trkpt lat="45.21633" lon="0.72877">
        <ele>243</ele>
        <time>2017-11-19T09:05:34.000Z</time>
      </trkpt>
      <trkpt lat="45.21644" lon="0.72879">
        <ele>244</ele>
        <time>2017-11-19T09:05:38.000Z</time>
      </trkpt>
      <trkpt lat="45.21653" lon="0.72882">
        <ele>242</ele>
        <time>2017-11-19T09:05:41.000Z</time>
      </trkpt>
      <trkpt lat="45.21662" lon="0.72884">
        <ele>241</ele>
        <time>2017-11-19T09:05:44.000Z</time>
      </trkpt>
      <trkpt lat="45.21674" lon="0.72891">
        <ele>241</ele>
        <time>2017-11-19T09:05:48.000Z</time>
      </trkpt>
      <trkpt lat="45.21682" lon="0.72896">
        <ele>242</ele>
        <time>2017-11-19T09:05:51.000Z</time>
      </trkpt>
      <trkpt lat="45.21692" lon="0.72904">
        <ele>242</ele>
        <time>2017-11-19T09:05:55.000Z</time>
      </trkpt>
      <trkpt lat="45.21701" lon="0.72912">
        <ele>244</ele>
        <time>2017-11-19T09:05:59.000Z</time>
      </trkpt>
      <trkpt lat="45.21709" lon="0.72919">
        <ele>243</ele>
        <time>2017-11-19T09:06:03.000Z</time>
      </trkpt>
      <trkpt lat="45.21719" lon="0.72925">
        <ele>244</ele>
        <time>2017-11-19T09:06:07.000Z</time>
      </trkpt>
      <trkpt lat="45.21728" lon="0.72931">
        <ele>244</ele>
        <time>2017-11-19T09:06:10.000Z</time>
      </trkpt>
      <trkpt lat="45.21736" lon="0.72939">
        <ele>244</ele>
        <time>2017-11-19T09:06:13.000Z</time>
      </trkpt>
      <trkpt lat="45.21742" lon="0.72954">
        <ele>244</ele>
        <time>2017-11-19T09:06:16.000Z</time>
      </trkpt>
      <trkpt lat="45.21745" lon="0.72967">
        <ele>244</ele>
        <time>2017-11-19T09:06:18.000Z</time>
      </trkpt>
      <trkpt lat="45.21751" lon="0.72979">
        <ele>243</ele>
        <time>2017-11-19T09:06:20.000Z</time>
      </trkpt>
      <trkpt lat="45.21758" lon="0.7299">
        <ele>243</ele>
        <time>2017-11-19T09:06:22.000Z</time>
      </trkpt>
      <trkpt lat="45.21766" lon="0.73001">
        <ele>244</ele>
        <time>2017-11-19T09:06:24.000Z</time>
      </trkpt>
      <trkpt lat="45.21775" lon="0.73013">
        <ele>244</ele>
        <time>2017-11-19T09:06:26.000Z</time>
      </trkpt>
      <trkpt lat="45.21784" lon="0.73024">
        <ele>243</ele>
        <time>2017-11-19T09:06:28.000Z</time>
      </trkpt>
      <trkpt lat="45.21794" lon="0.73035">
        <ele>243</ele>
        <time>2017-11-19T09:06:30.000Z</time>
      </trkpt>
      <trkpt lat="45.21804" lon="0.73047">
        <ele>241</ele>
        <time>2017-11-19T09:06:32.000Z</time>
      </trkpt>
      <trkpt lat="45.21812" lon="0.73062">
        <ele>240</ele>
        <time>2017-11-19T09:06:34.000Z</time>
      </trkpt>
      <trkpt lat="45.21822" lon="0.73077">
        <ele>240</ele>
        <time>2017-11-19T09:06:36.000Z</time>
      </trkpt>
      <trkpt lat="45.2183" lon="0.73093">
        <ele>240</ele>
        <time>2017-11-19T09:06:38.000Z</time>
      </trkpt>
      <trkpt lat="45.21836" lon="0.7311">
        <ele>240</ele>
        <time>2017-11-19T09:06:40.000Z</time>
      </trkpt>
      <trkpt lat="45.21842" lon="0.73127">
        <ele>239</ele>
        <time>2017-11-19T09:06:42.000Z</time>
      </trkpt>
      <trkpt lat="45.21846" lon="0.73143">
        <ele>240</ele>
        <time>2017-11-19T09:06:44.000Z</time>
      </trkpt>
      <trkpt lat="45.21849" lon="0.73156">
        <ele>239</ele>
        <time>2017-11-19T09:06:47.000Z</time>
      </trkpt>
      <trkpt lat="45.21858" lon="0.73167">
        <ele>239</ele>
        <time>2017-11-19T09:06:50.000Z</time>
      </trkpt>
      <trkpt lat="45.21869" lon="0.73176">
        <ele>239</ele>
        <time>2017-11-19T09:06:53.000Z</time>
      </trkpt>
      <trkpt lat="45.21878" lon="0.73184">
        <ele>239</ele>
        <time>2017-11-19T09:06:56.000Z</time>
      </trkpt>
      <trkpt lat="45.21888" lon="0.73191">
        <ele>240</ele>
        <time>2017-11-19T09:06:59.000Z</time>
      </trkpt>
      <trkpt lat="45.21899" lon="0.73196">
        <ele>241</ele>
        <time>2017-11-19T09:07:02.000Z</time>
      </trkpt>
      <trkpt lat="45.21907" lon="0.73204">
        <ele>241</ele>
        <time>2017-11-19T09:07:05.000Z</time>
      </trkpt>
      <trkpt lat="45.21916" lon="0.73211">
        <ele>239</ele>
        <time>2017-11-19T09:07:08.000Z</time>
      </trkpt>
      <trkpt lat="45.21925" lon="0.73218">
        <ele>238</ele>
        <time>2017-11-19T09:07:11.000Z</time>
      </trkpt>
      <trkpt lat="45.21935" lon="0.73225">
        <ele>239</ele>
        <time>2017-11-19T09:07:14.000Z</time>
      </trkpt>
      <trkpt lat="45.21945" lon="0.73232">
        <ele>238</ele>
        <time>2017-11-19T09:07:17.000Z</time>
      </trkpt>
      <trkpt lat="45.21959" lon="0.73238">
        <ele>238</ele>
        <time>2017-11-19T09:07:21.000Z</time>
      </trkpt>
      <trkpt lat="45.21967" lon="0.73244">
        <ele>239</ele>
        <time>2017-11-19T09:07:24.000Z</time>
      </trkpt>
      <trkpt lat="45.21975" lon="0.73251">
        <ele>237</ele>
        <time>2017-11-19T09:07:28.000Z</time>
      </trkpt>
      <trkpt lat="45.21984" lon="0.73258">
        <ele>237</ele>
        <time>2017-11-19T09:07:32.000Z</time>
      </trkpt>
      <trkpt lat="45.21995" lon="0.73265">
        <ele>237</ele>
        <time>2017-11-19T09:07:36.000Z</time>
      </trkpt>
      <trkpt lat="45.22005" lon="0.73271">
        <ele>237</ele>
        <time>2017-11-19T09:07:40.000Z</time>
      </trkpt>
      <trkpt lat="45.22014" lon="0.73276">
        <ele>237</ele>
        <time>2017-11-19T09:07:43.000Z</time>
      </trkpt>
      <trkpt lat="45.22025" lon="0.73282">
        <ele>236</ele>
        <time>2017-11-19T09:07:47.000Z</time>
      </trkpt>
      <trkpt lat="45.22034" lon="0.73289">
        <ele>238</ele>
        <time>2017-11-19T09:07:51.000Z</time>
      </trkpt>
      <trkpt lat="45.22044" lon="0.73295">
        <ele>238</ele>
        <time>2017-11-19T09:07:56.000Z</time>
      </trkpt>
      <trkpt lat="45.22053" lon="0.73301">
        <ele>238</ele>
        <time>2017-11-19T09:08:01.000Z</time>
      </trkpt>
      <trkpt lat="45.22062" lon="0.73306">
        <ele>238</ele>
        <time>2017-11-19T09:08:05.000Z</time>
      </trkpt>
      <trkpt lat="45.22073" lon="0.73313">
        <ele>238</ele>
        <time>2017-11-19T09:08:09.000Z</time>
      </trkpt>
      <trkpt lat="45.22083" lon="0.7332">
        <ele>239</ele>
        <time>2017-11-19T09:08:12.000Z</time>
      </trkpt>
      <trkpt lat="45.22094" lon="0.73325">
        <ele>240</ele>
        <time>2017-11-19T09:08:15.000Z</time>
      </trkpt>
      <trkpt lat="45.22107" lon="0.73332">
        <ele>237</ele>
        <time>2017-11-19T09:08:18.000Z</time>
      </trkpt>
      <trkpt lat="45.22117" lon="0.73339">
        <ele>236</ele>
        <time>2017-11-19T09:08:20.000Z</time>
      </trkpt>
      <trkpt lat="45.22128" lon="0.73344">
        <ele>237</ele>
        <time>2017-11-19T09:08:22.000Z</time>
      </trkpt>
      <trkpt lat="45.22138" lon="0.73349">
        <ele>236</ele>
        <time>2017-11-19T09:08:24.000Z</time>
      </trkpt>
      <trkpt lat="45.22148" lon="0.73353">
        <ele>231</ele>
        <time>2017-11-19T09:08:26.000Z</time>
      </trkpt>
      <trkpt lat="45.22161" lon="0.73357">
        <ele>233</ele>
        <time>2017-11-19T09:08:28.000Z</time>
      </trkpt>
      <trkpt lat="45.2217" lon="0.73363">
        <ele>231</ele>
        <time>2017-11-19T09:08:30.000Z</time>
      </trkpt>
      <trkpt lat="45.22185" lon="0.73366">
        <ele>229</ele>
        <time>2017-11-19T09:08:32.000Z</time>
      </trkpt>
      <trkpt lat="45.22196" lon="0.73369">
        <ele>227</ele>
        <time>2017-11-19T09:08:34.000Z</time>
      </trkpt>
      <trkpt lat="45.22214" lon="0.73379">
        <ele>225</ele>
        <time>2017-11-19T09:08:37.000Z</time>
      </trkpt>
      <trkpt lat="45.22225" lon="0.73391">
        <ele>227</ele>
        <time>2017-11-19T09:08:39.000Z</time>
      </trkpt>
      <trkpt lat="45.22234" lon="0.73401">
        <ele>226</ele>
        <time>2017-11-19T09:08:41.000Z</time>
      </trkpt>
      <trkpt lat="45.22245" lon="0.73412">
        <ele>225</ele>
        <time>2017-11-19T09:08:43.000Z</time>
      </trkpt>
      <trkpt lat="45.22255" lon="0.73426">
        <ele>225</ele>
        <time>2017-11-19T09:08:45.000Z</time>
      </trkpt>
      <trkpt lat="45.22262" lon="0.73447">
        <ele>225</ele>
        <time>2017-11-19T09:08:47.000Z</time>
      </trkpt>
      <trkpt lat="45.22272" lon="0.73462">
        <ele>223</ele>
        <time>2017-11-19T09:08:49.000Z</time>
      </trkpt>
      <trkpt lat="45.22283" lon="0.73477">
        <ele>220</ele>
        <time>2017-11-19T09:08:51.000Z</time>
      </trkpt>
      <trkpt lat="45.22294" lon="0.73493">
        <ele>218</ele>
        <time>2017-11-19T09:08:53.000Z</time>
      </trkpt>
      <trkpt lat="45.22305" lon="0.73501">
        <ele>217</ele>
        <time>2017-11-19T09:08:55.000Z</time>
      </trkpt>
      <trkpt lat="45.22315" lon="0.73502">
        <ele>216</ele>
        <time>2017-11-19T09:08:57.000Z</time>
      </trkpt>
      <trkpt lat="45.22325" lon="0.735">
        <ele>215</ele>
        <time>2017-11-19T09:08:59.000Z</time>
      </trkpt>
      <trkpt lat="45.22339" lon="0.73496">
        <ele>215</ele>
        <time>2017-11-19T09:09:05.000Z</time>
      </trkpt>
      <trkpt lat="45.2235" lon="0.73492">
        <ele>216</ele>
        <time>2017-11-19T09:09:11.000Z</time>
      </trkpt>
      <trkpt lat="45.22359" lon="0.73487">
        <ele>215</ele>
        <time>2017-11-19T09:09:17.000Z</time>
      </trkpt>
      <trkpt lat="45.22368" lon="0.73483">
        <ele>218</ele>
        <time>2017-11-19T09:09:23.000Z</time>
      </trkpt>
      <trkpt lat="45.22377" lon="0.73485">
        <ele>220</ele>
        <time>2017-11-19T09:09:30.000Z</time>
      </trkpt>
      <trkpt lat="45.22387" lon="0.73482">
        <ele>218</ele>
        <time>2017-11-19T09:09:36.000Z</time>
      </trkpt>
      <trkpt lat="45.22396" lon="0.73479">
        <ele>222</ele>
        <time>2017-11-19T09:09:42.000Z</time>
      </trkpt>
      <trkpt lat="45.22406" lon="0.73477">
        <ele>221</ele>
        <time>2017-11-19T09:09:49.000Z</time>
      </trkpt>
      <trkpt lat="45.22414" lon="0.73474">
        <ele>224</ele>
        <time>2017-11-19T09:09:55.000Z</time>
      </trkpt>
      <trkpt lat="45.22423" lon="0.73467">
        <ele>226</ele>
        <time>2017-11-19T09:10:03.000Z</time>
      </trkpt>
      <trkpt lat="45.22432" lon="0.73464">
        <ele>226</ele>
        <time>2017-11-19T09:10:09.000Z</time>
      </trkpt>
      <trkpt lat="45.22442" lon="0.73462">
        <ele>228</ele>
        <time>2017-11-19T09:10:15.000Z</time>
      </trkpt>
      <trkpt lat="45.22452" lon="0.7346">
        <ele>228</ele>
        <time>2017-11-19T09:10:21.000Z</time>
      </trkpt>
      <trkpt lat="45.22462" lon="0.73458">
        <ele>232</ele>
        <time>2017-11-19T09:10:26.000Z</time>
      </trkpt>
      <trkpt lat="45.22472" lon="0.73456">
        <ele>233</ele>
        <time>2017-11-19T09:10:31.000Z</time>
      </trkpt>
      <trkpt lat="45.22481" lon="0.73449">
        <ele>234</ele>
        <time>2017-11-19T09:10:38.000Z</time>
      </trkpt>
      <trkpt lat="45.22492" lon="0.73443">
        <ele>232</ele>
        <time>2017-11-19T09:10:42.000Z</time>
      </trkpt>
      <trkpt lat="45.22504" lon="0.73441">
        <ele>232</ele>
        <time>2017-11-19T09:10:46.000Z</time>
      </trkpt>
      <trkpt lat="45.22515" lon="0.73437">
        <ele>231</ele>
        <time>2017-11-19T09:10:51.000Z</time>
      </trkpt>
      <trkpt lat="45.22525" lon="0.73436">
        <ele>232</ele>
        <time>2017-11-19T09:10:55.000Z</time>
      </trkpt>
      <trkpt lat="45.22534" lon="0.73434">
        <ele>229</ele>
        <time>2017-11-19T09:10:57.000Z</time>
      </trkpt>
      <trkpt lat="45.22551" lon="0.73426">
        <ele>230</ele>
        <time>2017-11-19T09:10:59.000Z</time>
      </trkpt>
      <trkpt lat="45.22566" lon="0.73429">
        <ele>230</ele>
        <time>2017-11-19T09:11:02.000Z</time>
      </trkpt>
      <trkpt lat="45.22576" lon="0.73425">
        <ele>230</ele>
        <time>2017-11-19T09:11:04.000Z</time>
      </trkpt>
      <trkpt lat="45.22586" lon="0.73421">
        <ele>228</ele>
        <time>2017-11-19T09:11:06.000Z</time>
      </trkpt>
      <trkpt lat="45.22601" lon="0.73418">
        <ele>228</ele>
        <time>2017-11-19T09:11:10.000Z</time>
      </trkpt>
      <trkpt lat="45.22612" lon="0.73416">
        <ele>229</ele>
        <time>2017-11-19T09:11:14.000Z</time>
      </trkpt>
      <trkpt lat="45.22624" lon="0.73411">
        <ele>230</ele>
        <time>2017-11-19T09:11:17.000Z</time>
      </trkpt>
      <trkpt lat="45.22634" lon="0.73406">
        <ele>232</ele>
        <time>2017-11-19T09:11:21.000Z</time>
      </trkpt>
      <trkpt lat="45.22643" lon="0.73401">
        <ele>229</ele>
        <time>2017-11-19T09:11:25.000Z</time>
      </trkpt>
      <trkpt lat="45.22652" lon="0.73397">
        <ele>229</ele>
        <time>2017-11-19T09:11:30.000Z</time>
      </trkpt>
      <trkpt lat="45.22662" lon="0.73395">
        <ele>227</ele>
        <time>2017-11-19T09:11:36.000Z</time>
      </trkpt>
      <trkpt lat="45.22672" lon="0.73393">
        <ele>229</ele>
        <time>2017-11-19T09:11:41.000Z</time>
      </trkpt>
      <trkpt lat="45.22682" lon="0.73392">
        <ele>232</ele>
        <time>2017-11-19T09:11:47.000Z</time>
      </trkpt>
      <trkpt lat="45.22691" lon="0.7339">
        <ele>233</ele>
        <time>2017-11-19T09:11:53.000Z</time>
      </trkpt>
      <trkpt lat="45.22701" lon="0.7339">
        <ele>234</ele>
        <time>2017-11-19T09:11:59.000Z</time>
      </trkpt>
      <trkpt lat="45.22712" lon="0.73392">
        <ele>233</ele>
        <time>2017-11-19T09:12:05.000Z</time>
      </trkpt>
      <trkpt lat="45.22722" lon="0.7339">
        <ele>233</ele>
        <time>2017-11-19T09:12:10.000Z</time>
      </trkpt>
      <trkpt lat="45.22733" lon="0.73385">
        <ele>235</ele>
        <time>2017-11-19T09:12:16.000Z</time>
      </trkpt>
      <trkpt lat="45.22741" lon="0.73377">
        <ele>237</ele>
        <time>2017-11-19T09:12:20.000Z</time>
      </trkpt>
      <trkpt lat="45.22748" lon="0.73364">
        <ele>239</ele>
        <time>2017-11-19T09:12:24.000Z</time>
      </trkpt>
      <trkpt lat="45.22753" lon="0.7335">
        <ele>239</ele>
        <time>2017-11-19T09:12:27.000Z</time>
      </trkpt>
      <trkpt lat="45.22757" lon="0.73334">
        <ele>238</ele>
        <time>2017-11-19T09:12:30.000Z</time>
      </trkpt>
      <trkpt lat="45.22761" lon="0.73318">
        <ele>239</ele>
        <time>2017-11-19T09:12:33.000Z</time>
      </trkpt>
      <trkpt lat="45.22765" lon="0.73302">
        <ele>238</ele>
        <time>2017-11-19T09:12:36.000Z</time>
      </trkpt>
      <trkpt lat="45.22769" lon="0.73286">
        <ele>237</ele>
        <time>2017-11-19T09:12:39.000Z</time>
      </trkpt>
      <trkpt lat="45.22773" lon="0.73273">
        <ele>236</ele>
        <time>2017-11-19T09:12:42.000Z</time>
      </trkpt>
      <trkpt lat="45.22778" lon="0.73257">
        <ele>237</ele>
        <time>2017-11-19T09:12:47.000Z</time>
      </trkpt>
      <trkpt lat="45.22783" lon="0.73246">
        <ele>236</ele>
        <time>2017-11-19T09:12:51.000Z</time>
      </trkpt>
      <trkpt lat="45.22787" lon="0.73233">
        <ele>236</ele>
        <time>2017-11-19T09:12:55.000Z</time>
      </trkpt>
      <trkpt lat="45.22793" lon="0.73221">
        <ele>236</ele>
        <time>2017-11-19T09:13:00.000Z</time>
      </trkpt>
      <trkpt lat="45.22799" lon="0.73211">
        <ele>237</ele>
        <time>2017-11-19T09:13:04.000Z</time>
      </trkpt>
      <trkpt lat="45.22805" lon="0.732">
        <ele>238</ele>
        <time>2017-11-19T09:13:08.000Z</time>
      </trkpt>
      <trkpt lat="45.22812" lon="0.73191">
        <ele>237</ele>
        <time>2017-11-19T09:13:12.000Z</time>
      </trkpt>
      <trkpt lat="45.22819" lon="0.73182">
        <ele>237</ele>
        <time>2017-11-19T09:13:16.000Z</time>
      </trkpt>
      <trkpt lat="45.22825" lon="0.73172">
        <ele>236</ele>
        <time>2017-11-19T09:13:20.000Z</time>
      </trkpt>
      <trkpt lat="45.22833" lon="0.73164">
        <ele>234</ele>
        <time>2017-11-19T09:13:24.000Z</time>
      </trkpt>
      <trkpt lat="45.2284" lon="0.73155">
        <ele>234</ele>
        <time>2017-11-19T09:13:28.000Z</time>
      </trkpt>
      <trkpt lat="45.22847" lon="0.73144">
        <ele>233</ele>
        <time>2017-11-19T09:13:32.000Z</time>
      </trkpt>
      <trkpt lat="45.22856" lon="0.7314">
        <ele>232</ele>
        <time>2017-11-19T09:13:36.000Z</time>
      </trkpt>
      <trkpt lat="45.22865" lon="0.73144">
        <ele>233</ele>
        <time>2017-11-19T09:13:39.000Z</time>
      </trkpt>
      <trkpt lat="45.22874" lon="0.7315">
        <ele>232</ele>
        <time>2017-11-19T09:13:42.000Z</time>
      </trkpt>
      <trkpt lat="45.22884" lon="0.73158">
        <ele>230</ele>
        <time>2017-11-19T09:13:46.000Z</time>
      </trkpt>
      <trkpt lat="45.22892" lon="0.73163">
        <ele>229</ele>
        <time>2017-11-19T09:13:49.000Z</time>
      </trkpt>
      <trkpt lat="45.22901" lon="0.73168">
        <ele>229</ele>
        <time>2017-11-19T09:13:52.000Z</time>
      </trkpt>
      <trkpt lat="45.22911" lon="0.73172">
        <ele>230</ele>
        <time>2017-11-19T09:13:56.000Z</time>
      </trkpt>
      <trkpt lat="45.22919" lon="0.73181">
        <ele>230</ele>
        <time>2017-11-19T09:14:00.000Z</time>
      </trkpt>
      <trkpt lat="45.22925" lon="0.73194">
        <ele>233</ele>
        <time>2017-11-19T09:14:04.000Z</time>
      </trkpt>
      <trkpt lat="45.22927" lon="0.73207">
        <ele>232</ele>
        <time>2017-11-19T09:14:07.000Z</time>
      </trkpt>
      <trkpt lat="45.22931" lon="0.73221">
        <ele>235</ele>
        <time>2017-11-19T09:14:11.000Z</time>
      </trkpt>
      <trkpt lat="45.22932" lon="0.73237">
        <ele>234</ele>
        <time>2017-11-19T09:14:15.000Z</time>
      </trkpt>
      <trkpt lat="45.22931" lon="0.73253">
        <ele>235</ele>
        <time>2017-11-19T09:14:19.000Z</time>
      </trkpt>
      <trkpt lat="45.22931" lon="0.7327">
        <ele>234</ele>
        <time>2017-11-19T09:14:23.000Z</time>
      </trkpt>
      <trkpt lat="45.22931" lon="0.73289">
        <ele>232</ele>
        <time>2017-11-19T09:14:28.000Z</time>
      </trkpt>
      <trkpt lat="45.22929" lon="0.73303">
        <ele>232</ele>
        <time>2017-11-19T09:14:32.000Z</time>
      </trkpt>
      <trkpt lat="45.22927" lon="0.73321">
        <ele>232</ele>
        <time>2017-11-19T09:14:36.000Z</time>
      </trkpt>
      <trkpt lat="45.22924" lon="0.73335">
        <ele>235</ele>
        <time>2017-11-19T09:14:40.000Z</time>
      </trkpt>
      <trkpt lat="45.22923" lon="0.73349">
        <ele>237</ele>
        <time>2017-11-19T09:14:43.000Z</time>
      </trkpt>
      <trkpt lat="45.22917" lon="0.73365">
        <ele>236</ele>
        <time>2017-11-19T09:14:48.000Z</time>
      </trkpt>
      <trkpt lat="45.2291" lon="0.73374">
        <ele>236</ele>
        <time>2017-11-19T09:14:52.000Z</time>
      </trkpt>
      <trkpt lat="45.229" lon="0.73389">
        <ele>235</ele>
        <time>2017-11-19T09:14:56.000Z</time>
      </trkpt>
      <trkpt lat="45.22893" lon="0.73398">
        <ele>235</ele>
        <time>2017-11-19T09:14:58.000Z</time>
      </trkpt>
      <trkpt lat="45.22886" lon="0.73407">
        <ele>237</ele>
        <time>2017-11-19T09:15:03.000Z</time>
      </trkpt>
      <trkpt lat="45.22879" lon="0.73415">
        <ele>236</ele>
        <time>2017-11-19T09:15:07.000Z</time>
      </trkpt>
      <trkpt lat="45.22872" lon="0.73429">
        <ele>234</ele>
        <time>2017-11-19T09:15:12.000Z</time>
      </trkpt>
      <trkpt lat="45.22865" lon="0.73439">
        <ele>233</ele>
        <time>2017-11-19T09:15:16.000Z</time>
      </trkpt>
      <trkpt lat="45.22856" lon="0.73449">
        <ele>231</ele>
        <time>2017-11-19T09:15:20.000Z</time>
      </trkpt>
      <trkpt lat="45.22849" lon="0.73459">
        <ele>232</ele>
        <time>2017-11-19T09:15:25.000Z</time>
      </trkpt>
      <trkpt lat="45.22841" lon="0.73473">
        <ele>233</ele>
        <time>2017-11-19T09:15:30.000Z</time>
      </trkpt>
      <trkpt lat="45.22834" lon="0.73482">
        <ele>232</ele>
        <time>2017-11-19T09:15:33.000Z</time>
      </trkpt>
      <trkpt lat="45.22827" lon="0.73494">
        <ele>231</ele>
        <time>2017-11-19T09:15:37.000Z</time>
      </trkpt>
      <trkpt lat="45.2282" lon="0.73507">
        <ele>231</ele>
        <time>2017-11-19T09:15:40.000Z</time>
      </trkpt>
      <trkpt lat="45.22811" lon="0.73516">
        <ele>235</ele>
        <time>2017-11-19T09:15:43.000Z</time>
      </trkpt>
      <trkpt lat="45.22805" lon="0.73526">
        <ele>235</ele>
        <time>2017-11-19T09:15:46.000Z</time>
      </trkpt>
      <trkpt lat="45.22804" lon="0.73541">
        <ele>233</ele>
        <time>2017-11-19T09:15:50.000Z</time>
      </trkpt>
      <trkpt lat="45.22797" lon="0.73556">
        <ele>236</ele>
        <time>2017-11-19T09:15:57.000Z</time>
      </trkpt>
      <trkpt lat="45.22792" lon="0.7357">
        <ele>241</ele>
        <time>2017-11-19T09:16:01.000Z</time>
      </trkpt>
      <trkpt lat="45.22787" lon="0.73581">
        <ele>243</ele>
        <time>2017-11-19T09:16:06.000Z</time>
      </trkpt>
      <trkpt lat="45.2278" lon="0.73592">
        <ele>241</ele>
        <time>2017-11-19T09:16:10.000Z</time>
      </trkpt>
      <trkpt lat="45.22772" lon="0.73603">
        <ele>242</ele>
        <time>2017-11-19T09:16:14.000Z</time>
      </trkpt>
      <trkpt lat="45.22765" lon="0.7361">
        <ele>240</ele>
        <time>2017-11-19T09:16:17.000Z</time>
      </trkpt>
      <trkpt lat="45.22754" lon="0.73619">
        <ele>241</ele>
        <time>2017-11-19T09:16:20.000Z</time>
      </trkpt>
      <trkpt lat="45.22745" lon="0.73629">
        <ele>242</ele>
        <time>2017-11-19T09:16:23.000Z</time>
      </trkpt>
      <trkpt lat="45.22736" lon="0.73639">
        <ele>240</ele>
        <time>2017-11-19T09:16:28.000Z</time>
      </trkpt>
      <trkpt lat="45.22726" lon="0.73644">
        <ele>237</ele>
        <time>2017-11-19T09:16:32.000Z</time>
      </trkpt>
      <trkpt lat="45.22716" lon="0.73645">
        <ele>236</ele>
        <time>2017-11-19T09:16:35.000Z</time>
      </trkpt>
      <trkpt lat="45.22704" lon="0.73649">
        <ele>236</ele>
        <time>2017-11-19T09:16:38.000Z</time>
      </trkpt>
      <trkpt lat="45.22695" lon="0.73654">
        <ele>238</ele>
        <time>2017-11-19T09:16:41.000Z</time>
      </trkpt>
      <trkpt lat="45.22685" lon="0.73661">
        <ele>237</ele>
        <time>2017-11-19T09:16:45.000Z</time>
      </trkpt>
      <trkpt lat="45.22675" lon="0.73668">
        <ele>237</ele>
        <time>2017-11-19T09:16:48.000Z</time>
      </trkpt>
      <trkpt lat="45.22666" lon="0.73673">
        <ele>237</ele>
        <time>2017-11-19T09:16:51.000Z</time>
      </trkpt>
      <trkpt lat="45.22657" lon="0.73679">
        <ele>236</ele>
        <time>2017-11-19T09:16:54.000Z</time>
      </trkpt>
      <trkpt lat="45.22646" lon="0.73686">
        <ele>235</ele>
        <time>2017-11-19T09:16:57.000Z</time>
      </trkpt>
      <trkpt lat="45.22637" lon="0.73689">
        <ele>240</ele>
        <time>2017-11-19T09:17:00.000Z</time>
      </trkpt>
      <trkpt lat="45.22628" lon="0.73692">
        <ele>235</ele>
        <time>2017-11-19T09:17:04.000Z</time>
      </trkpt>
      <trkpt lat="45.22619" lon="0.73699">
        <ele>234</ele>
        <time>2017-11-19T09:17:08.000Z</time>
      </trkpt>
      <trkpt lat="45.22611" lon="0.73704">
        <ele>233</ele>
        <time>2017-11-19T09:17:11.000Z</time>
      </trkpt>
      <trkpt lat="45.226" lon="0.73704">
        <ele>235</ele>
        <time>2017-11-19T09:17:15.000Z</time>
      </trkpt>
      <trkpt lat="45.22591" lon="0.73702">
        <ele>235</ele>
        <time>2017-11-19T09:17:19.000Z</time>
      </trkpt>
      <trkpt lat="45.22579" lon="0.737">
        <ele>236</ele>
        <time>2017-11-19T09:17:24.000Z</time>
      </trkpt>
      <trkpt lat="45.22569" lon="0.73699">
        <ele>238</ele>
        <time>2017-11-19T09:17:29.000Z</time>
      </trkpt>
      <trkpt lat="45.22558" lon="0.73701">
        <ele>241</ele>
        <time>2017-11-19T09:17:34.000Z</time>
      </trkpt>
      <trkpt lat="45.22548" lon="0.73708">
        <ele>242</ele>
        <time>2017-11-19T09:17:39.000Z</time>
      </trkpt>
      <trkpt lat="45.2254" lon="0.73716">
        <ele>243</ele>
        <time>2017-11-19T09:17:43.000Z</time>
      </trkpt>
      <trkpt lat="45.22532" lon="0.73727">
        <ele>243</ele>
        <time>2017-11-19T09:17:47.000Z</time>
      </trkpt>
      <trkpt lat="45.22525" lon="0.73737">
        <ele>244</ele>
        <time>2017-11-19T09:17:52.000Z</time>
      </trkpt>
      <trkpt lat="45.22517" lon="0.73751">
        <ele>246</ele>
        <time>2017-11-19T09:17:58.000Z</time>
      </trkpt>
      <trkpt lat="45.22511" lon="0.73763">
        <ele>244</ele>
        <time>2017-11-19T09:18:02.000Z</time>
      </trkpt>
      <trkpt lat="45.22504" lon="0.73775">
        <ele>246</ele>
        <time>2017-11-19T09:18:06.000Z</time>
      </trkpt>
      <trkpt lat="45.22485" lon="0.73794">
        <ele>222</ele>
        <time>2017-11-19T09:18:09.095Z</time>
      </trkpt>
      <trkpt lat="45.2248" lon="0.73807">
        <ele>236</ele>
        <time>2017-11-19T09:18:12.095Z</time>
      </trkpt>
      <trkpt lat="45.22474" lon="0.73817">
        <ele>250</ele>
        <time>2017-11-19T09:18:19.000Z</time>
      </trkpt>
      <trkpt lat="45.22466" lon="0.73831">
        <ele>247</ele>
        <time>2017-11-19T09:18:22.000Z</time>
      </trkpt>
      <trkpt lat="45.22459" lon="0.73841">
        <ele>245</ele>
        <time>2017-11-19T09:18:25.000Z</time>
      </trkpt>
      <trkpt lat="45.22451" lon="0.73854">
        <ele>242</ele>
        <time>2017-11-19T09:18:29.000Z</time>
      </trkpt>
      <trkpt lat="45.22445" lon="0.73864">
        <ele>243</ele>
        <time>2017-11-19T09:18:32.000Z</time>
      </trkpt>
      <trkpt lat="45.22438" lon="0.73877">
        <ele>242</ele>
        <time>2017-11-19T09:18:36.000Z</time>
      </trkpt>
      <trkpt lat="45.22432" lon="0.7389">
        <ele>241</ele>
        <time>2017-11-19T09:18:40.000Z</time>
      </trkpt>
      <trkpt lat="45.22425" lon="0.739">
        <ele>242</ele>
        <time>2017-11-19T09:18:44.000Z</time>
      </trkpt>
      <trkpt lat="45.22418" lon="0.7391">
        <ele>245</ele>
        <time>2017-11-19T09:18:49.000Z</time>
      </trkpt>
      <trkpt lat="45.22412" lon="0.73922">
        <ele>245</ele>
        <time>2017-11-19T09:18:54.000Z</time>
      </trkpt>
      <trkpt lat="45.22406" lon="0.73933">
        <ele>248</ele>
        <time>2017-11-19T09:19:00.000Z</time>
      </trkpt>
      <trkpt lat="45.22403" lon="0.73945">
        <ele>246</ele>
        <time>2017-11-19T09:19:06.000Z</time>
      </trkpt>
      <trkpt lat="45.22397" lon="0.73956">
        <ele>248</ele>
        <time>2017-11-19T09:19:11.000Z</time>
      </trkpt>
      <trkpt lat="45.22395" lon="0.73969">
        <ele>251</ele>
        <time>2017-11-19T09:19:19.000Z</time>
      </trkpt>
      <trkpt lat="45.22393" lon="0.73981">
        <ele>255</ele>
        <time>2017-11-19T09:19:27.000Z</time>
      </trkpt>
      <trkpt lat="45.22386" lon="0.73992">
        <ele>258</ele>
        <time>2017-11-19T09:19:32.000Z</time>
      </trkpt>
      <trkpt lat="45.22385" lon="0.74005">
        <ele>262</ele>
        <time>2017-11-19T09:19:41.000Z</time>
      </trkpt>
      <trkpt lat="45.22383" lon="0.74019">
        <ele>259</ele>
        <time>2017-11-19T09:19:49.000Z</time>
      </trkpt>
      <trkpt lat="45.22374" lon="0.74024">
        <ele>261</ele>
        <time>2017-11-19T09:19:52.000Z</time>
      </trkpt>
      <trkpt lat="45.22368" lon="0.74033">
        <ele>258</ele>
        <time>2017-11-19T09:19:58.000Z</time>
      </trkpt>
      <trkpt lat="45.22362" lon="0.74044">
        <ele>256</ele>
        <time>2017-11-19T09:20:05.000Z</time>
      </trkpt>
      <trkpt lat="45.22358" lon="0.74056">
        <ele>256</ele>
        <time>2017-11-19T09:20:12.000Z</time>
      </trkpt>
      <trkpt lat="45.22352" lon="0.74066">
        <ele>263</ele>
        <time>2017-11-19T09:20:21.000Z</time>
      </trkpt>
      <trkpt lat="45.22346" lon="0.74075">
        <ele>262</ele>
        <time>2017-11-19T09:20:30.000Z</time>
      </trkpt>
      <trkpt lat="45.2234" lon="0.74085">
        <ele>264</ele>
        <time>2017-11-19T09:20:38.000Z</time>
      </trkpt>
      <trkpt lat="45.22336" lon="0.74097">
        <ele>267</ele>
        <time>2017-11-19T09:20:46.000Z</time>
      </trkpt>
      <trkpt lat="45.22331" lon="0.74109">
        <ele>270</ele>
        <time>2017-11-19T09:20:53.000Z</time>
      </trkpt>
      <trkpt lat="45.22325" lon="0.74119">
        <ele>270</ele>
        <time>2017-11-19T09:21:02.000Z</time>
      </trkpt>
      <trkpt lat="45.2232" lon="0.7413">
        <ele>272</ele>
        <time>2017-11-19T09:21:12.000Z</time>
      </trkpt>
      <trkpt lat="45.22321" lon="0.74144">
        <ele>270</ele>
        <time>2017-11-19T09:21:18.000Z</time>
      </trkpt>
      <trkpt lat="45.22324" lon="0.74157">
        <ele>271</ele>
        <time>2017-11-19T09:21:23.000Z</time>
      </trkpt>
      <trkpt lat="45.22328" lon="0.7417">
        <ele>272</ele>
        <time>2017-11-19T09:21:27.000Z</time>
      </trkpt>
      <trkpt lat="45.22332" lon="0.74183">
        <ele>268</ele>
        <time>2017-11-19T09:21:30.000Z</time>
      </trkpt>
      <trkpt lat="45.22334" lon="0.74197">
        <ele>268</ele>
        <time>2017-11-19T09:21:33.000Z</time>
      </trkpt>
      <trkpt lat="45.22338" lon="0.74215">
        <ele>270</ele>
        <time>2017-11-19T09:21:36.000Z</time>
      </trkpt>
      <trkpt lat="45.22341" lon="0.7423">
        <ele>266</ele>
        <time>2017-11-19T09:21:40.000Z</time>
      </trkpt>
      <trkpt lat="45.22347" lon="0.74241">
        <ele>267</ele>
        <time>2017-11-19T09:21:45.000Z</time>
      </trkpt>
      <trkpt lat="45.22344" lon="0.74254">
        <ele>267</ele>
        <time>2017-11-19T09:21:50.000Z</time>
      </trkpt>
      <trkpt lat="45.22333" lon="0.74258">
        <ele>268</ele>
        <time>2017-11-19T09:21:53.000Z</time>
      </trkpt>
      <trkpt lat="45.22322" lon="0.74261">
        <ele>267</ele>
        <time>2017-11-19T09:21:54.000Z</time>
      </trkpt>
      <trkpt lat="45.22309" lon="0.74269">
        <ele>266</ele>
        <time>2017-11-19T09:21:56.000Z</time>
      </trkpt>
      <trkpt lat="45.22298" lon="0.74274">
        <ele>265</ele>
        <time>2017-11-19T09:21:58.000Z</time>
      </trkpt>
      <trkpt lat="45.22287" lon="0.7428">
        <ele>266</ele>
        <time>2017-11-19T09:22:00.000Z</time>
      </trkpt>
      <trkpt lat="45.22272" lon="0.74289">
        <ele>267</ele>
        <time>2017-11-19T09:22:03.000Z</time>
      </trkpt>
      <trkpt lat="45.22262" lon="0.74293">
        <ele>268</ele>
        <time>2017-11-19T09:22:05.000Z</time>
      </trkpt>
      <trkpt lat="45.22246" lon="0.74298">
        <ele>271</ele>
        <time>2017-11-19T09:22:09.000Z</time>
      </trkpt>
      <trkpt lat="45.22235" lon="0.743">
        <ele>268</ele>
        <time>2017-11-19T09:22:11.000Z</time>
      </trkpt>
      <trkpt lat="45.22224" lon="0.74302">
        <ele>268</ele>
        <time>2017-11-19T09:22:14.000Z</time>
      </trkpt>
      <trkpt lat="45.22211" lon="0.74301">
        <ele>262</ele>
        <time>2017-11-19T09:22:18.000Z</time>
      </trkpt>
      <trkpt lat="45.22202" lon="0.74303">
        <ele>263</ele>
        <time>2017-11-19T09:22:21.000Z</time>
      </trkpt>
      <trkpt lat="45.22191" lon="0.74307">
        <ele>262</ele>
        <time>2017-11-19T09:22:25.000Z</time>
      </trkpt>
      <trkpt lat="45.22182" lon="0.74316">
        <ele>262</ele>
        <time>2017-11-19T09:22:29.000Z</time>
      </trkpt>
      <trkpt lat="45.22171" lon="0.74318">
        <ele>263</ele>
        <time>2017-11-19T09:22:34.000Z</time>
      </trkpt>
      <trkpt lat="45.22162" lon="0.74318">
        <ele>263</ele>
        <time>2017-11-19T09:22:37.000Z</time>
      </trkpt>
      <trkpt lat="45.2215" lon="0.74321">
        <ele>264</ele>
        <time>2017-11-19T09:22:41.000Z</time>
      </trkpt>
      <trkpt lat="45.22139" lon="0.7432">
        <ele>263</ele>
        <time>2017-11-19T09:22:45.000Z</time>
      </trkpt>
      <trkpt lat="45.2213" lon="0.7432">
        <ele>263</ele>
        <time>2017-11-19T09:22:48.000Z</time>
      </trkpt>
      <trkpt lat="45.22121" lon="0.74316">
        <ele>260</ele>
        <time>2017-11-19T09:22:52.000Z</time>
      </trkpt>
      <trkpt lat="45.2211" lon="0.74316">
        <ele>259</ele>
        <time>2017-11-19T09:22:56.000Z</time>
      </trkpt>
      <trkpt lat="45.22099" lon="0.74317">
        <ele>260</ele>
        <time>2017-11-19T09:23:00.000Z</time>
      </trkpt>
      <trkpt lat="45.22087" lon="0.74316">
        <ele>259</ele>
        <time>2017-11-19T09:23:04.000Z</time>
      </trkpt>
      <trkpt lat="45.22076" lon="0.74314">
        <ele>259</ele>
        <time>2017-11-19T09:23:07.000Z</time>
      </trkpt>
      <trkpt lat="45.22067" lon="0.7431">
        <ele>261</ele>
        <time>2017-11-19T09:23:10.000Z</time>
      </trkpt>
      <trkpt lat="45.22059" lon="0.74303">
        <ele>261</ele>
        <time>2017-11-19T09:23:14.000Z</time>
      </trkpt>
      <trkpt lat="45.22048" lon="0.74297">
        <ele>265</ele>
        <time>2017-11-19T09:23:18.000Z</time>
      </trkpt>
      <trkpt lat="45.22038" lon="0.74291">
        <ele>262</ele>
        <time>2017-11-19T09:23:22.000Z</time>
      </trkpt>
      <trkpt lat="45.22028" lon="0.74287">
        <ele>262</ele>
        <time>2017-11-19T09:23:25.000Z</time>
      </trkpt>
      <trkpt lat="45.22017" lon="0.74284">
        <ele>256</ele>
        <time>2017-11-19T09:23:29.000Z</time>
      </trkpt>
      <trkpt lat="45.22008" lon="0.7428">
        <ele>260</ele>
        <time>2017-11-19T09:23:32.000Z</time>
      </trkpt>
      <trkpt lat="45.21998" lon="0.74273">
        <ele>261</ele>
        <time>2017-11-19T09:23:34.000Z</time>
      </trkpt>
      <trkpt lat="45.21989" lon="0.74266">
        <ele>262</ele>
        <time>2017-11-19T09:23:37.000Z</time>
      </trkpt>
      <trkpt lat="45.21981" lon="0.74259">
        <ele>264</ele>
        <time>2017-11-19T09:23:40.000Z</time>
      </trkpt>
      <trkpt lat="45.21972" lon="0.74251">
        <ele>267</ele>
        <time>2017-11-19T09:23:44.000Z</time>
      </trkpt>
      <trkpt lat="45.21964" lon="0.74246">
        <ele>264</ele>
        <time>2017-11-19T09:23:48.000Z</time>
      </trkpt>
      <trkpt lat="45.21953" lon="0.74238">
        <ele>262</ele>
        <time>2017-11-19T09:23:53.000Z</time>
      </trkpt>
      <trkpt lat="45.21945" lon="0.74231">
        <ele>262</ele>
        <time>2017-11-19T09:23:56.000Z</time>
      </trkpt>
      <trkpt lat="45.21937" lon="0.74225">
        <ele>265</ele>
        <time>2017-11-19T09:24:00.000Z</time>
      </trkpt>
      <trkpt lat="45.21928" lon="0.74219">
        <ele>264</ele>
        <time>2017-11-19T09:24:05.000Z</time>
      </trkpt>
      <trkpt lat="45.21919" lon="0.74223">
        <ele>265</ele>
        <time>2017-11-19T09:24:10.000Z</time>
      </trkpt>
      <trkpt lat="45.21918" lon="0.7424">
        <ele>267</ele>
        <time>2017-11-19T09:24:13.000Z</time>
      </trkpt>
      <trkpt lat="45.21919" lon="0.74254">
        <ele>267</ele>
        <time>2017-11-19T09:24:17.000Z</time>
      </trkpt>
      <trkpt lat="45.21918" lon="0.74268">
        <ele>266</ele>
        <time>2017-11-19T09:24:22.000Z</time>
      </trkpt>
      <trkpt lat="45.21917" lon="0.74281">
        <ele>265</ele>
        <time>2017-11-19T09:24:28.000Z</time>
      </trkpt>
      <trkpt lat="45.21915" lon="0.74294">
        <ele>265</ele>
        <time>2017-11-19T09:24:34.000Z</time>
      </trkpt>
      <trkpt lat="45.21913" lon="0.74308">
        <ele>270</ele>
        <time>2017-11-19T09:24:41.000Z</time>
      </trkpt>
      <trkpt lat="45.21912" lon="0.74322">
        <ele>269</ele>
        <time>2017-11-19T09:24:47.000Z</time>
      </trkpt>
      <trkpt lat="45.21914" lon="0.74336">
        <ele>269</ele>
        <time>2017-11-19T09:24:53.000Z</time>
      </trkpt>
      <trkpt lat="45.21915" lon="0.7435">
        <ele>270</ele>
        <time>2017-11-19T09:24:58.000Z</time>
      </trkpt>
      <trkpt lat="45.21915" lon="0.74365">
        <ele>271</ele>
        <time>2017-11-19T09:25:03.000Z</time>
      </trkpt>
      <trkpt lat="45.21914" lon="0.74378">
        <ele>272</ele>
        <time>2017-11-19T09:25:08.000Z</time>
      </trkpt>
      <trkpt lat="45.21913" lon="0.74395">
        <ele>268</ele>
        <time>2017-11-19T09:25:12.000Z</time>
      </trkpt>
      <trkpt lat="45.21914" lon="0.74409">
        <ele>268</ele>
        <time>2017-11-19T09:25:16.000Z</time>
      </trkpt>
      <trkpt lat="45.21912" lon="0.74435">
        <ele>269</ele>
        <time>2017-11-19T09:25:22.000Z</time>
      </trkpt>
      <trkpt lat="45.21912" lon="0.7445">
        <ele>269</ele>
        <time>2017-11-19T09:25:26.000Z</time>
      </trkpt>
      <trkpt lat="45.21912" lon="0.74464">
        <ele>267</ele>
        <time>2017-11-19T09:25:29.000Z</time>
      </trkpt>
      <trkpt lat="45.21912" lon="0.74478">
        <ele>267</ele>
        <time>2017-11-19T09:25:32.000Z</time>
      </trkpt>
      <trkpt lat="45.21911" lon="0.74491">
        <ele>268</ele>
        <time>2017-11-19T09:25:35.000Z</time>
      </trkpt>
      <trkpt lat="45.21911" lon="0.74504">
        <ele>270</ele>
        <time>2017-11-19T09:25:38.000Z</time>
      </trkpt>
      <trkpt lat="45.21911" lon="0.74519">
        <ele>269</ele>
        <time>2017-11-19T09:25:42.000Z</time>
      </trkpt>
      <trkpt lat="45.2191" lon="0.74534">
        <ele>273</ele>
        <time>2017-11-19T09:25:46.000Z</time>
      </trkpt>
      <trkpt lat="45.2191" lon="0.74547">
        <ele>272</ele>
        <time>2017-11-19T09:25:50.000Z</time>
      </trkpt>
      <trkpt lat="45.21909" lon="0.74562">
        <ele>273</ele>
        <time>2017-11-19T09:25:55.000Z</time>
      </trkpt>
      <trkpt lat="45.21909" lon="0.74575">
        <ele>275</ele>
        <time>2017-11-19T09:25:59.000Z</time>
      </trkpt>
      <trkpt lat="45.21908" lon="0.74588">
        <ele>275</ele>
        <time>2017-11-19T09:26:03.000Z</time>
      </trkpt>
      <trkpt lat="45.21907" lon="0.74601">
        <ele>275</ele>
        <time>2017-11-19T09:26:07.000Z</time>
      </trkpt>
      <trkpt lat="45.21907" lon="0.74615">
        <ele>276</ele>
        <time>2017-11-19T09:26:11.000Z</time>
      </trkpt>
      <trkpt lat="45.21908" lon="0.74632">
        <ele>277</ele>
        <time>2017-11-19T09:26:15.000Z</time>
      </trkpt>
      <trkpt lat="45.21909" lon="0.74649">
        <ele>275</ele>
        <time>2017-11-19T09:26:19.000Z</time>
      </trkpt>
      <trkpt lat="45.2191" lon="0.74665">
        <ele>274</ele>
        <time>2017-11-19T09:26:23.000Z</time>
      </trkpt>
      <trkpt lat="45.21911" lon="0.74683">
        <ele>275</ele>
        <time>2017-11-19T09:26:28.000Z</time>
      </trkpt>
      <trkpt lat="45.2191" lon="0.74696">
        <ele>275</ele>
        <time>2017-11-19T09:26:31.000Z</time>
      </trkpt>
      <trkpt lat="45.2191" lon="0.74716">
        <ele>276</ele>
        <time>2017-11-19T09:26:35.000Z</time>
      </trkpt>
      <trkpt lat="45.21909" lon="0.74731">
        <ele>275</ele>
        <time>2017-11-19T09:26:39.000Z</time>
      </trkpt>
      <trkpt lat="45.21908" lon="0.74746">
        <ele>275</ele>
        <time>2017-11-19T09:26:43.000Z</time>
      </trkpt>
      <trkpt lat="45.21907" lon="0.74762">
        <ele>274</ele>
        <time>2017-11-19T09:26:47.000Z</time>
      </trkpt>
      <trkpt lat="45.21903" lon="0.74779">
        <ele>277</ele>
        <time>2017-11-19T09:26:51.000Z</time>
      </trkpt>
      <trkpt lat="45.21899" lon="0.74798">
        <ele>280</ele>
        <time>2017-11-19T09:26:56.000Z</time>
      </trkpt>
      <trkpt lat="45.21896" lon="0.74813">
        <ele>275</ele>
        <time>2017-11-19T09:27:00.000Z</time>
      </trkpt>
      <trkpt lat="45.21896" lon="0.7483">
        <ele>278</ele>
        <time>2017-11-19T09:27:04.000Z</time>
      </trkpt>
      <trkpt lat="45.21897" lon="0.74843">
        <ele>280</ele>
        <time>2017-11-19T09:27:07.000Z</time>
      </trkpt>
      <trkpt lat="45.21898" lon="0.74858">
        <ele>282</ele>
        <time>2017-11-19T09:27:10.000Z</time>
      </trkpt>
      <trkpt lat="45.21899" lon="0.74878">
        <ele>283</ele>
        <time>2017-11-19T09:27:14.000Z</time>
      </trkpt>
      <trkpt lat="45.21901" lon="0.74893">
        <ele>281</ele>
        <time>2017-11-19T09:27:18.000Z</time>
      </trkpt>
      <trkpt lat="45.21902" lon="0.74909">
        <ele>280</ele>
        <time>2017-11-19T09:27:22.000Z</time>
      </trkpt>
      <trkpt lat="45.21902" lon="0.74923">
        <ele>282</ele>
        <time>2017-11-19T09:27:25.000Z</time>
      </trkpt>
      <trkpt lat="45.219" lon="0.74938">
        <ele>280</ele>
        <time>2017-11-19T09:27:29.000Z</time>
      </trkpt>
      <trkpt lat="45.21896" lon="0.74958">
        <ele>280</ele>
        <time>2017-11-19T09:27:34.000Z</time>
      </trkpt>
      <trkpt lat="45.21895" lon="0.74974">
        <ele>280</ele>
        <time>2017-11-19T09:27:38.000Z</time>
      </trkpt>
      <trkpt lat="45.21895" lon="0.74989">
        <ele>282</ele>
        <time>2017-11-19T09:27:42.000Z</time>
      </trkpt>
      <trkpt lat="45.21892" lon="0.75001">
        <ele>268</ele>
        <time>2017-11-19T09:27:46.000Z</time>
      </trkpt>
      <trkpt lat="45.21888" lon="0.75012">
        <ele>277</ele>
        <time>2017-11-19T09:27:50.000Z</time>
      </trkpt>
      <trkpt lat="45.21882" lon="0.75025">
        <ele>280</ele>
        <time>2017-11-19T09:27:54.000Z</time>
      </trkpt>
      <trkpt lat="45.21876" lon="0.75037">
        <ele>271</ele>
        <time>2017-11-19T09:27:58.000Z</time>
      </trkpt>
      <trkpt lat="45.21868" lon="0.75052">
        <ele>280</ele>
        <time>2017-11-19T09:28:03.000Z</time>
      </trkpt>
      <trkpt lat="45.21864" lon="0.75066">
        <ele>283</ele>
        <time>2017-11-19T09:28:07.000Z</time>
      </trkpt>
      <trkpt lat="45.21873" lon="0.75086">
        <ele>284</ele>
        <time>2017-11-19T09:28:13.000Z</time>
      </trkpt>
      <trkpt lat="45.21884" lon="0.75084">
        <ele>282</ele>
        <time>2017-11-19T09:28:15.000Z</time>
      </trkpt>
      <trkpt lat="45.21897" lon="0.75072">
        <ele>282</ele>
        <time>2017-11-19T09:28:16.000Z</time>
      </trkpt>
      <trkpt lat="45.21908" lon="0.7507">
        <ele>279</ele>
        <time>2017-11-19T09:28:18.000Z</time>
      </trkpt>
      <trkpt lat="45.21923" lon="0.75065">
        <ele>281</ele>
        <time>2017-11-19T09:28:21.000Z</time>
      </trkpt>
      <trkpt lat="45.21933" lon="0.7506">
        <ele>282</ele>
        <time>2017-11-19T09:28:23.000Z</time>
      </trkpt>
      <trkpt lat="45.21942" lon="0.75053">
        <ele>280</ele>
        <time>2017-11-19T09:28:26.000Z</time>
      </trkpt>
      <trkpt lat="45.21953" lon="0.75054">
        <ele>279</ele>
        <time>2017-11-19T09:28:30.000Z</time>
      </trkpt>
      <trkpt lat="45.21951" lon="0.75069">
        <ele>278</ele>
        <time>2017-11-19T09:28:34.000Z</time>
      </trkpt>
      <trkpt lat="45.21946" lon="0.75082">
        <ele>276</ele>
        <time>2017-11-19T09:28:39.000Z</time>
      </trkpt>
      <trkpt lat="45.21941" lon="0.75093">
        <ele>277</ele>
        <time>2017-11-19T09:28:42.000Z</time>
      </trkpt>
      <trkpt lat="45.21936" lon="0.75108">
        <ele>276</ele>
        <time>2017-11-19T09:28:45.000Z</time>
      </trkpt>
      <trkpt lat="45.21931" lon="0.75125">
        <ele>274</ele>
        <time>2017-11-19T09:28:48.000Z</time>
      </trkpt>
      <trkpt lat="45.21928" lon="0.75141">
        <ele>273</ele>
        <time>2017-11-19T09:28:51.000Z</time>
      </trkpt>
      <trkpt lat="45.21926" lon="0.75174">
        <ele>270</ele>
        <time>2017-11-19T09:28:55.000Z</time>
      </trkpt>
      <trkpt lat="45.2193" lon="0.75192">
        <ele>270</ele>
        <time>2017-11-19T09:28:57.000Z</time>
      </trkpt>
      <trkpt lat="45.21932" lon="0.7521">
        <ele>267</ele>
        <time>2017-11-19T09:28:59.000Z</time>
      </trkpt>
      <trkpt lat="45.21938" lon="0.75231">
        <ele>268</ele>
        <time>2017-11-19T09:29:01.000Z</time>
      </trkpt>
      <trkpt lat="45.2194" lon="0.75247">
        <ele>267</ele>
        <time>2017-11-19T09:29:03.000Z</time>
      </trkpt>
      <trkpt lat="45.21942" lon="0.75264">
        <ele>269</ele>
        <time>2017-11-19T09:29:06.000Z</time>
      </trkpt>
      <trkpt lat="45.21943" lon="0.75282">
        <ele>268</ele>
        <time>2017-11-19T09:29:09.000Z</time>
      </trkpt>
      <trkpt lat="45.21945" lon="0.75298">
        <ele>272</ele>
        <time>2017-11-19T09:29:12.000Z</time>
      </trkpt>
      <trkpt lat="45.21946" lon="0.75312">
        <ele>270</ele>
        <time>2017-11-19T09:29:16.000Z</time>
      </trkpt>
      <trkpt lat="45.21954" lon="0.75326">
        <ele>272</ele>
        <time>2017-11-19T09:29:20.000Z</time>
      </trkpt>
      <trkpt lat="45.21965" lon="0.75334">
        <ele>273</ele>
        <time>2017-11-19T09:29:23.000Z</time>
      </trkpt>
      <trkpt lat="45.21975" lon="0.75343">
        <ele>273</ele>
        <time>2017-11-19T09:29:26.000Z</time>
      </trkpt>
      <trkpt lat="45.21987" lon="0.7535">
        <ele>274</ele>
        <time>2017-11-19T09:29:29.000Z</time>
      </trkpt>
      <trkpt lat="45.21998" lon="0.75358">
        <ele>275</ele>
        <time>2017-11-19T09:29:32.000Z</time>
      </trkpt>
      <trkpt lat="45.2201" lon="0.75366">
        <ele>274</ele>
        <time>2017-11-19T09:29:35.000Z</time>
      </trkpt>
      <trkpt lat="45.22025" lon="0.75377">
        <ele>274</ele>
        <time>2017-11-19T09:29:39.000Z</time>
      </trkpt>
      <trkpt lat="45.22035" lon="0.75385">
        <ele>275</ele>
        <time>2017-11-19T09:29:42.000Z</time>
      </trkpt>
      <trkpt lat="45.22048" lon="0.75396">
        <ele>275</ele>
        <time>2017-11-19T09:29:46.000Z</time>
      </trkpt>
      <trkpt lat="45.22057" lon="0.75405">
        <ele>276</ele>
        <time>2017-11-19T09:29:49.000Z</time>
      </trkpt>
      <trkpt lat="45.22065" lon="0.75415">
        <ele>276</ele>
        <time>2017-11-19T09:29:52.000Z</time>
      </trkpt>
      <trkpt lat="45.22073" lon="0.75424">
        <ele>277</ele>
        <time>2017-11-19T09:29:55.000Z</time>
      </trkpt>
      <trkpt lat="45.2208" lon="0.75433">
        <ele>278</ele>
        <time>2017-11-19T09:29:58.000Z</time>
      </trkpt>
      <trkpt lat="45.22087" lon="0.75443">
        <ele>278</ele>
        <time>2017-11-19T09:30:01.000Z</time>
      </trkpt>
      <trkpt lat="45.22094" lon="0.75453">
        <ele>279</ele>
        <time>2017-11-19T09:30:04.000Z</time>
      </trkpt>
      <trkpt lat="45.22101" lon="0.75464">
        <ele>278</ele>
        <time>2017-11-19T09:30:07.000Z</time>
      </trkpt>
      <trkpt lat="45.22107" lon="0.75475">
        <ele>278</ele>
        <time>2017-11-19T09:30:10.000Z</time>
      </trkpt>
      <trkpt lat="45.22114" lon="0.7549">
        <ele>277</ele>
        <time>2017-11-19T09:30:14.000Z</time>
      </trkpt>
      <trkpt lat="45.2212" lon="0.75502">
        <ele>278</ele>
        <time>2017-11-19T09:30:17.000Z</time>
      </trkpt>
      <trkpt lat="45.22128" lon="0.75516">
        <ele>271</ele>
        <time>2017-11-19T09:30:21.000Z</time>
      </trkpt>
      <trkpt lat="45.22133" lon="0.75529">
        <ele>275</ele>
        <time>2017-11-19T09:30:25.000Z</time>
      </trkpt>
      <trkpt lat="45.22139" lon="0.75541">
        <ele>276</ele>
        <time>2017-11-19T09:30:28.000Z</time>
      </trkpt>
      <trkpt lat="45.22146" lon="0.75555">
        <ele>278</ele>
        <time>2017-11-19T09:30:31.000Z</time>
      </trkpt>
      <trkpt lat="45.22153" lon="0.75569">
        <ele>278</ele>
        <time>2017-11-19T09:30:34.000Z</time>
      </trkpt>
      <trkpt lat="45.2216" lon="0.75584">
        <ele>278</ele>
        <time>2017-11-19T09:30:37.000Z</time>
      </trkpt>
      <trkpt lat="45.22166" lon="0.75596">
        <ele>278</ele>
        <time>2017-11-19T09:30:39.000Z</time>
      </trkpt>
      <trkpt lat="45.22172" lon="0.75607">
        <ele>278</ele>
        <time>2017-11-19T09:30:41.000Z</time>
      </trkpt>
      <trkpt lat="45.22176" lon="0.75623">
        <ele>277</ele>
        <time>2017-11-19T09:30:44.000Z</time>
      </trkpt>
      <trkpt lat="45.22181" lon="0.75638">
        <ele>275</ele>
        <time>2017-11-19T09:30:47.000Z</time>
      </trkpt>
      <trkpt lat="45.22186" lon="0.7565">
        <ele>275</ele>
        <time>2017-11-19T09:30:50.000Z</time>
      </trkpt>
      <trkpt lat="45.22186" lon="0.75664">
        <ele>273</ele>
        <time>2017-11-19T09:30:53.000Z</time>
      </trkpt>
      <trkpt lat="45.22177" lon="0.75677">
        <ele>272</ele>
        <time>2017-11-19T09:30:56.000Z</time>
      </trkpt>
      <trkpt lat="45.22168" lon="0.75685">
        <ele>274</ele>
        <time>2017-11-19T09:30:59.000Z</time>
      </trkpt>
      <trkpt lat="45.22159" lon="0.75686">
        <ele>275</ele>
        <time>2017-11-19T09:31:03.000Z</time>
      </trkpt>
      <trkpt lat="45.22148" lon="0.75691">
        <ele>277</ele>
        <time>2017-11-19T09:31:07.000Z</time>
      </trkpt>
      <trkpt lat="45.22139" lon="0.75695">
        <ele>277</ele>
        <time>2017-11-19T09:31:10.000Z</time>
      </trkpt>
      <trkpt lat="45.22128" lon="0.75696">
        <ele>277</ele>
        <time>2017-11-19T09:31:14.000Z</time>
      </trkpt>
      <trkpt lat="45.22119" lon="0.75704">
        <ele>276</ele>
        <time>2017-11-19T09:31:19.000Z</time>
      </trkpt>
      <trkpt lat="45.22113" lon="0.75712">
        <ele>276</ele>
        <time>2017-11-19T09:31:22.000Z</time>
      </trkpt>
      <trkpt lat="45.22104" lon="0.75724">
        <ele>275</ele>
        <time>2017-11-19T09:31:26.000Z</time>
      </trkpt>
      <trkpt lat="45.22098" lon="0.75736">
        <ele>276</ele>
        <time>2017-11-19T09:31:29.000Z</time>
      </trkpt>
      <trkpt lat="45.22088" lon="0.75744">
        <ele>275</ele>
        <time>2017-11-19T09:31:35.000Z</time>
      </trkpt>
      <trkpt lat="45.22081" lon="0.75757">
        <ele>255</ele>
        <time>2017-11-19T09:31:39.000Z</time>
      </trkpt>
      <trkpt lat="45.22075" lon="0.75767">
        <ele>264</ele>
        <time>2017-11-19T09:31:41.000Z</time>
      </trkpt>
      <trkpt lat="45.22067" lon="0.75781">
        <ele>267</ele>
        <time>2017-11-19T09:31:43.000Z</time>
      </trkpt>
      <trkpt lat="45.22057" lon="0.75798">
        <ele>269</ele>
        <time>2017-11-19T09:31:45.000Z</time>
      </trkpt>
      <trkpt lat="45.22047" lon="0.7581">
        <ele>269</ele>
        <time>2017-11-19T09:31:47.000Z</time>
      </trkpt>
      <trkpt lat="45.2204" lon="0.75829">
        <ele>269</ele>
        <time>2017-11-19T09:31:49.000Z</time>
      </trkpt>
      <trkpt lat="45.22032" lon="0.75834">
        <ele>268</ele>
        <time>2017-11-19T09:31:50.000Z</time>
      </trkpt>
      <trkpt lat="45.22024" lon="0.75847">
        <ele>267</ele>
        <time>2017-11-19T09:31:52.000Z</time>
      </trkpt>
      <trkpt lat="45.2202" lon="0.7586">
        <ele>266</ele>
        <time>2017-11-19T09:31:53.000Z</time>
      </trkpt>
      <trkpt lat="45.22011" lon="0.75875">
        <ele>264</ele>
        <time>2017-11-19T09:31:55.000Z</time>
      </trkpt>
      <trkpt lat="45.22006" lon="0.75887">
        <ele>264</ele>
        <time>2017-11-19T09:31:57.000Z</time>
      </trkpt>
      <trkpt lat="45.21999" lon="0.75899">
        <ele>266</ele>
        <time>2017-11-19T09:32:01.000Z</time>
      </trkpt>
      <trkpt lat="45.21991" lon="0.75905">
        <ele>265</ele>
        <time>2017-11-19T09:32:05.000Z</time>
      </trkpt>
      <trkpt lat="45.21981" lon="0.75909">
        <ele>269</ele>
        <time>2017-11-19T09:32:13.000Z</time>
      </trkpt>
      <trkpt lat="45.21973" lon="0.75912">
        <ele>269</ele>
        <time>2017-11-19T09:32:20.000Z</time>
      </trkpt>
      <trkpt lat="45.21964" lon="0.75921">
        <ele>273</ele>
        <time>2017-11-19T09:32:25.000Z</time>
      </trkpt>
      <trkpt lat="45.21955" lon="0.75928">
        <ele>272</ele>
        <time>2017-11-19T09:32:30.000Z</time>
      </trkpt>
      <trkpt lat="45.21947" lon="0.75933">
        <ele>274</ele>
        <time>2017-11-19T09:32:38.000Z</time>
      </trkpt>
      <trkpt lat="45.21937" lon="0.75937">
        <ele>271</ele>
        <time>2017-11-19T09:32:50.000Z</time>
      </trkpt>
      <trkpt lat="45.21927" lon="0.75942">
        <ele>272</ele>
        <time>2017-11-19T09:32:56.000Z</time>
      </trkpt>
      <trkpt lat="45.21919" lon="0.75946">
        <ele>273</ele>
        <time>2017-11-19T09:33:03.000Z</time>
      </trkpt>
      <trkpt lat="45.21909" lon="0.75954">
        <ele>269</ele>
        <time>2017-11-19T09:34:11.000Z</time>
      </trkpt>
      <trkpt lat="45.21903" lon="0.75965">
        <ele>268</ele>
        <time>2017-11-19T09:34:14.000Z</time>
      </trkpt>
      <trkpt lat="45.21899" lon="0.75984">
        <ele>267</ele>
        <time>2017-11-19T09:34:16.000Z</time>
      </trkpt>
      <trkpt lat="45.21894" lon="0.76001">
        <ele>266</ele>
        <time>2017-11-19T09:34:19.000Z</time>
      </trkpt>
      <trkpt lat="45.21887" lon="0.76018">
        <ele>268</ele>
        <time>2017-11-19T09:34:22.000Z</time>
      </trkpt>
      <trkpt lat="45.21885" lon="0.76037">
        <ele>266</ele>
        <time>2017-11-19T09:34:25.000Z</time>
      </trkpt>
      <trkpt lat="45.21883" lon="0.76055">
        <ele>267</ele>
        <time>2017-11-19T09:34:27.000Z</time>
      </trkpt>
      <trkpt lat="45.2188" lon="0.7607">
        <ele>267</ele>
        <time>2017-11-19T09:34:30.000Z</time>
      </trkpt>
      <trkpt lat="45.21875" lon="0.76084">
        <ele>264</ele>
        <time>2017-11-19T09:34:34.000Z</time>
      </trkpt>
      <trkpt lat="45.2187" lon="0.76096">
        <ele>264</ele>
        <time>2017-11-19T09:35:48.000Z</time>
      </trkpt>
      <trkpt lat="45.21869" lon="0.76109">
        <ele>261</ele>
        <time>2017-11-19T09:35:51.000Z</time>
      </trkpt>
      <trkpt lat="45.21866" lon="0.76123">
        <ele>260</ele>
        <time>2017-11-19T09:35:54.000Z</time>
      </trkpt>
      <trkpt lat="45.21862" lon="0.76137">
        <ele>261</ele>
        <time>2017-11-19T09:35:58.000Z</time>
      </trkpt>
      <trkpt lat="45.21856" lon="0.76154">
        <ele>261</ele>
        <time>2017-11-19T09:36:02.000Z</time>
      </trkpt>
      <trkpt lat="45.2185" lon="0.76171">
        <ele>261</ele>
        <time>2017-11-19T09:36:04.000Z</time>
      </trkpt>
      <trkpt lat="45.21846" lon="0.76185">
        <ele>261</ele>
        <time>2017-11-19T09:36:06.000Z</time>
      </trkpt>
      <trkpt lat="45.21841" lon="0.76199">
        <ele>259</ele>
        <time>2017-11-19T09:36:10.000Z</time>
      </trkpt>
      <trkpt lat="45.21837" lon="0.76212">
        <ele>256</ele>
        <time>2017-11-19T09:36:12.000Z</time>
      </trkpt>
      <trkpt lat="45.21833" lon="0.76225">
        <ele>256</ele>
        <time>2017-11-19T09:36:14.000Z</time>
      </trkpt>
      <trkpt lat="45.21832" lon="0.76238">
        <ele>256</ele>
        <time>2017-11-19T09:36:16.000Z</time>
      </trkpt>
      <trkpt lat="45.21826" lon="0.76253">
        <ele>253</ele>
        <time>2017-11-19T09:36:19.000Z</time>
      </trkpt>
      <trkpt lat="45.21819" lon="0.76267">
        <ele>252</ele>
        <time>2017-11-19T09:36:21.000Z</time>
      </trkpt>
      <trkpt lat="45.21815" lon="0.76281">
        <ele>251</ele>
        <time>2017-11-19T09:36:23.000Z</time>
      </trkpt>
      <trkpt lat="45.21809" lon="0.76297">
        <ele>249</ele>
        <time>2017-11-19T09:36:26.000Z</time>
      </trkpt>
      <trkpt lat="45.21803" lon="0.76312">
        <ele>248</ele>
        <time>2017-11-19T09:36:29.000Z</time>
      </trkpt>
      <trkpt lat="45.21799" lon="0.76325">
        <ele>248</ele>
        <time>2017-11-19T09:36:31.000Z</time>
      </trkpt>
      <trkpt lat="45.21794" lon="0.76338">
        <ele>247</ele>
        <time>2017-11-19T09:36:33.000Z</time>
      </trkpt>
      <trkpt lat="45.2179" lon="0.76359">
        <ele>246</ele>
        <time>2017-11-19T09:36:36.000Z</time>
      </trkpt>
      <trkpt lat="45.2178" lon="0.7637">
        <ele>245</ele>
        <time>2017-11-19T09:36:39.000Z</time>
      </trkpt>
      <trkpt lat="45.21775" lon="0.76382">
        <ele>242</ele>
        <time>2017-11-19T09:36:41.000Z</time>
      </trkpt>
      <trkpt lat="45.21767" lon="0.76393">
        <ele>241</ele>
        <time>2017-11-19T09:36:44.000Z</time>
      </trkpt>
      <trkpt lat="45.21759" lon="0.76403">
        <ele>241</ele>
        <time>2017-11-19T09:36:47.000Z</time>
      </trkpt>
      <trkpt lat="45.21751" lon="0.76417">
        <ele>242</ele>
        <time>2017-11-19T09:36:50.000Z</time>
      </trkpt>
      <trkpt lat="45.21744" lon="0.76426">
        <ele>242</ele>
        <time>2017-11-19T09:36:52.000Z</time>
      </trkpt>
      <trkpt lat="45.21736" lon="0.76437">
        <ele>243</ele>
        <time>2017-11-19T09:36:55.000Z</time>
      </trkpt>
      <trkpt lat="45.21726" lon="0.76448">
        <ele>243</ele>
        <time>2017-11-19T09:36:58.000Z</time>
      </trkpt>
      <trkpt lat="45.21718" lon="0.76457">
        <ele>242</ele>
        <time>2017-11-19T09:37:01.000Z</time>
      </trkpt>
      <trkpt lat="45.2171" lon="0.76463">
        <ele>241</ele>
        <time>2017-11-19T09:37:04.000Z</time>
      </trkpt>
      <trkpt lat="45.21701" lon="0.76472">
        <ele>237</ele>
        <time>2017-11-19T09:37:07.000Z</time>
      </trkpt>
      <trkpt lat="45.21693" lon="0.76486">
        <ele>238</ele>
        <time>2017-11-19T09:37:10.000Z</time>
      </trkpt>
      <trkpt lat="45.21686" lon="0.76503">
        <ele>238</ele>
        <time>2017-11-19T09:37:11.000Z</time>
      </trkpt>
      <trkpt lat="45.21677" lon="0.76509">
        <ele>239</ele>
        <time>2017-11-19T09:37:13.000Z</time>
      </trkpt>
      <trkpt lat="45.2167" lon="0.76518">
        <ele>239</ele>
        <time>2017-11-19T09:37:15.000Z</time>
      </trkpt>
      <trkpt lat="45.21661" lon="0.76529">
        <ele>237</ele>
        <time>2017-11-19T09:37:18.000Z</time>
      </trkpt>
      <trkpt lat="45.21653" lon="0.76538">
        <ele>236</ele>
        <time>2017-11-19T09:37:20.000Z</time>
      </trkpt>
      <trkpt lat="45.21647" lon="0.76552">
        <ele>237</ele>
        <time>2017-11-19T09:37:22.000Z</time>
      </trkpt>
      <trkpt lat="45.21637" lon="0.7656">
        <ele>236</ele>
        <time>2017-11-19T09:37:24.000Z</time>
      </trkpt>
      <trkpt lat="45.21629" lon="0.76574">
        <ele>233</ele>
        <time>2017-11-19T09:37:27.000Z</time>
      </trkpt>
      <trkpt lat="45.21621" lon="0.76586">
        <ele>235</ele>
        <time>2017-11-19T09:37:30.000Z</time>
      </trkpt>
      <trkpt lat="45.21612" lon="0.76593">
        <ele>234</ele>
        <time>2017-11-19T09:37:32.000Z</time>
      </trkpt>
      <trkpt lat="45.21605" lon="0.76602">
        <ele>233</ele>
        <time>2017-11-19T09:37:34.000Z</time>
      </trkpt>
      <trkpt lat="45.21598" lon="0.76619">
        <ele>234</ele>
        <time>2017-11-19T09:37:36.000Z</time>
      </trkpt>
      <trkpt lat="45.21596" lon="0.76634">
        <ele>232</ele>
        <time>2017-11-19T09:37:38.000Z</time>
      </trkpt>
      <trkpt lat="45.21589" lon="0.76647">
        <ele>231</ele>
        <time>2017-11-19T09:37:40.000Z</time>
      </trkpt>
      <trkpt lat="45.21584" lon="0.76661">
        <ele>229</ele>
        <time>2017-11-19T09:37:42.000Z</time>
      </trkpt>
      <trkpt lat="45.21577" lon="0.76674">
        <ele>230</ele>
        <time>2017-11-19T09:37:44.000Z</time>
      </trkpt>
      <trkpt lat="45.21573" lon="0.76691">
        <ele>229</ele>
        <time>2017-11-19T09:37:46.000Z</time>
      </trkpt>
      <trkpt lat="45.21564" lon="0.76708">
        <ele>227</ele>
        <time>2017-11-19T09:37:49.000Z</time>
      </trkpt>
      <trkpt lat="45.21554" lon="0.76725">
        <ele>227</ele>
        <time>2017-11-19T09:37:52.000Z</time>
      </trkpt>
      <trkpt lat="45.21546" lon="0.76732">
        <ele>225</ele>
        <time>2017-11-19T09:37:54.000Z</time>
      </trkpt>
      <trkpt lat="45.21534" lon="0.76741">
        <ele>224</ele>
        <time>2017-11-19T09:37:56.000Z</time>
      </trkpt>
      <trkpt lat="45.21528" lon="0.76752">
        <ele>222</ele>
        <time>2017-11-19T09:37:58.000Z</time>
      </trkpt>
      <trkpt lat="45.21518" lon="0.76761">
        <ele>221</ele>
        <time>2017-11-19T09:38:00.000Z</time>
      </trkpt>
      <trkpt lat="45.21511" lon="0.76771">
        <ele>222</ele>
        <time>2017-11-19T09:38:02.000Z</time>
      </trkpt>
      <trkpt lat="45.21505" lon="0.76781">
        <ele>221</ele>
        <time>2017-11-19T09:38:04.000Z</time>
      </trkpt>
      <trkpt lat="45.21497" lon="0.76792">
        <ele>222</ele>
        <time>2017-11-19T09:38:06.000Z</time>
      </trkpt>
      <trkpt lat="45.21489" lon="0.76805">
        <ele>222</ele>
        <time>2017-11-19T09:38:08.000Z</time>
      </trkpt>
      <trkpt lat="45.21481" lon="0.76816">
        <ele>223</ele>
        <time>2017-11-19T09:38:10.000Z</time>
      </trkpt>
      <trkpt lat="45.21478" lon="0.76832">
        <ele>222</ele>
        <time>2017-11-19T09:38:12.000Z</time>
      </trkpt>
      <trkpt lat="45.2147" lon="0.76851">
        <ele>221</ele>
        <time>2017-11-19T09:38:15.000Z</time>
      </trkpt>
      <trkpt lat="45.21467" lon="0.76864">
        <ele>220</ele>
        <time>2017-11-19T09:38:17.000Z</time>
      </trkpt>
      <trkpt lat="45.2146" lon="0.76884">
        <ele>221</ele>
        <time>2017-11-19T09:38:20.000Z</time>
      </trkpt>
      <trkpt lat="45.21455" lon="0.76898">
        <ele>220</ele>
        <time>2017-11-19T09:38:22.000Z</time>
      </trkpt>
      <trkpt lat="45.21449" lon="0.7691">
        <ele>219</ele>
        <time>2017-11-19T09:38:24.000Z</time>
      </trkpt>
      <trkpt lat="45.21445" lon="0.76929">
        <ele>220</ele>
        <time>2017-11-19T09:38:26.000Z</time>
      </trkpt>
      <trkpt lat="45.21441" lon="0.76942">
        <ele>219</ele>
        <time>2017-11-19T09:38:28.000Z</time>
      </trkpt>
      <trkpt lat="45.21435" lon="0.76956">
        <ele>218</ele>
        <time>2017-11-19T09:38:30.000Z</time>
      </trkpt>
      <trkpt lat="45.21434" lon="0.7697">
        <ele>217</ele>
        <time>2017-11-19T09:38:32.000Z</time>
      </trkpt>
      <trkpt lat="45.21429" lon="0.76988">
        <ele>218</ele>
        <time>2017-11-19T09:38:34.000Z</time>
      </trkpt>
      <trkpt lat="45.21424" lon="0.77003">
        <ele>217</ele>
        <time>2017-11-19T09:38:36.000Z</time>
      </trkpt>
      <trkpt lat="45.21427" lon="0.77021">
        <ele>213</ele>
        <time>2017-11-19T09:38:38.000Z</time>
      </trkpt>
      <trkpt lat="45.21424" lon="0.77036">
        <ele>213</ele>
        <time>2017-11-19T09:38:40.000Z</time>
      </trkpt>
      <trkpt lat="45.21423" lon="0.77058">
        <ele>209</ele>
        <time>2017-11-19T09:38:43.000Z</time>
      </trkpt>
      <trkpt lat="45.21421" lon="0.77075">
        <ele>204</ele>
        <time>2017-11-19T09:38:46.000Z</time>
      </trkpt>
      <trkpt lat="45.21414" lon="0.77087">
        <ele>202</ele>
        <time>2017-11-19T09:38:48.000Z</time>
      </trkpt>
      <trkpt lat="45.21407" lon="0.77102">
        <ele>198</ele>
        <time>2017-11-19T09:38:51.000Z</time>
      </trkpt>
      <trkpt lat="45.21396" lon="0.7711">
        <ele>193</ele>
        <time>2017-11-19T09:38:53.000Z</time>
      </trkpt>
      <trkpt lat="45.21386" lon="0.77112">
        <ele>192</ele>
        <time>2017-11-19T09:38:55.000Z</time>
      </trkpt>
      <trkpt lat="45.21373" lon="0.7711">
        <ele>189</ele>
        <time>2017-11-19T09:38:57.000Z</time>
      </trkpt>
      <trkpt lat="45.21362" lon="0.77106">
        <ele>188</ele>
        <time>2017-11-19T09:38:59.000Z</time>
      </trkpt>
      <trkpt lat="45.21349" lon="0.771">
        <ele>188</ele>
        <time>2017-11-19T09:39:01.000Z</time>
      </trkpt>
      <trkpt lat="45.21336" lon="0.77098">
        <ele>186</ele>
        <time>2017-11-19T09:39:03.000Z</time>
      </trkpt>
      <trkpt lat="45.21323" lon="0.77099">
        <ele>187</ele>
        <time>2017-11-19T09:39:05.000Z</time>
      </trkpt>
      <trkpt lat="45.21312" lon="0.77101">
        <ele>187</ele>
        <time>2017-11-19T09:39:07.000Z</time>
      </trkpt>
      <trkpt lat="45.21301" lon="0.77097">
        <ele>188</ele>
        <time>2017-11-19T09:39:11.000Z</time>
      </trkpt>
      <trkpt lat="45.21307" lon="0.77087">
        <ele>176</ele>
        <time>2017-11-19T09:40:31.000Z</time>
      </trkpt>
      <trkpt lat="45.21315" lon="0.77081">
        <ele>165</ele>
        <time>2017-11-19T09:42:41.000Z</time>
      </trkpt>
      <trkpt lat="45.21315" lon="0.77094">
        <ele>178</ele>
        <time>2017-11-19T09:43:49.000Z</time>
      </trkpt>
      <trkpt lat="45.21306" lon="0.77096">
        <ele>171</ele>
        <time>2017-11-19T09:46:40.000Z</time>
      </trkpt>
      <trkpt lat="45.2131" lon="0.77086">
        <ele>170</ele>
        <time>2017-11-19T09:51:17.000Z</time>
      </trkpt>
      <trkpt lat="45.21304" lon="0.77095">
        <ele>176</ele>
        <time>2017-11-19T09:51:33.000Z</time>
      </trkpt>
      <trkpt lat="45.21301" lon="0.7711">
        <ele>174</ele>
        <time>2017-11-19T09:51:36.000Z</time>
      </trkpt>
      <trkpt lat="45.21294" lon="0.77124">
        <ele>174</ele>
        <time>2017-11-19T09:51:39.000Z</time>
      </trkpt>
      <trkpt lat="45.21283" lon="0.77129">
        <ele>175</ele>
        <time>2017-11-19T09:51:41.000Z</time>
      </trkpt>
      <trkpt lat="45.21273" lon="0.77133">
        <ele>177</ele>
        <time>2017-11-19T09:51:43.000Z</time>
      </trkpt>
      <trkpt lat="45.21264" lon="0.77134">
        <ele>177</ele>
        <time>2017-11-19T09:51:46.000Z</time>
      </trkpt>
      <trkpt lat="45.21267" lon="0.7715">
        <ele>174</ele>
        <time>2017-11-19T09:51:51.000Z</time>
      </trkpt>
      <trkpt lat="45.2128" lon="0.77157">
        <ele>174</ele>
        <time>2017-11-19T09:51:54.000Z</time>
      </trkpt>
      <trkpt lat="45.21288" lon="0.77161">
        <ele>175</ele>
        <time>2017-11-19T09:51:56.000Z</time>
      </trkpt>
      <trkpt lat="45.21297" lon="0.77166">
        <ele>173</ele>
        <time>2017-11-19T09:51:58.000Z</time>
      </trkpt>
      <trkpt lat="45.21309" lon="0.77173">
        <ele>173</ele>
        <time>2017-11-19T09:52:01.000Z</time>
      </trkpt>
      <trkpt lat="45.2132" lon="0.77172">
        <ele>174</ele>
        <time>2017-11-19T09:52:04.000Z</time>
      </trkpt>
      <trkpt lat="45.21333" lon="0.77172">
        <ele>173</ele>
        <time>2017-11-19T09:52:07.000Z</time>
      </trkpt>
      <trkpt lat="45.21344" lon="0.77173">
        <ele>175</ele>
        <time>2017-11-19T09:52:10.000Z</time>
      </trkpt>
      <trkpt lat="45.21357" lon="0.77172">
        <ele>176</ele>
        <time>2017-11-19T09:52:13.000Z</time>
      </trkpt>
      <trkpt lat="45.21368" lon="0.77173">
        <ele>178</ele>
        <time>2017-11-19T09:52:16.000Z</time>
      </trkpt>
      <trkpt lat="45.21378" lon="0.77175">
        <ele>179</ele>
        <time>2017-11-19T09:52:19.000Z</time>
      </trkpt>
      <trkpt lat="45.21388" lon="0.77179">
        <ele>176</ele>
        <time>2017-11-19T09:52:22.000Z</time>
      </trkpt>
      <trkpt lat="45.21397" lon="0.77184">
        <ele>176</ele>
        <time>2017-11-19T09:52:25.000Z</time>
      </trkpt>
      <trkpt lat="45.21408" lon="0.77187">
        <ele>177</ele>
        <time>2017-11-19T09:52:28.000Z</time>
      </trkpt>
      <trkpt lat="45.21418" lon="0.77192">
        <ele>177</ele>
        <time>2017-11-19T09:52:30.000Z</time>
      </trkpt>
      <trkpt lat="45.2143" lon="0.77197">
        <ele>177</ele>
        <time>2017-11-19T09:52:33.000Z</time>
      </trkpt>
      <trkpt lat="45.21439" lon="0.77204">
        <ele>178</ele>
        <time>2017-11-19T09:52:36.000Z</time>
      </trkpt>
      <trkpt lat="45.21448" lon="0.77205">
        <ele>178</ele>
        <time>2017-11-19T09:52:38.000Z</time>
      </trkpt>
      <trkpt lat="45.21458" lon="0.77213">
        <ele>178</ele>
        <time>2017-11-19T09:52:41.000Z</time>
      </trkpt>
      <trkpt lat="45.21466" lon="0.77221">
        <ele>181</ele>
        <time>2017-11-19T09:52:44.000Z</time>
      </trkpt>
      <trkpt lat="45.21478" lon="0.77226">
        <ele>180</ele>
        <time>2017-11-19T09:52:47.000Z</time>
      </trkpt>
      <trkpt lat="45.2149" lon="0.77227">
        <ele>180</ele>
        <time>2017-11-19T09:52:50.000Z</time>
      </trkpt>
      <trkpt lat="45.21503" lon="0.77226">
        <ele>181</ele>
        <time>2017-11-19T09:52:53.000Z</time>
      </trkpt>
      <trkpt lat="45.21516" lon="0.77223">
        <ele>182</ele>
        <time>2017-11-19T09:52:56.000Z</time>
      </trkpt>
      <trkpt lat="45.21526" lon="0.77219">
        <ele>181</ele>
        <time>2017-11-19T09:52:59.000Z</time>
      </trkpt>
      <trkpt lat="45.21536" lon="0.77219">
        <ele>184</ele>
        <time>2017-11-19T09:53:02.000Z</time>
      </trkpt>
      <trkpt lat="45.21571" lon="0.77233">
        <ele>182</ele>
        <time>2017-11-19T09:53:09.000Z</time>
      </trkpt>
      <trkpt lat="45.21579" lon="0.77241">
        <ele>185</ele>
        <time>2017-11-19T09:53:12.000Z</time>
      </trkpt>
      <trkpt lat="45.21589" lon="0.77247">
        <ele>185</ele>
        <time>2017-11-19T09:53:15.000Z</time>
      </trkpt>
      <trkpt lat="45.21598" lon="0.77252">
        <ele>185</ele>
        <time>2017-11-19T09:53:17.000Z</time>
      </trkpt>
      <trkpt lat="45.21608" lon="0.77261">
        <ele>185</ele>
        <time>2017-11-19T09:53:20.000Z</time>
      </trkpt>
      <trkpt lat="45.21617" lon="0.77271">
        <ele>186</ele>
        <time>2017-11-19T09:53:23.000Z</time>
      </trkpt>
      <trkpt lat="45.21626" lon="0.77279">
        <ele>186</ele>
        <time>2017-11-19T09:53:26.000Z</time>
      </trkpt>
      <trkpt lat="45.21634" lon="0.77289">
        <ele>186</ele>
        <time>2017-11-19T09:53:30.000Z</time>
      </trkpt>
      <trkpt lat="45.21638" lon="0.77301">
        <ele>189</ele>
        <time>2017-11-19T09:53:33.000Z</time>
      </trkpt>
      <trkpt lat="45.21642" lon="0.77314">
        <ele>189</ele>
        <time>2017-11-19T09:53:36.000Z</time>
      </trkpt>
      <trkpt lat="45.21648" lon="0.77324">
        <ele>188</ele>
        <time>2017-11-19T09:53:40.000Z</time>
      </trkpt>
      <trkpt lat="45.21657" lon="0.77333">
        <ele>185</ele>
        <time>2017-11-19T09:53:44.000Z</time>
      </trkpt>
      <trkpt lat="45.21664" lon="0.77346">
        <ele>185</ele>
        <time>2017-11-19T09:53:47.000Z</time>
      </trkpt>
      <trkpt lat="45.21674" lon="0.77354">
        <ele>185</ele>
        <time>2017-11-19T09:53:51.000Z</time>
      </trkpt>
      <trkpt lat="45.21683" lon="0.77363">
        <ele>185</ele>
        <time>2017-11-19T09:53:55.000Z</time>
      </trkpt>
      <trkpt lat="45.21695" lon="0.77369">
        <ele>183</ele>
        <time>2017-11-19T09:53:59.000Z</time>
      </trkpt>
      <trkpt lat="45.21706" lon="0.77373">
        <ele>183</ele>
        <time>2017-11-19T09:54:02.000Z</time>
      </trkpt>
      <trkpt lat="45.21718" lon="0.77381">
        <ele>186</ele>
        <time>2017-11-19T09:54:06.000Z</time>
      </trkpt>
      <trkpt lat="45.21728" lon="0.77387">
        <ele>189</ele>
        <time>2017-11-19T09:54:10.000Z</time>
      </trkpt>
      <trkpt lat="45.21739" lon="0.77389">
        <ele>187</ele>
        <time>2017-11-19T09:54:13.000Z</time>
      </trkpt>
      <trkpt lat="45.21748" lon="0.77395">
        <ele>188</ele>
        <time>2017-11-19T09:54:17.000Z</time>
      </trkpt>
      <trkpt lat="45.21758" lon="0.77401">
        <ele>189</ele>
        <time>2017-11-19T09:54:21.000Z</time>
      </trkpt>
      <trkpt lat="45.21768" lon="0.77405">
        <ele>189</ele>
        <time>2017-11-19T09:54:24.000Z</time>
      </trkpt>
      <trkpt lat="45.21777" lon="0.77407">
        <ele>188</ele>
        <time>2017-11-19T09:54:26.000Z</time>
      </trkpt>
      <trkpt lat="45.21789" lon="0.7741">
        <ele>188</ele>
        <time>2017-11-19T09:54:29.000Z</time>
      </trkpt>
      <trkpt lat="45.21801" lon="0.77412">
        <ele>188</ele>
        <time>2017-11-19T09:54:32.000Z</time>
      </trkpt>
      <trkpt lat="45.21812" lon="0.77411">
        <ele>191</ele>
        <time>2017-11-19T09:54:35.000Z</time>
      </trkpt>
      <trkpt lat="45.21823" lon="0.77413">
        <ele>191</ele>
        <time>2017-11-19T09:54:38.000Z</time>
      </trkpt>
      <trkpt lat="45.21832" lon="0.77422">
        <ele>187</ele>
        <time>2017-11-19T09:54:41.000Z</time>
      </trkpt>
      <trkpt lat="45.21843" lon="0.77429">
        <ele>188</ele>
        <time>2017-11-19T09:54:44.000Z</time>
      </trkpt>
      <trkpt lat="45.2185" lon="0.77436">
        <ele>189</ele>
        <time>2017-11-19T09:54:47.000Z</time>
      </trkpt>
      <trkpt lat="45.21861" lon="0.77443">
        <ele>191</ele>
        <time>2017-11-19T09:54:51.000Z</time>
      </trkpt>
      <trkpt lat="45.2187" lon="0.77445">
        <ele>192</ele>
        <time>2017-11-19T09:54:53.000Z</time>
      </trkpt>
      <trkpt lat="45.21879" lon="0.7745">
        <ele>193</ele>
        <time>2017-11-19T09:54:56.000Z</time>
      </trkpt>
      <trkpt lat="45.21884" lon="0.77461">
        <ele>193</ele>
        <time>2017-11-19T09:54:59.000Z</time>
      </trkpt>
      <trkpt lat="45.21891" lon="0.77478">
        <ele>192</ele>
        <time>2017-11-19T09:55:03.000Z</time>
      </trkpt>
      <trkpt lat="45.21896" lon="0.77489">
        <ele>192</ele>
        <time>2017-11-19T09:55:06.000Z</time>
      </trkpt>
      <trkpt lat="45.21896" lon="0.77503">
        <ele>193</ele>
        <time>2017-11-19T09:55:10.000Z</time>
      </trkpt>
      <trkpt lat="45.21906" lon="0.77514">
        <ele>195</ele>
        <time>2017-11-19T09:55:14.000Z</time>
      </trkpt>
      <trkpt lat="45.21914" lon="0.77523">
        <ele>196</ele>
        <time>2017-11-19T09:55:18.000Z</time>
      </trkpt>
      <trkpt lat="45.21921" lon="0.77535">
        <ele>195</ele>
        <time>2017-11-19T09:55:22.000Z</time>
      </trkpt>
      <trkpt lat="45.21929" lon="0.77544">
        <ele>195</ele>
        <time>2017-11-19T09:55:26.000Z</time>
      </trkpt>
      <trkpt lat="45.21936" lon="0.77556">
        <ele>195</ele>
        <time>2017-11-19T09:55:29.000Z</time>
      </trkpt>
      <trkpt lat="45.21943" lon="0.77566">
        <ele>195</ele>
        <time>2017-11-19T09:55:32.000Z</time>
      </trkpt>
      <trkpt lat="45.21952" lon="0.77575">
        <ele>197</ele>
        <time>2017-11-19T09:55:36.000Z</time>
      </trkpt>
      <trkpt lat="45.21959" lon="0.77586">
        <ele>197</ele>
        <time>2017-11-19T09:55:40.000Z</time>
      </trkpt>
      <trkpt lat="45.21969" lon="0.77596">
        <ele>194</ele>
        <time>2017-11-19T09:55:44.000Z</time>
      </trkpt>
      <trkpt lat="45.21975" lon="0.77607">
        <ele>197</ele>
        <time>2017-11-19T09:55:48.000Z</time>
      </trkpt>
      <trkpt lat="45.2198" lon="0.77618">
        <ele>197</ele>
        <time>2017-11-19T09:55:53.000Z</time>
      </trkpt>
      <trkpt lat="45.21986" lon="0.77628">
        <ele>196</ele>
        <time>2017-11-19T09:55:57.000Z</time>
      </trkpt>
      <trkpt lat="45.21989" lon="0.77642">
        <ele>196</ele>
        <time>2017-11-19T09:56:01.000Z</time>
      </trkpt>
      <trkpt lat="45.21994" lon="0.77653">
        <ele>196</ele>
        <time>2017-11-19T09:56:05.000Z</time>
      </trkpt>
      <trkpt lat="45.22" lon="0.77666">
        <ele>196</ele>
        <time>2017-11-19T09:56:10.000Z</time>
      </trkpt>
      <trkpt lat="45.22012" lon="0.77692">
        <ele>197</ele>
        <time>2017-11-19T09:56:17.000Z</time>
      </trkpt>
      <trkpt lat="45.22016" lon="0.7771">
        <ele>196</ele>
        <time>2017-11-19T09:56:20.000Z</time>
      </trkpt>
      <trkpt lat="45.2202" lon="0.77723">
        <ele>195</ele>
        <time>2017-11-19T09:56:23.000Z</time>
      </trkpt>
      <trkpt lat="45.22027" lon="0.77732">
        <ele>195</ele>
        <time>2017-11-19T09:56:26.000Z</time>
      </trkpt>
      <trkpt lat="45.22035" lon="0.77741">
        <ele>194</ele>
        <time>2017-11-19T09:56:29.000Z</time>
      </trkpt>
      <trkpt lat="45.22043" lon="0.77748">
        <ele>195</ele>
        <time>2017-11-19T09:56:32.000Z</time>
      </trkpt>
      <trkpt lat="45.22055" lon="0.77754">
        <ele>194</ele>
        <time>2017-11-19T09:56:36.000Z</time>
      </trkpt>
      <trkpt lat="45.22065" lon="0.77757">
        <ele>187</ele>
        <time>2017-11-19T09:56:39.000Z</time>
      </trkpt>
      <trkpt lat="45.22075" lon="0.7776">
        <ele>189</ele>
        <time>2017-11-19T09:56:42.000Z</time>
      </trkpt>
      <trkpt lat="45.22087" lon="0.77763">
        <ele>190</ele>
        <time>2017-11-19T09:56:46.000Z</time>
      </trkpt>
      <trkpt lat="45.22097" lon="0.77764">
        <ele>190</ele>
        <time>2017-11-19T09:56:49.000Z</time>
      </trkpt>
      <trkpt lat="45.22107" lon="0.77765">
        <ele>194</ele>
        <time>2017-11-19T09:56:53.000Z</time>
      </trkpt>
      <trkpt lat="45.22118" lon="0.77764">
        <ele>195</ele>
        <time>2017-11-19T09:56:59.000Z</time>
      </trkpt>
      <trkpt lat="45.2213" lon="0.77768">
        <ele>195</ele>
        <time>2017-11-19T09:57:03.000Z</time>
      </trkpt>
      <trkpt lat="45.22139" lon="0.77774">
        <ele>197</ele>
        <time>2017-11-19T09:57:07.000Z</time>
      </trkpt>
      <trkpt lat="45.2215" lon="0.77778">
        <ele>197</ele>
        <time>2017-11-19T09:57:11.000Z</time>
      </trkpt>
      <trkpt lat="45.22161" lon="0.77779">
        <ele>198</ele>
        <time>2017-11-19T09:57:14.000Z</time>
      </trkpt>
      <trkpt lat="45.2217" lon="0.77785">
        <ele>196</ele>
        <time>2017-11-19T09:57:19.000Z</time>
      </trkpt>
      <trkpt lat="45.22181" lon="0.77795">
        <ele>195</ele>
        <time>2017-11-19T09:57:24.000Z</time>
      </trkpt>
      <trkpt lat="45.22191" lon="0.77801">
        <ele>191</ele>
        <time>2017-11-19T09:57:29.000Z</time>
      </trkpt>
      <trkpt lat="45.222" lon="0.7781">
        <ele>191</ele>
        <time>2017-11-19T09:57:33.000Z</time>
      </trkpt>
      <trkpt lat="45.22212" lon="0.77817">
        <ele>190</ele>
        <time>2017-11-19T09:57:37.000Z</time>
      </trkpt>
      <trkpt lat="45.22222" lon="0.77819">
        <ele>188</ele>
        <time>2017-11-19T09:57:41.000Z</time>
      </trkpt>
      <trkpt lat="45.22234" lon="0.77822">
        <ele>187</ele>
        <time>2017-11-19T09:57:46.000Z</time>
      </trkpt>
      <trkpt lat="45.22245" lon="0.77828">
        <ele>187</ele>
        <time>2017-11-19T09:57:50.000Z</time>
      </trkpt>
      <trkpt lat="45.22255" lon="0.77831">
        <ele>187</ele>
        <time>2017-11-19T09:57:53.000Z</time>
      </trkpt>
      <trkpt lat="45.22266" lon="0.77837">
        <ele>189</ele>
        <time>2017-11-19T09:57:56.000Z</time>
      </trkpt>
      <trkpt lat="45.22274" lon="0.77845">
        <ele>188</ele>
        <time>2017-11-19T09:57:59.000Z</time>
      </trkpt>
      <trkpt lat="45.22286" lon="0.7785">
        <ele>189</ele>
        <time>2017-11-19T09:58:02.000Z</time>
      </trkpt>
      <trkpt lat="45.22297" lon="0.77852">
        <ele>189</ele>
        <time>2017-11-19T09:58:05.000Z</time>
      </trkpt>
      <trkpt lat="45.22307" lon="0.77855">
        <ele>191</ele>
        <time>2017-11-19T09:58:09.000Z</time>
      </trkpt>
      <trkpt lat="45.22318" lon="0.77858">
        <ele>190</ele>
        <time>2017-11-19T09:58:13.000Z</time>
      </trkpt>
      <trkpt lat="45.22328" lon="0.77857">
        <ele>190</ele>
        <time>2017-11-19T09:58:17.000Z</time>
      </trkpt>
      <trkpt lat="45.22337" lon="0.77855">
        <ele>191</ele>
        <time>2017-11-19T09:58:23.000Z</time>
      </trkpt>
      <trkpt lat="45.22348" lon="0.77853">
        <ele>191</ele>
        <time>2017-11-19T09:58:27.000Z</time>
      </trkpt>
      <trkpt lat="45.22358" lon="0.77855">
        <ele>190</ele>
        <time>2017-11-19T09:58:31.000Z</time>
      </trkpt>
      <trkpt lat="45.22367" lon="0.77861">
        <ele>193</ele>
        <time>2017-11-19T09:58:35.000Z</time>
      </trkpt>
      <trkpt lat="45.22376" lon="0.77861">
        <ele>196</ele>
        <time>2017-11-19T09:58:38.000Z</time>
      </trkpt>
      <trkpt lat="45.22385" lon="0.77865">
        <ele>198</ele>
        <time>2017-11-19T09:58:41.000Z</time>
      </trkpt>
      <trkpt lat="45.22396" lon="0.77871">
        <ele>196</ele>
        <time>2017-11-19T09:58:45.000Z</time>
      </trkpt>
      <trkpt lat="45.22407" lon="0.77878">
        <ele>200</ele>
        <time>2017-11-19T09:58:49.000Z</time>
      </trkpt>
      <trkpt lat="45.22418" lon="0.77883">
        <ele>200</ele>
        <time>2017-11-19T09:58:53.000Z</time>
      </trkpt>
      <trkpt lat="45.22426" lon="0.77897">
        <ele>199</ele>
        <time>2017-11-19T09:58:57.000Z</time>
      </trkpt>
      <trkpt lat="45.2243" lon="0.77909">
        <ele>200</ele>
        <time>2017-11-19T09:59:00.000Z</time>
      </trkpt>
      <trkpt lat="45.22436" lon="0.77922">
        <ele>199</ele>
        <time>2017-11-19T09:59:04.000Z</time>
      </trkpt>
      <trkpt lat="45.22446" lon="0.77929">
        <ele>198</ele>
        <time>2017-11-19T09:59:08.000Z</time>
      </trkpt>
      <trkpt lat="45.22458" lon="0.77934">
        <ele>199</ele>
        <time>2017-11-19T09:59:12.000Z</time>
      </trkpt>
      <trkpt lat="45.22469" lon="0.77937">
        <ele>201</ele>
        <time>2017-11-19T09:59:16.000Z</time>
      </trkpt>
      <trkpt lat="45.22482" lon="0.7794">
        <ele>202</ele>
        <time>2017-11-19T09:59:20.000Z</time>
      </trkpt>
      <trkpt lat="45.22493" lon="0.77943">
        <ele>202</ele>
        <time>2017-11-19T09:59:24.000Z</time>
      </trkpt>
      <trkpt lat="45.22503" lon="0.77944">
        <ele>203</ele>
        <time>2017-11-19T09:59:28.000Z</time>
      </trkpt>
      <trkpt lat="45.22514" lon="0.77945">
        <ele>202</ele>
        <time>2017-11-19T09:59:32.000Z</time>
      </trkpt>
      <trkpt lat="45.22523" lon="0.7795">
        <ele>203</ele>
        <time>2017-11-19T09:59:36.000Z</time>
      </trkpt>
      <trkpt lat="45.22531" lon="0.77957">
        <ele>203</ele>
        <time>2017-11-19T09:59:41.000Z</time>
      </trkpt>
      <trkpt lat="45.22541" lon="0.7796">
        <ele>204</ele>
        <time>2017-11-19T09:59:45.000Z</time>
      </trkpt>
      <trkpt lat="45.22551" lon="0.7796">
        <ele>205</ele>
        <time>2017-11-19T09:59:48.000Z</time>
      </trkpt>
      <trkpt lat="45.22559" lon="0.77969">
        <ele>205</ele>
        <time>2017-11-19T09:59:54.000Z</time>
      </trkpt>
      <trkpt lat="45.22564" lon="0.77984">
        <ele>205</ele>
        <time>2017-11-19T09:59:58.000Z</time>
      </trkpt>
      <trkpt lat="45.22567" lon="0.77998">
        <ele>206</ele>
        <time>2017-11-19T10:00:02.000Z</time>
      </trkpt>
      <trkpt lat="45.22575" lon="0.78011">
        <ele>208</ele>
        <time>2017-11-19T10:00:06.000Z</time>
      </trkpt>
      <trkpt lat="45.22585" lon="0.7802">
        <ele>209</ele>
        <time>2017-11-19T10:00:09.000Z</time>
      </trkpt>
      <trkpt lat="45.22593" lon="0.78029">
        <ele>209</ele>
        <time>2017-11-19T10:00:12.000Z</time>
      </trkpt>
      <trkpt lat="45.22599" lon="0.7804">
        <ele>214</ele>
        <time>2017-11-19T10:00:16.000Z</time>
      </trkpt>
      <trkpt lat="45.22606" lon="0.78051">
        <ele>212</ele>
        <time>2017-11-19T10:00:20.000Z</time>
      </trkpt>
      <trkpt lat="45.22613" lon="0.78061">
        <ele>212</ele>
        <time>2017-11-19T10:00:24.000Z</time>
      </trkpt>
      <trkpt lat="45.22617" lon="0.78074">
        <ele>214</ele>
        <time>2017-11-19T10:00:27.000Z</time>
      </trkpt>
      <trkpt lat="45.22627" lon="0.78085">
        <ele>211</ele>
        <time>2017-11-19T10:00:32.000Z</time>
      </trkpt>
      <trkpt lat="45.22634" lon="0.78096">
        <ele>209</ele>
        <time>2017-11-19T10:00:36.000Z</time>
      </trkpt>
      <trkpt lat="45.22642" lon="0.78107">
        <ele>209</ele>
        <time>2017-11-19T10:00:39.000Z</time>
      </trkpt>
      <trkpt lat="45.22663" lon="0.78116">
        <ele>209</ele>
        <time>2017-11-19T10:00:47.000Z</time>
      </trkpt>
      <trkpt lat="45.22673" lon="0.78122">
        <ele>209</ele>
        <time>2017-11-19T10:00:50.000Z</time>
      </trkpt>
      <trkpt lat="45.22683" lon="0.78128">
        <ele>210</ele>
        <time>2017-11-19T10:00:53.000Z</time>
      </trkpt>
      <trkpt lat="45.22694" lon="0.78134">
        <ele>203</ele>
        <time>2017-11-19T10:00:58.000Z</time>
      </trkpt>
      <trkpt lat="45.22703" lon="0.78136">
        <ele>204</ele>
        <time>2017-11-19T10:01:02.000Z</time>
      </trkpt>
      <trkpt lat="45.22714" lon="0.78134">
        <ele>203</ele>
        <time>2017-11-19T10:01:08.000Z</time>
      </trkpt>
      <trkpt lat="45.22724" lon="0.78136">
        <ele>203</ele>
        <time>2017-11-19T10:01:12.000Z</time>
      </trkpt>
      <trkpt lat="45.22731" lon="0.78143">
        <ele>205</ele>
        <time>2017-11-19T10:01:15.000Z</time>
      </trkpt>
      <trkpt lat="45.2274" lon="0.78147">
        <ele>207</ele>
        <time>2017-11-19T10:01:19.000Z</time>
      </trkpt>
      <trkpt lat="45.22748" lon="0.78153">
        <ele>210</ele>
        <time>2017-11-19T10:01:24.000Z</time>
      </trkpt>
      <trkpt lat="45.22755" lon="0.78165">
        <ele>210</ele>
        <time>2017-11-19T10:01:29.000Z</time>
      </trkpt>
      <trkpt lat="45.22765" lon="0.78173">
        <ele>208</ele>
        <time>2017-11-19T10:01:33.000Z</time>
      </trkpt>
      <trkpt lat="45.22776" lon="0.78184">
        <ele>206</ele>
        <time>2017-11-19T10:01:38.000Z</time>
      </trkpt>
      <trkpt lat="45.22783" lon="0.78196">
        <ele>210</ele>
        <time>2017-11-19T10:01:44.000Z</time>
      </trkpt>
      <trkpt lat="45.22791" lon="0.78204">
        <ele>211</ele>
        <time>2017-11-19T10:01:48.000Z</time>
      </trkpt>
      <trkpt lat="45.22798" lon="0.78214">
        <ele>211</ele>
        <time>2017-11-19T10:01:52.000Z</time>
      </trkpt>
      <trkpt lat="45.22801" lon="0.78226">
        <ele>213</ele>
        <time>2017-11-19T10:01:56.000Z</time>
      </trkpt>
      <trkpt lat="45.22802" lon="0.78241">
        <ele>221</ele>
        <time>2017-11-19T10:02:02.000Z</time>
      </trkpt>
      <trkpt lat="45.22801" lon="0.78257">
        <ele>223</ele>
        <time>2017-11-19T10:02:05.000Z</time>
      </trkpt>
      <trkpt lat="45.22801" lon="0.78273">
        <ele>223</ele>
        <time>2017-11-19T10:02:09.000Z</time>
      </trkpt>
      <trkpt lat="45.22805" lon="0.78287">
        <ele>224</ele>
        <time>2017-11-19T10:02:14.000Z</time>
      </trkpt>
      <trkpt lat="45.2281" lon="0.78301">
        <ele>222</ele>
        <time>2017-11-19T10:02:18.000Z</time>
      </trkpt>
      <trkpt lat="45.22814" lon="0.78315">
        <ele>221</ele>
        <time>2017-11-19T10:02:22.000Z</time>
      </trkpt>
      <trkpt lat="45.22818" lon="0.78329">
        <ele>219</ele>
        <time>2017-11-19T10:02:26.000Z</time>
      </trkpt>
      <trkpt lat="45.22822" lon="0.78342">
        <ele>218</ele>
        <time>2017-11-19T10:02:30.000Z</time>
      </trkpt>
      <trkpt lat="45.22828" lon="0.78361">
        <ele>217</ele>
        <time>2017-11-19T10:02:35.000Z</time>
      </trkpt>
      <trkpt lat="45.22833" lon="0.78373">
        <ele>218</ele>
        <time>2017-11-19T10:02:38.000Z</time>
      </trkpt>
      <trkpt lat="45.22839" lon="0.78387">
        <ele>219</ele>
        <time>2017-11-19T10:02:41.000Z</time>
      </trkpt>
      <trkpt lat="45.22846" lon="0.78399">
        <ele>221</ele>
        <time>2017-11-19T10:02:45.000Z</time>
      </trkpt>
      <trkpt lat="45.2285" lon="0.78412">
        <ele>222</ele>
        <time>2017-11-19T10:02:49.000Z</time>
      </trkpt>
      <trkpt lat="45.22855" lon="0.78423">
        <ele>226</ele>
        <time>2017-11-19T10:02:55.000Z</time>
      </trkpt>
      <trkpt lat="45.22861" lon="0.78438">
        <ele>226</ele>
        <time>2017-11-19T10:02:59.000Z</time>
      </trkpt>
      <trkpt lat="45.22864" lon="0.7845">
        <ele>226</ele>
        <time>2017-11-19T10:03:04.000Z</time>
      </trkpt>
      <trkpt lat="45.22868" lon="0.78463">
        <ele>224</ele>
        <time>2017-11-19T10:03:10.000Z</time>
      </trkpt>
      <trkpt lat="45.22871" lon="0.78477">
        <ele>221</ele>
        <time>2017-11-19T10:03:14.000Z</time>
      </trkpt>
      <trkpt lat="45.22874" lon="0.78491">
        <ele>221</ele>
        <time>2017-11-19T10:03:20.000Z</time>
      </trkpt>
      <trkpt lat="45.22878" lon="0.78505">
        <ele>224</ele>
        <time>2017-11-19T10:03:24.000Z</time>
      </trkpt>
      <trkpt lat="45.22879" lon="0.78519">
        <ele>222</ele>
        <time>2017-11-19T10:03:30.000Z</time>
      </trkpt>
      <trkpt lat="45.22884" lon="0.7853">
        <ele>220</ele>
        <time>2017-11-19T10:03:35.000Z</time>
      </trkpt>
      <trkpt lat="45.22891" lon="0.78539">
        <ele>219</ele>
        <time>2017-11-19T10:03:38.000Z</time>
      </trkpt>
      <trkpt lat="45.22899" lon="0.78546">
        <ele>219</ele>
        <time>2017-11-19T10:03:41.000Z</time>
      </trkpt>
      <trkpt lat="45.22906" lon="0.78559">
        <ele>217</ele>
        <time>2017-11-19T10:03:45.000Z</time>
      </trkpt>
      <trkpt lat="45.22912" lon="0.78571">
        <ele>217</ele>
        <time>2017-11-19T10:03:49.000Z</time>
      </trkpt>
      <trkpt lat="45.22916" lon="0.78583">
        <ele>219</ele>
        <time>2017-11-19T10:03:53.000Z</time>
      </trkpt>
      <trkpt lat="45.22921" lon="0.78594">
        <ele>220</ele>
        <time>2017-11-19T10:03:58.000Z</time>
      </trkpt>
      <trkpt lat="45.22926" lon="0.78605">
        <ele>222</ele>
        <time>2017-11-19T10:04:02.000Z</time>
      </trkpt>
      <trkpt lat="45.22932" lon="0.78617">
        <ele>223</ele>
        <time>2017-11-19T10:04:06.000Z</time>
      </trkpt>
      <trkpt lat="45.2294" lon="0.78624">
        <ele>222</ele>
        <time>2017-11-19T10:04:10.000Z</time>
      </trkpt>
      <trkpt lat="45.22949" lon="0.78621">
        <ele>221</ele>
        <time>2017-11-19T10:04:15.000Z</time>
      </trkpt>
      <trkpt lat="45.22957" lon="0.78615">
        <ele>219</ele>
        <time>2017-11-19T10:04:22.000Z</time>
      </trkpt>
      <trkpt lat="45.22967" lon="0.78622">
        <ele>221</ele>
        <time>2017-11-19T10:04:28.000Z</time>
      </trkpt>
      <trkpt lat="45.22976" lon="0.78629">
        <ele>222</ele>
        <time>2017-11-19T10:04:33.000Z</time>
      </trkpt>
      <trkpt lat="45.22983" lon="0.78636">
        <ele>225</ele>
        <time>2017-11-19T10:04:37.000Z</time>
      </trkpt>
      <trkpt lat="45.22991" lon="0.78644">
        <ele>227</ele>
        <time>2017-11-19T10:04:41.000Z</time>
      </trkpt>
      <trkpt lat="45.22999" lon="0.7865">
        <ele>226</ele>
        <time>2017-11-19T10:04:45.000Z</time>
      </trkpt>
      <trkpt lat="45.23009" lon="0.78659">
        <ele>224</ele>
        <time>2017-11-19T10:04:50.000Z</time>
      </trkpt>
      <trkpt lat="45.23017" lon="0.78667">
        <ele>223</ele>
        <time>2017-11-19T10:04:54.000Z</time>
      </trkpt>
      <trkpt lat="45.23026" lon="0.78675">
        <ele>224</ele>
        <time>2017-11-19T10:04:59.000Z</time>
      </trkpt>
      <trkpt lat="45.23033" lon="0.78686">
        <ele>224</ele>
        <time>2017-11-19T10:05:04.000Z</time>
      </trkpt>
      <trkpt lat="45.23039" lon="0.78698">
        <ele>224</ele>
        <time>2017-11-19T10:05:08.000Z</time>
      </trkpt>
      <trkpt lat="45.23045" lon="0.78707">
        <ele>224</ele>
        <time>2017-11-19T10:05:12.000Z</time>
      </trkpt>
      <trkpt lat="45.23053" lon="0.78715">
        <ele>225</ele>
        <time>2017-11-19T10:05:16.000Z</time>
      </trkpt>
      <trkpt lat="45.23062" lon="0.78725">
        <ele>222</ele>
        <time>2017-11-19T10:05:20.000Z</time>
      </trkpt>
      <trkpt lat="45.2307" lon="0.78731">
        <ele>221</ele>
        <time>2017-11-19T10:05:24.000Z</time>
      </trkpt>
      <trkpt lat="45.2308" lon="0.78735">
        <ele>223</ele>
        <time>2017-11-19T10:05:30.000Z</time>
      </trkpt>
      <trkpt lat="45.2309" lon="0.78735">
        <ele>226</ele>
        <time>2017-11-19T10:05:35.000Z</time>
      </trkpt>
      <trkpt lat="45.231" lon="0.78733">
        <ele>226</ele>
        <time>2017-11-19T10:05:40.000Z</time>
      </trkpt>
      <trkpt lat="45.23109" lon="0.78727">
        <ele>226</ele>
        <time>2017-11-19T10:05:45.000Z</time>
      </trkpt>
      <trkpt lat="45.23117" lon="0.78717">
        <ele>230</ele>
        <time>2017-11-19T10:05:49.000Z</time>
      </trkpt>
      <trkpt lat="45.23126" lon="0.78709">
        <ele>231</ele>
        <time>2017-11-19T10:05:55.000Z</time>
      </trkpt>
      <trkpt lat="45.23134" lon="0.78695">
        <ele>223</ele>
        <time>2017-11-19T10:06:00.000Z</time>
      </trkpt>
      <trkpt lat="45.2314" lon="0.78686">
        <ele>226</ele>
        <time>2017-11-19T10:06:03.000Z</time>
      </trkpt>
      <trkpt lat="45.23145" lon="0.78673">
        <ele>225</ele>
        <time>2017-11-19T10:06:06.000Z</time>
      </trkpt>
      <trkpt lat="45.23148" lon="0.78662">
        <ele>229</ele>
        <time>2017-11-19T10:06:11.000Z</time>
      </trkpt>
      <trkpt lat="45.23155" lon="0.78651">
        <ele>231</ele>
        <time>2017-11-19T10:06:16.000Z</time>
      </trkpt>
      <trkpt lat="45.2316" lon="0.78637">
        <ele>233</ele>
        <time>2017-11-19T10:06:21.000Z</time>
      </trkpt>
      <trkpt lat="45.23162" lon="0.78622">
        <ele>234</ele>
        <time>2017-11-19T10:06:25.000Z</time>
      </trkpt>
      <trkpt lat="45.23164" lon="0.78608">
        <ele>235</ele>
        <time>2017-11-19T10:06:29.000Z</time>
      </trkpt>
      <trkpt lat="45.23166" lon="0.78596">
        <ele>235</ele>
        <time>2017-11-19T10:06:33.000Z</time>
      </trkpt>
      <trkpt lat="45.2317" lon="0.78583">
        <ele>236</ele>
        <time>2017-11-19T10:06:39.000Z</time>
      </trkpt>
      <trkpt lat="45.23177" lon="0.78601">
        <ele>239</ele>
        <time>2017-11-19T10:08:52.000Z</time>
      </trkpt>
      <trkpt lat="45.23175" lon="0.78614">
        <ele>237</ele>
        <time>2017-11-19T10:08:56.000Z</time>
      </trkpt>
      <trkpt lat="45.23174" lon="0.78629">
        <ele>237</ele>
        <time>2017-11-19T10:09:00.000Z</time>
      </trkpt>
      <trkpt lat="45.23174" lon="0.78647">
        <ele>240</ele>
        <time>2017-11-19T10:09:04.000Z</time>
      </trkpt>
      <trkpt lat="45.23174" lon="0.78662">
        <ele>241</ele>
        <time>2017-11-19T10:09:07.000Z</time>
      </trkpt>
      <trkpt lat="45.23177" lon="0.78678">
        <ele>244</ele>
        <time>2017-11-19T10:09:11.000Z</time>
      </trkpt>
      <trkpt lat="45.2318" lon="0.78692">
        <ele>244</ele>
        <time>2017-11-19T10:09:15.000Z</time>
      </trkpt>
      <trkpt lat="45.23182" lon="0.78706">
        <ele>245</ele>
        <time>2017-11-19T10:09:20.000Z</time>
      </trkpt>
      <trkpt lat="45.23182" lon="0.7872">
        <ele>247</ele>
        <time>2017-11-19T10:09:27.000Z</time>
      </trkpt>
      <trkpt lat="45.23182" lon="0.78734">
        <ele>250</ele>
        <time>2017-11-19T10:09:33.000Z</time>
      </trkpt>
      <trkpt lat="45.23187" lon="0.78747">
        <ele>249</ele>
        <time>2017-11-19T10:09:38.000Z</time>
      </trkpt>
      <trkpt lat="45.23185" lon="0.78761">
        <ele>247</ele>
        <time>2017-11-19T10:09:45.000Z</time>
      </trkpt>
      <trkpt lat="45.23187" lon="0.78775">
        <ele>248</ele>
        <time>2017-11-19T10:09:49.000Z</time>
      </trkpt>
      <trkpt lat="45.23188" lon="0.78787">
        <ele>245</ele>
        <time>2017-11-19T10:09:53.000Z</time>
      </trkpt>
      <trkpt lat="45.23191" lon="0.788">
        <ele>240</ele>
        <time>2017-11-19T10:10:00.000Z</time>
      </trkpt>
      <trkpt lat="45.23192" lon="0.78815">
        <ele>241</ele>
        <time>2017-11-19T10:10:07.000Z</time>
      </trkpt>
      <trkpt lat="45.23192" lon="0.78829">
        <ele>243</ele>
        <time>2017-11-19T10:10:14.000Z</time>
      </trkpt>
      <trkpt lat="45.23193" lon="0.78844">
        <ele>246</ele>
        <time>2017-11-19T10:10:20.000Z</time>
      </trkpt>
      <trkpt lat="45.23193" lon="0.78859">
        <ele>247</ele>
        <time>2017-11-19T10:10:26.000Z</time>
      </trkpt>
      <trkpt lat="45.23196" lon="0.78874">
        <ele>249</ele>
        <time>2017-11-19T10:10:31.000Z</time>
      </trkpt>
      <trkpt lat="45.23195" lon="0.78887">
        <ele>250</ele>
        <time>2017-11-19T10:10:35.000Z</time>
      </trkpt>
      <trkpt lat="45.23194" lon="0.789">
        <ele>252</ele>
        <time>2017-11-19T10:10:39.000Z</time>
      </trkpt>
      <trkpt lat="45.23191" lon="0.78914">
        <ele>251</ele>
        <time>2017-11-19T10:10:46.000Z</time>
      </trkpt>
      <trkpt lat="45.23186" lon="0.78927">
        <ele>250</ele>
        <time>2017-11-19T10:10:52.000Z</time>
      </trkpt>
      <trkpt lat="45.23177" lon="0.78938">
        <ele>246</ele>
        <time>2017-11-19T10:10:57.000Z</time>
      </trkpt>
      <trkpt lat="45.23172" lon="0.78952">
        <ele>249</ele>
        <time>2017-11-19T10:11:01.000Z</time>
      </trkpt>
      <trkpt lat="45.23171" lon="0.78968">
        <ele>247</ele>
        <time>2017-11-19T10:11:05.000Z</time>
      </trkpt>
      <trkpt lat="45.23174" lon="0.7898">
        <ele>248</ele>
        <time>2017-11-19T10:11:09.000Z</time>
      </trkpt>
      <trkpt lat="45.23177" lon="0.78993">
        <ele>249</ele>
        <time>2017-11-19T10:11:13.000Z</time>
      </trkpt>
      <trkpt lat="45.23178" lon="0.79008">
        <ele>249</ele>
        <time>2017-11-19T10:11:19.000Z</time>
      </trkpt>
      <trkpt lat="45.23181" lon="0.7902">
        <ele>251</ele>
        <time>2017-11-19T10:11:25.000Z</time>
      </trkpt>
      <trkpt lat="45.23182" lon="0.79034">
        <ele>249</ele>
        <time>2017-11-19T10:11:29.000Z</time>
      </trkpt>
      <trkpt lat="45.23184" lon="0.7905">
        <ele>250</ele>
        <time>2017-11-19T10:11:34.000Z</time>
      </trkpt>
      <trkpt lat="45.23186" lon="0.79063">
        <ele>249</ele>
        <time>2017-11-19T10:11:37.000Z</time>
      </trkpt>
      <trkpt lat="45.23187" lon="0.79078">
        <ele>248</ele>
        <time>2017-11-19T10:11:41.000Z</time>
      </trkpt>
      <trkpt lat="45.23188" lon="0.79094">
        <ele>247</ele>
        <time>2017-11-19T10:11:44.000Z</time>
      </trkpt>
      <trkpt lat="45.23187" lon="0.79107">
        <ele>246</ele>
        <time>2017-11-19T10:11:46.000Z</time>
      </trkpt>
      <trkpt lat="45.23188" lon="0.79123">
        <ele>246</ele>
        <time>2017-11-19T10:11:48.000Z</time>
      </trkpt>
      <trkpt lat="45.23187" lon="0.79137">
        <ele>245</ele>
        <time>2017-11-19T10:11:50.000Z</time>
      </trkpt>
      <trkpt lat="45.23185" lon="0.79151">
        <ele>245</ele>
        <time>2017-11-19T10:11:52.000Z</time>
      </trkpt>
      <trkpt lat="45.23183" lon="0.7917">
        <ele>248</ele>
        <time>2017-11-19T10:11:55.000Z</time>
      </trkpt>
      <trkpt lat="45.23184" lon="0.79185">
        <ele>247</ele>
        <time>2017-11-19T10:11:57.000Z</time>
      </trkpt>
      <trkpt lat="45.23183" lon="0.792">
        <ele>247</ele>
        <time>2017-11-19T10:11:59.000Z</time>
      </trkpt>
      <trkpt lat="45.23186" lon="0.79214">
        <ele>247</ele>
        <time>2017-11-19T10:12:01.000Z</time>
      </trkpt>
      <trkpt lat="45.23188" lon="0.7923">
        <ele>247</ele>
        <time>2017-11-19T10:12:03.000Z</time>
      </trkpt>
      <trkpt lat="45.23183" lon="0.79245">
        <ele>248</ele>
        <time>2017-11-19T10:12:05.000Z</time>
      </trkpt>
      <trkpt lat="45.23182" lon="0.79261">
        <ele>247</ele>
        <time>2017-11-19T10:12:07.000Z</time>
      </trkpt>
      <trkpt lat="45.2318" lon="0.79278">
        <ele>246</ele>
        <time>2017-11-19T10:12:09.000Z</time>
      </trkpt>
      <trkpt lat="45.2318" lon="0.79299">
        <ele>245</ele>
        <time>2017-11-19T10:12:11.000Z</time>
      </trkpt>
      <trkpt lat="45.2318" lon="0.79319">
        <ele>245</ele>
        <time>2017-11-19T10:12:13.000Z</time>
      </trkpt>
      <trkpt lat="45.2318" lon="0.79337">
        <ele>247</ele>
        <time>2017-11-19T10:12:15.000Z</time>
      </trkpt>
      <trkpt lat="45.23181" lon="0.79352">
        <ele>245</ele>
        <time>2017-11-19T10:12:17.000Z</time>
      </trkpt>
      <trkpt lat="45.23185" lon="0.79364">
        <ele>246</ele>
        <time>2017-11-19T10:12:20.000Z</time>
      </trkpt>
      <trkpt lat="45.2319" lon="0.7938">
        <ele>249</ele>
        <time>2017-11-19T10:12:24.000Z</time>
      </trkpt>
      <trkpt lat="45.23193" lon="0.79396">
        <ele>250</ele>
        <time>2017-11-19T10:12:27.000Z</time>
      </trkpt>
      <trkpt lat="45.23196" lon="0.79409">
        <ele>250</ele>
        <time>2017-11-19T10:12:29.000Z</time>
      </trkpt>
      <trkpt lat="45.23198" lon="0.79423">
        <ele>233</ele>
        <time>2017-11-19T10:12:33.000Z</time>
      </trkpt>
      <trkpt lat="45.232" lon="0.79436">
        <ele>245</ele>
        <time>2017-11-19T10:12:38.000Z</time>
      </trkpt>
      <trkpt lat="45.23204" lon="0.79448">
        <ele>245</ele>
        <time>2017-11-19T10:12:43.000Z</time>
      </trkpt>
      <trkpt lat="45.23207" lon="0.79461">
        <ele>246</ele>
        <time>2017-11-19T10:12:47.000Z</time>
      </trkpt>
      <trkpt lat="45.23208" lon="0.79475">
        <ele>247</ele>
        <time>2017-11-19T10:12:52.000Z</time>
      </trkpt>
      <trkpt lat="45.2321" lon="0.79489">
        <ele>252</ele>
        <time>2017-11-19T10:12:58.000Z</time>
      </trkpt>
      <trkpt lat="45.23211" lon="0.79501">
        <ele>253</ele>
        <time>2017-11-19T10:13:03.000Z</time>
      </trkpt>
      <trkpt lat="45.23211" lon="0.79517">
        <ele>250</ele>
        <time>2017-11-19T10:13:08.000Z</time>
      </trkpt>
      <trkpt lat="45.23211" lon="0.7953">
        <ele>252</ele>
        <time>2017-11-19T10:13:12.000Z</time>
      </trkpt>
      <trkpt lat="45.23212" lon="0.79545">
        <ele>253</ele>
        <time>2017-11-19T10:13:18.000Z</time>
      </trkpt>
      <trkpt lat="45.2321" lon="0.79558">
        <ele>252</ele>
        <time>2017-11-19T10:13:22.000Z</time>
      </trkpt>
      <trkpt lat="45.23209" lon="0.79574">
        <ele>231</ele>
        <time>2017-11-19T10:13:27.000Z</time>
      </trkpt>
      <trkpt lat="45.23209" lon="0.7959">
        <ele>248</ele>
        <time>2017-11-19T10:13:31.000Z</time>
      </trkpt>
      <trkpt lat="45.23209" lon="0.79604">
        <ele>251</ele>
        <time>2017-11-19T10:13:34.000Z</time>
      </trkpt>
      <trkpt lat="45.23209" lon="0.7962">
        <ele>253</ele>
        <time>2017-11-19T10:13:37.000Z</time>
      </trkpt>
      <trkpt lat="45.23209" lon="0.79637">
        <ele>256</ele>
        <time>2017-11-19T10:13:40.000Z</time>
      </trkpt>
      <trkpt lat="45.23209" lon="0.79651">
        <ele>255</ele>
        <time>2017-11-19T10:13:44.000Z</time>
      </trkpt>
      <trkpt lat="45.23209" lon="0.79664">
        <ele>253</ele>
        <time>2017-11-19T10:13:47.000Z</time>
      </trkpt>
      <trkpt lat="45.23209" lon="0.79679">
        <ele>253</ele>
        <time>2017-11-19T10:13:51.000Z</time>
      </trkpt>
      <trkpt lat="45.23214" lon="0.79695">
        <ele>254</ele>
        <time>2017-11-19T10:13:55.000Z</time>
      </trkpt>
      <trkpt lat="45.2322" lon="0.79707">
        <ele>251</ele>
        <time>2017-11-19T10:13:58.000Z</time>
      </trkpt>
      <trkpt lat="45.23225" lon="0.79719">
        <ele>252</ele>
        <time>2017-11-19T10:14:00.000Z</time>
      </trkpt>
      <trkpt lat="45.2323" lon="0.79732">
        <ele>250</ele>
        <time>2017-11-19T10:14:03.000Z</time>
      </trkpt>
      <trkpt lat="45.23238" lon="0.79745">
        <ele>252</ele>
        <time>2017-11-19T10:14:06.000Z</time>
      </trkpt>
      <trkpt lat="45.23245" lon="0.79757">
        <ele>252</ele>
        <time>2017-11-19T10:14:09.000Z</time>
      </trkpt>
      <trkpt lat="45.23252" lon="0.79767">
        <ele>255</ele>
        <time>2017-11-19T10:14:12.000Z</time>
      </trkpt>
      <trkpt lat="45.23259" lon="0.7978">
        <ele>226</ele>
        <time>2017-11-19T10:14:15.000Z</time>
      </trkpt>
      <trkpt lat="45.23265" lon="0.79795">
        <ele>240</ele>
        <time>2017-11-19T10:14:18.000Z</time>
      </trkpt>
      <trkpt lat="45.23269" lon="0.79807">
        <ele>245</ele>
        <time>2017-11-19T10:14:21.000Z</time>
      </trkpt>
      <trkpt lat="45.23277" lon="0.79822">
        <ele>247</ele>
        <time>2017-11-19T10:14:24.000Z</time>
      </trkpt>
      <trkpt lat="45.23284" lon="0.79837">
        <ele>247</ele>
        <time>2017-11-19T10:14:27.000Z</time>
      </trkpt>
      <trkpt lat="45.23286" lon="0.79851">
        <ele>248</ele>
        <time>2017-11-19T10:14:31.000Z</time>
      </trkpt>
      <trkpt lat="45.23292" lon="0.79866">
        <ele>249</ele>
        <time>2017-11-19T10:14:35.000Z</time>
      </trkpt>
      <trkpt lat="45.23298" lon="0.79879">
        <ele>251</ele>
        <time>2017-11-19T10:14:39.000Z</time>
      </trkpt>
      <trkpt lat="45.23301" lon="0.79892">
        <ele>251</ele>
        <time>2017-11-19T10:14:42.000Z</time>
      </trkpt>
      <trkpt lat="45.23306" lon="0.79907">
        <ele>253</ele>
        <time>2017-11-19T10:14:46.000Z</time>
      </trkpt>
      <trkpt lat="45.23311" lon="0.7992">
        <ele>251</ele>
        <time>2017-11-19T10:14:49.000Z</time>
      </trkpt>
      <trkpt lat="45.23313" lon="0.79934">
        <ele>251</ele>
        <time>2017-11-19T10:14:52.000Z</time>
      </trkpt>
      <trkpt lat="45.23315" lon="0.79953">
        <ele>251</ele>
        <time>2017-11-19T10:14:55.000Z</time>
      </trkpt>
      <trkpt lat="45.23317" lon="0.79966">
        <ele>250</ele>
        <time>2017-11-19T10:14:57.000Z</time>
      </trkpt>
      <trkpt lat="45.2332" lon="0.7998">
        <ele>251</ele>
        <time>2017-11-19T10:14:59.000Z</time>
      </trkpt>
      <trkpt lat="45.2332" lon="0.79994">
        <ele>248</ele>
        <time>2017-11-19T10:15:01.000Z</time>
      </trkpt>
      <trkpt lat="45.23315" lon="0.80012">
        <ele>248</ele>
        <time>2017-11-19T10:15:04.000Z</time>
      </trkpt>
      <trkpt lat="45.23312" lon="0.80032">
        <ele>248</ele>
        <time>2017-11-19T10:15:06.000Z</time>
      </trkpt>
      <trkpt lat="45.23307" lon="0.80052">
        <ele>247</ele>
        <time>2017-11-19T10:15:08.000Z</time>
      </trkpt>
      <trkpt lat="45.233" lon="0.80072">
        <ele>248</ele>
        <time>2017-11-19T10:15:10.000Z</time>
      </trkpt>
      <trkpt lat="45.23296" lon="0.80084">
        <ele>247</ele>
        <time>2017-11-19T10:15:11.000Z</time>
      </trkpt>
      <trkpt lat="45.23293" lon="0.80096">
        <ele>244</ele>
        <time>2017-11-19T10:15:12.000Z</time>
      </trkpt>
      <trkpt lat="45.23286" lon="0.80123">
        <ele>241</ele>
        <time>2017-11-19T10:15:14.000Z</time>
      </trkpt>
      <trkpt lat="45.23284" lon="0.80137">
        <ele>240</ele>
        <time>2017-11-19T10:15:15.000Z</time>
      </trkpt>
      <trkpt lat="45.23278" lon="0.80163">
        <ele>239</ele>
        <time>2017-11-19T10:15:17.000Z</time>
      </trkpt>
      <trkpt lat="45.23274" lon="0.80177">
        <ele>237</ele>
        <time>2017-11-19T10:15:18.000Z</time>
      </trkpt>
      <trkpt lat="45.23269" lon="0.8019">
        <ele>237</ele>
        <time>2017-11-19T10:15:19.000Z</time>
      </trkpt>
      <trkpt lat="45.23266" lon="0.80204">
        <ele>237</ele>
        <time>2017-11-19T10:15:20.000Z</time>
      </trkpt>
      <trkpt lat="45.23262" lon="0.80217">
        <ele>238</ele>
        <time>2017-11-19T10:15:21.000Z</time>
      </trkpt>
      <trkpt lat="45.23258" lon="0.8023">
        <ele>239</ele>
        <time>2017-11-19T10:15:22.000Z</time>
      </trkpt>
      <trkpt lat="45.23253" lon="0.80256">
        <ele>240</ele>
        <time>2017-11-19T10:15:24.000Z</time>
      </trkpt>
      <trkpt lat="45.23248" lon="0.80267">
        <ele>239</ele>
        <time>2017-11-19T10:15:25.000Z</time>
      </trkpt>
      <trkpt lat="45.23245" lon="0.80279">
        <ele>240</ele>
        <time>2017-11-19T10:15:26.000Z</time>
      </trkpt>
      <trkpt lat="45.23239" lon="0.80304">
        <ele>238</ele>
        <time>2017-11-19T10:15:28.000Z</time>
      </trkpt>
      <trkpt lat="45.23233" lon="0.80324">
        <ele>237</ele>
        <time>2017-11-19T10:15:30.000Z</time>
      </trkpt>
      <trkpt lat="45.23227" lon="0.80344">
        <ele>237</ele>
        <time>2017-11-19T10:15:32.000Z</time>
      </trkpt>
      <trkpt lat="45.23222" lon="0.80359">
        <ele>237</ele>
        <time>2017-11-19T10:15:34.000Z</time>
      </trkpt>
      <trkpt lat="45.23218" lon="0.80374">
        <ele>236</ele>
        <time>2017-11-19T10:15:36.000Z</time>
      </trkpt>
      <trkpt lat="45.23215" lon="0.80388">
        <ele>236</ele>
        <time>2017-11-19T10:15:38.000Z</time>
      </trkpt>
      <trkpt lat="45.23211" lon="0.80401">
        <ele>237</ele>
        <time>2017-11-19T10:15:40.000Z</time>
      </trkpt>
      <trkpt lat="45.23207" lon="0.80413">
        <ele>236</ele>
        <time>2017-11-19T10:15:42.000Z</time>
      </trkpt>
      <trkpt lat="45.23203" lon="0.80424">
        <ele>238</ele>
        <time>2017-11-19T10:15:44.000Z</time>
      </trkpt>
      <trkpt lat="45.23194" lon="0.80434">
        <ele>238</ele>
        <time>2017-11-19T10:15:48.000Z</time>
      </trkpt>
      <trkpt lat="45.2318" lon="0.80433">
        <ele>238</ele>
        <time>2017-11-19T10:15:51.000Z</time>
      </trkpt>
      <trkpt lat="45.23167" lon="0.80424">
        <ele>236</ele>
        <time>2017-11-19T10:15:54.000Z</time>
      </trkpt>
      <trkpt lat="45.23156" lon="0.80415">
        <ele>237</ele>
        <time>2017-11-19T10:15:56.000Z</time>
      </trkpt>
      <trkpt lat="45.23144" lon="0.80402">
        <ele>235</ele>
        <time>2017-11-19T10:15:59.000Z</time>
      </trkpt>
      <trkpt lat="45.23136" lon="0.80394">
        <ele>234</ele>
        <time>2017-11-19T10:16:00.000Z</time>
      </trkpt>
      <trkpt lat="45.23128" lon="0.80388">
        <ele>234</ele>
        <time>2017-11-19T10:16:02.000Z</time>
      </trkpt>
      <trkpt lat="45.23117" lon="0.80375">
        <ele>233</ele>
        <time>2017-11-19T10:16:04.000Z</time>
      </trkpt>
      <trkpt lat="45.23108" lon="0.80358">
        <ele>233</ele>
        <time>2017-11-19T10:16:06.000Z</time>
      </trkpt>
      <trkpt lat="45.23097" lon="0.80343">
        <ele>232</ele>
        <time>2017-11-19T10:16:08.000Z</time>
      </trkpt>
      <trkpt lat="45.23083" lon="0.80343">
        <ele>234</ele>
        <time>2017-11-19T10:16:10.000Z</time>
      </trkpt>
      <trkpt lat="45.23075" lon="0.80356">
        <ele>233</ele>
        <time>2017-11-19T10:16:13.000Z</time>
      </trkpt>
      <trkpt lat="45.23074" lon="0.80377">
        <ele>227</ele>
        <time>2017-11-19T10:16:38.000Z</time>
      </trkpt>
      <trkpt lat="45.23068" lon="0.80388">
        <ele>228</ele>
        <time>2017-11-19T10:17:30.000Z</time>
      </trkpt>
      <trkpt lat="45.23061" lon="0.80398">
        <ele>229</ele>
        <time>2017-11-19T10:17:33.000Z</time>
      </trkpt>
      <trkpt lat="45.23055" lon="0.80408">
        <ele>228</ele>
        <time>2017-11-19T10:17:36.000Z</time>
      </trkpt>
      <trkpt lat="45.23047" lon="0.8042">
        <ele>230</ele>
        <time>2017-11-19T10:17:39.000Z</time>
      </trkpt>
      <trkpt lat="45.2304" lon="0.80431">
        <ele>229</ele>
        <time>2017-11-19T10:17:42.000Z</time>
      </trkpt>
      <trkpt lat="45.23031" lon="0.80441">
        <ele>230</ele>
        <time>2017-11-19T10:17:45.000Z</time>
      </trkpt>
      <trkpt lat="45.23023" lon="0.80446">
        <ele>232</ele>
        <time>2017-11-19T10:17:48.000Z</time>
      </trkpt>
      <trkpt lat="45.23013" lon="0.8045">
        <ele>231</ele>
        <time>2017-11-19T10:17:52.000Z</time>
      </trkpt>
      <trkpt lat="45.23002" lon="0.80456">
        <ele>228</ele>
        <time>2017-11-19T10:17:56.000Z</time>
      </trkpt>
      <trkpt lat="45.22992" lon="0.80467">
        <ele>225</ele>
        <time>2017-11-19T10:17:59.000Z</time>
      </trkpt>
      <trkpt lat="45.22982" lon="0.80476">
        <ele>226</ele>
        <time>2017-11-19T10:18:02.000Z</time>
      </trkpt>
      <trkpt lat="45.22971" lon="0.8048">
        <ele>230</ele>
        <time>2017-11-19T10:18:05.000Z</time>
      </trkpt>
      <trkpt lat="45.2296" lon="0.80475">
        <ele>228</ele>
        <time>2017-11-19T10:18:09.000Z</time>
      </trkpt>
      <trkpt lat="45.22951" lon="0.80474">
        <ele>227</ele>
        <time>2017-11-19T10:18:12.000Z</time>
      </trkpt>
      <trkpt lat="45.22939" lon="0.80477">
        <ele>227</ele>
        <time>2017-11-19T10:18:15.000Z</time>
      </trkpt>
      <trkpt lat="45.22927" lon="0.80477">
        <ele>225</ele>
        <time>2017-11-19T10:18:18.000Z</time>
      </trkpt>
      <trkpt lat="45.2291" lon="0.80479">
        <ele>227</ele>
        <time>2017-11-19T10:18:21.000Z</time>
      </trkpt>
      <trkpt lat="45.22899" lon="0.80479">
        <ele>226</ele>
        <time>2017-11-19T10:18:26.000Z</time>
      </trkpt>
      <trkpt lat="45.22889" lon="0.8048">
        <ele>229</ele>
        <time>2017-11-19T10:18:30.000Z</time>
      </trkpt>
      <trkpt lat="45.22879" lon="0.8048">
        <ele>231</ele>
        <time>2017-11-19T10:18:34.000Z</time>
      </trkpt>
      <trkpt lat="45.2287" lon="0.80485">
        <ele>231</ele>
        <time>2017-11-19T10:18:37.000Z</time>
      </trkpt>
      <trkpt lat="45.2286" lon="0.80495">
        <ele>226</ele>
        <time>2017-11-19T10:18:41.000Z</time>
      </trkpt>
      <trkpt lat="45.22854" lon="0.80506">
        <ele>224</ele>
        <time>2017-11-19T10:18:44.000Z</time>
      </trkpt>
      <trkpt lat="45.22846" lon="0.80517">
        <ele>223</ele>
        <time>2017-11-19T10:18:47.000Z</time>
      </trkpt>
      <trkpt lat="45.22835" lon="0.80529">
        <ele>224</ele>
        <time>2017-11-19T10:18:50.000Z</time>
      </trkpt>
      <trkpt lat="45.22829" lon="0.80543">
        <ele>224</ele>
        <time>2017-11-19T10:18:51.000Z</time>
      </trkpt>
      <trkpt lat="45.2282" lon="0.80557">
        <ele>224</ele>
        <time>2017-11-19T10:18:53.000Z</time>
      </trkpt>
      <trkpt lat="45.22814" lon="0.8057">
        <ele>224</ele>
        <time>2017-11-19T10:18:55.000Z</time>
      </trkpt>
      <trkpt lat="45.22809" lon="0.80585">
        <ele>222</ele>
        <time>2017-11-19T10:18:57.000Z</time>
      </trkpt>
      <trkpt lat="45.228" lon="0.80601">
        <ele>222</ele>
        <time>2017-11-19T10:18:59.000Z</time>
      </trkpt>
      <trkpt lat="45.2279" lon="0.80616">
        <ele>223</ele>
        <time>2017-11-19T10:19:01.000Z</time>
      </trkpt>
      <trkpt lat="45.22781" lon="0.80631">
        <ele>222</ele>
        <time>2017-11-19T10:19:03.000Z</time>
      </trkpt>
      <trkpt lat="45.2277" lon="0.80647">
        <ele>221</ele>
        <time>2017-11-19T10:19:05.000Z</time>
      </trkpt>
      <trkpt lat="45.2276" lon="0.80654">
        <ele>222</ele>
        <time>2017-11-19T10:19:07.000Z</time>
      </trkpt>
      <trkpt lat="45.22748" lon="0.80662">
        <ele>221</ele>
        <time>2017-11-19T10:19:09.000Z</time>
      </trkpt>
      <trkpt lat="45.22739" lon="0.80664">
        <ele>221</ele>
        <time>2017-11-19T10:19:11.000Z</time>
      </trkpt>
      <trkpt lat="45.2273" lon="0.80668">
        <ele>221</ele>
        <time>2017-11-19T10:19:13.000Z</time>
      </trkpt>
      <trkpt lat="45.22716" lon="0.80674">
        <ele>221</ele>
        <time>2017-11-19T10:19:15.000Z</time>
      </trkpt>
      <trkpt lat="45.22704" lon="0.80676">
        <ele>220</ele>
        <time>2017-11-19T10:19:17.000Z</time>
      </trkpt>
      <trkpt lat="45.22694" lon="0.8068">
        <ele>218</ele>
        <time>2017-11-19T10:19:19.000Z</time>
      </trkpt>
      <trkpt lat="45.22681" lon="0.80684">
        <ele>218</ele>
        <time>2017-11-19T10:19:21.000Z</time>
      </trkpt>
      <trkpt lat="45.22672" lon="0.80687">
        <ele>213</ele>
        <time>2017-11-19T10:19:23.000Z</time>
      </trkpt>
      <trkpt lat="45.22658" lon="0.80692">
        <ele>214</ele>
        <time>2017-11-19T10:19:25.000Z</time>
      </trkpt>
      <trkpt lat="45.22648" lon="0.80696">
        <ele>212</ele>
        <time>2017-11-19T10:19:27.000Z</time>
      </trkpt>
      <trkpt lat="45.22638" lon="0.807">
        <ele>213</ele>
        <time>2017-11-19T10:19:29.000Z</time>
      </trkpt>
      <trkpt lat="45.22628" lon="0.80703">
        <ele>212</ele>
        <time>2017-11-19T10:19:31.000Z</time>
      </trkpt>
      <trkpt lat="45.22617" lon="0.80708">
        <ele>212</ele>
        <time>2017-11-19T10:19:33.000Z</time>
      </trkpt>
      <trkpt lat="45.22606" lon="0.80709">
        <ele>212</ele>
        <time>2017-11-19T10:19:35.000Z</time>
      </trkpt>
      <trkpt lat="45.22596" lon="0.80711">
        <ele>211</ele>
        <time>2017-11-19T10:19:37.000Z</time>
      </trkpt>
      <trkpt lat="45.22584" lon="0.80713">
        <ele>209</ele>
        <time>2017-11-19T10:19:39.000Z</time>
      </trkpt>
      <trkpt lat="45.22572" lon="0.80715">
        <ele>208</ele>
        <time>2017-11-19T10:19:41.000Z</time>
      </trkpt>
      <trkpt lat="45.22562" lon="0.80711">
        <ele>208</ele>
        <time>2017-11-19T10:19:43.000Z</time>
      </trkpt>
      <trkpt lat="45.22553" lon="0.80709">
        <ele>208</ele>
        <time>2017-11-19T10:19:45.000Z</time>
      </trkpt>
      <trkpt lat="45.2254" lon="0.80707">
        <ele>207</ele>
        <time>2017-11-19T10:19:48.000Z</time>
      </trkpt>
      <trkpt lat="45.2253" lon="0.80709">
        <ele>207</ele>
        <time>2017-11-19T10:19:50.000Z</time>
      </trkpt>
      <trkpt lat="45.22522" lon="0.80702">
        <ele>205</ele>
        <time>2017-11-19T10:19:52.000Z</time>
      </trkpt>
      <trkpt lat="45.22512" lon="0.80699">
        <ele>205</ele>
        <time>2017-11-19T10:19:54.000Z</time>
      </trkpt>
      <trkpt lat="45.22501" lon="0.80699">
        <ele>203</ele>
        <time>2017-11-19T10:19:56.000Z</time>
      </trkpt>
      <trkpt lat="45.22484" lon="0.80692">
        <ele>200</ele>
        <time>2017-11-19T10:20:00.000Z</time>
      </trkpt>
      <trkpt lat="45.22472" lon="0.80682">
        <ele>197</ele>
        <time>2017-11-19T10:20:03.000Z</time>
      </trkpt>
      <trkpt lat="45.2246" lon="0.80675">
        <ele>196</ele>
        <time>2017-11-19T10:20:06.000Z</time>
      </trkpt>
      <trkpt lat="45.22449" lon="0.8067">
        <ele>195</ele>
        <time>2017-11-19T10:20:09.000Z</time>
      </trkpt>
      <trkpt lat="45.22437" lon="0.80666">
        <ele>195</ele>
        <time>2017-11-19T10:20:12.000Z</time>
      </trkpt>
      <trkpt lat="45.22427" lon="0.80662">
        <ele>195</ele>
        <time>2017-11-19T10:20:14.000Z</time>
      </trkpt>
      <trkpt lat="45.22418" lon="0.80656">
        <ele>193</ele>
        <time>2017-11-19T10:20:16.000Z</time>
      </trkpt>
      <trkpt lat="45.22405" lon="0.80651">
        <ele>192</ele>
        <time>2017-11-19T10:20:19.000Z</time>
      </trkpt>
      <trkpt lat="45.22393" lon="0.80645">
        <ele>192</ele>
        <time>2017-11-19T10:20:21.000Z</time>
      </trkpt>
      <trkpt lat="45.22379" lon="0.80648">
        <ele>190</ele>
        <time>2017-11-19T10:20:24.000Z</time>
      </trkpt>
      <trkpt lat="45.22369" lon="0.80649">
        <ele>192</ele>
        <time>2017-11-19T10:20:26.000Z</time>
      </trkpt>
      <trkpt lat="45.22358" lon="0.80649">
        <ele>192</ele>
        <time>2017-11-19T10:20:28.000Z</time>
      </trkpt>
      <trkpt lat="45.22347" lon="0.8065">
        <ele>189</ele>
        <time>2017-11-19T10:20:31.000Z</time>
      </trkpt>
      <trkpt lat="45.22336" lon="0.80649">
        <ele>187</ele>
        <time>2017-11-19T10:20:34.000Z</time>
      </trkpt>
      <trkpt lat="45.22325" lon="0.80649">
        <ele>186</ele>
        <time>2017-11-19T10:20:37.000Z</time>
      </trkpt>
      <trkpt lat="45.22313" lon="0.80653">
        <ele>184</ele>
        <time>2017-11-19T10:22:26.000Z</time>
      </trkpt>
      <trkpt lat="45.22299" lon="0.80659">
        <ele>183</ele>
        <time>2017-11-19T10:22:29.000Z</time>
      </trkpt>
      <trkpt lat="45.2229" lon="0.80665">
        <ele>180</ele>
        <time>2017-11-19T10:22:31.000Z</time>
      </trkpt>
      <trkpt lat="45.2228" lon="0.80677">
        <ele>177</ele>
        <time>2017-11-19T10:22:34.000Z</time>
      </trkpt>
      <trkpt lat="45.22274" lon="0.8069">
        <ele>176</ele>
        <time>2017-11-19T10:22:36.000Z</time>
      </trkpt>
      <trkpt lat="45.22267" lon="0.8071">
        <ele>176</ele>
        <time>2017-11-19T10:22:39.000Z</time>
      </trkpt>
      <trkpt lat="45.2226" lon="0.80724">
        <ele>175</ele>
        <time>2017-11-19T10:22:41.000Z</time>
      </trkpt>
      <trkpt lat="45.2225" lon="0.80736">
        <ele>175</ele>
        <time>2017-11-19T10:22:43.000Z</time>
      </trkpt>
      <trkpt lat="45.2224" lon="0.80738">
        <ele>174</ele>
        <time>2017-11-19T10:22:45.000Z</time>
      </trkpt>
      <trkpt lat="45.22229" lon="0.80738">
        <ele>174</ele>
        <time>2017-11-19T10:22:48.000Z</time>
      </trkpt>
      <trkpt lat="45.22218" lon="0.80734">
        <ele>171</ele>
        <time>2017-11-19T10:22:51.000Z</time>
      </trkpt>
      <trkpt lat="45.22208" lon="0.80729">
        <ele>171</ele>
        <time>2017-11-19T10:22:53.000Z</time>
      </trkpt>
      <trkpt lat="45.22198" lon="0.80731">
        <ele>170</ele>
        <time>2017-11-19T10:22:56.000Z</time>
      </trkpt>
      <trkpt lat="45.22189" lon="0.80729">
        <ele>170</ele>
        <time>2017-11-19T10:22:58.000Z</time>
      </trkpt>
      <trkpt lat="45.22176" lon="0.80729">
        <ele>171</ele>
        <time>2017-11-19T10:23:00.000Z</time>
      </trkpt>
      <trkpt lat="45.22165" lon="0.80732">
        <ele>172</ele>
        <time>2017-11-19T10:23:02.000Z</time>
      </trkpt>
      <trkpt lat="45.22156" lon="0.80736">
        <ele>170</ele>
        <time>2017-11-19T10:23:04.000Z</time>
      </trkpt>
      <trkpt lat="45.22147" lon="0.80748">
        <ele>170</ele>
        <time>2017-11-19T10:23:07.000Z</time>
      </trkpt>
      <trkpt lat="45.22138" lon="0.80753">
        <ele>172</ele>
        <time>2017-11-19T10:23:10.000Z</time>
      </trkpt>
      <trkpt lat="45.22131" lon="0.80766">
        <ele>171</ele>
        <time>2017-11-19T10:23:12.000Z</time>
      </trkpt>
      <trkpt lat="45.2212" lon="0.80775">
        <ele>172</ele>
        <time>2017-11-19T10:23:16.000Z</time>
      </trkpt>
      <trkpt lat="45.22109" lon="0.80778">
        <ele>172</ele>
        <time>2017-11-19T10:23:19.000Z</time>
      </trkpt>
      <trkpt lat="45.22098" lon="0.80778">
        <ele>173</ele>
        <time>2017-11-19T10:23:22.000Z</time>
      </trkpt>
      <trkpt lat="45.22083" lon="0.80789">
        <ele>172</ele>
        <time>2017-11-19T10:23:25.000Z</time>
      </trkpt>
      <trkpt lat="45.22074" lon="0.80797">
        <ele>171</ele>
        <time>2017-11-19T10:23:28.000Z</time>
      </trkpt>
      <trkpt lat="45.22064" lon="0.80805">
        <ele>170</ele>
        <time>2017-11-19T10:23:31.000Z</time>
      </trkpt>
      <trkpt lat="45.22053" lon="0.80814">
        <ele>169</ele>
        <time>2017-11-19T10:23:35.000Z</time>
      </trkpt>
      <trkpt lat="45.22045" lon="0.80822">
        <ele>171</ele>
        <time>2017-11-19T10:23:37.000Z</time>
      </trkpt>
      <trkpt lat="45.22034" lon="0.80832">
        <ele>181</ele>
        <time>2017-11-19T10:23:40.000Z</time>
      </trkpt>
      <trkpt lat="45.22023" lon="0.8084">
        <ele>176</ele>
        <time>2017-11-19T10:23:43.000Z</time>
      </trkpt>
      <trkpt lat="45.22011" lon="0.80846">
        <ele>172</ele>
        <time>2017-11-19T10:23:46.000Z</time>
      </trkpt>
      <trkpt lat="45.21999" lon="0.80853">
        <ele>171</ele>
        <time>2017-11-19T10:23:49.000Z</time>
      </trkpt>
      <trkpt lat="45.21988" lon="0.80862">
        <ele>169</ele>
        <time>2017-11-19T10:23:52.000Z</time>
      </trkpt>
      <trkpt lat="45.21979" lon="0.80868">
        <ele>169</ele>
        <time>2017-11-19T10:23:54.000Z</time>
      </trkpt>
      <trkpt lat="45.2197" lon="0.80877">
        <ele>171</ele>
        <time>2017-11-19T10:23:56.000Z</time>
      </trkpt>
      <trkpt lat="45.21956" lon="0.80879">
        <ele>172</ele>
        <time>2017-11-19T10:23:59.000Z</time>
      </trkpt>
      <trkpt lat="45.21946" lon="0.80886">
        <ele>172</ele>
        <time>2017-11-19T10:24:01.000Z</time>
      </trkpt>
      <trkpt lat="45.21938" lon="0.80892">
        <ele>174</ele>
        <time>2017-11-19T10:24:03.000Z</time>
      </trkpt>
      <trkpt lat="45.21927" lon="0.80894">
        <ele>173</ele>
        <time>2017-11-19T10:24:05.000Z</time>
      </trkpt>
      <trkpt lat="45.21914" lon="0.80905">
        <ele>171</ele>
        <time>2017-11-19T10:24:07.000Z</time>
      </trkpt>
      <trkpt lat="45.21903" lon="0.80914">
        <ele>167</ele>
        <time>2017-11-19T10:24:10.000Z</time>
      </trkpt>
      <trkpt lat="45.21895" lon="0.80919">
        <ele>166</ele>
        <time>2017-11-19T10:24:12.000Z</time>
      </trkpt>
      <trkpt lat="45.21885" lon="0.80925">
        <ele>165</ele>
        <time>2017-11-19T10:24:14.000Z</time>
      </trkpt>
      <trkpt lat="45.21875" lon="0.80922">
        <ele>164</ele>
        <time>2017-11-19T10:24:16.000Z</time>
      </trkpt>
      <trkpt lat="45.21866" lon="0.80927">
        <ele>165</ele>
        <time>2017-11-19T10:24:18.000Z</time>
      </trkpt>
      <trkpt lat="45.21853" lon="0.80926">
        <ele>164</ele>
        <time>2017-11-19T10:24:21.000Z</time>
      </trkpt>
      <trkpt lat="45.21843" lon="0.80931">
        <ele>162</ele>
        <time>2017-11-19T10:24:23.000Z</time>
      </trkpt>
      <trkpt lat="45.2183" lon="0.80934">
        <ele>161</ele>
        <time>2017-11-19T10:24:26.000Z</time>
      </trkpt>
      <trkpt lat="45.21819" lon="0.80936">
        <ele>164</ele>
        <time>2017-11-19T10:24:29.000Z</time>
      </trkpt>
      <trkpt lat="45.21807" lon="0.8094">
        <ele>163</ele>
        <time>2017-11-19T10:24:32.000Z</time>
      </trkpt>
      <trkpt lat="45.21796" lon="0.80944">
        <ele>163</ele>
        <time>2017-11-19T10:24:35.000Z</time>
      </trkpt>
      <trkpt lat="45.21786" lon="0.8095">
        <ele>163</ele>
        <time>2017-11-19T10:24:38.000Z</time>
      </trkpt>
      <trkpt lat="45.21774" lon="0.80956">
        <ele>160</ele>
        <time>2017-11-19T10:24:41.000Z</time>
      </trkpt>
      <trkpt lat="45.21765" lon="0.80962">
        <ele>159</ele>
        <time>2017-11-19T10:24:43.000Z</time>
      </trkpt>
      <trkpt lat="45.21755" lon="0.80964">
        <ele>160</ele>
        <time>2017-11-19T10:24:46.000Z</time>
      </trkpt>
      <trkpt lat="45.21744" lon="0.80965">
        <ele>180</ele>
        <time>2017-11-19T10:24:49.000Z</time>
      </trkpt>
      <trkpt lat="45.21734" lon="0.80968">
        <ele>163</ele>
        <time>2017-11-19T10:24:54.000Z</time>
      </trkpt>
      <trkpt lat="45.21725" lon="0.80972">
        <ele>159</ele>
        <time>2017-11-19T10:24:58.000Z</time>
      </trkpt>
      <trkpt lat="45.21715" lon="0.80976">
        <ele>158</ele>
        <time>2017-11-19T10:25:02.000Z</time>
      </trkpt>
      <trkpt lat="45.21705" lon="0.8098">
        <ele>169</ele>
        <time>2017-11-19T10:25:06.000Z</time>
      </trkpt>
      <trkpt lat="45.21695" lon="0.80983">
        <ele>162</ele>
        <time>2017-11-19T10:25:09.000Z</time>
      </trkpt>
      <trkpt lat="45.21684" lon="0.80984">
        <ele>159</ele>
        <time>2017-11-19T10:25:12.000Z</time>
      </trkpt>
      <trkpt lat="45.21674" lon="0.80986">
        <ele>160</ele>
        <time>2017-11-19T10:25:15.000Z</time>
      </trkpt>
      <trkpt lat="45.21663" lon="0.80988">
        <ele>160</ele>
        <time>2017-11-19T10:25:18.000Z</time>
      </trkpt>
      <trkpt lat="45.21652" lon="0.80991">
        <ele>160</ele>
        <time>2017-11-19T10:25:21.000Z</time>
      </trkpt>
      <trkpt lat="45.2164" lon="0.80996">
        <ele>162</ele>
        <time>2017-11-19T10:25:24.000Z</time>
      </trkpt>
      <trkpt lat="45.21629" lon="0.80999">
        <ele>162</ele>
        <time>2017-11-19T10:25:27.000Z</time>
      </trkpt>
      <trkpt lat="45.21616" lon="0.81004">
        <ele>162</ele>
        <time>2017-11-19T10:25:30.000Z</time>
      </trkpt>
      <trkpt lat="45.21605" lon="0.8101">
        <ele>162</ele>
        <time>2017-11-19T10:25:33.000Z</time>
      </trkpt>
      <trkpt lat="45.21589" lon="0.81018">
        <ele>161</ele>
        <time>2017-11-19T10:25:37.000Z</time>
      </trkpt>
      <trkpt lat="45.21577" lon="0.81024">
        <ele>159</ele>
        <time>2017-11-19T10:25:40.000Z</time>
      </trkpt>
      <trkpt lat="45.21566" lon="0.81025">
        <ele>159</ele>
        <time>2017-11-19T10:25:42.000Z</time>
      </trkpt>
      <trkpt lat="45.21557" lon="0.81027">
        <ele>158</ele>
        <time>2017-11-19T10:25:44.000Z</time>
      </trkpt>
      <trkpt lat="45.21547" lon="0.81027">
        <ele>159</ele>
        <time>2017-11-19T10:25:46.000Z</time>
      </trkpt>
      <trkpt lat="45.21535" lon="0.81029">
        <ele>158</ele>
        <time>2017-11-19T10:25:48.000Z</time>
      </trkpt>
      <trkpt lat="45.21525" lon="0.81034">
        <ele>157</ele>
        <time>2017-11-19T10:25:50.000Z</time>
      </trkpt>
      <trkpt lat="45.21513" lon="0.8104">
        <ele>158</ele>
        <time>2017-11-19T10:25:52.000Z</time>
      </trkpt>
      <trkpt lat="45.21501" lon="0.81039">
        <ele>159</ele>
        <time>2017-11-19T10:25:54.000Z</time>
      </trkpt>
      <trkpt lat="45.21492" lon="0.81049">
        <ele>157</ele>
        <time>2017-11-19T10:25:56.000Z</time>
      </trkpt>
      <trkpt lat="45.21478" lon="0.81052">
        <ele>157</ele>
        <time>2017-11-19T10:25:58.000Z</time>
      </trkpt>
      <trkpt lat="45.2147" lon="0.81058">
        <ele>155</ele>
        <time>2017-11-19T10:26:00.000Z</time>
      </trkpt>
      <trkpt lat="45.21458" lon="0.81062">
        <ele>153</ele>
        <time>2017-11-19T10:26:03.000Z</time>
      </trkpt>
      <trkpt lat="45.21449" lon="0.81068">
        <ele>152</ele>
        <time>2017-11-19T10:26:06.000Z</time>
      </trkpt>
      <trkpt lat="45.21439" lon="0.81072">
        <ele>152</ele>
        <time>2017-11-19T10:26:08.000Z</time>
      </trkpt>
      <trkpt lat="45.21429" lon="0.81076">
        <ele>153</ele>
        <time>2017-11-19T10:26:10.000Z</time>
      </trkpt>
      <trkpt lat="45.21419" lon="0.81078">
        <ele>153</ele>
        <time>2017-11-19T10:26:13.000Z</time>
      </trkpt>
      <trkpt lat="45.21407" lon="0.81083">
        <ele>151</ele>
        <time>2017-11-19T10:26:16.000Z</time>
      </trkpt>
      <trkpt lat="45.21396" lon="0.81087">
        <ele>149</ele>
        <time>2017-11-19T10:26:19.000Z</time>
      </trkpt>
      <trkpt lat="45.21384" lon="0.8109">
        <ele>151</ele>
        <time>2017-11-19T10:26:22.000Z</time>
      </trkpt>
      <trkpt lat="45.21375" lon="0.81092">
        <ele>152</ele>
        <time>2017-11-19T10:26:24.000Z</time>
      </trkpt>
      <trkpt lat="45.21363" lon="0.81092">
        <ele>151</ele>
        <time>2017-11-19T10:26:27.000Z</time>
      </trkpt>
      <trkpt lat="45.21353" lon="0.81091">
        <ele>152</ele>
        <time>2017-11-19T10:26:30.000Z</time>
      </trkpt>
      <trkpt lat="45.21344" lon="0.81092">
        <ele>152</ele>
        <time>2017-11-19T10:26:32.000Z</time>
      </trkpt>
      <trkpt lat="45.21331" lon="0.81094">
        <ele>150</ele>
        <time>2017-11-19T10:26:35.000Z</time>
      </trkpt>
      <trkpt lat="45.2132" lon="0.81093">
        <ele>151</ele>
        <time>2017-11-19T10:26:38.000Z</time>
      </trkpt>
      <trkpt lat="45.21307" lon="0.81093">
        <ele>148</ele>
        <time>2017-11-19T10:26:41.000Z</time>
      </trkpt>
      <trkpt lat="45.21297" lon="0.81091">
        <ele>148</ele>
        <time>2017-11-19T10:26:44.000Z</time>
      </trkpt>
      <trkpt lat="45.21287" lon="0.81089">
        <ele>148</ele>
        <time>2017-11-19T10:26:47.000Z</time>
      </trkpt>
      <trkpt lat="45.21274" lon="0.8109">
        <ele>152</ele>
        <time>2017-11-19T10:26:50.000Z</time>
      </trkpt>
      <trkpt lat="45.21265" lon="0.81094">
        <ele>151</ele>
        <time>2017-11-19T10:26:52.000Z</time>
      </trkpt>
      <trkpt lat="45.21251" lon="0.81097">
        <ele>154</ele>
        <time>2017-11-19T10:26:55.000Z</time>
      </trkpt>
      <trkpt lat="45.21238" lon="0.81108">
        <ele>154</ele>
        <time>2017-11-19T10:26:57.000Z</time>
      </trkpt>
      <trkpt lat="45.21226" lon="0.81105">
        <ele>154</ele>
        <time>2017-11-19T10:27:00.000Z</time>
      </trkpt>
      <trkpt lat="45.21214" lon="0.81095">
        <ele>153</ele>
        <time>2017-11-19T10:27:03.000Z</time>
      </trkpt>
      <trkpt lat="45.21203" lon="0.81094">
        <ele>154</ele>
        <time>2017-11-19T10:27:05.000Z</time>
      </trkpt>
      <trkpt lat="45.2119" lon="0.81089">
        <ele>155</ele>
        <time>2017-11-19T10:27:07.000Z</time>
      </trkpt>
      <trkpt lat="45.21182" lon="0.81085">
        <ele>154</ele>
        <time>2017-11-19T10:27:08.000Z</time>
      </trkpt>
      <trkpt lat="45.21169" lon="0.8108">
        <ele>154</ele>
        <time>2017-11-19T10:27:10.000Z</time>
      </trkpt>
      <trkpt lat="45.21156" lon="0.81079">
        <ele>154</ele>
        <time>2017-11-19T10:27:12.000Z</time>
      </trkpt>
      <trkpt lat="45.21141" lon="0.81082">
        <ele>156</ele>
        <time>2017-11-19T10:27:14.000Z</time>
      </trkpt>
      <trkpt lat="45.21125" lon="0.81077">
        <ele>156</ele>
        <time>2017-11-19T10:27:17.000Z</time>
      </trkpt>
      <trkpt lat="45.21115" lon="0.81076">
        <ele>155</ele>
        <time>2017-11-19T10:27:19.000Z</time>
      </trkpt>
      <trkpt lat="45.21105" lon="0.81074">
        <ele>156</ele>
        <time>2017-11-19T10:27:21.000Z</time>
      </trkpt>
      <trkpt lat="45.21095" lon="0.81073">
        <ele>154</ele>
        <time>2017-11-19T10:27:24.000Z</time>
      </trkpt>
      <trkpt lat="45.21081" lon="0.81075">
        <ele>151</ele>
        <time>2017-11-19T10:27:27.000Z</time>
      </trkpt>
      <trkpt lat="45.21071" lon="0.81079">
        <ele>152</ele>
        <time>2017-11-19T10:27:29.000Z</time>
      </trkpt>
      <trkpt lat="45.21062" lon="0.8108">
        <ele>153</ele>
        <time>2017-11-19T10:27:31.000Z</time>
      </trkpt>
      <trkpt lat="45.21054" lon="0.8107">
        <ele>151</ele>
        <time>2017-11-19T10:27:35.000Z</time>
      </trkpt>
      <trkpt lat="45.21045" lon="0.81071">
        <ele>151</ele>
        <time>2017-11-19T10:27:38.000Z</time>
      </trkpt>
      <trkpt lat="45.21035" lon="0.81072">
        <ele>151</ele>
        <time>2017-11-19T10:27:43.000Z</time>
      </trkpt>
      <trkpt lat="45.21024" lon="0.81072">
        <ele>152</ele>
        <time>2017-11-19T10:27:48.000Z</time>
      </trkpt>
      <trkpt lat="45.21013" lon="0.81073">
        <ele>151</ele>
        <time>2017-11-19T10:27:53.000Z</time>
      </trkpt>
      <trkpt lat="45.21003" lon="0.81071">
        <ele>152</ele>
        <time>2017-11-19T10:27:58.000Z</time>
      </trkpt>
      <trkpt lat="45.20992" lon="0.81072">
        <ele>153</ele>
        <time>2017-11-19T10:28:02.000Z</time>
      </trkpt>
      <trkpt lat="45.20983" lon="0.81068">
        <ele>153</ele>
        <time>2017-11-19T10:28:07.000Z</time>
      </trkpt>
      <trkpt lat="45.20973" lon="0.81067">
        <ele>155</ele>
        <time>2017-11-19T10:28:12.000Z</time>
      </trkpt>
      <trkpt lat="45.20964" lon="0.81063">
        <ele>153</ele>
        <time>2017-11-19T10:28:18.000Z</time>
      </trkpt>
      <trkpt lat="45.20955" lon="0.81062">
        <ele>153</ele>
        <time>2017-11-19T10:28:22.000Z</time>
      </trkpt>
      <trkpt lat="45.20945" lon="0.81066">
        <ele>158</ele>
        <time>2017-11-19T10:28:27.000Z</time>
      </trkpt>
      <trkpt lat="45.20937" lon="0.81071">
        <ele>162</ele>
        <time>2017-11-19T10:28:32.000Z</time>
      </trkpt>
      <trkpt lat="45.20926" lon="0.81073">
        <ele>163</ele>
        <time>2017-11-19T10:28:38.000Z</time>
      </trkpt>
      <trkpt lat="45.20916" lon="0.81073">
        <ele>163</ele>
        <time>2017-11-19T10:28:46.000Z</time>
      </trkpt>
      <trkpt lat="45.20908" lon="0.81068">
        <ele>163</ele>
        <time>2017-11-19T10:28:53.000Z</time>
      </trkpt>
      <trkpt lat="45.20898" lon="0.81068">
        <ele>165</ele>
        <time>2017-11-19T10:29:01.000Z</time>
      </trkpt>
      <trkpt lat="45.20888" lon="0.81066">
        <ele>165</ele>
        <time>2017-11-19T10:29:07.000Z</time>
      </trkpt>
      <trkpt lat="45.20879" lon="0.81071">
        <ele>163</ele>
        <time>2017-11-19T10:29:13.000Z</time>
      </trkpt>
      <trkpt lat="45.20869" lon="0.81069">
        <ele>164</ele>
        <time>2017-11-19T10:29:19.000Z</time>
      </trkpt>
      <trkpt lat="45.20859" lon="0.81066">
        <ele>163</ele>
        <time>2017-11-19T10:29:26.000Z</time>
      </trkpt>
      <trkpt lat="45.20849" lon="0.81065">
        <ele>166</ele>
        <time>2017-11-19T10:29:31.000Z</time>
      </trkpt>
      <trkpt lat="45.2084" lon="0.81071">
        <ele>167</ele>
        <time>2017-11-19T10:29:36.000Z</time>
      </trkpt>
      <trkpt lat="45.20829" lon="0.81073">
        <ele>168</ele>
        <time>2017-11-19T10:29:43.000Z</time>
      </trkpt>
      <trkpt lat="45.2082" lon="0.81073">
        <ele>168</ele>
        <time>2017-11-19T10:29:46.000Z</time>
      </trkpt>
      <trkpt lat="45.20811" lon="0.81075">
        <ele>168</ele>
        <time>2017-11-19T10:29:51.000Z</time>
      </trkpt>
      <trkpt lat="45.20802" lon="0.81068">
        <ele>168</ele>
        <time>2017-11-19T10:29:56.000Z</time>
      </trkpt>
      <trkpt lat="45.20797" lon="0.81057">
        <ele>173</ele>
        <time>2017-11-19T10:30:01.000Z</time>
      </trkpt>
      <trkpt lat="45.20794" lon="0.81042">
        <ele>174</ele>
        <time>2017-11-19T10:30:06.000Z</time>
      </trkpt>
      <trkpt lat="45.20789" lon="0.8103">
        <ele>174</ele>
        <time>2017-11-19T10:30:10.000Z</time>
      </trkpt>
      <trkpt lat="45.20783" lon="0.81018">
        <ele>175</ele>
        <time>2017-11-19T10:30:13.000Z</time>
      </trkpt>
      <trkpt lat="45.2078" lon="0.80996">
        <ele>174</ele>
        <time>2017-11-19T10:30:16.000Z</time>
      </trkpt>
      <trkpt lat="45.2078" lon="0.80982">
        <ele>171</ele>
        <time>2017-11-19T10:30:18.000Z</time>
      </trkpt>
      <trkpt lat="45.20779" lon="0.80968">
        <ele>170</ele>
        <time>2017-11-19T10:30:20.000Z</time>
      </trkpt>
      <trkpt lat="45.20776" lon="0.80951">
        <ele>168</ele>
        <time>2017-11-19T10:30:22.000Z</time>
      </trkpt>
      <trkpt lat="45.2077" lon="0.80938">
        <ele>169</ele>
        <time>2017-11-19T10:30:24.000Z</time>
      </trkpt>
      <trkpt lat="45.20766" lon="0.80922">
        <ele>168</ele>
        <time>2017-11-19T10:30:26.000Z</time>
      </trkpt>
      <trkpt lat="45.20763" lon="0.8091">
        <ele>169</ele>
        <time>2017-11-19T10:30:28.000Z</time>
      </trkpt>
      <trkpt lat="45.20751" lon="0.80896">
        <ele>168</ele>
        <time>2017-11-19T10:30:30.000Z</time>
      </trkpt>
      <trkpt lat="45.20744" lon="0.80882">
        <ele>165</ele>
        <time>2017-11-19T10:30:32.000Z</time>
      </trkpt>
      <trkpt lat="45.20737" lon="0.80863">
        <ele>165</ele>
        <time>2017-11-19T10:30:34.000Z</time>
      </trkpt>
      <trkpt lat="45.20731" lon="0.80847">
        <ele>163</ele>
        <time>2017-11-19T10:30:36.000Z</time>
      </trkpt>
      <trkpt lat="45.20727" lon="0.8083">
        <ele>161</ele>
        <time>2017-11-19T10:30:38.000Z</time>
      </trkpt>
      <trkpt lat="45.20722" lon="0.80814">
        <ele>159</ele>
        <time>2017-11-19T10:30:40.000Z</time>
      </trkpt>
      <trkpt lat="45.20705" lon="0.80781">
        <ele>158</ele>
        <time>2017-11-19T10:30:45.000Z</time>
      </trkpt>
      <trkpt lat="45.20691" lon="0.80773">
        <ele>157</ele>
        <time>2017-11-19T10:30:47.000Z</time>
      </trkpt>
      <trkpt lat="45.20675" lon="0.80773">
        <ele>155</ele>
        <time>2017-11-19T10:30:49.000Z</time>
      </trkpt>
      <trkpt lat="45.2066" lon="0.80775">
        <ele>154</ele>
        <time>2017-11-19T10:30:51.000Z</time>
      </trkpt>
      <trkpt lat="45.20644" lon="0.80779">
        <ele>153</ele>
        <time>2017-11-19T10:30:53.000Z</time>
      </trkpt>
      <trkpt lat="45.20629" lon="0.80781">
        <ele>152</ele>
        <time>2017-11-19T10:30:55.000Z</time>
      </trkpt>
      <trkpt lat="45.20614" lon="0.80785">
        <ele>152</ele>
        <time>2017-11-19T10:30:57.000Z</time>
      </trkpt>
      <trkpt lat="45.206" lon="0.80788">
        <ele>151</ele>
        <time>2017-11-19T10:30:59.000Z</time>
      </trkpt>
      <trkpt lat="45.20588" lon="0.80791">
        <ele>151</ele>
        <time>2017-11-19T10:31:01.000Z</time>
      </trkpt>
      <trkpt lat="45.20577" lon="0.80795">
        <ele>150</ele>
        <time>2017-11-19T10:31:04.000Z</time>
      </trkpt>
      <trkpt lat="45.20566" lon="0.80797">
        <ele>150</ele>
        <time>2017-11-19T10:31:08.000Z</time>
      </trkpt>
      <trkpt lat="45.20561" lon="0.80785">
        <ele>151</ele>
        <time>2017-11-19T10:31:12.000Z</time>
      </trkpt>
      <trkpt lat="45.20557" lon="0.8077">
        <ele>150</ele>
        <time>2017-11-19T10:31:15.000Z</time>
      </trkpt>
      <trkpt lat="45.20552" lon="0.80757">
        <ele>151</ele>
        <time>2017-11-19T10:31:18.000Z</time>
      </trkpt>
      <trkpt lat="45.20546" lon="0.80743">
        <ele>153</ele>
        <time>2017-11-19T10:31:21.000Z</time>
      </trkpt>
      <trkpt lat="45.20542" lon="0.80728">
        <ele>153</ele>
        <time>2017-11-19T10:31:24.000Z</time>
      </trkpt>
      <trkpt lat="45.20537" lon="0.80715">
        <ele>151</ele>
        <time>2017-11-19T10:31:27.000Z</time>
      </trkpt>
      <trkpt lat="45.20533" lon="0.80702">
        <ele>151</ele>
        <time>2017-11-19T10:31:30.000Z</time>
      </trkpt>
      <trkpt lat="45.20528" lon="0.80687">
        <ele>148</ele>
        <time>2017-11-19T10:31:33.000Z</time>
      </trkpt>
      <trkpt lat="45.20522" lon="0.80673">
        <ele>148</ele>
        <time>2017-11-19T10:31:36.000Z</time>
      </trkpt>
      <trkpt lat="45.20516" lon="0.80659">
        <ele>149</ele>
        <time>2017-11-19T10:31:39.000Z</time>
      </trkpt>
      <trkpt lat="45.20509" lon="0.80644">
        <ele>149</ele>
        <time>2017-11-19T10:31:42.000Z</time>
      </trkpt>
      <trkpt lat="45.20502" lon="0.8063">
        <ele>149</ele>
        <time>2017-11-19T10:31:45.000Z</time>
      </trkpt>
      <trkpt lat="45.20495" lon="0.80617">
        <ele>147</ele>
        <time>2017-11-19T10:31:48.000Z</time>
      </trkpt>
      <trkpt lat="45.20487" lon="0.80605">
        <ele>146</ele>
        <time>2017-11-19T10:31:51.000Z</time>
      </trkpt>
      <trkpt lat="45.20479" lon="0.8059">
        <ele>147</ele>
        <time>2017-11-19T10:31:54.000Z</time>
      </trkpt>
      <trkpt lat="45.20471" lon="0.80576">
        <ele>149</ele>
        <time>2017-11-19T10:31:57.000Z</time>
      </trkpt>
      <trkpt lat="45.20465" lon="0.80561">
        <ele>149</ele>
        <time>2017-11-19T10:32:00.000Z</time>
      </trkpt>
      <trkpt lat="45.20459" lon="0.80548">
        <ele>151</ele>
        <time>2017-11-19T10:32:03.000Z</time>
      </trkpt>
      <trkpt lat="45.20453" lon="0.80534">
        <ele>151</ele>
        <time>2017-11-19T10:32:06.000Z</time>
      </trkpt>
      <trkpt lat="45.20447" lon="0.80519">
        <ele>150</ele>
        <time>2017-11-19T10:32:09.000Z</time>
      </trkpt>
      <trkpt lat="45.20441" lon="0.80504">
        <ele>150</ele>
        <time>2017-11-19T10:32:12.000Z</time>
      </trkpt>
      <trkpt lat="45.20435" lon="0.80489">
        <ele>151</ele>
        <time>2017-11-19T10:32:15.000Z</time>
      </trkpt>
      <trkpt lat="45.2043" lon="0.80473">
        <ele>150</ele>
        <time>2017-11-19T10:32:18.000Z</time>
      </trkpt>
      <trkpt lat="45.20426" lon="0.80461">
        <ele>150</ele>
        <time>2017-11-19T10:32:20.000Z</time>
      </trkpt>
      <trkpt lat="45.20421" lon="0.80445">
        <ele>147</ele>
        <time>2017-11-19T10:32:23.000Z</time>
      </trkpt>
      <trkpt lat="45.20417" lon="0.80432">
        <ele>147</ele>
        <time>2017-11-19T10:32:25.000Z</time>
      </trkpt>
      <trkpt lat="45.20413" lon="0.80419">
        <ele>148</ele>
        <time>2017-11-19T10:32:27.000Z</time>
      </trkpt>
      <trkpt lat="45.20408" lon="0.80407">
        <ele>148</ele>
        <time>2017-11-19T10:32:29.000Z</time>
      </trkpt>
      <trkpt lat="45.20404" lon="0.80394">
        <ele>149</ele>
        <time>2017-11-19T10:32:31.000Z</time>
      </trkpt>
      <trkpt lat="45.20399" lon="0.8038">
        <ele>147</ele>
        <time>2017-11-19T10:32:34.000Z</time>
      </trkpt>
      <trkpt lat="45.20395" lon="0.80368">
        <ele>148</ele>
        <time>2017-11-19T10:32:37.000Z</time>
      </trkpt>
      <trkpt lat="45.20391" lon="0.80353">
        <ele>148</ele>
        <time>2017-11-19T10:32:41.000Z</time>
      </trkpt>
      <trkpt lat="45.20386" lon="0.8034">
        <ele>148</ele>
        <time>2017-11-19T10:32:44.000Z</time>
      </trkpt>
      <trkpt lat="45.20382" lon="0.80325">
        <ele>148</ele>
        <time>2017-11-19T10:32:47.000Z</time>
      </trkpt>
      <trkpt lat="45.20384" lon="0.80309">
        <ele>148</ele>
        <time>2017-11-19T10:32:50.000Z</time>
      </trkpt>
      <trkpt lat="45.20387" lon="0.80294">
        <ele>148</ele>
        <time>2017-11-19T10:32:53.000Z</time>
      </trkpt>
      <trkpt lat="45.20389" lon="0.80281">
        <ele>149</ele>
        <time>2017-11-19T10:32:55.000Z</time>
      </trkpt>
      <trkpt lat="45.20395" lon="0.80265">
        <ele>152</ele>
        <time>2017-11-19T10:32:58.000Z</time>
      </trkpt>
      <trkpt lat="45.20406" lon="0.80255">
        <ele>150</ele>
        <time>2017-11-19T10:33:01.000Z</time>
      </trkpt>
      <trkpt lat="45.20415" lon="0.80251">
        <ele>150</ele>
        <time>2017-11-19T10:33:03.000Z</time>
      </trkpt>
      <trkpt lat="45.20424" lon="0.80245">
        <ele>150</ele>
        <time>2017-11-19T10:33:06.000Z</time>
      </trkpt>
      <trkpt lat="45.20436" lon="0.8024">
        <ele>150</ele>
        <time>2017-11-19T10:33:09.000Z</time>
      </trkpt>
      <trkpt lat="45.20446" lon="0.80238">
        <ele>150</ele>
        <time>2017-11-19T10:33:12.000Z</time>
      </trkpt>
      <trkpt lat="45.20458" lon="0.80237">
        <ele>153</ele>
        <time>2017-11-19T10:33:15.000Z</time>
      </trkpt>
      <trkpt lat="45.20468" lon="0.80235">
        <ele>153</ele>
        <time>2017-11-19T10:33:18.000Z</time>
      </trkpt>
      <trkpt lat="45.20479" lon="0.80232">
        <ele>151</ele>
        <time>2017-11-19T10:33:21.000Z</time>
      </trkpt>
      <trkpt lat="45.2049" lon="0.80229">
        <ele>152</ele>
        <time>2017-11-19T10:33:24.000Z</time>
      </trkpt>
      <trkpt lat="45.20499" lon="0.80226">
        <ele>151</ele>
        <time>2017-11-19T10:33:27.000Z</time>
      </trkpt>
      <trkpt lat="45.20509" lon="0.80223">
        <ele>153</ele>
        <time>2017-11-19T10:33:30.000Z</time>
      </trkpt>
      <trkpt lat="45.20519" lon="0.8022">
        <ele>152</ele>
        <time>2017-11-19T10:33:33.000Z</time>
      </trkpt>
      <trkpt lat="45.20529" lon="0.80217">
        <ele>153</ele>
        <time>2017-11-19T10:33:36.000Z</time>
      </trkpt>
      <trkpt lat="45.20558" lon="0.80203">
        <ele>162</ele>
        <time>2017-11-19T10:33:44.088Z</time>
      </trkpt>
      <trkpt lat="45.20569" lon="0.80203">
        <ele>151</ele>
        <time>2017-11-19T10:33:48.000Z</time>
      </trkpt>
      <trkpt lat="45.20581" lon="0.80203">
        <ele>151</ele>
        <time>2017-11-19T10:33:51.000Z</time>
      </trkpt>
      <trkpt lat="45.20593" lon="0.80202">
        <ele>151</ele>
        <time>2017-11-19T10:33:54.000Z</time>
      </trkpt>
      <trkpt lat="45.20604" lon="0.80198">
        <ele>151</ele>
        <time>2017-11-19T10:33:57.000Z</time>
      </trkpt>
      <trkpt lat="45.20613" lon="0.80198">
        <ele>150</ele>
        <time>2017-11-19T10:34:00.000Z</time>
      </trkpt>
      <trkpt lat="45.20623" lon="0.80198">
        <ele>153</ele>
        <time>2017-11-19T10:34:03.000Z</time>
      </trkpt>
      <trkpt lat="45.20634" lon="0.80193">
        <ele>154</ele>
        <time>2017-11-19T10:34:07.000Z</time>
      </trkpt>
      <trkpt lat="45.20645" lon="0.80188">
        <ele>155</ele>
        <time>2017-11-19T10:34:11.000Z</time>
      </trkpt>
      <trkpt lat="45.20656" lon="0.80185">
        <ele>156</ele>
        <time>2017-11-19T10:34:15.000Z</time>
      </trkpt>
      <trkpt lat="45.20666" lon="0.80186">
        <ele>155</ele>
        <time>2017-11-19T10:34:19.000Z</time>
      </trkpt>
      <trkpt lat="45.20676" lon="0.80184">
        <ele>154</ele>
        <time>2017-11-19T10:34:23.000Z</time>
      </trkpt>
      <trkpt lat="45.20685" lon="0.80183">
        <ele>155</ele>
        <time>2017-11-19T10:34:26.000Z</time>
      </trkpt>
      <trkpt lat="45.20695" lon="0.80182">
        <ele>154</ele>
        <time>2017-11-19T10:34:30.000Z</time>
      </trkpt>
      <trkpt lat="45.20707" lon="0.80178">
        <ele>151</ele>
        <time>2017-11-19T10:34:35.000Z</time>
      </trkpt>
      <trkpt lat="45.20715" lon="0.80168">
        <ele>153</ele>
        <time>2017-11-19T10:34:39.000Z</time>
      </trkpt>
      <trkpt lat="45.20715" lon="0.80152">
        <ele>155</ele>
        <time>2017-11-19T10:34:43.000Z</time>
      </trkpt>
      <trkpt lat="45.20712" lon="0.80137">
        <ele>155</ele>
        <time>2017-11-19T10:34:47.000Z</time>
      </trkpt>
      <trkpt lat="45.2071" lon="0.80123">
        <ele>156</ele>
        <time>2017-11-19T10:34:51.000Z</time>
      </trkpt>
      <trkpt lat="45.20707" lon="0.8011">
        <ele>155</ele>
        <time>2017-11-19T10:34:55.000Z</time>
      </trkpt>
      <trkpt lat="45.20706" lon="0.80096">
        <ele>153</ele>
        <time>2017-11-19T10:35:00.000Z</time>
      </trkpt>
      <trkpt lat="45.20704" lon="0.80083">
        <ele>151</ele>
        <time>2017-11-19T10:35:03.000Z</time>
      </trkpt>
      <trkpt lat="45.20701" lon="0.8007">
        <ele>152</ele>
        <time>2017-11-19T10:35:06.000Z</time>
      </trkpt>
      <trkpt lat="45.207" lon="0.80056">
        <ele>152</ele>
        <time>2017-11-19T10:35:09.000Z</time>
      </trkpt>
      <trkpt lat="45.20702" lon="0.80043">
        <ele>153</ele>
        <time>2017-11-19T10:35:12.000Z</time>
      </trkpt>
      <trkpt lat="45.20706" lon="0.80032">
        <ele>152</ele>
        <time>2017-11-19T10:35:15.000Z</time>
      </trkpt>
      <trkpt lat="45.20713" lon="0.80023">
        <ele>152</ele>
        <time>2017-11-19T10:35:18.000Z</time>
      </trkpt>
      <trkpt lat="45.20721" lon="0.80016">
        <ele>152</ele>
        <time>2017-11-19T10:35:21.000Z</time>
      </trkpt>
      <trkpt lat="45.20729" lon="0.80008">
        <ele>153</ele>
        <time>2017-11-19T10:35:24.000Z</time>
      </trkpt>
      <trkpt lat="45.20736" lon="0.79997">
        <ele>155</ele>
        <time>2017-11-19T10:35:27.000Z</time>
      </trkpt>
      <trkpt lat="45.20743" lon="0.79986">
        <ele>157</ele>
        <time>2017-11-19T10:35:31.000Z</time>
      </trkpt>
      <trkpt lat="45.20742" lon="0.79971">
        <ele>157</ele>
        <time>2017-11-19T10:35:34.000Z</time>
      </trkpt>
      <trkpt lat="45.20736" lon="0.79957">
        <ele>156</ele>
        <time>2017-11-19T10:35:37.000Z</time>
      </trkpt>
      <trkpt lat="45.20729" lon="0.79942">
        <ele>156</ele>
        <time>2017-11-19T10:35:40.000Z</time>
      </trkpt>
      <trkpt lat="45.20723" lon="0.79927">
        <ele>156</ele>
        <time>2017-11-19T10:35:43.000Z</time>
      </trkpt>
      <trkpt lat="45.20721" lon="0.79912">
        <ele>156</ele>
        <time>2017-11-19T10:35:46.000Z</time>
      </trkpt>
      <trkpt lat="45.20719" lon="0.79894">
        <ele>156</ele>
        <time>2017-11-19T10:35:49.000Z</time>
      </trkpt>
      <trkpt lat="45.20718" lon="0.79876">
        <ele>159</ele>
        <time>2017-11-19T10:35:52.000Z</time>
      </trkpt>
      <trkpt lat="45.20717" lon="0.79858">
        <ele>159</ele>
        <time>2017-11-19T10:35:55.000Z</time>
      </trkpt>
      <trkpt lat="45.20715" lon="0.79842">
        <ele>157</ele>
        <time>2017-11-19T10:35:58.000Z</time>
      </trkpt>
      <trkpt lat="45.2071" lon="0.79825">
        <ele>155</ele>
        <time>2017-11-19T10:36:01.000Z</time>
      </trkpt>
      <trkpt lat="45.20705" lon="0.7981">
        <ele>157</ele>
        <time>2017-11-19T10:36:04.000Z</time>
      </trkpt>
      <trkpt lat="45.20701" lon="0.79795">
        <ele>157</ele>
        <time>2017-11-19T10:36:07.000Z</time>
      </trkpt>
      <trkpt lat="45.20697" lon="0.79783">
        <ele>157</ele>
        <time>2017-11-19T10:36:10.000Z</time>
      </trkpt>
      <trkpt lat="45.20692" lon="0.79771">
        <ele>156</ele>
        <time>2017-11-19T10:36:13.000Z</time>
      </trkpt>
      <trkpt lat="45.20688" lon="0.79758">
        <ele>159</ele>
        <time>2017-11-19T10:36:16.000Z</time>
      </trkpt>
      <trkpt lat="45.20684" lon="0.79746">
        <ele>157</ele>
        <time>2017-11-19T10:36:20.000Z</time>
      </trkpt>
      <trkpt lat="45.2068" lon="0.79732">
        <ele>155</ele>
        <time>2017-11-19T10:36:23.000Z</time>
      </trkpt>
      <trkpt lat="45.20675" lon="0.79718">
        <ele>155</ele>
        <time>2017-11-19T10:36:26.000Z</time>
      </trkpt>
      <trkpt lat="45.20671" lon="0.79705">
        <ele>156</ele>
        <time>2017-11-19T10:36:29.000Z</time>
      </trkpt>
      <trkpt lat="45.20666" lon="0.79691">
        <ele>154</ele>
        <time>2017-11-19T10:36:32.000Z</time>
      </trkpt>
      <trkpt lat="45.20661" lon="0.79675">
        <ele>154</ele>
        <time>2017-11-19T10:36:35.000Z</time>
      </trkpt>
      <trkpt lat="45.20658" lon="0.7966">
        <ele>154</ele>
        <time>2017-11-19T10:36:38.000Z</time>
      </trkpt>
      <trkpt lat="45.20653" lon="0.79643">
        <ele>154</ele>
        <time>2017-11-19T10:36:41.000Z</time>
      </trkpt>
      <trkpt lat="45.20651" lon="0.79625">
        <ele>154</ele>
        <time>2017-11-19T10:36:44.000Z</time>
      </trkpt>
      <trkpt lat="45.20652" lon="0.79608">
        <ele>154</ele>
        <time>2017-11-19T10:36:48.000Z</time>
      </trkpt>
      <trkpt lat="45.2065" lon="0.79594">
        <ele>154</ele>
        <time>2017-11-19T10:36:51.000Z</time>
      </trkpt>
      <trkpt lat="45.20647" lon="0.79581">
        <ele>153</ele>
        <time>2017-11-19T10:36:54.000Z</time>
      </trkpt>
      <trkpt lat="45.20644" lon="0.79566">
        <ele>154</ele>
        <time>2017-11-19T10:36:57.000Z</time>
      </trkpt>
      <trkpt lat="45.20643" lon="0.7955">
        <ele>155</ele>
        <time>2017-11-19T10:37:00.000Z</time>
      </trkpt>
      <trkpt lat="45.20639" lon="0.79535">
        <ele>156</ele>
        <time>2017-11-19T10:37:03.000Z</time>
      </trkpt>
      <trkpt lat="45.20636" lon="0.79521">
        <ele>157</ele>
        <time>2017-11-19T10:37:06.000Z</time>
      </trkpt>
      <trkpt lat="45.20631" lon="0.79503">
        <ele>157</ele>
        <time>2017-11-19T10:37:09.000Z</time>
      </trkpt>
      <trkpt lat="45.20627" lon="0.79488">
        <ele>156</ele>
        <time>2017-11-19T10:37:12.000Z</time>
      </trkpt>
      <trkpt lat="45.20624" lon="0.79474">
        <ele>155</ele>
        <time>2017-11-19T10:37:15.000Z</time>
      </trkpt>
      <trkpt lat="45.20621" lon="0.7946">
        <ele>153</ele>
        <time>2017-11-19T10:37:18.000Z</time>
      </trkpt>
      <trkpt lat="45.20618" lon="0.79444">
        <ele>153</ele>
        <time>2017-11-19T10:37:21.000Z</time>
      </trkpt>
      <trkpt lat="45.20615" lon="0.7943">
        <ele>154</ele>
        <time>2017-11-19T10:37:23.000Z</time>
      </trkpt>
      <trkpt lat="45.20615" lon="0.79412">
        <ele>153</ele>
        <time>2017-11-19T10:37:26.000Z</time>
      </trkpt>
      <trkpt lat="45.20615" lon="0.79397">
        <ele>153</ele>
        <time>2017-11-19T10:37:29.000Z</time>
      </trkpt>
      <trkpt lat="45.20614" lon="0.79381">
        <ele>154</ele>
        <time>2017-11-19T10:37:32.000Z</time>
      </trkpt>
      <trkpt lat="45.20612" lon="0.79364">
        <ele>155</ele>
        <time>2017-11-19T10:37:35.000Z</time>
      </trkpt>
      <trkpt lat="45.20612" lon="0.7935">
        <ele>154</ele>
        <time>2017-11-19T10:37:38.000Z</time>
      </trkpt>
      <trkpt lat="45.20612" lon="0.79335">
        <ele>154</ele>
        <time>2017-11-19T10:37:42.000Z</time>
      </trkpt>
      <trkpt lat="45.20611" lon="0.79321">
        <ele>155</ele>
        <time>2017-11-19T10:37:45.000Z</time>
      </trkpt>
      <trkpt lat="45.2061" lon="0.79307">
        <ele>156</ele>
        <time>2017-11-19T10:37:48.000Z</time>
      </trkpt>
      <trkpt lat="45.2061" lon="0.79294">
        <ele>156</ele>
        <time>2017-11-19T10:37:51.000Z</time>
      </trkpt>
      <trkpt lat="45.20609" lon="0.7928">
        <ele>157</ele>
        <time>2017-11-19T10:37:55.000Z</time>
      </trkpt>
      <trkpt lat="45.20609" lon="0.79266">
        <ele>155</ele>
        <time>2017-11-19T10:37:59.000Z</time>
      </trkpt>
      <trkpt lat="45.20612" lon="0.79252">
        <ele>157</ele>
        <time>2017-11-19T10:38:03.000Z</time>
      </trkpt>
      <trkpt lat="45.20611" lon="0.79238">
        <ele>161</ele>
        <time>2017-11-19T10:38:07.000Z</time>
      </trkpt>
      <trkpt lat="45.20607" lon="0.79225">
        <ele>157</ele>
        <time>2017-11-19T10:38:10.000Z</time>
      </trkpt>
      <trkpt lat="45.20601" lon="0.7921">
        <ele>157</ele>
        <time>2017-11-19T10:38:13.000Z</time>
      </trkpt>
      <trkpt lat="45.20598" lon="0.79197">
        <ele>158</ele>
        <time>2017-11-19T10:38:16.000Z</time>
      </trkpt>
      <trkpt lat="45.20596" lon="0.79181">
        <ele>157</ele>
        <time>2017-11-19T10:38:19.000Z</time>
      </trkpt>
      <trkpt lat="45.20594" lon="0.79165">
        <ele>156</ele>
        <time>2017-11-19T10:38:22.000Z</time>
      </trkpt>
      <trkpt lat="45.20591" lon="0.7915">
        <ele>157</ele>
        <time>2017-11-19T10:38:26.000Z</time>
      </trkpt>
      <trkpt lat="45.20583" lon="0.79144">
        <ele>157</ele>
        <time>2017-11-19T10:38:29.000Z</time>
      </trkpt>
      <trkpt lat="45.20573" lon="0.79133">
        <ele>155</ele>
        <time>2017-11-19T10:38:32.000Z</time>
      </trkpt>
      <trkpt lat="45.20564" lon="0.79126">
        <ele>155</ele>
        <time>2017-11-19T10:38:37.000Z</time>
      </trkpt>
      <trkpt lat="45.20553" lon="0.79122">
        <ele>160</ele>
        <time>2017-11-19T10:39:29.000Z</time>
      </trkpt>
      <trkpt lat="45.20537" lon="0.79113">
        <ele>159</ele>
        <time>2017-11-19T10:39:33.000Z</time>
      </trkpt>
      <trkpt lat="45.20528" lon="0.7911">
        <ele>156</ele>
        <time>2017-11-19T10:39:36.000Z</time>
      </trkpt>
      <trkpt lat="45.20516" lon="0.79106">
        <ele>153</ele>
        <time>2017-11-19T10:39:39.000Z</time>
      </trkpt>
      <trkpt lat="45.20506" lon="0.79091">
        <ele>151</ele>
        <time>2017-11-19T10:39:42.000Z</time>
      </trkpt>
      <trkpt lat="45.2049" lon="0.79083">
        <ele>154</ele>
        <time>2017-11-19T10:39:46.000Z</time>
      </trkpt>
      <trkpt lat="45.2048" lon="0.79075">
        <ele>153</ele>
        <time>2017-11-19T10:39:49.000Z</time>
      </trkpt>
      <trkpt lat="45.20465" lon="0.79064">
        <ele>154</ele>
        <time>2017-11-19T10:39:53.000Z</time>
      </trkpt>
      <trkpt lat="45.20454" lon="0.79056">
        <ele>152</ele>
        <time>2017-11-19T10:39:56.000Z</time>
      </trkpt>
      <trkpt lat="45.20443" lon="0.79049">
        <ele>152</ele>
        <time>2017-11-19T10:39:59.000Z</time>
      </trkpt>
      <trkpt lat="45.20424" lon="0.7904">
        <ele>150</ele>
        <time>2017-11-19T10:40:04.000Z</time>
      </trkpt>
      <trkpt lat="45.20412" lon="0.79038">
        <ele>152</ele>
        <time>2017-11-19T10:40:06.000Z</time>
      </trkpt>
      <trkpt lat="45.20395" lon="0.79039">
        <ele>152</ele>
        <time>2017-11-19T10:40:12.000Z</time>
      </trkpt>
      <trkpt lat="45.20385" lon="0.79047">
        <ele>150</ele>
        <time>2017-11-19T10:40:15.000Z</time>
      </trkpt>
      <trkpt lat="45.20374" lon="0.79056">
        <ele>147</ele>
        <time>2017-11-19T10:40:18.000Z</time>
      </trkpt>
      <trkpt lat="45.2036" lon="0.79065">
        <ele>148</ele>
        <time>2017-11-19T10:40:22.000Z</time>
      </trkpt>
      <trkpt lat="45.2035" lon="0.79072">
        <ele>148</ele>
        <time>2017-11-19T10:40:25.000Z</time>
      </trkpt>
      <trkpt lat="45.20339" lon="0.7908">
        <ele>147</ele>
        <time>2017-11-19T10:40:28.000Z</time>
      </trkpt>
      <trkpt lat="45.20328" lon="0.79087">
        <ele>148</ele>
        <time>2017-11-19T10:40:31.000Z</time>
      </trkpt>
      <trkpt lat="45.20316" lon="0.79094">
        <ele>148</ele>
        <time>2017-11-19T10:40:34.000Z</time>
      </trkpt>
      <trkpt lat="45.20304" lon="0.791">
        <ele>149</ele>
        <time>2017-11-19T10:40:37.000Z</time>
      </trkpt>
      <trkpt lat="45.20292" lon="0.79109">
        <ele>149</ele>
        <time>2017-11-19T10:40:40.000Z</time>
      </trkpt>
      <trkpt lat="45.20282" lon="0.79118">
        <ele>148</ele>
        <time>2017-11-19T10:40:43.000Z</time>
      </trkpt>
      <trkpt lat="45.20272" lon="0.79124">
        <ele>148</ele>
        <time>2017-11-19T10:40:46.000Z</time>
      </trkpt>
      <trkpt lat="45.20261" lon="0.79129">
        <ele>147</ele>
        <time>2017-11-19T10:40:49.000Z</time>
      </trkpt>
      <trkpt lat="45.20251" lon="0.79135">
        <ele>147</ele>
        <time>2017-11-19T10:40:52.000Z</time>
      </trkpt>
      <trkpt lat="45.20239" lon="0.79144">
        <ele>147</ele>
        <time>2017-11-19T10:40:55.000Z</time>
      </trkpt>
      <trkpt lat="45.20229" lon="0.79151">
        <ele>145</ele>
        <time>2017-11-19T10:40:58.000Z</time>
      </trkpt>
      <trkpt lat="45.20218" lon="0.79158">
        <ele>145</ele>
        <time>2017-11-19T10:41:01.000Z</time>
      </trkpt>
      <trkpt lat="45.20207" lon="0.79166">
        <ele>147</ele>
        <time>2017-11-19T10:41:04.000Z</time>
      </trkpt>
      <trkpt lat="45.20196" lon="0.79174">
        <ele>145</ele>
        <time>2017-11-19T10:41:07.000Z</time>
      </trkpt>
      <trkpt lat="45.20183" lon="0.79181">
        <ele>143</ele>
        <time>2017-11-19T10:41:10.000Z</time>
      </trkpt>
      <trkpt lat="45.20173" lon="0.79187">
        <ele>143</ele>
        <time>2017-11-19T10:41:13.000Z</time>
      </trkpt>
      <trkpt lat="45.20165" lon="0.79192">
        <ele>142</ele>
        <time>2017-11-19T10:41:16.000Z</time>
      </trkpt>
      <trkpt lat="45.20156" lon="0.79196">
        <ele>142</ele>
        <time>2017-11-19T10:41:19.000Z</time>
      </trkpt>
      <trkpt lat="45.20147" lon="0.79202">
        <ele>143</ele>
        <time>2017-11-19T10:41:22.000Z</time>
      </trkpt>
      <trkpt lat="45.20136" lon="0.79209">
        <ele>141</ele>
        <time>2017-11-19T10:41:26.000Z</time>
      </trkpt>
      <trkpt lat="45.20128" lon="0.79215">
        <ele>141</ele>
        <time>2017-11-19T10:41:29.000Z</time>
      </trkpt>
      <trkpt lat="45.20119" lon="0.79221">
        <ele>142</ele>
        <time>2017-11-19T10:41:33.000Z</time>
      </trkpt>
      <trkpt lat="45.20109" lon="0.79229">
        <ele>143</ele>
        <time>2017-11-19T10:41:38.000Z</time>
      </trkpt>
      <trkpt lat="45.20099" lon="0.79234">
        <ele>144</ele>
        <time>2017-11-19T10:41:42.000Z</time>
      </trkpt>
      <trkpt lat="45.2009" lon="0.79238">
        <ele>144</ele>
        <time>2017-11-19T10:41:45.000Z</time>
      </trkpt>
      <trkpt lat="45.20081" lon="0.79247">
        <ele>145</ele>
        <time>2017-11-19T10:41:48.000Z</time>
      </trkpt>
      <trkpt lat="45.20069" lon="0.79255">
        <ele>145</ele>
        <time>2017-11-19T10:41:51.000Z</time>
      </trkpt>
      <trkpt lat="45.20057" lon="0.79261">
        <ele>143</ele>
        <time>2017-11-19T10:41:54.000Z</time>
      </trkpt>
      <trkpt lat="45.20048" lon="0.79268">
        <ele>144</ele>
        <time>2017-11-19T10:41:56.000Z</time>
      </trkpt>
      <trkpt lat="45.20036" lon="0.79275">
        <ele>143</ele>
        <time>2017-11-19T10:41:59.000Z</time>
      </trkpt>
      <trkpt lat="45.20026" lon="0.79282">
        <ele>143</ele>
        <time>2017-11-19T10:42:02.000Z</time>
      </trkpt>
      <trkpt lat="45.20015" lon="0.79289">
        <ele>143</ele>
        <time>2017-11-19T10:42:05.000Z</time>
      </trkpt>
      <trkpt lat="45.20005" lon="0.79296">
        <ele>143</ele>
        <time>2017-11-19T10:42:08.000Z</time>
      </trkpt>
      <trkpt lat="45.19995" lon="0.79302">
        <ele>143</ele>
        <time>2017-11-19T10:42:11.000Z</time>
      </trkpt>
      <trkpt lat="45.19985" lon="0.7931">
        <ele>144</ele>
        <time>2017-11-19T10:42:14.000Z</time>
      </trkpt>
      <trkpt lat="45.19971" lon="0.79319">
        <ele>145</ele>
        <time>2017-11-19T10:42:18.000Z</time>
      </trkpt>
      <trkpt lat="45.19957" lon="0.79327">
        <ele>145</ele>
        <time>2017-11-19T10:42:22.000Z</time>
      </trkpt>
      <trkpt lat="45.19947" lon="0.79334">
        <ele>146</ele>
        <time>2017-11-19T10:42:25.000Z</time>
      </trkpt>
      <trkpt lat="45.19936" lon="0.79342">
        <ele>143</ele>
        <time>2017-11-19T10:42:28.000Z</time>
      </trkpt>
      <trkpt lat="45.19927" lon="0.7935">
        <ele>144</ele>
        <time>2017-11-19T10:42:31.000Z</time>
      </trkpt>
      <trkpt lat="45.19916" lon="0.79357">
        <ele>145</ele>
        <time>2017-11-19T10:42:35.000Z</time>
      </trkpt>
      <trkpt lat="45.19906" lon="0.79362">
        <ele>145</ele>
        <time>2017-11-19T10:42:40.000Z</time>
      </trkpt>
      <trkpt lat="45.19898" lon="0.79352">
        <ele>145</ele>
        <time>2017-11-19T10:42:44.000Z</time>
      </trkpt>
      <trkpt lat="45.19894" lon="0.79334">
        <ele>145</ele>
        <time>2017-11-19T10:42:47.000Z</time>
      </trkpt>
      <trkpt lat="45.19889" lon="0.79317">
        <ele>147</ele>
        <time>2017-11-19T10:42:50.000Z</time>
      </trkpt>
      <trkpt lat="45.19884" lon="0.793">
        <ele>146</ele>
        <time>2017-11-19T10:42:53.000Z</time>
      </trkpt>
      <trkpt lat="45.19878" lon="0.79283">
        <ele>147</ele>
        <time>2017-11-19T10:42:56.000Z</time>
      </trkpt>
      <trkpt lat="45.19873" lon="0.79267">
        <ele>147</ele>
        <time>2017-11-19T10:42:59.000Z</time>
      </trkpt>
      <trkpt lat="45.19868" lon="0.79248">
        <ele>147</ele>
        <time>2017-11-19T10:43:02.000Z</time>
      </trkpt>
      <trkpt lat="45.19861" lon="0.79231">
        <ele>147</ele>
        <time>2017-11-19T10:43:05.000Z</time>
      </trkpt>
      <trkpt lat="45.19854" lon="0.79214">
        <ele>146</ele>
        <time>2017-11-19T10:43:08.000Z</time>
      </trkpt>
      <trkpt lat="45.1985" lon="0.79202">
        <ele>147</ele>
        <time>2017-11-19T10:43:10.000Z</time>
      </trkpt>
      <trkpt lat="45.19846" lon="0.79191">
        <ele>146</ele>
        <time>2017-11-19T10:43:12.000Z</time>
      </trkpt>
      <trkpt lat="45.19842" lon="0.79178">
        <ele>147</ele>
        <time>2017-11-19T10:43:14.000Z</time>
      </trkpt>
      <trkpt lat="45.19838" lon="0.79164">
        <ele>147</ele>
        <time>2017-11-19T10:43:16.000Z</time>
      </trkpt>
      <trkpt lat="45.19835" lon="0.79152">
        <ele>148</ele>
        <time>2017-11-19T10:43:18.000Z</time>
      </trkpt>
      <trkpt lat="45.19831" lon="0.79138">
        <ele>148</ele>
        <time>2017-11-19T10:43:20.000Z</time>
      </trkpt>
      <trkpt lat="45.19827" lon="0.79124">
        <ele>149</ele>
        <time>2017-11-19T10:43:22.000Z</time>
      </trkpt>
      <trkpt lat="45.19824" lon="0.7911">
        <ele>149</ele>
        <time>2017-11-19T10:43:24.000Z</time>
      </trkpt>
      <trkpt lat="45.1982" lon="0.79097">
        <ele>148</ele>
        <time>2017-11-19T10:43:26.000Z</time>
      </trkpt>
      <trkpt lat="45.19817" lon="0.79084">
        <ele>148</ele>
        <time>2017-11-19T10:43:28.000Z</time>
      </trkpt>
      <trkpt lat="45.19813" lon="0.7907">
        <ele>149</ele>
        <time>2017-11-19T10:43:30.000Z</time>
      </trkpt>
      <trkpt lat="45.19809" lon="0.79052">
        <ele>147</ele>
        <time>2017-11-19T10:43:33.000Z</time>
      </trkpt>
      <trkpt lat="45.19805" lon="0.79039">
        <ele>147</ele>
        <time>2017-11-19T10:43:35.000Z</time>
      </trkpt>
      <trkpt lat="45.19801" lon="0.79026">
        <ele>147</ele>
        <time>2017-11-19T10:43:37.000Z</time>
      </trkpt>
      <trkpt lat="45.19798" lon="0.79012">
        <ele>147</ele>
        <time>2017-11-19T10:43:39.000Z</time>
      </trkpt>
      <trkpt lat="45.19794" lon="0.78999">
        <ele>148</ele>
        <time>2017-11-19T10:43:41.000Z</time>
      </trkpt>
      <trkpt lat="45.1979" lon="0.78986">
        <ele>147</ele>
        <time>2017-11-19T10:43:43.000Z</time>
      </trkpt>
      <trkpt lat="45.19787" lon="0.78972">
        <ele>147</ele>
        <time>2017-11-19T10:43:45.000Z</time>
      </trkpt>
      <trkpt lat="45.19783" lon="0.78958">
        <ele>145</ele>
        <time>2017-11-19T10:43:47.000Z</time>
      </trkpt>
      <trkpt lat="45.1978" lon="0.78946">
        <ele>144</ele>
        <time>2017-11-19T10:43:49.000Z</time>
      </trkpt>
      <trkpt lat="45.19777" lon="0.78932">
        <ele>144</ele>
        <time>2017-11-19T10:43:51.000Z</time>
      </trkpt>
      <trkpt lat="45.19772" lon="0.78915">
        <ele>145</ele>
        <time>2017-11-19T10:43:53.000Z</time>
      </trkpt>
      <trkpt lat="45.19766" lon="0.78896">
        <ele>144</ele>
        <time>2017-11-19T10:43:56.000Z</time>
      </trkpt>
      <trkpt lat="45.19763" lon="0.78884">
        <ele>144</ele>
        <time>2017-11-19T10:43:58.000Z</time>
      </trkpt>
      <trkpt lat="45.1976" lon="0.78871">
        <ele>141</ele>
        <time>2017-11-19T10:44:00.000Z</time>
      </trkpt>
      <trkpt lat="45.19756" lon="0.78859">
        <ele>140</ele>
        <time>2017-11-19T10:44:02.000Z</time>
      </trkpt>
      <trkpt lat="45.19752" lon="0.78846">
        <ele>139</ele>
        <time>2017-11-19T10:44:04.000Z</time>
      </trkpt>
      <trkpt lat="45.1975" lon="0.78833">
        <ele>138</ele>
        <time>2017-11-19T10:44:06.000Z</time>
      </trkpt>
      <trkpt lat="45.19747" lon="0.7882">
        <ele>138</ele>
        <time>2017-11-19T10:44:08.000Z</time>
      </trkpt>
      <trkpt lat="45.19744" lon="0.78804">
        <ele>138</ele>
        <time>2017-11-19T10:44:11.000Z</time>
      </trkpt>
      <trkpt lat="45.19744" lon="0.78784">
        <ele>138</ele>
        <time>2017-11-19T10:44:14.000Z</time>
      </trkpt>
      <trkpt lat="45.19745" lon="0.7877">
        <ele>139</ele>
        <time>2017-11-19T10:44:16.000Z</time>
      </trkpt>
      <trkpt lat="45.19739" lon="0.78758">
        <ele>140</ele>
        <time>2017-11-19T10:44:18.000Z</time>
      </trkpt>
      <trkpt lat="45.19731" lon="0.7875">
        <ele>142</ele>
        <time>2017-11-19T10:44:20.000Z</time>
      </trkpt>
      <trkpt lat="45.19725" lon="0.7874">
        <ele>141</ele>
        <time>2017-11-19T10:44:22.000Z</time>
      </trkpt>
      <trkpt lat="45.19721" lon="0.78728">
        <ele>142</ele>
        <time>2017-11-19T10:44:24.000Z</time>
      </trkpt>
      <trkpt lat="45.19717" lon="0.78715">
        <ele>141</ele>
        <time>2017-11-19T10:44:26.000Z</time>
      </trkpt>
      <trkpt lat="45.19712" lon="0.78697">
        <ele>142</ele>
        <time>2017-11-19T10:44:29.000Z</time>
      </trkpt>
      <trkpt lat="45.19706" lon="0.78684">
        <ele>142</ele>
        <time>2017-11-19T10:44:32.000Z</time>
      </trkpt>
      <trkpt lat="45.19703" lon="0.78671">
        <ele>141</ele>
        <time>2017-11-19T10:44:34.000Z</time>
      </trkpt>
      <trkpt lat="45.197" lon="0.78657">
        <ele>142</ele>
        <time>2017-11-19T10:44:36.000Z</time>
      </trkpt>
      <trkpt lat="45.19696" lon="0.78644">
        <ele>143</ele>
        <time>2017-11-19T10:44:38.000Z</time>
      </trkpt>
      <trkpt lat="45.19692" lon="0.7863">
        <ele>144</ele>
        <time>2017-11-19T10:44:40.000Z</time>
      </trkpt>
      <trkpt lat="45.19687" lon="0.78612">
        <ele>144</ele>
        <time>2017-11-19T10:44:43.000Z</time>
      </trkpt>
      <trkpt lat="45.19683" lon="0.78601">
        <ele>144</ele>
        <time>2017-11-19T10:44:45.000Z</time>
      </trkpt>
      <trkpt lat="45.19679" lon="0.78582">
        <ele>143</ele>
        <time>2017-11-19T10:44:48.000Z</time>
      </trkpt>
      <trkpt lat="45.19676" lon="0.78568">
        <ele>144</ele>
        <time>2017-11-19T10:44:50.000Z</time>
      </trkpt>
      <trkpt lat="45.19671" lon="0.78552">
        <ele>143</ele>
        <time>2017-11-19T10:44:53.000Z</time>
      </trkpt>
      <trkpt lat="45.19668" lon="0.78539">
        <ele>143</ele>
        <time>2017-11-19T10:44:55.000Z</time>
      </trkpt>
      <trkpt lat="45.19663" lon="0.78525">
        <ele>143</ele>
        <time>2017-11-19T10:44:57.000Z</time>
      </trkpt>
      <trkpt lat="45.19659" lon="0.78512">
        <ele>142</ele>
        <time>2017-11-19T10:44:59.000Z</time>
      </trkpt>
      <trkpt lat="45.19655" lon="0.78494">
        <ele>140</ele>
        <time>2017-11-19T10:45:02.000Z</time>
      </trkpt>
      <trkpt lat="45.19651" lon="0.78479">
        <ele>141</ele>
        <time>2017-11-19T10:45:04.000Z</time>
      </trkpt>
      <trkpt lat="45.19646" lon="0.78465">
        <ele>142</ele>
        <time>2017-11-19T10:45:06.000Z</time>
      </trkpt>
      <trkpt lat="45.19642" lon="0.78451">
        <ele>142</ele>
        <time>2017-11-19T10:45:08.000Z</time>
      </trkpt>
      <trkpt lat="45.19639" lon="0.78437">
        <ele>142</ele>
        <time>2017-11-19T10:45:10.000Z</time>
      </trkpt>
      <trkpt lat="45.19635" lon="0.78424">
        <ele>142</ele>
        <time>2017-11-19T10:45:12.000Z</time>
      </trkpt>
      <trkpt lat="45.19631" lon="0.7841">
        <ele>142</ele>
        <time>2017-11-19T10:45:14.000Z</time>
      </trkpt>
      <trkpt lat="45.19628" lon="0.78398">
        <ele>141</ele>
        <time>2017-11-19T10:45:16.000Z</time>
      </trkpt>
      <trkpt lat="45.19623" lon="0.78383">
        <ele>142</ele>
        <time>2017-11-19T10:45:19.000Z</time>
      </trkpt>
      <trkpt lat="45.1962" lon="0.78369">
        <ele>142</ele>
        <time>2017-11-19T10:45:21.000Z</time>
      </trkpt>
      <trkpt lat="45.19617" lon="0.78355">
        <ele>144</ele>
        <time>2017-11-19T10:45:24.000Z</time>
      </trkpt>
      <trkpt lat="45.19613" lon="0.78339">
        <ele>143</ele>
        <time>2017-11-19T10:45:27.000Z</time>
      </trkpt>
      <trkpt lat="45.19609" lon="0.78326">
        <ele>145</ele>
        <time>2017-11-19T10:45:30.000Z</time>
      </trkpt>
      <trkpt lat="45.19605" lon="0.78315">
        <ele>145</ele>
        <time>2017-11-19T10:45:33.000Z</time>
      </trkpt>
      <trkpt lat="45.19599" lon="0.783">
        <ele>145</ele>
        <time>2017-11-19T10:45:38.000Z</time>
      </trkpt>
      <trkpt lat="45.19593" lon="0.78288">
        <ele>145</ele>
        <time>2017-11-19T10:45:56.000Z</time>
      </trkpt>
      <trkpt lat="45.19588" lon="0.78274">
        <ele>144</ele>
        <time>2017-11-19T10:46:00.000Z</time>
      </trkpt>
      <trkpt lat="45.19582" lon="0.78261">
        <ele>141</ele>
        <time>2017-11-19T10:46:03.000Z</time>
      </trkpt>
      <trkpt lat="45.19576" lon="0.78247">
        <ele>142</ele>
        <time>2017-11-19T10:46:06.000Z</time>
      </trkpt>
      <trkpt lat="45.19566" lon="0.7822">
        <ele>145</ele>
        <time>2017-11-19T10:46:11.000Z</time>
      </trkpt>
      <trkpt lat="45.19561" lon="0.78209">
        <ele>145</ele>
        <time>2017-11-19T10:46:13.000Z</time>
      </trkpt>
      <trkpt lat="45.19552" lon="0.78196">
        <ele>143</ele>
        <time>2017-11-19T10:46:16.000Z</time>
      </trkpt>
      <trkpt lat="45.19545" lon="0.78184">
        <ele>143</ele>
        <time>2017-11-19T10:46:18.000Z</time>
      </trkpt>
      <trkpt lat="45.19541" lon="0.78172">
        <ele>148</ele>
        <time>2017-11-19T10:46:20.000Z</time>
      </trkpt>
      <trkpt lat="45.19531" lon="0.78152">
        <ele>144</ele>
        <time>2017-11-19T10:46:24.000Z</time>
      </trkpt>
      <trkpt lat="45.19526" lon="0.78139">
        <ele>143</ele>
        <time>2017-11-19T10:46:27.000Z</time>
      </trkpt>
      <trkpt lat="45.1952" lon="0.7813">
        <ele>144</ele>
        <time>2017-11-19T10:47:13.000Z</time>
      </trkpt>
      <trkpt lat="45.19518" lon="0.78116">
        <ele>142</ele>
        <time>2017-11-19T10:47:19.000Z</time>
      </trkpt>
      <trkpt lat="45.19515" lon="0.781">
        <ele>140</ele>
        <time>2017-11-19T10:47:39.000Z</time>
      </trkpt>
      <trkpt lat="45.19505" lon="0.78098">
        <ele>141</ele>
        <time>2017-11-19T10:47:45.000Z</time>
      </trkpt>
      <trkpt lat="45.19497" lon="0.7809">
        <ele>141</ele>
        <time>2017-11-19T10:47:53.000Z</time>
      </trkpt>
      <trkpt lat="45.19489" lon="0.78086">
        <ele>142</ele>
        <time>2017-11-19T10:47:56.000Z</time>
      </trkpt>
      <trkpt lat="45.19477" lon="0.78087">
        <ele>141</ele>
        <time>2017-11-19T10:47:59.000Z</time>
      </trkpt>
      <trkpt lat="45.19466" lon="0.78092">
        <ele>137</ele>
        <time>2017-11-19T10:48:02.000Z</time>
      </trkpt>
      <trkpt lat="45.19455" lon="0.78099">
        <ele>139</ele>
        <time>2017-11-19T10:48:06.000Z</time>
      </trkpt>
      <trkpt lat="45.19442" lon="0.78103">
        <ele>137</ele>
        <time>2017-11-19T10:48:09.000Z</time>
      </trkpt>
      <trkpt lat="45.19425" lon="0.78104">
        <ele>136</ele>
        <time>2017-11-19T10:48:13.000Z</time>
      </trkpt>
      <trkpt lat="45.19412" lon="0.78106">
        <ele>135</ele>
        <time>2017-11-19T10:48:16.000Z</time>
      </trkpt>
      <trkpt lat="45.194" lon="0.78109">
        <ele>136</ele>
        <time>2017-11-19T10:48:19.000Z</time>
      </trkpt>
      <trkpt lat="45.19387" lon="0.78113">
        <ele>137</ele>
        <time>2017-11-19T10:48:22.000Z</time>
      </trkpt>
      <trkpt lat="45.19368" lon="0.78118">
        <ele>135</ele>
        <time>2017-11-19T10:48:26.000Z</time>
      </trkpt>
      <trkpt lat="45.19358" lon="0.78119">
        <ele>138</ele>
        <time>2017-11-19T10:48:28.000Z</time>
      </trkpt>
      <trkpt lat="45.19348" lon="0.78118">
        <ele>139</ele>
        <time>2017-11-19T10:48:31.000Z</time>
      </trkpt>
      <trkpt lat="45.19336" lon="0.78124">
        <ele>138</ele>
        <time>2017-11-19T10:48:34.000Z</time>
      </trkpt>
      <trkpt lat="45.19326" lon="0.78124">
        <ele>137</ele>
        <time>2017-11-19T10:48:36.000Z</time>
      </trkpt>
      <trkpt lat="45.19305" lon="0.78126">
        <ele>135</ele>
        <time>2017-11-19T10:48:41.000Z</time>
      </trkpt>
      <trkpt lat="45.19295" lon="0.78128">
        <ele>135</ele>
        <time>2017-11-19T10:48:43.000Z</time>
      </trkpt>
      <trkpt lat="45.19286" lon="0.78131">
        <ele>134</ele>
        <time>2017-11-19T10:48:45.000Z</time>
      </trkpt>
      <trkpt lat="45.19272" lon="0.7813">
        <ele>134</ele>
        <time>2017-11-19T10:48:47.000Z</time>
      </trkpt>
      <trkpt lat="45.19262" lon="0.78132">
        <ele>134</ele>
        <time>2017-11-19T10:48:49.000Z</time>
      </trkpt>
      <trkpt lat="45.19251" lon="0.78134">
        <ele>133</ele>
        <time>2017-11-19T10:48:51.000Z</time>
      </trkpt>
      <trkpt lat="45.19241" lon="0.78136">
        <ele>134</ele>
        <time>2017-11-19T10:48:53.000Z</time>
      </trkpt>
      <trkpt lat="45.19231" lon="0.78139">
        <ele>134</ele>
        <time>2017-11-19T10:48:55.000Z</time>
      </trkpt>
      <trkpt lat="45.19222" lon="0.78144">
        <ele>135</ele>
        <time>2017-11-19T10:48:57.000Z</time>
      </trkpt>
      <trkpt lat="45.1921" lon="0.78144">
        <ele>135</ele>
        <time>2017-11-19T10:49:00.000Z</time>
      </trkpt>
      <trkpt lat="45.19199" lon="0.78145">
        <ele>134</ele>
        <time>2017-11-19T10:49:02.000Z</time>
      </trkpt>
      <trkpt lat="45.19191" lon="0.78149">
        <ele>131</ele>
        <time>2017-11-19T10:49:04.000Z</time>
      </trkpt>
      <trkpt lat="45.19179" lon="0.78152">
        <ele>132</ele>
        <time>2017-11-19T10:49:06.000Z</time>
      </trkpt>
      <trkpt lat="45.19167" lon="0.78155">
        <ele>131</ele>
        <time>2017-11-19T10:49:08.000Z</time>
      </trkpt>
      <trkpt lat="45.19156" lon="0.78155">
        <ele>130</ele>
        <time>2017-11-19T10:49:10.000Z</time>
      </trkpt>
      <trkpt lat="45.19143" lon="0.78154">
        <ele>131</ele>
        <time>2017-11-19T10:49:13.000Z</time>
      </trkpt>
      <trkpt lat="45.19131" lon="0.78158">
        <ele>130</ele>
        <time>2017-11-19T10:49:15.000Z</time>
      </trkpt>
      <trkpt lat="45.19119" lon="0.78159">
        <ele>128</ele>
        <time>2017-11-19T10:49:17.000Z</time>
      </trkpt>
      <trkpt lat="45.19107" lon="0.78163">
        <ele>127</ele>
        <time>2017-11-19T10:49:19.000Z</time>
      </trkpt>
      <trkpt lat="45.19097" lon="0.78164">
        <ele>127</ele>
        <time>2017-11-19T10:49:21.000Z</time>
      </trkpt>
      <trkpt lat="45.19086" lon="0.78173">
        <ele>128</ele>
        <time>2017-11-19T10:49:23.000Z</time>
      </trkpt>
      <trkpt lat="45.19077" lon="0.78172">
        <ele>127</ele>
        <time>2017-11-19T10:49:25.000Z</time>
      </trkpt>
      <trkpt lat="45.19063" lon="0.78175">
        <ele>130</ele>
        <time>2017-11-19T10:49:28.000Z</time>
      </trkpt>
      <trkpt lat="45.19051" lon="0.78177">
        <ele>130</ele>
        <time>2017-11-19T10:49:30.000Z</time>
      </trkpt>
      <trkpt lat="45.19038" lon="0.78177">
        <ele>133</ele>
        <time>2017-11-19T10:49:33.000Z</time>
      </trkpt>
      <trkpt lat="45.19021" lon="0.78177">
        <ele>135</ele>
        <time>2017-11-19T10:49:36.000Z</time>
      </trkpt>
      <trkpt lat="45.19011" lon="0.78177">
        <ele>137</ele>
        <time>2017-11-19T10:49:38.000Z</time>
      </trkpt>
      <trkpt lat="45.18993" lon="0.78172">
        <ele>135</ele>
        <time>2017-11-19T10:49:41.000Z</time>
      </trkpt>
      <trkpt lat="45.1898" lon="0.78173">
        <ele>134</ele>
        <time>2017-11-19T10:49:43.000Z</time>
      </trkpt>
      <trkpt lat="45.18981" lon="0.7816">
        <ele>133</ele>
        <time>2017-11-19T10:49:44.000Z</time>
      </trkpt>
      <trkpt lat="45.18967" lon="0.78142">
        <ele>133</ele>
        <time>2017-11-19T10:49:47.000Z</time>
      </trkpt>
      <trkpt lat="45.18963" lon="0.78127">
        <ele>134</ele>
        <time>2017-11-19T10:49:49.000Z</time>
      </trkpt>
      <trkpt lat="45.18963" lon="0.78112">
        <ele>131</ele>
        <time>2017-11-19T10:49:52.000Z</time>
      </trkpt>
      <trkpt lat="45.18961" lon="0.78099">
        <ele>129</ele>
        <time>2017-11-19T10:49:54.000Z</time>
      </trkpt>
      <trkpt lat="45.1896" lon="0.78086">
        <ele>130</ele>
        <time>2017-11-19T10:49:56.000Z</time>
      </trkpt>
      <trkpt lat="45.1896" lon="0.78072">
        <ele>129</ele>
        <time>2017-11-19T10:49:58.000Z</time>
      </trkpt>
      <trkpt lat="45.1896" lon="0.78053">
        <ele>129</ele>
        <time>2017-11-19T10:50:00.000Z</time>
      </trkpt>
      <trkpt lat="45.18961" lon="0.78037">
        <ele>130</ele>
        <time>2017-11-19T10:50:02.000Z</time>
      </trkpt>
      <trkpt lat="45.18959" lon="0.78023">
        <ele>131</ele>
        <time>2017-11-19T10:50:04.000Z</time>
      </trkpt>
      <trkpt lat="45.1896" lon="0.7801">
        <ele>131</ele>
        <time>2017-11-19T10:50:06.000Z</time>
      </trkpt>
      <trkpt lat="45.1896" lon="0.77997">
        <ele>130</ele>
        <time>2017-11-19T10:50:08.000Z</time>
      </trkpt>
      <trkpt lat="45.18963" lon="0.7798">
        <ele>130</ele>
        <time>2017-11-19T10:50:11.000Z</time>
      </trkpt>
      <trkpt lat="45.18964" lon="0.77966">
        <ele>130</ele>
        <time>2017-11-19T10:50:13.000Z</time>
      </trkpt>
      <trkpt lat="45.18963" lon="0.77947">
        <ele>129</ele>
        <time>2017-11-19T10:50:15.000Z</time>
      </trkpt>
      <trkpt lat="45.18963" lon="0.7793">
        <ele>128</ele>
        <time>2017-11-19T10:50:17.000Z</time>
      </trkpt>
      <trkpt lat="45.18964" lon="0.77915">
        <ele>129</ele>
        <time>2017-11-19T10:50:19.000Z</time>
      </trkpt>
      <trkpt lat="45.18965" lon="0.77901">
        <ele>128</ele>
        <time>2017-11-19T10:50:21.000Z</time>
      </trkpt>
      <trkpt lat="45.18966" lon="0.77885">
        <ele>126</ele>
        <time>2017-11-19T10:50:23.000Z</time>
      </trkpt>
      <trkpt lat="45.18971" lon="0.77872">
        <ele>126</ele>
        <time>2017-11-19T10:50:25.000Z</time>
      </trkpt>
      <trkpt lat="45.18977" lon="0.77851">
        <ele>122</ele>
        <time>2017-11-19T10:50:28.000Z</time>
      </trkpt>
      <trkpt lat="45.18987" lon="0.77839">
        <ele>124</ele>
        <time>2017-11-19T10:50:30.000Z</time>
      </trkpt>
      <trkpt lat="45.18991" lon="0.77827">
        <ele>125</ele>
        <time>2017-11-19T10:50:32.000Z</time>
      </trkpt>
      <trkpt lat="45.18992" lon="0.77812">
        <ele>124</ele>
        <time>2017-11-19T10:50:34.000Z</time>
      </trkpt>
      <trkpt lat="45.18988" lon="0.77797">
        <ele>143</ele>
        <time>2017-11-19T10:50:36.000Z</time>
      </trkpt>
      <trkpt lat="45.18987" lon="0.77783">
        <ele>135</ele>
        <time>2017-11-19T10:50:38.000Z</time>
      </trkpt>
      <trkpt lat="45.1899" lon="0.77769">
        <ele>133</ele>
        <time>2017-11-19T10:50:40.000Z</time>
      </trkpt>
      <trkpt lat="45.18994" lon="0.77757">
        <ele>129</ele>
        <time>2017-11-19T10:50:42.000Z</time>
      </trkpt>
      <trkpt lat="45.18998" lon="0.77744">
        <ele>128</ele>
        <time>2017-11-19T10:50:44.000Z</time>
      </trkpt>
      <trkpt lat="45.19004" lon="0.77725">
        <ele>129</ele>
        <time>2017-11-19T10:50:47.000Z</time>
      </trkpt>
      <trkpt lat="45.19007" lon="0.77712">
        <ele>128</ele>
        <time>2017-11-19T10:50:49.000Z</time>
      </trkpt>
      <trkpt lat="45.19013" lon="0.77702">
        <ele>128</ele>
        <time>2017-11-19T10:50:51.000Z</time>
      </trkpt>
      <trkpt lat="45.19021" lon="0.7769">
        <ele>128</ele>
        <time>2017-11-19T10:50:53.000Z</time>
      </trkpt>
      <trkpt lat="45.19027" lon="0.77671">
        <ele>127</ele>
        <time>2017-11-19T10:50:56.000Z</time>
      </trkpt>
      <trkpt lat="45.19029" lon="0.77654">
        <ele>127</ele>
        <time>2017-11-19T10:50:58.000Z</time>
      </trkpt>
      <trkpt lat="45.19041" lon="0.77646">
        <ele>126</ele>
        <time>2017-11-19T10:51:00.000Z</time>
      </trkpt>
      <trkpt lat="45.19043" lon="0.77632">
        <ele>125</ele>
        <time>2017-11-19T10:51:01.000Z</time>
      </trkpt>
      <trkpt lat="45.19041" lon="0.77614">
        <ele>145</ele>
        <time>2017-11-19T10:51:04.000Z</time>
      </trkpt>
      <trkpt lat="45.19043" lon="0.77598">
        <ele>137</ele>
        <time>2017-11-19T10:51:06.000Z</time>
      </trkpt>
      <trkpt lat="45.19045" lon="0.77578">
        <ele>132</ele>
        <time>2017-11-19T10:51:08.000Z</time>
      </trkpt>
      <trkpt lat="45.19046" lon="0.77564">
        <ele>128</ele>
        <time>2017-11-19T10:51:10.000Z</time>
      </trkpt>
      <trkpt lat="45.19048" lon="0.77546">
        <ele>124</ele>
        <time>2017-11-19T10:51:13.000Z</time>
      </trkpt>
      <trkpt lat="45.19049" lon="0.77528">
        <ele>122</ele>
        <time>2017-11-19T10:51:16.000Z</time>
      </trkpt>
      <trkpt lat="45.19051" lon="0.77511">
        <ele>124</ele>
        <time>2017-11-19T10:51:18.000Z</time>
      </trkpt>
      <trkpt lat="45.19053" lon="0.77494">
        <ele>125</ele>
        <time>2017-11-19T10:51:20.000Z</time>
      </trkpt>
      <trkpt lat="45.19056" lon="0.77478">
        <ele>123</ele>
        <time>2017-11-19T10:51:23.000Z</time>
      </trkpt>
      <trkpt lat="45.19059" lon="0.77465">
        <ele>123</ele>
        <time>2017-11-19T10:51:25.000Z</time>
      </trkpt>
      <trkpt lat="45.19061" lon="0.77449">
        <ele>127</ele>
        <time>2017-11-19T10:51:28.000Z</time>
      </trkpt>
      <trkpt lat="45.19064" lon="0.77434">
        <ele>127</ele>
        <time>2017-11-19T10:51:31.000Z</time>
      </trkpt>
      <trkpt lat="45.19066" lon="0.77421">
        <ele>130</ele>
        <time>2017-11-19T10:51:33.000Z</time>
      </trkpt>
      <trkpt lat="45.19071" lon="0.77402">
        <ele>125</ele>
        <time>2017-11-19T10:51:36.000Z</time>
      </trkpt>
      <trkpt lat="45.19073" lon="0.77389">
        <ele>122</ele>
        <time>2017-11-19T10:51:38.000Z</time>
      </trkpt>
      <trkpt lat="45.19069" lon="0.77367">
        <ele>121</ele>
        <time>2017-11-19T10:51:40.000Z</time>
      </trkpt>
      <trkpt lat="45.19067" lon="0.77347">
        <ele>121</ele>
        <time>2017-11-19T10:51:43.000Z</time>
      </trkpt>
      <trkpt lat="45.19064" lon="0.77326">
        <ele>125</ele>
        <time>2017-11-19T10:51:46.000Z</time>
      </trkpt>
      <trkpt lat="45.19061" lon="0.77311">
        <ele>127</ele>
        <time>2017-11-19T10:51:48.000Z</time>
      </trkpt>
      <trkpt lat="45.1906" lon="0.77292">
        <ele>127</ele>
        <time>2017-11-19T10:51:51.000Z</time>
      </trkpt>
      <trkpt lat="45.19059" lon="0.77278">
        <ele>128</ele>
        <time>2017-11-19T10:51:53.000Z</time>
      </trkpt>
      <trkpt lat="45.19059" lon="0.77265">
        <ele>128</ele>
        <time>2017-11-19T10:51:55.000Z</time>
      </trkpt>
      <trkpt lat="45.19059" lon="0.77251">
        <ele>129</ele>
        <time>2017-11-19T10:51:57.000Z</time>
      </trkpt>
      <trkpt lat="45.1906" lon="0.77237">
        <ele>129</ele>
        <time>2017-11-19T10:52:00.000Z</time>
      </trkpt>
      <trkpt lat="45.19062" lon="0.77223">
        <ele>129</ele>
        <time>2017-11-19T10:52:02.000Z</time>
      </trkpt>
      <trkpt lat="45.19063" lon="0.77205">
        <ele>129</ele>
        <time>2017-11-19T10:52:05.000Z</time>
      </trkpt>
      <trkpt lat="45.19064" lon="0.77191">
        <ele>131</ele>
        <time>2017-11-19T10:52:07.000Z</time>
      </trkpt>
      <trkpt lat="45.19064" lon="0.77174">
        <ele>130</ele>
        <time>2017-11-19T10:52:09.000Z</time>
      </trkpt>
      <trkpt lat="45.19062" lon="0.7716">
        <ele>130</ele>
        <time>2017-11-19T10:52:11.000Z</time>
      </trkpt>
      <trkpt lat="45.19062" lon="0.77144">
        <ele>129</ele>
        <time>2017-11-19T10:52:13.000Z</time>
      </trkpt>
      <trkpt lat="45.19059" lon="0.77128">
        <ele>128</ele>
        <time>2017-11-19T10:52:15.000Z</time>
      </trkpt>
      <trkpt lat="45.19056" lon="0.77111">
        <ele>125</ele>
        <time>2017-11-19T10:52:18.000Z</time>
      </trkpt>
      <trkpt lat="45.19051" lon="0.77095">
        <ele>126</ele>
        <time>2017-11-19T10:52:21.000Z</time>
      </trkpt>
      <trkpt lat="45.19046" lon="0.7708">
        <ele>127</ele>
        <time>2017-11-19T10:52:23.000Z</time>
      </trkpt>
      <trkpt lat="45.19045" lon="0.77066">
        <ele>127</ele>
        <time>2017-11-19T10:52:25.000Z</time>
      </trkpt>
      <trkpt lat="45.19044" lon="0.77051">
        <ele>128</ele>
        <time>2017-11-19T10:52:27.000Z</time>
      </trkpt>
      <trkpt lat="45.19041" lon="0.77036">
        <ele>129</ele>
        <time>2017-11-19T10:52:29.000Z</time>
      </trkpt>
      <trkpt lat="45.19037" lon="0.77023">
        <ele>130</ele>
        <time>2017-11-19T10:52:31.000Z</time>
      </trkpt>
      <trkpt lat="45.1903" lon="0.77012">
        <ele>132</ele>
        <time>2017-11-19T10:52:33.000Z</time>
      </trkpt>
      <trkpt lat="45.19022" lon="0.77003">
        <ele>133</ele>
        <time>2017-11-19T10:52:35.000Z</time>
      </trkpt>
      <trkpt lat="45.19006" lon="0.76991">
        <ele>136</ele>
        <time>2017-11-19T10:52:38.000Z</time>
      </trkpt>
      <trkpt lat="45.19" lon="0.76981">
        <ele>133</ele>
        <time>2017-11-19T10:52:40.000Z</time>
      </trkpt>
      <trkpt lat="45.18992" lon="0.7697">
        <ele>135</ele>
        <time>2017-11-19T10:52:42.000Z</time>
      </trkpt>
      <trkpt lat="45.18984" lon="0.76959">
        <ele>137</ele>
        <time>2017-11-19T10:52:44.000Z</time>
      </trkpt>
      <trkpt lat="45.1898" lon="0.76944">
        <ele>136</ele>
        <time>2017-11-19T10:52:46.000Z</time>
      </trkpt>
      <trkpt lat="45.18976" lon="0.76931">
        <ele>134</ele>
        <time>2017-11-19T10:52:48.000Z</time>
      </trkpt>
      <trkpt lat="45.18971" lon="0.76912">
        <ele>135</ele>
        <time>2017-11-19T10:52:51.000Z</time>
      </trkpt>
      <trkpt lat="45.18968" lon="0.76899">
        <ele>134</ele>
        <time>2017-11-19T10:52:53.000Z</time>
      </trkpt>
      <trkpt lat="45.18964" lon="0.76886">
        <ele>135</ele>
        <time>2017-11-19T10:52:55.000Z</time>
      </trkpt>
      <trkpt lat="45.1896" lon="0.76871">
        <ele>137</ele>
        <time>2017-11-19T10:52:57.000Z</time>
      </trkpt>
      <trkpt lat="45.18956" lon="0.76858">
        <ele>139</ele>
        <time>2017-11-19T10:52:59.000Z</time>
      </trkpt>
      <trkpt lat="45.18955" lon="0.76846">
        <ele>138</ele>
        <time>2017-11-19T10:53:01.000Z</time>
      </trkpt>
      <trkpt lat="45.18952" lon="0.76826">
        <ele>136</ele>
        <time>2017-11-19T10:53:04.000Z</time>
      </trkpt>
      <trkpt lat="45.1895" lon="0.76808">
        <ele>136</ele>
        <time>2017-11-19T10:53:07.000Z</time>
      </trkpt>
      <trkpt lat="45.18945" lon="0.76788">
        <ele>135</ele>
        <time>2017-11-19T10:53:10.000Z</time>
      </trkpt>
      <trkpt lat="45.18942" lon="0.7677">
        <ele>132</ele>
        <time>2017-11-19T10:53:13.000Z</time>
      </trkpt>
      <trkpt lat="45.18937" lon="0.76751">
        <ele>131</ele>
        <time>2017-11-19T10:53:16.000Z</time>
      </trkpt>
      <trkpt lat="45.18933" lon="0.76739">
        <ele>132</ele>
        <time>2017-11-19T10:53:18.000Z</time>
      </trkpt>
      <trkpt lat="45.18928" lon="0.76728">
        <ele>132</ele>
        <time>2017-11-19T10:53:20.000Z</time>
      </trkpt>
      <trkpt lat="45.18923" lon="0.76711">
        <ele>129</ele>
        <time>2017-11-19T10:53:23.000Z</time>
      </trkpt>
      <trkpt lat="45.18918" lon="0.767">
        <ele>128</ele>
        <time>2017-11-19T10:53:25.000Z</time>
      </trkpt>
      <trkpt lat="45.18911" lon="0.76689">
        <ele>128</ele>
        <time>2017-11-19T10:53:27.000Z</time>
      </trkpt>
      <trkpt lat="45.18903" lon="0.76677">
        <ele>127</ele>
        <time>2017-11-19T10:53:29.000Z</time>
      </trkpt>
      <trkpt lat="45.18894" lon="0.76663">
        <ele>124</ele>
        <time>2017-11-19T10:53:33.000Z</time>
      </trkpt>
      <trkpt lat="45.18882" lon="0.76648">
        <ele>126</ele>
        <time>2017-11-19T10:53:36.000Z</time>
      </trkpt>
      <trkpt lat="45.18882" lon="0.76631">
        <ele>127</ele>
        <time>2017-11-19T10:53:38.000Z</time>
      </trkpt>
      <trkpt lat="45.18876" lon="0.76619">
        <ele>128</ele>
        <time>2017-11-19T10:53:40.000Z</time>
      </trkpt>
      <trkpt lat="45.18869" lon="0.76606">
        <ele>128</ele>
        <time>2017-11-19T10:53:42.000Z</time>
      </trkpt>
      <trkpt lat="45.18861" lon="0.76595">
        <ele>129</ele>
        <time>2017-11-19T10:53:45.000Z</time>
      </trkpt>
      <trkpt lat="45.18851" lon="0.76586">
        <ele>131</ele>
        <time>2017-11-19T10:53:47.000Z</time>
      </trkpt>
      <trkpt lat="45.18847" lon="0.76563">
        <ele>130</ele>
        <time>2017-11-19T10:53:50.000Z</time>
      </trkpt>
      <trkpt lat="45.1884" lon="0.76537">
        <ele>132</ele>
        <time>2017-11-19T10:53:54.000Z</time>
      </trkpt>
      <trkpt lat="45.1883" lon="0.76521">
        <ele>133</ele>
        <time>2017-11-19T10:53:57.000Z</time>
      </trkpt>
      <trkpt lat="45.18825" lon="0.76509">
        <ele>131</ele>
        <time>2017-11-19T10:53:59.000Z</time>
      </trkpt>
      <trkpt lat="45.1882" lon="0.7649">
        <ele>132</ele>
        <time>2017-11-19T10:54:02.000Z</time>
      </trkpt>
      <trkpt lat="45.18818" lon="0.76476">
        <ele>132</ele>
        <time>2017-11-19T10:54:04.000Z</time>
      </trkpt>
      <trkpt lat="45.18813" lon="0.76458">
        <ele>133</ele>
        <time>2017-11-19T10:54:07.000Z</time>
      </trkpt>
      <trkpt lat="45.18811" lon="0.76443">
        <ele>134</ele>
        <time>2017-11-19T10:54:09.000Z</time>
      </trkpt>
      <trkpt lat="45.18808" lon="0.76426">
        <ele>134</ele>
        <time>2017-11-19T10:54:12.000Z</time>
      </trkpt>
      <trkpt lat="45.18805" lon="0.76412">
        <ele>135</ele>
        <time>2017-11-19T10:54:14.000Z</time>
      </trkpt>
      <trkpt lat="45.18803" lon="0.76398">
        <ele>135</ele>
        <time>2017-11-19T10:54:16.000Z</time>
      </trkpt>
      <trkpt lat="45.188" lon="0.76379">
        <ele>132</ele>
        <time>2017-11-19T10:54:19.000Z</time>
      </trkpt>
      <trkpt lat="45.18796" lon="0.76365">
        <ele>133</ele>
        <time>2017-11-19T10:54:21.000Z</time>
      </trkpt>
      <trkpt lat="45.18791" lon="0.76353">
        <ele>134</ele>
        <time>2017-11-19T10:54:23.000Z</time>
      </trkpt>
      <trkpt lat="45.18789" lon="0.76333">
        <ele>133</ele>
        <time>2017-11-19T10:54:26.000Z</time>
      </trkpt>
      <trkpt lat="45.18786" lon="0.76318">
        <ele>129</ele>
        <time>2017-11-19T10:54:29.000Z</time>
      </trkpt>
      <trkpt lat="45.18783" lon="0.76306">
        <ele>127</ele>
        <time>2017-11-19T10:54:31.000Z</time>
      </trkpt>
      <trkpt lat="45.18778" lon="0.76293">
        <ele>129</ele>
        <time>2017-11-19T10:54:33.000Z</time>
      </trkpt>
      <trkpt lat="45.18775" lon="0.76273">
        <ele>131</ele>
        <time>2017-11-19T10:54:35.000Z</time>
      </trkpt>
      <trkpt lat="45.18771" lon="0.76257">
        <ele>133</ele>
        <time>2017-11-19T10:54:37.000Z</time>
      </trkpt>
      <trkpt lat="45.18763" lon="0.76241">
        <ele>134</ele>
        <time>2017-11-19T10:54:40.000Z</time>
      </trkpt>
      <trkpt lat="45.18753" lon="0.76232">
        <ele>134</ele>
        <time>2017-11-19T10:54:42.000Z</time>
      </trkpt>
      <trkpt lat="45.18744" lon="0.76224">
        <ele>134</ele>
        <time>2017-11-19T10:54:44.000Z</time>
      </trkpt>
      <trkpt lat="45.18739" lon="0.76211">
        <ele>132</ele>
        <time>2017-11-19T10:54:46.000Z</time>
      </trkpt>
      <trkpt lat="45.18733" lon="0.76199">
        <ele>132</ele>
        <time>2017-11-19T10:54:48.000Z</time>
      </trkpt>
      <trkpt lat="45.18729" lon="0.76186">
        <ele>134</ele>
        <time>2017-11-19T10:54:50.000Z</time>
      </trkpt>
      <trkpt lat="45.18724" lon="0.76171">
        <ele>133</ele>
        <time>2017-11-19T10:54:52.000Z</time>
      </trkpt>
      <trkpt lat="45.18716" lon="0.76161">
        <ele>133</ele>
        <time>2017-11-19T10:54:54.000Z</time>
      </trkpt>
      <trkpt lat="45.18711" lon="0.76151">
        <ele>133</ele>
        <time>2017-11-19T10:54:56.000Z</time>
      </trkpt>
      <trkpt lat="45.18705" lon="0.76138">
        <ele>131</ele>
        <time>2017-11-19T10:54:58.000Z</time>
      </trkpt>
      <trkpt lat="45.187" lon="0.76127">
        <ele>129</ele>
        <time>2017-11-19T10:55:00.000Z</time>
      </trkpt>
      <trkpt lat="45.18694" lon="0.76114">
        <ele>130</ele>
        <time>2017-11-19T10:55:02.000Z</time>
      </trkpt>
      <trkpt lat="45.18689" lon="0.76102">
        <ele>131</ele>
        <time>2017-11-19T10:55:04.000Z</time>
      </trkpt>
      <trkpt lat="45.18684" lon="0.76088">
        <ele>132</ele>
        <time>2017-11-19T10:55:06.000Z</time>
      </trkpt>
      <trkpt lat="45.18678" lon="0.76077">
        <ele>131</ele>
        <time>2017-11-19T10:55:08.000Z</time>
      </trkpt>
      <trkpt lat="45.18672" lon="0.76064">
        <ele>132</ele>
        <time>2017-11-19T10:55:10.000Z</time>
      </trkpt>
      <trkpt lat="45.18667" lon="0.76054">
        <ele>132</ele>
        <time>2017-11-19T10:55:12.000Z</time>
      </trkpt>
      <trkpt lat="45.18659" lon="0.76047">
        <ele>133</ele>
        <time>2017-11-19T10:55:14.000Z</time>
      </trkpt>
      <trkpt lat="45.18646" lon="0.76043">
        <ele>131</ele>
        <time>2017-11-19T10:55:17.000Z</time>
      </trkpt>
      <trkpt lat="45.18635" lon="0.7605">
        <ele>131</ele>
        <time>2017-11-19T10:55:19.000Z</time>
      </trkpt>
      <trkpt lat="45.18624" lon="0.76047">
        <ele>132</ele>
        <time>2017-11-19T10:55:21.000Z</time>
      </trkpt>
      <trkpt lat="45.18617" lon="0.76038">
        <ele>133</ele>
        <time>2017-11-19T10:55:24.000Z</time>
      </trkpt>
      <trkpt lat="45.18609" lon="0.7603">
        <ele>133</ele>
        <time>2017-11-19T10:55:26.000Z</time>
      </trkpt>
      <trkpt lat="45.18601" lon="0.76016">
        <ele>134</ele>
        <time>2017-11-19T10:55:28.000Z</time>
      </trkpt>
      <trkpt lat="45.18593" lon="0.76">
        <ele>139</ele>
        <time>2017-11-19T10:55:31.000Z</time>
      </trkpt>
      <trkpt lat="45.18586" lon="0.75985">
        <ele>136</ele>
        <time>2017-11-19T10:55:34.000Z</time>
      </trkpt>
      <trkpt lat="45.1858" lon="0.75972">
        <ele>135</ele>
        <time>2017-11-19T10:55:36.000Z</time>
      </trkpt>
      <trkpt lat="45.18574" lon="0.75961">
        <ele>135</ele>
        <time>2017-11-19T10:55:38.000Z</time>
      </trkpt>
      <trkpt lat="45.1857" lon="0.75947">
        <ele>134</ele>
        <time>2017-11-19T10:55:40.000Z</time>
      </trkpt>
      <trkpt lat="45.18564" lon="0.75935">
        <ele>135</ele>
        <time>2017-11-19T10:55:42.000Z</time>
      </trkpt>
      <trkpt lat="45.18556" lon="0.75918">
        <ele>135</ele>
        <time>2017-11-19T10:55:45.000Z</time>
      </trkpt>
      <trkpt lat="45.18551" lon="0.75907">
        <ele>134</ele>
        <time>2017-11-19T10:55:47.000Z</time>
      </trkpt>
      <trkpt lat="45.18544" lon="0.75894">
        <ele>133</ele>
        <time>2017-11-19T10:55:49.000Z</time>
      </trkpt>
      <trkpt lat="45.18539" lon="0.75882">
        <ele>133</ele>
        <time>2017-11-19T10:55:51.000Z</time>
      </trkpt>
      <trkpt lat="45.18535" lon="0.75869">
        <ele>133</ele>
        <time>2017-11-19T10:55:53.000Z</time>
      </trkpt>
      <trkpt lat="45.1853" lon="0.75856">
        <ele>134</ele>
        <time>2017-11-19T10:55:55.000Z</time>
      </trkpt>
      <trkpt lat="45.18528" lon="0.75841">
        <ele>135</ele>
        <time>2017-11-19T10:55:57.000Z</time>
      </trkpt>
      <trkpt lat="45.18524" lon="0.75829">
        <ele>133</ele>
        <time>2017-11-19T10:55:59.000Z</time>
      </trkpt>
      <trkpt lat="45.1852" lon="0.75815">
        <ele>134</ele>
        <time>2017-11-19T10:56:01.000Z</time>
      </trkpt>
      <trkpt lat="45.18515" lon="0.75799">
        <ele>133</ele>
        <time>2017-11-19T10:56:04.000Z</time>
      </trkpt>
      <trkpt lat="45.18507" lon="0.75784">
        <ele>131</ele>
        <time>2017-11-19T10:56:07.000Z</time>
      </trkpt>
      <trkpt lat="45.18502" lon="0.75774">
        <ele>132</ele>
        <time>2017-11-19T10:56:09.000Z</time>
      </trkpt>
      <trkpt lat="45.18496" lon="0.75759">
        <ele>133</ele>
        <time>2017-11-19T10:56:12.000Z</time>
      </trkpt>
      <trkpt lat="45.18486" lon="0.75746">
        <ele>133</ele>
        <time>2017-11-19T10:56:14.000Z</time>
      </trkpt>
      <trkpt lat="45.18475" lon="0.75736">
        <ele>130</ele>
        <time>2017-11-19T10:56:16.000Z</time>
      </trkpt>
      <trkpt lat="45.1847" lon="0.75725">
        <ele>131</ele>
        <time>2017-11-19T10:56:18.000Z</time>
      </trkpt>
      <trkpt lat="45.18461" lon="0.75711">
        <ele>136</ele>
        <time>2017-11-19T10:56:21.000Z</time>
      </trkpt>
      <trkpt lat="45.18454" lon="0.75701">
        <ele>135</ele>
        <time>2017-11-19T10:56:23.000Z</time>
      </trkpt>
      <trkpt lat="45.18447" lon="0.7569">
        <ele>131</ele>
        <time>2017-11-19T10:56:25.000Z</time>
      </trkpt>
      <trkpt lat="45.1844" lon="0.75682">
        <ele>130</ele>
        <time>2017-11-19T10:56:27.000Z</time>
      </trkpt>
      <trkpt lat="45.18431" lon="0.75672">
        <ele>129</ele>
        <time>2017-11-19T10:56:29.000Z</time>
      </trkpt>
      <trkpt lat="45.18425" lon="0.75663">
        <ele>129</ele>
        <time>2017-11-19T10:56:31.000Z</time>
      </trkpt>
      <trkpt lat="45.18417" lon="0.75653">
        <ele>130</ele>
        <time>2017-11-19T10:56:33.000Z</time>
      </trkpt>
      <trkpt lat="45.18407" lon="0.7564">
        <ele>129</ele>
        <time>2017-11-19T10:56:36.000Z</time>
      </trkpt>
      <trkpt lat="45.18399" lon="0.75632">
        <ele>130</ele>
        <time>2017-11-19T10:56:38.000Z</time>
      </trkpt>
      <trkpt lat="45.18393" lon="0.75621">
        <ele>130</ele>
        <time>2017-11-19T10:56:40.000Z</time>
      </trkpt>
      <trkpt lat="45.18383" lon="0.75608">
        <ele>131</ele>
        <time>2017-11-19T10:56:44.000Z</time>
      </trkpt>
      <trkpt lat="45.18372" lon="0.75595">
        <ele>131</ele>
        <time>2017-11-19T10:56:46.000Z</time>
      </trkpt>
      <trkpt lat="45.18363" lon="0.75585">
        <ele>131</ele>
        <time>2017-11-19T10:56:48.000Z</time>
      </trkpt>
      <trkpt lat="45.18355" lon="0.75572">
        <ele>132</ele>
        <time>2017-11-19T10:56:50.000Z</time>
      </trkpt>
      <trkpt lat="45.18348" lon="0.75559">
        <ele>132</ele>
        <time>2017-11-19T10:56:53.000Z</time>
      </trkpt>
      <trkpt lat="45.1834" lon="0.75546">
        <ele>130</ele>
        <time>2017-11-19T10:56:56.000Z</time>
      </trkpt>
      <trkpt lat="45.18333" lon="0.75536">
        <ele>129</ele>
        <time>2017-11-19T10:56:58.000Z</time>
      </trkpt>
      <trkpt lat="45.18327" lon="0.75525">
        <ele>128</ele>
        <time>2017-11-19T10:57:00.000Z</time>
      </trkpt>
      <trkpt lat="45.18322" lon="0.75513">
        <ele>128</ele>
        <time>2017-11-19T10:57:02.000Z</time>
      </trkpt>
      <trkpt lat="45.18315" lon="0.75503">
        <ele>128</ele>
        <time>2017-11-19T10:57:04.000Z</time>
      </trkpt>
      <trkpt lat="45.18308" lon="0.75491">
        <ele>130</ele>
        <time>2017-11-19T10:57:06.000Z</time>
      </trkpt>
      <trkpt lat="45.183" lon="0.75478">
        <ele>131</ele>
        <time>2017-11-19T10:57:08.000Z</time>
      </trkpt>
      <trkpt lat="45.18292" lon="0.75466">
        <ele>131</ele>
        <time>2017-11-19T10:57:10.000Z</time>
      </trkpt>
      <trkpt lat="45.18284" lon="0.7545">
        <ele>133</ele>
        <time>2017-11-19T10:57:13.000Z</time>
      </trkpt>
      <trkpt lat="45.18279" lon="0.75438">
        <ele>132</ele>
        <time>2017-11-19T10:57:15.000Z</time>
      </trkpt>
      <trkpt lat="45.18274" lon="0.75427">
        <ele>133</ele>
        <time>2017-11-19T10:57:17.000Z</time>
      </trkpt>
      <trkpt lat="45.18268" lon="0.75416">
        <ele>133</ele>
        <time>2017-11-19T10:57:19.000Z</time>
      </trkpt>
      <trkpt lat="45.18261" lon="0.75402">
        <ele>132</ele>
        <time>2017-11-19T10:57:22.000Z</time>
      </trkpt>
      <trkpt lat="45.18255" lon="0.75389">
        <ele>131</ele>
        <time>2017-11-19T10:57:24.000Z</time>
      </trkpt>
      <trkpt lat="45.18253" lon="0.75375">
        <ele>131</ele>
        <time>2017-11-19T10:57:26.000Z</time>
      </trkpt>
      <trkpt lat="45.18248" lon="0.75359">
        <ele>132</ele>
        <time>2017-11-19T10:57:29.000Z</time>
      </trkpt>
      <trkpt lat="45.18243" lon="0.75344">
        <ele>131</ele>
        <time>2017-11-19T10:57:32.000Z</time>
      </trkpt>
      <trkpt lat="45.18244" lon="0.75328">
        <ele>131</ele>
        <time>2017-11-19T10:57:35.000Z</time>
      </trkpt>
      <trkpt lat="45.18245" lon="0.75312">
        <ele>131</ele>
        <time>2017-11-19T10:57:38.000Z</time>
      </trkpt>
      <trkpt lat="45.18245" lon="0.75295">
        <ele>132</ele>
        <time>2017-11-19T10:57:41.000Z</time>
      </trkpt>
      <trkpt lat="45.18245" lon="0.75277">
        <ele>132</ele>
        <time>2017-11-19T10:57:44.000Z</time>
      </trkpt>
      <trkpt lat="45.18247" lon="0.7526">
        <ele>133</ele>
        <time>2017-11-19T10:57:47.000Z</time>
      </trkpt>
      <trkpt lat="45.1825" lon="0.75242">
        <ele>133</ele>
        <time>2017-11-19T10:57:49.000Z</time>
      </trkpt>
      <trkpt lat="45.1825" lon="0.75227">
        <ele>132</ele>
        <time>2017-11-19T10:57:51.000Z</time>
      </trkpt>
      <trkpt lat="45.18251" lon="0.75214">
        <ele>133</ele>
        <time>2017-11-19T10:57:53.000Z</time>
      </trkpt>
      <trkpt lat="45.18254" lon="0.752">
        <ele>133</ele>
        <time>2017-11-19T10:57:55.000Z</time>
      </trkpt>
      <trkpt lat="45.18256" lon="0.75186">
        <ele>131</ele>
        <time>2017-11-19T10:57:57.000Z</time>
      </trkpt>
      <trkpt lat="45.18259" lon="0.75171">
        <ele>128</ele>
        <time>2017-11-19T10:58:00.000Z</time>
      </trkpt>
      <trkpt lat="45.18263" lon="0.75157">
        <ele>127</ele>
        <time>2017-11-19T10:58:02.000Z</time>
      </trkpt>
      <trkpt lat="45.18265" lon="0.75141">
        <ele>127</ele>
        <time>2017-11-19T10:58:04.000Z</time>
      </trkpt>
      <trkpt lat="45.1827" lon="0.7512">
        <ele>128</ele>
        <time>2017-11-19T10:58:06.000Z</time>
      </trkpt>
      <trkpt lat="45.18275" lon="0.75101">
        <ele>129</ele>
        <time>2017-11-19T10:58:09.000Z</time>
      </trkpt>
      <trkpt lat="45.18282" lon="0.75088">
        <ele>174</ele>
        <time>2017-11-19T10:58:13.000Z</time>
      </trkpt>
      <trkpt lat="45.18287" lon="0.75076">
        <ele>152</ele>
        <time>2017-11-19T10:58:15.000Z</time>
      </trkpt>
      <trkpt lat="45.18294" lon="0.75059">
        <ele>142</ele>
        <time>2017-11-19T10:58:18.000Z</time>
      </trkpt>
      <trkpt lat="45.18299" lon="0.75048">
        <ele>136</ele>
        <time>2017-11-19T10:58:20.000Z</time>
      </trkpt>
      <trkpt lat="45.18307" lon="0.75036">
        <ele>172</ele>
        <time>2017-11-19T10:58:22.000Z</time>
      </trkpt>
      <trkpt lat="45.18314" lon="0.75024">
        <ele>151</ele>
        <time>2017-11-19T10:58:25.000Z</time>
      </trkpt>
      <trkpt lat="45.1832" lon="0.75007">
        <ele>141</ele>
        <time>2017-11-19T10:58:28.000Z</time>
      </trkpt>
      <trkpt lat="45.18328" lon="0.74993">
        <ele>133</ele>
        <time>2017-11-19T10:58:31.000Z</time>
      </trkpt>
      <trkpt lat="45.18333" lon="0.74982">
        <ele>129</ele>
        <time>2017-11-19T10:58:34.000Z</time>
      </trkpt>
      <trkpt lat="45.18338" lon="0.74972">
        <ele>127</ele>
        <time>2017-11-19T10:58:36.000Z</time>
      </trkpt>
      <trkpt lat="45.1835" lon="0.74957">
        <ele>121</ele>
        <time>2017-11-19T10:58:39.086Z</time>
      </trkpt>
      <trkpt lat="45.18358" lon="0.74948">
        <ele>120</ele>
        <time>2017-11-19T10:58:40.086Z</time>
      </trkpt>
      <trkpt lat="45.18372" lon="0.74938">
        <ele>123</ele>
        <time>2017-11-19T10:58:41.086Z</time>
      </trkpt>
      <trkpt lat="45.18372" lon="0.74925">
        <ele>132</ele>
        <time>2017-11-19T10:58:43.086Z</time>
      </trkpt>
      <trkpt lat="45.18383" lon="0.74928">
        <ele>142</ele>
        <time>2017-11-19T10:58:45.085Z</time>
      </trkpt>
      <trkpt lat="45.18394" lon="0.74907">
        <ele>121</ele>
        <time>2017-11-19T10:58:48.086Z</time>
      </trkpt>
      <trkpt lat="45.18398" lon="0.74893">
        <ele>122</ele>
        <time>2017-11-19T10:58:50.086Z</time>
      </trkpt>
      <trkpt lat="45.18414" lon="0.74896">
        <ele>128</ele>
        <time>2017-11-19T10:58:52.086Z</time>
      </trkpt>
      <trkpt lat="45.18414" lon="0.74881">
        <ele>118</ele>
        <time>2017-11-19T10:58:54.086Z</time>
      </trkpt>
      <trkpt lat="45.18425" lon="0.74876">
        <ele>145</ele>
        <time>2017-11-19T10:58:58.000Z</time>
      </trkpt>
      <trkpt lat="45.18433" lon="0.74869">
        <ele>138</ele>
        <time>2017-11-19T10:59:00.000Z</time>
      </trkpt>
      <trkpt lat="45.18441" lon="0.74862">
        <ele>138</ele>
        <time>2017-11-19T10:59:02.000Z</time>
      </trkpt>
      <trkpt lat="45.18459" lon="0.74852">
        <ele>134</ele>
        <time>2017-11-19T10:59:05.000Z</time>
      </trkpt>
      <trkpt lat="45.18468" lon="0.74844">
        <ele>134</ele>
        <time>2017-11-19T10:59:08.000Z</time>
      </trkpt>
      <trkpt lat="45.18477" lon="0.7484">
        <ele>136</ele>
        <time>2017-11-19T10:59:10.000Z</time>
      </trkpt>
      <trkpt lat="45.18488" lon="0.74834">
        <ele>134</ele>
        <time>2017-11-19T10:59:13.000Z</time>
      </trkpt>
      <trkpt lat="45.18499" lon="0.74828">
        <ele>132</ele>
        <time>2017-11-19T10:59:16.000Z</time>
      </trkpt>
      <trkpt lat="45.18512" lon="0.74821">
        <ele>129</ele>
        <time>2017-11-19T10:59:18.000Z</time>
      </trkpt>
      <trkpt lat="45.1852" lon="0.74815">
        <ele>129</ele>
        <time>2017-11-19T10:59:20.000Z</time>
      </trkpt>
      <trkpt lat="45.18528" lon="0.74809">
        <ele>130</ele>
        <time>2017-11-19T10:59:22.000Z</time>
      </trkpt>
      <trkpt lat="45.18543" lon="0.74801">
        <ele>130</ele>
        <time>2017-11-19T10:59:25.000Z</time>
      </trkpt>
      <trkpt lat="45.18551" lon="0.74793">
        <ele>130</ele>
        <time>2017-11-19T10:59:27.000Z</time>
      </trkpt>
      <trkpt lat="45.1856" lon="0.74785">
        <ele>131</ele>
        <time>2017-11-19T10:59:29.000Z</time>
      </trkpt>
      <trkpt lat="45.18568" lon="0.74774">
        <ele>131</ele>
        <time>2017-11-19T10:59:32.000Z</time>
      </trkpt>
      <trkpt lat="45.1858" lon="0.74765">
        <ele>131</ele>
        <time>2017-11-19T10:59:35.000Z</time>
      </trkpt>
      <trkpt lat="45.18589" lon="0.74758">
        <ele>132</ele>
        <time>2017-11-19T10:59:37.000Z</time>
      </trkpt>
      <trkpt lat="45.18598" lon="0.74752">
        <ele>133</ele>
        <time>2017-11-19T10:59:39.000Z</time>
      </trkpt>
      <trkpt lat="45.18607" lon="0.74742">
        <ele>132</ele>
        <time>2017-11-19T10:59:42.000Z</time>
      </trkpt>
      <trkpt lat="45.18615" lon="0.7473">
        <ele>133</ele>
        <time>2017-11-19T10:59:45.000Z</time>
      </trkpt>
      <trkpt lat="45.18624" lon="0.74719">
        <ele>134</ele>
        <time>2017-11-19T10:59:48.000Z</time>
      </trkpt>
      <trkpt lat="45.18633" lon="0.74708">
        <ele>135</ele>
        <time>2017-11-19T10:59:51.000Z</time>
      </trkpt>
      <trkpt lat="45.1864" lon="0.74698">
        <ele>134</ele>
        <time>2017-11-19T10:59:54.000Z</time>
      </trkpt>
      <trkpt lat="45.18649" lon="0.74684">
        <ele>134</ele>
        <time>2017-11-19T10:59:57.000Z</time>
      </trkpt>
      <trkpt lat="45.18653" lon="0.74673">
        <ele>133</ele>
        <time>2017-11-19T10:59:59.000Z</time>
      </trkpt>
      <trkpt lat="45.18658" lon="0.74661">
        <ele>133</ele>
        <time>2017-11-19T11:00:01.000Z</time>
      </trkpt>
      <trkpt lat="45.18669" lon="0.74647">
        <ele>135</ele>
        <time>2017-11-19T11:00:04.000Z</time>
      </trkpt>
      <trkpt lat="45.18682" lon="0.74632">
        <ele>135</ele>
        <time>2017-11-19T11:00:06.000Z</time>
      </trkpt>
      <trkpt lat="45.18687" lon="0.74621">
        <ele>135</ele>
        <time>2017-11-19T11:00:08.000Z</time>
      </trkpt>
      <trkpt lat="45.18692" lon="0.74609">
        <ele>134</ele>
        <time>2017-11-19T11:00:10.000Z</time>
      </trkpt>
      <trkpt lat="45.18697" lon="0.74596">
        <ele>133</ele>
        <time>2017-11-19T11:00:12.000Z</time>
      </trkpt>
      <trkpt lat="45.18707" lon="0.74582">
        <ele>134</ele>
        <time>2017-11-19T11:00:14.000Z</time>
      </trkpt>
      <trkpt lat="45.18718" lon="0.74574">
        <ele>133</ele>
        <time>2017-11-19T11:00:16.000Z</time>
      </trkpt>
      <trkpt lat="45.18723" lon="0.74563">
        <ele>132</ele>
        <time>2017-11-19T11:00:18.000Z</time>
      </trkpt>
      <trkpt lat="45.18726" lon="0.74547">
        <ele>132</ele>
        <time>2017-11-19T11:00:20.000Z</time>
      </trkpt>
      <trkpt lat="45.18728" lon="0.74532">
        <ele>131</ele>
        <time>2017-11-19T11:00:22.000Z</time>
      </trkpt>
      <trkpt lat="45.1873" lon="0.74517">
        <ele>130</ele>
        <time>2017-11-19T11:00:24.000Z</time>
      </trkpt>
      <trkpt lat="45.18735" lon="0.74501">
        <ele>129</ele>
        <time>2017-11-19T11:00:26.000Z</time>
      </trkpt>
      <trkpt lat="45.18743" lon="0.74489">
        <ele>132</ele>
        <time>2017-11-19T11:00:28.000Z</time>
      </trkpt>
      <trkpt lat="45.1875" lon="0.74473">
        <ele>133</ele>
        <time>2017-11-19T11:00:31.000Z</time>
      </trkpt>
      <trkpt lat="45.18753" lon="0.74459">
        <ele>133</ele>
        <time>2017-11-19T11:00:33.000Z</time>
      </trkpt>
      <trkpt lat="45.18756" lon="0.7444">
        <ele>131</ele>
        <time>2017-11-19T11:00:35.000Z</time>
      </trkpt>
      <trkpt lat="45.18765" lon="0.74434">
        <ele>132</ele>
        <time>2017-11-19T11:00:37.000Z</time>
      </trkpt>
      <trkpt lat="45.18768" lon="0.74417">
        <ele>170</ele>
        <time>2017-11-19T11:00:40.000Z</time>
      </trkpt>
      <trkpt lat="45.18775" lon="0.74402">
        <ele>149</ele>
        <time>2017-11-19T11:00:43.000Z</time>
      </trkpt>
      <trkpt lat="45.18779" lon="0.74386">
        <ele>142</ele>
        <time>2017-11-19T11:00:46.000Z</time>
      </trkpt>
      <trkpt lat="45.18781" lon="0.74372">
        <ele>139</ele>
        <time>2017-11-19T11:00:48.000Z</time>
      </trkpt>
      <trkpt lat="45.18781" lon="0.74356">
        <ele>137</ele>
        <time>2017-11-19T11:00:50.000Z</time>
      </trkpt>
      <trkpt lat="45.18787" lon="0.74342">
        <ele>133</ele>
        <time>2017-11-19T11:00:54.000Z</time>
      </trkpt>
      <trkpt lat="45.18792" lon="0.74331">
        <ele>132</ele>
        <time>2017-11-19T11:00:57.000Z</time>
      </trkpt>
      <trkpt lat="45.18796" lon="0.74317">
        <ele>131</ele>
        <time>2017-11-19T11:01:00.000Z</time>
      </trkpt>
      <trkpt lat="45.18801" lon="0.74305">
        <ele>132</ele>
        <time>2017-11-19T11:01:03.000Z</time>
      </trkpt>
      <trkpt lat="45.18812" lon="0.74296">
        <ele>131</ele>
        <time>2017-11-19T11:01:06.000Z</time>
      </trkpt>
      <trkpt lat="45.18822" lon="0.74289">
        <ele>132</ele>
        <time>2017-11-19T11:01:09.000Z</time>
      </trkpt>
      <trkpt lat="45.18831" lon="0.74276">
        <ele>131</ele>
        <time>2017-11-19T11:01:12.000Z</time>
      </trkpt>
      <trkpt lat="45.18835" lon="0.74258">
        <ele>132</ele>
        <time>2017-11-19T11:01:14.000Z</time>
      </trkpt>
      <trkpt lat="45.18837" lon="0.7424">
        <ele>131</ele>
        <time>2017-11-19T11:01:16.000Z</time>
      </trkpt>
      <trkpt lat="45.18845" lon="0.74225">
        <ele>133</ele>
        <time>2017-11-19T11:01:19.000Z</time>
      </trkpt>
      <trkpt lat="45.18851" lon="0.74208">
        <ele>130</ele>
        <time>2017-11-19T11:01:22.000Z</time>
      </trkpt>
      <trkpt lat="45.18853" lon="0.74195">
        <ele>129</ele>
        <time>2017-11-19T11:01:24.000Z</time>
      </trkpt>
      <trkpt lat="45.18856" lon="0.74179">
        <ele>131</ele>
        <time>2017-11-19T11:01:27.000Z</time>
      </trkpt>
      <trkpt lat="45.18858" lon="0.74165">
        <ele>173</ele>
        <time>2017-11-19T11:01:29.000Z</time>
      </trkpt>
      <trkpt lat="45.18865" lon="0.74154">
        <ele>154</ele>
        <time>2017-11-19T11:01:32.000Z</time>
      </trkpt>
      <trkpt lat="45.18869" lon="0.74128">
        <ele>139</ele>
        <time>2017-11-19T11:01:37.000Z</time>
      </trkpt>
      <trkpt lat="45.18873" lon="0.74111">
        <ele>135</ele>
        <time>2017-11-19T11:01:40.000Z</time>
      </trkpt>
      <trkpt lat="45.18876" lon="0.74097">
        <ele>135</ele>
        <time>2017-11-19T11:01:43.000Z</time>
      </trkpt>
      <trkpt lat="45.18879" lon="0.7408">
        <ele>135</ele>
        <time>2017-11-19T11:01:46.000Z</time>
      </trkpt>
      <trkpt lat="45.18884" lon="0.74063">
        <ele>137</ele>
        <time>2017-11-19T11:01:49.000Z</time>
      </trkpt>
      <trkpt lat="45.18886" lon="0.74051">
        <ele>136</ele>
        <time>2017-11-19T11:01:51.000Z</time>
      </trkpt>
      <trkpt lat="45.18886" lon="0.74035">
        <ele>135</ele>
        <time>2017-11-19T11:01:54.000Z</time>
      </trkpt>
      <trkpt lat="45.18879" lon="0.7402">
        <ele>171</ele>
        <time>2017-11-19T11:01:57.000Z</time>
      </trkpt>
      <trkpt lat="45.1887" lon="0.74008">
        <ele>148</ele>
        <time>2017-11-19T11:02:00.000Z</time>
      </trkpt>
      <trkpt lat="45.18863" lon="0.73997">
        <ele>142</ele>
        <time>2017-11-19T11:02:03.000Z</time>
      </trkpt>
      <trkpt lat="45.18857" lon="0.73986">
        <ele>140</ele>
        <time>2017-11-19T11:02:06.000Z</time>
      </trkpt>
      <trkpt lat="45.18849" lon="0.73974">
        <ele>152</ele>
        <time>2017-11-19T11:02:09.000Z</time>
      </trkpt>
      <trkpt lat="45.18839" lon="0.7396">
        <ele>141</ele>
        <time>2017-11-19T11:02:12.000Z</time>
      </trkpt>
      <trkpt lat="45.18828" lon="0.73949">
        <ele>150</ele>
        <time>2017-11-19T11:02:15.000Z</time>
      </trkpt>
      <trkpt lat="45.1882" lon="0.73934">
        <ele>143</ele>
        <time>2017-11-19T11:02:18.000Z</time>
      </trkpt>
      <trkpt lat="45.18816" lon="0.7392">
        <ele>141</ele>
        <time>2017-11-19T11:02:20.000Z</time>
      </trkpt>
      <trkpt lat="45.18813" lon="0.73905">
        <ele>139</ele>
        <time>2017-11-19T11:02:23.000Z</time>
      </trkpt>
      <trkpt lat="45.1881" lon="0.73889">
        <ele>136</ele>
        <time>2017-11-19T11:02:26.000Z</time>
      </trkpt>
      <trkpt lat="45.18808" lon="0.73876">
        <ele>137</ele>
        <time>2017-11-19T11:02:28.000Z</time>
      </trkpt>
      <trkpt lat="45.18805" lon="0.73859">
        <ele>138</ele>
        <time>2017-11-19T11:02:31.000Z</time>
      </trkpt>
      <trkpt lat="45.18801" lon="0.73842">
        <ele>137</ele>
        <time>2017-11-19T11:02:34.000Z</time>
      </trkpt>
      <trkpt lat="45.18799" lon="0.73829">
        <ele>135</ele>
        <time>2017-11-19T11:02:36.000Z</time>
      </trkpt>
      <trkpt lat="45.188" lon="0.73816">
        <ele>134</ele>
        <time>2017-11-19T11:02:38.000Z</time>
      </trkpt>
      <trkpt lat="45.18803" lon="0.73803">
        <ele>135</ele>
        <time>2017-11-19T11:02:40.000Z</time>
      </trkpt>
      <trkpt lat="45.18808" lon="0.73791">
        <ele>137</ele>
        <time>2017-11-19T11:02:42.000Z</time>
      </trkpt>
      <trkpt lat="45.18813" lon="0.73775">
        <ele>135</ele>
        <time>2017-11-19T11:02:45.000Z</time>
      </trkpt>
      <trkpt lat="45.18818" lon="0.73756">
        <ele>134</ele>
        <time>2017-11-19T11:02:48.000Z</time>
      </trkpt>
      <trkpt lat="45.18821" lon="0.73744">
        <ele>133</ele>
        <time>2017-11-19T11:02:50.000Z</time>
      </trkpt>
      <trkpt lat="45.18827" lon="0.73731">
        <ele>133</ele>
        <time>2017-11-19T11:02:53.000Z</time>
      </trkpt>
      <trkpt lat="45.18831" lon="0.73714">
        <ele>132</ele>
        <time>2017-11-19T11:02:56.000Z</time>
      </trkpt>
      <trkpt lat="45.18835" lon="0.73698">
        <ele>174</ele>
        <time>2017-11-19T11:02:59.000Z</time>
      </trkpt>
      <trkpt lat="45.1884" lon="0.73684">
        <ele>149</ele>
        <time>2017-11-19T11:03:02.000Z</time>
      </trkpt>
      <trkpt lat="45.18844" lon="0.73672">
        <ele>143</ele>
        <time>2017-11-19T11:03:04.000Z</time>
      </trkpt>
      <trkpt lat="45.18846" lon="0.73657">
        <ele>134</ele>
        <time>2017-11-19T11:03:07.000Z</time>
      </trkpt>
      <trkpt lat="45.18844" lon="0.73642">
        <ele>134</ele>
        <time>2017-11-19T11:03:11.000Z</time>
      </trkpt>
      <trkpt lat="45.18832" lon="0.73639">
        <ele>135</ele>
        <time>2017-11-19T11:03:15.000Z</time>
      </trkpt>
      <trkpt lat="45.18821" lon="0.73635">
        <ele>134</ele>
        <time>2017-11-19T11:03:19.000Z</time>
      </trkpt>
      <trkpt lat="45.18813" lon="0.73631">
        <ele>134</ele>
        <time>2017-11-19T11:03:23.000Z</time>
      </trkpt>
      <trkpt lat="45.18803" lon="0.73628">
        <ele>136</ele>
        <time>2017-11-19T11:03:27.000Z</time>
      </trkpt>
      <trkpt lat="45.18805" lon="0.73609">
        <ele>134</ele>
        <time>2017-11-19T11:03:31.000Z</time>
      </trkpt>
      <trkpt lat="45.18808" lon="0.73597">
        <ele>133</ele>
        <time>2017-11-19T11:03:33.000Z</time>
      </trkpt>
      <trkpt lat="45.1881" lon="0.73583">
        <ele>133</ele>
        <time>2017-11-19T11:03:35.000Z</time>
      </trkpt>
      <trkpt lat="45.18811" lon="0.7357">
        <ele>174</ele>
        <time>2017-11-19T11:03:37.000Z</time>
      </trkpt>
      <trkpt lat="45.18813" lon="0.73544">
        <ele>129</ele>
        <time>2017-11-19T11:03:39.085Z</time>
      </trkpt>
      <trkpt lat="45.18821" lon="0.73537">
        <ele>124</ele>
        <time>2017-11-19T11:03:40.085Z</time>
      </trkpt>
      <trkpt lat="45.18817" lon="0.73519">
        <ele>99</ele>
        <time>2017-11-19T11:03:42.085Z</time>
      </trkpt>
      <trkpt lat="45.18826" lon="0.73513">
        <ele>121</ele>
        <time>2017-11-19T11:03:46.085Z</time>
      </trkpt>
      <trkpt lat="45.18822" lon="0.73501">
        <ele>129</ele>
        <time>2017-11-19T11:03:47.085Z</time>
      </trkpt>
      <trkpt lat="45.18823" lon="0.73485">
        <ele>126</ele>
        <time>2017-11-19T11:03:51.086Z</time>
      </trkpt>
      <trkpt lat="45.18828" lon="0.73464">
        <ele>134</ele>
        <time>2017-11-19T11:03:54.086Z</time>
      </trkpt>
      <trkpt lat="45.18839" lon="0.7348">
        <ele>156</ele>
        <time>2017-11-19T11:03:57.000Z</time>
      </trkpt>
      <trkpt lat="45.18835" lon="0.73464">
        <ele>150</ele>
        <time>2017-11-19T11:03:58.000Z</time>
      </trkpt>
      <trkpt lat="45.18832" lon="0.73437">
        <ele>142</ele>
        <time>2017-11-19T11:04:01.000Z</time>
      </trkpt>
      <trkpt lat="45.18832" lon="0.73422">
        <ele>135</ele>
        <time>2017-11-19T11:04:03.000Z</time>
      </trkpt>
      <trkpt lat="45.18833" lon="0.73409">
        <ele>134</ele>
        <time>2017-11-19T11:04:05.000Z</time>
      </trkpt>
      <trkpt lat="45.18834" lon="0.73392">
        <ele>172</ele>
        <time>2017-11-19T11:04:08.000Z</time>
      </trkpt>
      <trkpt lat="45.18832" lon="0.73378">
        <ele>158</ele>
        <time>2017-11-19T11:04:10.000Z</time>
      </trkpt>
      <trkpt lat="45.18831" lon="0.73362">
        <ele>153</ele>
        <time>2017-11-19T11:04:12.000Z</time>
      </trkpt>
      <trkpt lat="45.18829" lon="0.73348">
        <ele>146</ele>
        <time>2017-11-19T11:04:14.000Z</time>
      </trkpt>
      <trkpt lat="45.1883" lon="0.7333">
        <ele>140</ele>
        <time>2017-11-19T11:04:17.000Z</time>
      </trkpt>
      <trkpt lat="45.18829" lon="0.73317">
        <ele>136</ele>
        <time>2017-11-19T11:04:19.000Z</time>
      </trkpt>
      <trkpt lat="45.18828" lon="0.73303">
        <ele>135</ele>
        <time>2017-11-19T11:04:21.000Z</time>
      </trkpt>
      <trkpt lat="45.18826" lon="0.73288">
        <ele>135</ele>
        <time>2017-11-19T11:04:23.000Z</time>
      </trkpt>
      <trkpt lat="45.18825" lon="0.73276">
        <ele>135</ele>
        <time>2017-11-19T11:04:25.000Z</time>
      </trkpt>
      <trkpt lat="45.18822" lon="0.73257">
        <ele>133</ele>
        <time>2017-11-19T11:04:28.000Z</time>
      </trkpt>
      <trkpt lat="45.18821" lon="0.73242">
        <ele>133</ele>
        <time>2017-11-19T11:04:30.000Z</time>
      </trkpt>
      <trkpt lat="45.18818" lon="0.73225">
        <ele>133</ele>
        <time>2017-11-19T11:04:32.000Z</time>
      </trkpt>
      <trkpt lat="45.18816" lon="0.73196">
        <ele>130</ele>
        <time>2017-11-19T11:04:36.000Z</time>
      </trkpt>
      <trkpt lat="45.18815" lon="0.73183">
        <ele>130</ele>
        <time>2017-11-19T11:04:38.000Z</time>
      </trkpt>
      <trkpt lat="45.18811" lon="0.73166">
        <ele>127</ele>
        <time>2017-11-19T11:04:41.000Z</time>
      </trkpt>
      <trkpt lat="45.18809" lon="0.73149">
        <ele>127</ele>
        <time>2017-11-19T11:04:44.000Z</time>
      </trkpt>
      <trkpt lat="45.18806" lon="0.73137">
        <ele>128</ele>
        <time>2017-11-19T11:04:46.000Z</time>
      </trkpt>
      <trkpt lat="45.18803" lon="0.73123">
        <ele>129</ele>
        <time>2017-11-19T11:04:48.000Z</time>
      </trkpt>
      <trkpt lat="45.18799" lon="0.73108">
        <ele>129</ele>
        <time>2017-11-19T11:04:51.000Z</time>
      </trkpt>
      <trkpt lat="45.18792" lon="0.73094">
        <ele>130</ele>
        <time>2017-11-19T11:04:53.000Z</time>
      </trkpt>
      <trkpt lat="45.18787" lon="0.73084">
        <ele>129</ele>
        <time>2017-11-19T11:04:55.000Z</time>
      </trkpt>
      <trkpt lat="45.18781" lon="0.73074">
        <ele>131</ele>
        <time>2017-11-19T11:04:57.000Z</time>
      </trkpt>
      <trkpt lat="45.18773" lon="0.73063">
        <ele>136</ele>
        <time>2017-11-19T11:05:00.000Z</time>
      </trkpt>
      <trkpt lat="45.18766" lon="0.73047">
        <ele>136</ele>
        <time>2017-11-19T11:05:03.000Z</time>
      </trkpt>
      <trkpt lat="45.1876" lon="0.73036">
        <ele>137</ele>
        <time>2017-11-19T11:05:05.000Z</time>
      </trkpt>
      <trkpt lat="45.18753" lon="0.73023">
        <ele>139</ele>
        <time>2017-11-19T11:05:07.000Z</time>
      </trkpt>
      <trkpt lat="45.18747" lon="0.73013">
        <ele>139</ele>
        <time>2017-11-19T11:05:09.000Z</time>
      </trkpt>
      <trkpt lat="45.1874" lon="0.73">
        <ele>136</ele>
        <time>2017-11-19T11:05:11.000Z</time>
      </trkpt>
      <trkpt lat="45.18733" lon="0.72992">
        <ele>136</ele>
        <time>2017-11-19T11:05:13.000Z</time>
      </trkpt>
      <trkpt lat="45.18722" lon="0.7298">
        <ele>136</ele>
        <time>2017-11-19T11:05:16.000Z</time>
      </trkpt>
      <trkpt lat="45.18715" lon="0.7297">
        <ele>137</ele>
        <time>2017-11-19T11:05:18.000Z</time>
      </trkpt>
      <trkpt lat="45.18709" lon="0.72951">
        <ele>157</ele>
        <time>2017-11-19T11:05:21.000Z</time>
      </trkpt>
      <trkpt lat="45.18703" lon="0.7294">
        <ele>149</ele>
        <time>2017-11-19T11:05:23.000Z</time>
      </trkpt>
      <trkpt lat="45.18699" lon="0.72929">
        <ele>146</ele>
        <time>2017-11-19T11:05:25.000Z</time>
      </trkpt>
      <trkpt lat="45.18692" lon="0.72916">
        <ele>145</ele>
        <time>2017-11-19T11:05:27.000Z</time>
      </trkpt>
      <trkpt lat="45.18684" lon="0.72909">
        <ele>144</ele>
        <time>2017-11-19T11:05:29.000Z</time>
      </trkpt>
      <trkpt lat="45.18676" lon="0.729">
        <ele>142</ele>
        <time>2017-11-19T11:05:31.000Z</time>
      </trkpt>
      <trkpt lat="45.18667" lon="0.72889">
        <ele>140</ele>
        <time>2017-11-19T11:05:34.000Z</time>
      </trkpt>
      <trkpt lat="45.1866" lon="0.72877">
        <ele>140</ele>
        <time>2017-11-19T11:05:36.000Z</time>
      </trkpt>
      <trkpt lat="45.18654" lon="0.72863">
        <ele>140</ele>
        <time>2017-11-19T11:05:39.000Z</time>
      </trkpt>
      <trkpt lat="45.18647" lon="0.72853">
        <ele>140</ele>
        <time>2017-11-19T11:05:41.000Z</time>
      </trkpt>
      <trkpt lat="45.18641" lon="0.72841">
        <ele>139</ele>
        <time>2017-11-19T11:05:43.000Z</time>
      </trkpt>
      <trkpt lat="45.18633" lon="0.72832">
        <ele>139</ele>
        <time>2017-11-19T11:05:45.000Z</time>
      </trkpt>
      <trkpt lat="45.18627" lon="0.72821">
        <ele>139</ele>
        <time>2017-11-19T11:05:47.000Z</time>
      </trkpt>
      <trkpt lat="45.18618" lon="0.72808">
        <ele>139</ele>
        <time>2017-11-19T11:05:50.000Z</time>
      </trkpt>
      <trkpt lat="45.1861" lon="0.72798">
        <ele>158</ele>
        <time>2017-11-19T11:05:52.000Z</time>
      </trkpt>
      <trkpt lat="45.18602" lon="0.7279">
        <ele>149</ele>
        <time>2017-11-19T11:05:54.000Z</time>
      </trkpt>
      <trkpt lat="45.18593" lon="0.72778">
        <ele>144</ele>
        <time>2017-11-19T11:05:56.000Z</time>
      </trkpt>
      <trkpt lat="45.18584" lon="0.72767">
        <ele>142</ele>
        <time>2017-11-19T11:05:58.000Z</time>
      </trkpt>
      <trkpt lat="45.18578" lon="0.72756">
        <ele>139</ele>
        <time>2017-11-19T11:06:00.000Z</time>
      </trkpt>
      <trkpt lat="45.18571" lon="0.72744">
        <ele>140</ele>
        <time>2017-11-19T11:06:02.000Z</time>
      </trkpt>
      <trkpt lat="45.18562" lon="0.72732">
        <ele>136</ele>
        <time>2017-11-19T11:06:05.000Z</time>
      </trkpt>
      <trkpt lat="45.18553" lon="0.72722">
        <ele>133</ele>
        <time>2017-11-19T11:06:08.000Z</time>
      </trkpt>
      <trkpt lat="45.18545" lon="0.72714">
        <ele>132</ele>
        <time>2017-11-19T11:06:10.000Z</time>
      </trkpt>
      <trkpt lat="45.18539" lon="0.72704">
        <ele>132</ele>
        <time>2017-11-19T11:06:12.000Z</time>
      </trkpt>
      <trkpt lat="45.18532" lon="0.72694">
        <ele>133</ele>
        <time>2017-11-19T11:06:14.000Z</time>
      </trkpt>
      <trkpt lat="45.18522" lon="0.72681">
        <ele>131</ele>
        <time>2017-11-19T11:06:17.000Z</time>
      </trkpt>
      <trkpt lat="45.18515" lon="0.72668">
        <ele>130</ele>
        <time>2017-11-19T11:06:20.000Z</time>
      </trkpt>
      <trkpt lat="45.18506" lon="0.72655">
        <ele>131</ele>
        <time>2017-11-19T11:06:23.000Z</time>
      </trkpt>
      <trkpt lat="45.18494" lon="0.72647">
        <ele>131</ele>
        <time>2017-11-19T11:06:26.000Z</time>
      </trkpt>
      <trkpt lat="45.18487" lon="0.7264">
        <ele>130</ele>
        <time>2017-11-19T11:06:28.000Z</time>
      </trkpt>
      <trkpt lat="45.18478" lon="0.72633">
        <ele>129</ele>
        <time>2017-11-19T11:06:30.000Z</time>
      </trkpt>
      <trkpt lat="45.18469" lon="0.72624">
        <ele>130</ele>
        <time>2017-11-19T11:06:32.000Z</time>
      </trkpt>
      <trkpt lat="45.18456" lon="0.72617">
        <ele>130</ele>
        <time>2017-11-19T11:06:35.000Z</time>
      </trkpt>
      <trkpt lat="45.18444" lon="0.72605">
        <ele>130</ele>
        <time>2017-11-19T11:06:38.000Z</time>
      </trkpt>
      <trkpt lat="45.18438" lon="0.72595">
        <ele>131</ele>
        <time>2017-11-19T11:06:40.000Z</time>
      </trkpt>
      <trkpt lat="45.18426" lon="0.72584">
        <ele>129</ele>
        <time>2017-11-19T11:06:43.000Z</time>
      </trkpt>
      <trkpt lat="45.18417" lon="0.72577">
        <ele>129</ele>
        <time>2017-11-19T11:06:45.000Z</time>
      </trkpt>
      <trkpt lat="45.18408" lon="0.7257">
        <ele>130</ele>
        <time>2017-11-19T11:06:47.000Z</time>
      </trkpt>
      <trkpt lat="45.184" lon="0.72562">
        <ele>129</ele>
        <time>2017-11-19T11:06:49.000Z</time>
      </trkpt>
      <trkpt lat="45.18387" lon="0.72551">
        <ele>130</ele>
        <time>2017-11-19T11:06:52.000Z</time>
      </trkpt>
      <trkpt lat="45.18379" lon="0.72539">
        <ele>133</ele>
        <time>2017-11-19T11:06:54.000Z</time>
      </trkpt>
      <trkpt lat="45.18372" lon="0.72531">
        <ele>135</ele>
        <time>2017-11-19T11:06:56.000Z</time>
      </trkpt>
      <trkpt lat="45.18361" lon="0.72517">
        <ele>137</ele>
        <time>2017-11-19T11:06:59.000Z</time>
      </trkpt>
      <trkpt lat="45.18349" lon="0.72514">
        <ele>136</ele>
        <time>2017-11-19T11:07:02.000Z</time>
      </trkpt>
      <trkpt lat="45.18338" lon="0.72506">
        <ele>135</ele>
        <time>2017-11-19T11:07:05.000Z</time>
      </trkpt>
      <trkpt lat="45.18327" lon="0.72503">
        <ele>134</ele>
        <time>2017-11-19T11:07:08.000Z</time>
      </trkpt>
      <trkpt lat="45.18316" lon="0.72504">
        <ele>137</ele>
        <time>2017-11-19T11:07:11.000Z</time>
      </trkpt>
      <trkpt lat="45.183" lon="0.72497">
        <ele>136</ele>
        <time>2017-11-19T11:07:14.000Z</time>
      </trkpt>
      <trkpt lat="45.18287" lon="0.72495">
        <ele>137</ele>
        <time>2017-11-19T11:07:17.000Z</time>
      </trkpt>
      <trkpt lat="45.18277" lon="0.72491">
        <ele>138</ele>
        <time>2017-11-19T11:07:19.000Z</time>
      </trkpt>
      <trkpt lat="45.18265" lon="0.72486">
        <ele>140</ele>
        <time>2017-11-19T11:07:21.000Z</time>
      </trkpt>
      <trkpt lat="45.18255" lon="0.72481">
        <ele>140</ele>
        <time>2017-11-19T11:07:23.000Z</time>
      </trkpt>
      <trkpt lat="45.18245" lon="0.72479">
        <ele>138</ele>
        <time>2017-11-19T11:07:25.000Z</time>
      </trkpt>
      <trkpt lat="45.18236" lon="0.72474">
        <ele>136</ele>
        <time>2017-11-19T11:07:27.000Z</time>
      </trkpt>
      <trkpt lat="45.18224" lon="0.7247">
        <ele>134</ele>
        <time>2017-11-19T11:07:30.000Z</time>
      </trkpt>
      <trkpt lat="45.18211" lon="0.72464">
        <ele>132</ele>
        <time>2017-11-19T11:07:33.000Z</time>
      </trkpt>
      <trkpt lat="45.18202" lon="0.72465">
        <ele>131</ele>
        <time>2017-11-19T11:07:35.000Z</time>
      </trkpt>
      <trkpt lat="45.18192" lon="0.72462">
        <ele>132</ele>
        <time>2017-11-19T11:07:37.000Z</time>
      </trkpt>
      <trkpt lat="45.18182" lon="0.72459">
        <ele>132</ele>
        <time>2017-11-19T11:07:39.000Z</time>
      </trkpt>
      <trkpt lat="45.18173" lon="0.72451">
        <ele>134</ele>
        <time>2017-11-19T11:07:41.000Z</time>
      </trkpt>
      <trkpt lat="45.18164" lon="0.72446">
        <ele>133</ele>
        <time>2017-11-19T11:07:43.000Z</time>
      </trkpt>
      <trkpt lat="45.18156" lon="0.72441">
        <ele>134</ele>
        <time>2017-11-19T11:07:45.000Z</time>
      </trkpt>
      <trkpt lat="45.18144" lon="0.72433">
        <ele>134</ele>
        <time>2017-11-19T11:07:48.000Z</time>
      </trkpt>
      <trkpt lat="45.18132" lon="0.72428">
        <ele>135</ele>
        <time>2017-11-19T11:07:50.000Z</time>
      </trkpt>
      <trkpt lat="45.18123" lon="0.72425">
        <ele>134</ele>
        <time>2017-11-19T11:07:52.000Z</time>
      </trkpt>
      <trkpt lat="45.18112" lon="0.72422">
        <ele>134</ele>
        <time>2017-11-19T11:07:54.000Z</time>
      </trkpt>
      <trkpt lat="45.18104" lon="0.72415">
        <ele>133</ele>
        <time>2017-11-19T11:07:56.000Z</time>
      </trkpt>
      <trkpt lat="45.18095" lon="0.7241">
        <ele>133</ele>
        <time>2017-11-19T11:07:58.000Z</time>
      </trkpt>
      <trkpt lat="45.18087" lon="0.72403">
        <ele>133</ele>
        <time>2017-11-19T11:08:01.000Z</time>
      </trkpt>
      <trkpt lat="45.18076" lon="0.72398">
        <ele>131</ele>
        <time>2017-11-19T11:08:04.000Z</time>
      </trkpt>
      <trkpt lat="45.18066" lon="0.72396">
        <ele>132</ele>
        <time>2017-11-19T11:08:06.000Z</time>
      </trkpt>
      <trkpt lat="45.18055" lon="0.72388">
        <ele>131</ele>
        <time>2017-11-19T11:08:08.000Z</time>
      </trkpt>
      <trkpt lat="45.18045" lon="0.72379">
        <ele>132</ele>
        <time>2017-11-19T11:08:10.000Z</time>
      </trkpt>
      <trkpt lat="45.18036" lon="0.72372">
        <ele>132</ele>
        <time>2017-11-19T11:08:12.000Z</time>
      </trkpt>
      <trkpt lat="45.18029" lon="0.72358">
        <ele>133</ele>
        <time>2017-11-19T11:08:15.000Z</time>
      </trkpt>
      <trkpt lat="45.18021" lon="0.72348">
        <ele>132</ele>
        <time>2017-11-19T11:08:17.000Z</time>
      </trkpt>
      <trkpt lat="45.18012" lon="0.72342">
        <ele>132</ele>
        <time>2017-11-19T11:08:20.000Z</time>
      </trkpt>
      <trkpt lat="45.18002" lon="0.72335">
        <ele>132</ele>
        <time>2017-11-19T11:08:22.000Z</time>
      </trkpt>
      <trkpt lat="45.17994" lon="0.72327">
        <ele>133</ele>
        <time>2017-11-19T11:08:24.000Z</time>
      </trkpt>
      <trkpt lat="45.17982" lon="0.72325">
        <ele>134</ele>
        <time>2017-11-19T11:08:27.000Z</time>
      </trkpt>
      <trkpt lat="45.17971" lon="0.7232">
        <ele>133</ele>
        <time>2017-11-19T11:08:29.000Z</time>
      </trkpt>
      <trkpt lat="45.17962" lon="0.72317">
        <ele>133</ele>
        <time>2017-11-19T11:08:31.000Z</time>
      </trkpt>
      <trkpt lat="45.17953" lon="0.72311">
        <ele>131</ele>
        <time>2017-11-19T11:08:33.000Z</time>
      </trkpt>
      <trkpt lat="45.17942" lon="0.72302">
        <ele>131</ele>
        <time>2017-11-19T11:08:36.000Z</time>
      </trkpt>
      <trkpt lat="45.1793" lon="0.72299">
        <ele>132</ele>
        <time>2017-11-19T11:08:38.000Z</time>
      </trkpt>
      <trkpt lat="45.17919" lon="0.7229">
        <ele>121</ele>
        <time>2017-11-19T11:08:40.085Z</time>
      </trkpt>
      <trkpt lat="45.17905" lon="0.72293">
        <ele>146</ele>
        <time>2017-11-19T11:08:43.085Z</time>
      </trkpt>
      <trkpt lat="45.17896" lon="0.72281">
        <ele>132</ele>
        <time>2017-11-19T11:08:45.000Z</time>
      </trkpt>
      <trkpt lat="45.17886" lon="0.7227">
        <ele>133</ele>
        <time>2017-11-19T11:08:48.000Z</time>
      </trkpt>
      <trkpt lat="45.17874" lon="0.72269">
        <ele>131</ele>
        <time>2017-11-19T11:08:51.000Z</time>
      </trkpt>
      <trkpt lat="45.17862" lon="0.7227">
        <ele>131</ele>
        <time>2017-11-19T11:08:54.000Z</time>
      </trkpt>
      <trkpt lat="45.17851" lon="0.72271">
        <ele>132</ele>
        <time>2017-11-19T11:08:57.000Z</time>
      </trkpt>
      <trkpt lat="45.17848" lon="0.72287">
        <ele>133</ele>
        <time>2017-11-19T11:09:01.000Z</time>
      </trkpt>
      <trkpt lat="45.17846" lon="0.723">
        <ele>134</ele>
        <time>2017-11-19T11:09:04.000Z</time>
      </trkpt>
      <trkpt lat="45.17843" lon="0.72313">
        <ele>141</ele>
        <time>2017-11-19T11:09:52.000Z</time>
      </trkpt>
      <trkpt lat="45.17841" lon="0.72325">
        <ele>145</ele>
        <time>2017-11-19T11:11:24.000Z</time>
      </trkpt>
      <trkpt lat="45.1785" lon="0.72317">
        <ele>144</ele>
        <time>2017-11-19T11:11:30.000Z</time>
      </trkpt>
      <trkpt lat="45.17854" lon="0.723">
        <ele>143</ele>
        <time>2017-11-19T11:11:35.000Z</time>
      </trkpt>
      <trkpt lat="45.17855" lon="0.72287">
        <ele>142</ele>
        <time>2017-11-19T11:11:38.000Z</time>
      </trkpt>
      <trkpt lat="45.17856" lon="0.72272">
        <ele>141</ele>
        <time>2017-11-19T11:11:42.000Z</time>
      </trkpt>
      <trkpt lat="45.17857" lon="0.72258">
        <ele>137</ele>
        <time>2017-11-19T11:11:46.000Z</time>
      </trkpt>
      <trkpt lat="45.17859" lon="0.72239">
        <ele>138</ele>
        <time>2017-11-19T11:11:51.000Z</time>
      </trkpt>
      <trkpt lat="45.1786" lon="0.72222">
        <ele>136</ele>
        <time>2017-11-19T11:11:55.000Z</time>
      </trkpt>
      <trkpt lat="45.17861" lon="0.72207">
        <ele>135</ele>
        <time>2017-11-19T11:11:59.000Z</time>
      </trkpt>
      <trkpt lat="45.17854" lon="0.72198">
        <ele>136</ele>
        <time>2017-11-19T11:12:03.000Z</time>
      </trkpt>
      <trkpt lat="45.17843" lon="0.72193">
        <ele>135</ele>
        <time>2017-11-19T11:12:06.000Z</time>
      </trkpt>
      <trkpt lat="45.17828" lon="0.72188">
        <ele>135</ele>
        <time>2017-11-19T11:12:10.000Z</time>
      </trkpt>
      <trkpt lat="45.17819" lon="0.72181">
        <ele>135</ele>
        <time>2017-11-19T11:12:13.000Z</time>
      </trkpt>
      <trkpt lat="45.17802" lon="0.72181">
        <ele>136</ele>
        <time>2017-11-19T11:12:17.000Z</time>
      </trkpt>
      <trkpt lat="45.17793" lon="0.7218">
        <ele>137</ele>
        <time>2017-11-19T11:12:19.000Z</time>
      </trkpt>
      <trkpt lat="45.17778" lon="0.72175">
        <ele>136</ele>
        <time>2017-11-19T11:12:23.000Z</time>
      </trkpt>
      <trkpt lat="45.17767" lon="0.72172">
        <ele>135</ele>
        <time>2017-11-19T11:12:25.000Z</time>
      </trkpt>
      <trkpt lat="45.1775" lon="0.72164">
        <ele>136</ele>
        <time>2017-11-19T11:12:29.000Z</time>
      </trkpt>
      <trkpt lat="45.17741" lon="0.72158">
        <ele>136</ele>
        <time>2017-11-19T11:12:31.000Z</time>
      </trkpt>
      <trkpt lat="45.17732" lon="0.72147">
        <ele>135</ele>
        <time>2017-11-19T11:12:33.000Z</time>
      </trkpt>
      <trkpt lat="45.17719" lon="0.72136">
        <ele>134</ele>
        <time>2017-11-19T11:12:36.000Z</time>
      </trkpt>
      <trkpt lat="45.1771" lon="0.72123">
        <ele>132</ele>
        <time>2017-11-19T11:12:40.000Z</time>
      </trkpt>
      <trkpt lat="45.17699" lon="0.72116">
        <ele>131</ele>
        <time>2017-11-19T11:12:42.000Z</time>
      </trkpt>
      <trkpt lat="45.17689" lon="0.72107">
        <ele>131</ele>
        <time>2017-11-19T11:12:44.000Z</time>
      </trkpt>
      <trkpt lat="45.17682" lon="0.7209">
        <ele>136</ele>
        <time>2017-11-19T11:12:46.000Z</time>
      </trkpt>
      <trkpt lat="45.1768" lon="0.72077">
        <ele>138</ele>
        <time>2017-11-19T11:12:48.000Z</time>
      </trkpt>
      <trkpt lat="45.17679" lon="0.72059">
        <ele>136</ele>
        <time>2017-11-19T11:12:52.000Z</time>
      </trkpt>
      <trkpt lat="45.1767" lon="0.72055">
        <ele>135</ele>
        <time>2017-11-19T11:12:55.000Z</time>
      </trkpt>
      <trkpt lat="45.1766" lon="0.72053">
        <ele>136</ele>
        <time>2017-11-19T11:12:59.000Z</time>
      </trkpt>
      <trkpt lat="45.17648" lon="0.72059">
        <ele>136</ele>
        <time>2017-11-19T11:13:04.000Z</time>
      </trkpt>
      <trkpt lat="45.17642" lon="0.7207">
        <ele>137</ele>
        <time>2017-11-19T11:13:07.000Z</time>
      </trkpt>
      <trkpt lat="45.17638" lon="0.72083">
        <ele>135</ele>
        <time>2017-11-19T11:13:10.000Z</time>
      </trkpt>
      <trkpt lat="45.1763" lon="0.72095">
        <ele>135</ele>
        <time>2017-11-19T11:13:13.000Z</time>
      </trkpt>
      <trkpt lat="45.17615" lon="0.72088">
        <ele>134</ele>
        <time>2017-11-19T11:13:17.000Z</time>
      </trkpt>
      <trkpt lat="45.17605" lon="0.72077">
        <ele>134</ele>
        <time>2017-11-19T11:13:20.000Z</time>
      </trkpt>
      <trkpt lat="45.17596" lon="0.72065">
        <ele>135</ele>
        <time>2017-11-19T11:13:23.000Z</time>
      </trkpt>
      <trkpt lat="45.17584" lon="0.72049">
        <ele>135</ele>
        <time>2017-11-19T11:13:26.000Z</time>
      </trkpt>
      <trkpt lat="45.17575" lon="0.72042">
        <ele>134</ele>
        <time>2017-11-19T11:13:28.000Z</time>
      </trkpt>
      <trkpt lat="45.17564" lon="0.72031">
        <ele>133</ele>
        <time>2017-11-19T11:13:31.000Z</time>
      </trkpt>
      <trkpt lat="45.17557" lon="0.72022">
        <ele>130</ele>
        <time>2017-11-19T11:13:33.000Z</time>
      </trkpt>
      <trkpt lat="45.1755" lon="0.72011">
        <ele>129</ele>
        <time>2017-11-19T11:13:35.000Z</time>
      </trkpt>
      <trkpt lat="45.17546" lon="0.71998">
        <ele>130</ele>
        <time>2017-11-19T11:13:37.000Z</time>
      </trkpt>
      <trkpt lat="45.17539" lon="0.71985">
        <ele>129</ele>
        <time>2017-11-19T11:13:39.000Z</time>
      </trkpt>
      <trkpt lat="45.17532" lon="0.71973">
        <ele>130</ele>
        <time>2017-11-19T11:13:41.000Z</time>
      </trkpt>
      <trkpt lat="45.17527" lon="0.71959">
        <ele>131</ele>
        <time>2017-11-19T11:13:43.000Z</time>
      </trkpt>
      <trkpt lat="45.17524" lon="0.71947">
        <ele>130</ele>
        <time>2017-11-19T11:13:45.000Z</time>
      </trkpt>
      <trkpt lat="45.1752" lon="0.71934">
        <ele>130</ele>
        <time>2017-11-19T11:13:47.000Z</time>
      </trkpt>
      <trkpt lat="45.17518" lon="0.71921">
        <ele>130</ele>
        <time>2017-11-19T11:13:49.000Z</time>
      </trkpt>
      <trkpt lat="45.17516" lon="0.71906">
        <ele>130</ele>
        <time>2017-11-19T11:13:51.000Z</time>
      </trkpt>
      <trkpt lat="45.17514" lon="0.71887">
        <ele>129</ele>
        <time>2017-11-19T11:13:54.000Z</time>
      </trkpt>
      <trkpt lat="45.17513" lon="0.71873">
        <ele>129</ele>
        <time>2017-11-19T11:13:56.000Z</time>
      </trkpt>
      <trkpt lat="45.17511" lon="0.71854">
        <ele>129</ele>
        <time>2017-11-19T11:13:59.000Z</time>
      </trkpt>
      <trkpt lat="45.17509" lon="0.71836">
        <ele>131</ele>
        <time>2017-11-19T11:14:02.000Z</time>
      </trkpt>
      <trkpt lat="45.17507" lon="0.71818">
        <ele>130</ele>
        <time>2017-11-19T11:14:05.000Z</time>
      </trkpt>
      <trkpt lat="45.17506" lon="0.71804">
        <ele>130</ele>
        <time>2017-11-19T11:14:07.000Z</time>
      </trkpt>
      <trkpt lat="45.17506" lon="0.71791">
        <ele>129</ele>
        <time>2017-11-19T11:14:09.000Z</time>
      </trkpt>
      <trkpt lat="45.17503" lon="0.71777">
        <ele>129</ele>
        <time>2017-11-19T11:14:11.000Z</time>
      </trkpt>
      <trkpt lat="45.175" lon="0.71764">
        <ele>128</ele>
        <time>2017-11-19T11:14:13.000Z</time>
      </trkpt>
      <trkpt lat="45.17497" lon="0.71743">
        <ele>127</ele>
        <time>2017-11-19T11:14:16.000Z</time>
      </trkpt>
      <trkpt lat="45.17497" lon="0.71729">
        <ele>127</ele>
        <time>2017-11-19T11:14:18.000Z</time>
      </trkpt>
      <trkpt lat="45.17496" lon="0.71712">
        <ele>126</ele>
        <time>2017-11-19T11:14:21.000Z</time>
      </trkpt>
      <trkpt lat="45.17496" lon="0.71697">
        <ele>125</ele>
        <time>2017-11-19T11:14:24.000Z</time>
      </trkpt>
      <trkpt lat="45.17494" lon="0.71683">
        <ele>125</ele>
        <time>2017-11-19T11:14:26.000Z</time>
      </trkpt>
      <trkpt lat="45.17491" lon="0.71668">
        <ele>124</ele>
        <time>2017-11-19T11:14:28.000Z</time>
      </trkpt>
      <trkpt lat="45.1749" lon="0.71651">
        <ele>124</ele>
        <time>2017-11-19T11:14:31.000Z</time>
      </trkpt>
      <trkpt lat="45.1749" lon="0.71635">
        <ele>124</ele>
        <time>2017-11-19T11:14:34.000Z</time>
      </trkpt>
      <trkpt lat="45.17489" lon="0.71619">
        <ele>124</ele>
        <time>2017-11-19T11:14:37.000Z</time>
      </trkpt>
      <trkpt lat="45.17489" lon="0.71599">
        <ele>123</ele>
        <time>2017-11-19T11:14:40.000Z</time>
      </trkpt>
      <trkpt lat="45.1749" lon="0.71581">
        <ele>123</ele>
        <time>2017-11-19T11:14:43.000Z</time>
      </trkpt>
      <trkpt lat="45.17491" lon="0.71568">
        <ele>123</ele>
        <time>2017-11-19T11:14:45.000Z</time>
      </trkpt>
      <trkpt lat="45.17493" lon="0.71555">
        <ele>123</ele>
        <time>2017-11-19T11:14:47.000Z</time>
      </trkpt>
      <trkpt lat="45.17495" lon="0.71537">
        <ele>124</ele>
        <time>2017-11-19T11:14:50.000Z</time>
      </trkpt>
      <trkpt lat="45.17497" lon="0.71519">
        <ele>123</ele>
        <time>2017-11-19T11:14:53.000Z</time>
      </trkpt>
      <trkpt lat="45.17502" lon="0.71507">
        <ele>123</ele>
        <time>2017-11-19T11:14:55.000Z</time>
      </trkpt>
      <trkpt lat="45.17506" lon="0.71486">
        <ele>125</ele>
        <time>2017-11-19T11:14:58.000Z</time>
      </trkpt>
      <trkpt lat="45.17512" lon="0.71469">
        <ele>128</ele>
        <time>2017-11-19T11:15:01.000Z</time>
      </trkpt>
      <trkpt lat="45.17515" lon="0.71455">
        <ele>128</ele>
        <time>2017-11-19T11:15:04.000Z</time>
      </trkpt>
      <trkpt lat="45.17522" lon="0.71434">
        <ele>127</ele>
        <time>2017-11-19T11:15:07.000Z</time>
      </trkpt>
      <trkpt lat="45.17527" lon="0.71417">
        <ele>129</ele>
        <time>2017-11-19T11:15:09.000Z</time>
      </trkpt>
      <trkpt lat="45.17532" lon="0.71397">
        <ele>128</ele>
        <time>2017-11-19T11:15:12.000Z</time>
      </trkpt>
      <trkpt lat="45.17537" lon="0.71381">
        <ele>128</ele>
        <time>2017-11-19T11:15:15.000Z</time>
      </trkpt>
      <trkpt lat="45.17541" lon="0.71369">
        <ele>128</ele>
        <time>2017-11-19T11:15:17.000Z</time>
      </trkpt>
      <trkpt lat="45.17545" lon="0.71351">
        <ele>127</ele>
        <time>2017-11-19T11:15:20.000Z</time>
      </trkpt>
      <trkpt lat="45.1755" lon="0.71339">
        <ele>127</ele>
        <time>2017-11-19T11:15:22.000Z</time>
      </trkpt>
      <trkpt lat="45.17554" lon="0.71326">
        <ele>127</ele>
        <time>2017-11-19T11:15:24.000Z</time>
      </trkpt>
      <trkpt lat="45.17557" lon="0.71313">
        <ele>125</ele>
        <time>2017-11-19T11:15:26.000Z</time>
      </trkpt>
      <trkpt lat="45.17564" lon="0.71302">
        <ele>125</ele>
        <time>2017-11-19T11:15:28.000Z</time>
      </trkpt>
      <trkpt lat="45.17567" lon="0.71289">
        <ele>124</ele>
        <time>2017-11-19T11:15:30.000Z</time>
      </trkpt>
      <trkpt lat="45.1757" lon="0.71272">
        <ele>123</ele>
        <time>2017-11-19T11:15:32.000Z</time>
      </trkpt>
      <trkpt lat="45.17572" lon="0.71256">
        <ele>124</ele>
        <time>2017-11-19T11:15:34.000Z</time>
      </trkpt>
      <trkpt lat="45.17575" lon="0.71242">
        <ele>120</ele>
        <time>2017-11-19T11:15:37.000Z</time>
      </trkpt>
      <trkpt lat="45.1758" lon="0.71224">
        <ele>124</ele>
        <time>2017-11-19T11:15:40.000Z</time>
      </trkpt>
      <trkpt lat="45.17585" lon="0.71211">
        <ele>128</ele>
        <time>2017-11-19T11:15:42.000Z</time>
      </trkpt>
      <trkpt lat="45.17588" lon="0.71198">
        <ele>126</ele>
        <time>2017-11-19T11:15:45.000Z</time>
      </trkpt>
      <trkpt lat="45.17591" lon="0.71185">
        <ele>125</ele>
        <time>2017-11-19T11:15:47.000Z</time>
      </trkpt>
      <trkpt lat="45.17596" lon="0.71169">
        <ele>131</ele>
        <time>2017-11-19T11:15:50.000Z</time>
      </trkpt>
      <trkpt lat="45.176" lon="0.71151">
        <ele>126</ele>
        <time>2017-11-19T11:15:53.000Z</time>
      </trkpt>
      <trkpt lat="45.17603" lon="0.71138">
        <ele>128</ele>
        <time>2017-11-19T11:15:55.000Z</time>
      </trkpt>
      <trkpt lat="45.17605" lon="0.71125">
        <ele>127</ele>
        <time>2017-11-19T11:15:57.000Z</time>
      </trkpt>
      <trkpt lat="45.17607" lon="0.71109">
        <ele>129</ele>
        <time>2017-11-19T11:16:00.000Z</time>
      </trkpt>
      <trkpt lat="45.17616" lon="0.71088">
        <ele>128</ele>
        <time>2017-11-19T11:16:03.000Z</time>
      </trkpt>
      <trkpt lat="45.17623" lon="0.7107">
        <ele>127</ele>
        <time>2017-11-19T11:16:05.000Z</time>
      </trkpt>
      <trkpt lat="45.17627" lon="0.71052">
        <ele>126</ele>
        <time>2017-11-19T11:16:10.000Z</time>
      </trkpt>
      <trkpt lat="45.17632" lon="0.71037">
        <ele>128</ele>
        <time>2017-11-19T11:16:13.000Z</time>
      </trkpt>
      <trkpt lat="45.17638" lon="0.71025">
        <ele>128</ele>
        <time>2017-11-19T11:16:15.000Z</time>
      </trkpt>
      <trkpt lat="45.17644" lon="0.71015">
        <ele>129</ele>
        <time>2017-11-19T11:16:17.000Z</time>
      </trkpt>
      <trkpt lat="45.17651" lon="0.71001">
        <ele>129</ele>
        <time>2017-11-19T11:16:20.000Z</time>
      </trkpt>
      <trkpt lat="45.17658" lon="0.70988">
        <ele>129</ele>
        <time>2017-11-19T11:16:23.000Z</time>
      </trkpt>
      <trkpt lat="45.17664" lon="0.70974">
        <ele>129</ele>
        <time>2017-11-19T11:16:26.000Z</time>
      </trkpt>
      <trkpt lat="45.1767" lon="0.70964">
        <ele>130</ele>
        <time>2017-11-19T11:16:28.000Z</time>
      </trkpt>
      <trkpt lat="45.1768" lon="0.7095">
        <ele>133</ele>
        <time>2017-11-19T11:16:31.000Z</time>
      </trkpt>
      <trkpt lat="45.17687" lon="0.70941">
        <ele>130</ele>
        <time>2017-11-19T11:16:33.000Z</time>
      </trkpt>
      <trkpt lat="45.17693" lon="0.70932">
        <ele>129</ele>
        <time>2017-11-19T11:16:35.000Z</time>
      </trkpt>
      <trkpt lat="45.17703" lon="0.7092">
        <ele>128</ele>
        <time>2017-11-19T11:16:37.000Z</time>
      </trkpt>
      <trkpt lat="45.17711" lon="0.70907">
        <ele>128</ele>
        <time>2017-11-19T11:16:40.000Z</time>
      </trkpt>
      <trkpt lat="45.17719" lon="0.70896">
        <ele>128</ele>
        <time>2017-11-19T11:16:42.000Z</time>
      </trkpt>
      <trkpt lat="45.17727" lon="0.70888">
        <ele>127</ele>
        <time>2017-11-19T11:16:44.000Z</time>
      </trkpt>
      <trkpt lat="45.17735" lon="0.70881">
        <ele>126</ele>
        <time>2017-11-19T11:16:46.000Z</time>
      </trkpt>
      <trkpt lat="45.17746" lon="0.70866">
        <ele>129</ele>
        <time>2017-11-19T11:16:50.000Z</time>
      </trkpt>
      <trkpt lat="45.17754" lon="0.7086">
        <ele>129</ele>
        <time>2017-11-19T11:16:52.000Z</time>
      </trkpt>
      <trkpt lat="45.17763" lon="0.70854">
        <ele>128</ele>
        <time>2017-11-19T11:16:54.000Z</time>
      </trkpt>
      <trkpt lat="45.17771" lon="0.70847">
        <ele>128</ele>
        <time>2017-11-19T11:16:56.000Z</time>
      </trkpt>
      <trkpt lat="45.17782" lon="0.70836">
        <ele>128</ele>
        <time>2017-11-19T11:16:58.000Z</time>
      </trkpt>
      <trkpt lat="45.17792" lon="0.70828">
        <ele>129</ele>
        <time>2017-11-19T11:17:00.000Z</time>
      </trkpt>
      <trkpt lat="45.17801" lon="0.70817">
        <ele>127</ele>
        <time>2017-11-19T11:17:02.000Z</time>
      </trkpt>
      <trkpt lat="45.17812" lon="0.70808">
        <ele>127</ele>
        <time>2017-11-19T11:17:05.000Z</time>
      </trkpt>
      <trkpt lat="45.17821" lon="0.70802">
        <ele>129</ele>
        <time>2017-11-19T11:17:07.000Z</time>
      </trkpt>
      <trkpt lat="45.17832" lon="0.7079">
        <ele>128</ele>
        <time>2017-11-19T11:17:10.000Z</time>
      </trkpt>
      <trkpt lat="45.17844" lon="0.70782">
        <ele>127</ele>
        <time>2017-11-19T11:17:12.000Z</time>
      </trkpt>
      <trkpt lat="45.17853" lon="0.70775">
        <ele>127</ele>
        <time>2017-11-19T11:17:14.000Z</time>
      </trkpt>
      <trkpt lat="45.17863" lon="0.70759">
        <ele>129</ele>
        <time>2017-11-19T11:17:17.000Z</time>
      </trkpt>
      <trkpt lat="45.17873" lon="0.70758">
        <ele>131</ele>
        <time>2017-11-19T11:17:20.000Z</time>
      </trkpt>
      <trkpt lat="45.17881" lon="0.7075">
        <ele>131</ele>
        <time>2017-11-19T11:17:22.000Z</time>
      </trkpt>
      <trkpt lat="45.17891" lon="0.70737">
        <ele>129</ele>
        <time>2017-11-19T11:17:25.000Z</time>
      </trkpt>
      <trkpt lat="45.17902" lon="0.70729">
        <ele>129</ele>
        <time>2017-11-19T11:17:27.000Z</time>
      </trkpt>
      <trkpt lat="45.17909" lon="0.70721">
        <ele>130</ele>
        <time>2017-11-19T11:17:29.000Z</time>
      </trkpt>
      <trkpt lat="45.17922" lon="0.7071">
        <ele>130</ele>
        <time>2017-11-19T11:17:32.000Z</time>
      </trkpt>
      <trkpt lat="45.17931" lon="0.70706">
        <ele>128</ele>
        <time>2017-11-19T11:17:34.000Z</time>
      </trkpt>
      <trkpt lat="45.17939" lon="0.70697">
        <ele>129</ele>
        <time>2017-11-19T11:17:36.000Z</time>
      </trkpt>
      <trkpt lat="45.17948" lon="0.70688">
        <ele>128</ele>
        <time>2017-11-19T11:17:39.000Z</time>
      </trkpt>
      <trkpt lat="45.17961" lon="0.70684">
        <ele>129</ele>
        <time>2017-11-19T11:17:42.000Z</time>
      </trkpt>
      <trkpt lat="45.17971" lon="0.70676">
        <ele>129</ele>
        <time>2017-11-19T11:17:44.000Z</time>
      </trkpt>
      <trkpt lat="45.17981" lon="0.70671">
        <ele>128</ele>
        <time>2017-11-19T11:17:46.000Z</time>
      </trkpt>
      <trkpt lat="45.17987" lon="0.70663">
        <ele>126</ele>
        <time>2017-11-19T11:17:48.000Z</time>
      </trkpt>
      <trkpt lat="45.17997" lon="0.70656">
        <ele>125</ele>
        <time>2017-11-19T11:17:50.000Z</time>
      </trkpt>
      <trkpt lat="45.18008" lon="0.70646">
        <ele>123</ele>
        <time>2017-11-19T11:17:53.000Z</time>
      </trkpt>
      <trkpt lat="45.1802" lon="0.70635">
        <ele>123</ele>
        <time>2017-11-19T11:17:56.000Z</time>
      </trkpt>
      <trkpt lat="45.18029" lon="0.70623">
        <ele>123</ele>
        <time>2017-11-19T11:17:59.000Z</time>
      </trkpt>
      <trkpt lat="45.1804" lon="0.7062">
        <ele>126</ele>
        <time>2017-11-19T11:18:02.000Z</time>
      </trkpt>
      <trkpt lat="45.18052" lon="0.70611">
        <ele>129</ele>
        <time>2017-11-19T11:18:07.000Z</time>
      </trkpt>
      <trkpt lat="45.1806" lon="0.70602">
        <ele>129</ele>
        <time>2017-11-19T11:18:09.000Z</time>
      </trkpt>
      <trkpt lat="45.18071" lon="0.70596">
        <ele>129</ele>
        <time>2017-11-19T11:18:11.000Z</time>
      </trkpt>
      <trkpt lat="45.1808" lon="0.70586">
        <ele>127</ele>
        <time>2017-11-19T11:18:13.000Z</time>
      </trkpt>
      <trkpt lat="45.18089" lon="0.70578">
        <ele>126</ele>
        <time>2017-11-19T11:18:15.000Z</time>
      </trkpt>
      <trkpt lat="45.18098" lon="0.70568">
        <ele>127</ele>
        <time>2017-11-19T11:18:17.000Z</time>
      </trkpt>
      <trkpt lat="45.18107" lon="0.70564">
        <ele>127</ele>
        <time>2017-11-19T11:18:19.000Z</time>
      </trkpt>
      <trkpt lat="45.18115" lon="0.70556">
        <ele>127</ele>
        <time>2017-11-19T11:18:21.000Z</time>
      </trkpt>
      <trkpt lat="45.18123" lon="0.70545">
        <ele>129</ele>
        <time>2017-11-19T11:18:23.000Z</time>
      </trkpt>
      <trkpt lat="45.18135" lon="0.70538">
        <ele>127</ele>
        <time>2017-11-19T11:18:26.000Z</time>
      </trkpt>
      <trkpt lat="45.18146" lon="0.70527">
        <ele>127</ele>
        <time>2017-11-19T11:18:29.000Z</time>
      </trkpt>
      <trkpt lat="45.18156" lon="0.70522">
        <ele>126</ele>
        <time>2017-11-19T11:18:31.000Z</time>
      </trkpt>
      <trkpt lat="45.18166" lon="0.70515">
        <ele>127</ele>
        <time>2017-11-19T11:18:33.000Z</time>
      </trkpt>
      <trkpt lat="45.18176" lon="0.70508">
        <ele>128</ele>
        <time>2017-11-19T11:18:36.000Z</time>
      </trkpt>
      <trkpt lat="45.18187" lon="0.70499">
        <ele>128</ele>
        <time>2017-11-19T11:18:39.000Z</time>
      </trkpt>
      <trkpt lat="45.18198" lon="0.7049">
        <ele>128</ele>
        <time>2017-11-19T11:18:42.000Z</time>
      </trkpt>
      <trkpt lat="45.18206" lon="0.7048">
        <ele>127</ele>
        <time>2017-11-19T11:18:44.000Z</time>
      </trkpt>
      <trkpt lat="45.18214" lon="0.70474">
        <ele>128</ele>
        <time>2017-11-19T11:18:46.000Z</time>
      </trkpt>
      <trkpt lat="45.18222" lon="0.70467">
        <ele>126</ele>
        <time>2017-11-19T11:18:48.000Z</time>
      </trkpt>
      <trkpt lat="45.1823" lon="0.70462">
        <ele>128</ele>
        <time>2017-11-19T11:18:50.000Z</time>
      </trkpt>
      <trkpt lat="45.18238" lon="0.70455">
        <ele>130</ele>
        <time>2017-11-19T11:18:52.000Z</time>
      </trkpt>
      <trkpt lat="45.18251" lon="0.70445">
        <ele>132</ele>
        <time>2017-11-19T11:18:55.000Z</time>
      </trkpt>
      <trkpt lat="45.1826" lon="0.70439">
        <ele>133</ele>
        <time>2017-11-19T11:18:57.000Z</time>
      </trkpt>
      <trkpt lat="45.18269" lon="0.70428">
        <ele>131</ele>
        <time>2017-11-19T11:19:00.000Z</time>
      </trkpt>
      <trkpt lat="45.18279" lon="0.70419">
        <ele>134</ele>
        <time>2017-11-19T11:19:02.000Z</time>
      </trkpt>
      <trkpt lat="45.18289" lon="0.70408">
        <ele>133</ele>
        <time>2017-11-19T11:19:05.000Z</time>
      </trkpt>
      <trkpt lat="45.18297" lon="0.70401">
        <ele>133</ele>
        <time>2017-11-19T11:19:07.000Z</time>
      </trkpt>
      <trkpt lat="45.18307" lon="0.70394">
        <ele>132</ele>
        <time>2017-11-19T11:19:10.000Z</time>
      </trkpt>
      <trkpt lat="45.18316" lon="0.70386">
        <ele>132</ele>
        <time>2017-11-19T11:19:12.000Z</time>
      </trkpt>
      <trkpt lat="45.18324" lon="0.70373">
        <ele>132</ele>
        <time>2017-11-19T11:19:15.000Z</time>
      </trkpt>
      <trkpt lat="45.18332" lon="0.70363">
        <ele>132</ele>
        <time>2017-11-19T11:19:17.000Z</time>
      </trkpt>
      <trkpt lat="45.18342" lon="0.70358">
        <ele>135</ele>
        <time>2017-11-19T11:19:20.000Z</time>
      </trkpt>
      <trkpt lat="45.18354" lon="0.70367">
        <ele>129</ele>
        <time>2017-11-19T11:19:23.000Z</time>
      </trkpt>
      <trkpt lat="45.1836" lon="0.70383">
        <ele>131</ele>
        <time>2017-11-19T11:19:26.000Z</time>
      </trkpt>
      <trkpt lat="45.18372" lon="0.70388">
        <ele>129</ele>
        <time>2017-11-19T11:19:29.000Z</time>
      </trkpt>
      <trkpt lat="45.18383" lon="0.7038">
        <ele>129</ele>
        <time>2017-11-19T11:19:31.000Z</time>
      </trkpt>
      <trkpt lat="45.18393" lon="0.70372">
        <ele>130</ele>
        <time>2017-11-19T11:19:34.000Z</time>
      </trkpt>
      <trkpt lat="45.18401" lon="0.70362">
        <ele>129</ele>
        <time>2017-11-19T11:19:37.000Z</time>
      </trkpt>
      <trkpt lat="45.18409" lon="0.70353">
        <ele>130</ele>
        <time>2017-11-19T11:19:39.000Z</time>
      </trkpt>
      <trkpt lat="45.18417" lon="0.70342">
        <ele>130</ele>
        <time>2017-11-19T11:19:42.000Z</time>
      </trkpt>
      <trkpt lat="45.18427" lon="0.70331">
        <ele>131</ele>
        <time>2017-11-19T11:19:45.000Z</time>
      </trkpt>
      <trkpt lat="45.18436" lon="0.70317">
        <ele>133</ele>
        <time>2017-11-19T11:19:48.000Z</time>
      </trkpt>
      <trkpt lat="45.18444" lon="0.70305">
        <ele>134</ele>
        <time>2017-11-19T11:19:50.000Z</time>
      </trkpt>
      <trkpt lat="45.18453" lon="0.7029">
        <ele>134</ele>
        <time>2017-11-19T11:19:52.000Z</time>
      </trkpt>
      <trkpt lat="45.18459" lon="0.7028">
        <ele>134</ele>
        <time>2017-11-19T11:19:54.000Z</time>
      </trkpt>
      <trkpt lat="45.18469" lon="0.70268">
        <ele>131</ele>
        <time>2017-11-19T11:19:56.000Z</time>
      </trkpt>
      <trkpt lat="45.18478" lon="0.70253">
        <ele>132</ele>
        <time>2017-11-19T11:19:58.000Z</time>
      </trkpt>
      <trkpt lat="45.18484" lon="0.70242">
        <ele>132</ele>
        <time>2017-11-19T11:20:00.000Z</time>
      </trkpt>
      <trkpt lat="45.18493" lon="0.7023">
        <ele>130</ele>
        <time>2017-11-19T11:20:03.000Z</time>
      </trkpt>
      <trkpt lat="45.18503" lon="0.70217">
        <ele>130</ele>
        <time>2017-11-19T11:20:06.000Z</time>
      </trkpt>
      <trkpt lat="45.1851" lon="0.70199">
        <ele>130</ele>
        <time>2017-11-19T11:20:09.000Z</time>
      </trkpt>
      <trkpt lat="45.18518" lon="0.70184">
        <ele>131</ele>
        <time>2017-11-19T11:20:11.000Z</time>
      </trkpt>
      <trkpt lat="45.18525" lon="0.70168">
        <ele>132</ele>
        <time>2017-11-19T11:20:13.000Z</time>
      </trkpt>
      <trkpt lat="45.18528" lon="0.70154">
        <ele>129</ele>
        <time>2017-11-19T11:20:15.000Z</time>
      </trkpt>
      <trkpt lat="45.18533" lon="0.70141">
        <ele>129</ele>
        <time>2017-11-19T11:20:17.000Z</time>
      </trkpt>
      <trkpt lat="45.18536" lon="0.70128">
        <ele>129</ele>
        <time>2017-11-19T11:20:19.000Z</time>
      </trkpt>
      <trkpt lat="45.18543" lon="0.70113">
        <ele>129</ele>
        <time>2017-11-19T11:20:22.000Z</time>
      </trkpt>
      <trkpt lat="45.18566" lon="0.70076">
        <ele>128</ele>
        <time>2017-11-19T11:20:27.000Z</time>
      </trkpt>
      <trkpt lat="45.18575" lon="0.7007">
        <ele>128</ele>
        <time>2017-11-19T11:20:29.000Z</time>
      </trkpt>
      <trkpt lat="45.18584" lon="0.70061">
        <ele>128</ele>
        <time>2017-11-19T11:20:31.000Z</time>
      </trkpt>
      <trkpt lat="45.18593" lon="0.70053">
        <ele>130</ele>
        <time>2017-11-19T11:20:33.000Z</time>
      </trkpt>
      <trkpt lat="45.18603" lon="0.70046">
        <ele>129</ele>
        <time>2017-11-19T11:20:35.000Z</time>
      </trkpt>
      <trkpt lat="45.18613" lon="0.7004">
        <ele>128</ele>
        <time>2017-11-19T11:20:37.000Z</time>
      </trkpt>
      <trkpt lat="45.1863" lon="0.70032">
        <ele>126</ele>
        <time>2017-11-19T11:20:40.000Z</time>
      </trkpt>
      <trkpt lat="45.18638" lon="0.70026">
        <ele>125</ele>
        <time>2017-11-19T11:20:42.000Z</time>
      </trkpt>
      <trkpt lat="45.18647" lon="0.70018">
        <ele>125</ele>
        <time>2017-11-19T11:20:44.000Z</time>
      </trkpt>
      <trkpt lat="45.18657" lon="0.70014">
        <ele>124</ele>
        <time>2017-11-19T11:20:46.000Z</time>
      </trkpt>
      <trkpt lat="45.18667" lon="0.70012">
        <ele>123</ele>
        <time>2017-11-19T11:20:48.000Z</time>
      </trkpt>
      <trkpt lat="45.18676" lon="0.7001">
        <ele>124</ele>
        <time>2017-11-19T11:20:50.000Z</time>
      </trkpt>
      <trkpt lat="45.1869" lon="0.70008">
        <ele>124</ele>
        <time>2017-11-19T11:20:53.000Z</time>
      </trkpt>
      <trkpt lat="45.18701" lon="0.70006">
        <ele>126</ele>
        <time>2017-11-19T11:20:55.000Z</time>
      </trkpt>
      <trkpt lat="45.18711" lon="0.70005">
        <ele>126</ele>
        <time>2017-11-19T11:20:57.000Z</time>
      </trkpt>
      <trkpt lat="45.1872" lon="0.70003">
        <ele>126</ele>
        <time>2017-11-19T11:20:59.000Z</time>
      </trkpt>
      <trkpt lat="45.18731" lon="0.7">
        <ele>126</ele>
        <time>2017-11-19T11:21:01.000Z</time>
      </trkpt>
      <trkpt lat="45.1874" lon="0.69997">
        <ele>127</ele>
        <time>2017-11-19T11:21:03.000Z</time>
      </trkpt>
      <trkpt lat="45.1875" lon="0.69995">
        <ele>125</ele>
        <time>2017-11-19T11:21:05.000Z</time>
      </trkpt>
      <trkpt lat="45.18763" lon="0.69993">
        <ele>125</ele>
        <time>2017-11-19T11:21:08.000Z</time>
      </trkpt>
      <trkpt lat="45.18773" lon="0.6999">
        <ele>127</ele>
        <time>2017-11-19T11:21:10.000Z</time>
      </trkpt>
      <trkpt lat="45.18782" lon="0.69989">
        <ele>125</ele>
        <time>2017-11-19T11:21:12.000Z</time>
      </trkpt>
      <trkpt lat="45.18797" lon="0.69985">
        <ele>126</ele>
        <time>2017-11-19T11:21:15.000Z</time>
      </trkpt>
      <trkpt lat="45.18806" lon="0.69984">
        <ele>128</ele>
        <time>2017-11-19T11:21:17.000Z</time>
      </trkpt>
      <trkpt lat="45.18824" lon="0.69981">
        <ele>124</ele>
        <time>2017-11-19T11:21:21.000Z</time>
      </trkpt>
      <trkpt lat="45.18836" lon="0.69977">
        <ele>126</ele>
        <time>2017-11-19T11:21:24.000Z</time>
      </trkpt>
      <trkpt lat="45.1885" lon="0.69974">
        <ele>126</ele>
        <time>2017-11-19T11:21:27.000Z</time>
      </trkpt>
      <trkpt lat="45.1886" lon="0.6997">
        <ele>126</ele>
        <time>2017-11-19T11:21:29.000Z</time>
      </trkpt>
      <trkpt lat="45.18871" lon="0.69969">
        <ele>124</ele>
        <time>2017-11-19T11:21:31.000Z</time>
      </trkpt>
      <trkpt lat="45.1888" lon="0.69967">
        <ele>123</ele>
        <time>2017-11-19T11:21:33.000Z</time>
      </trkpt>
      <trkpt lat="45.18894" lon="0.69958">
        <ele>123</ele>
        <time>2017-11-19T11:21:36.000Z</time>
      </trkpt>
      <trkpt lat="45.18904" lon="0.69952">
        <ele>123</ele>
        <time>2017-11-19T11:21:38.000Z</time>
      </trkpt>
      <trkpt lat="45.18915" lon="0.69948">
        <ele>124</ele>
        <time>2017-11-19T11:21:40.000Z</time>
      </trkpt>
      <trkpt lat="45.18924" lon="0.69944">
        <ele>124</ele>
        <time>2017-11-19T11:21:42.000Z</time>
      </trkpt>
      <trkpt lat="45.18938" lon="0.69941">
        <ele>124</ele>
        <time>2017-11-19T11:21:45.000Z</time>
      </trkpt>
      <trkpt lat="45.18952" lon="0.69938">
        <ele>123</ele>
        <time>2017-11-19T11:21:48.000Z</time>
      </trkpt>
      <trkpt lat="45.18965" lon="0.69933">
        <ele>122</ele>
        <time>2017-11-19T11:21:51.000Z</time>
      </trkpt>
      <trkpt lat="45.18974" lon="0.69928">
        <ele>123</ele>
        <time>2017-11-19T11:21:53.000Z</time>
      </trkpt>
      <trkpt lat="45.18984" lon="0.69926">
        <ele>120</ele>
        <time>2017-11-19T11:21:55.000Z</time>
      </trkpt>
      <trkpt lat="45.18992" lon="0.69919">
        <ele>121</ele>
        <time>2017-11-19T11:21:57.000Z</time>
      </trkpt>
      <trkpt lat="45.19001" lon="0.69915">
        <ele>119</ele>
        <time>2017-11-19T11:21:59.000Z</time>
      </trkpt>
      <trkpt lat="45.19011" lon="0.69916">
        <ele>116</ele>
        <time>2017-11-19T11:22:01.000Z</time>
      </trkpt>
      <trkpt lat="45.19021" lon="0.69913">
        <ele>118</ele>
        <time>2017-11-19T11:22:03.000Z</time>
      </trkpt>
      <trkpt lat="45.19035" lon="0.69908">
        <ele>117</ele>
        <time>2017-11-19T11:22:05.000Z</time>
      </trkpt>
      <trkpt lat="45.19044" lon="0.69905">
        <ele>117</ele>
        <time>2017-11-19T11:22:07.000Z</time>
      </trkpt>
      <trkpt lat="45.19054" lon="0.699">
        <ele>116</ele>
        <time>2017-11-19T11:22:09.000Z</time>
      </trkpt>
      <trkpt lat="45.19067" lon="0.69894">
        <ele>116</ele>
        <time>2017-11-19T11:22:12.000Z</time>
      </trkpt>
      <trkpt lat="45.19077" lon="0.6989">
        <ele>118</ele>
        <time>2017-11-19T11:22:14.000Z</time>
      </trkpt>
      <trkpt lat="45.19086" lon="0.69884">
        <ele>119</ele>
        <time>2017-11-19T11:22:16.000Z</time>
      </trkpt>
      <trkpt lat="45.19096" lon="0.69881">
        <ele>120</ele>
        <time>2017-11-19T11:22:18.000Z</time>
      </trkpt>
      <trkpt lat="45.19109" lon="0.69876">
        <ele>118</ele>
        <time>2017-11-19T11:22:21.000Z</time>
      </trkpt>
      <trkpt lat="45.19118" lon="0.69873">
        <ele>117</ele>
        <time>2017-11-19T11:22:23.000Z</time>
      </trkpt>
      <trkpt lat="45.1913" lon="0.6987">
        <ele>118</ele>
        <time>2017-11-19T11:22:25.000Z</time>
      </trkpt>
      <trkpt lat="45.1914" lon="0.69869">
        <ele>118</ele>
        <time>2017-11-19T11:22:28.000Z</time>
      </trkpt>
      <trkpt lat="45.19149" lon="0.69866">
        <ele>120</ele>
        <time>2017-11-19T11:22:30.000Z</time>
      </trkpt>
      <trkpt lat="45.19157" lon="0.69861">
        <ele>120</ele>
        <time>2017-11-19T11:22:32.000Z</time>
      </trkpt>
      <trkpt lat="45.19169" lon="0.69854">
        <ele>119</ele>
        <time>2017-11-19T11:22:35.000Z</time>
      </trkpt>
      <trkpt lat="45.19181" lon="0.69849">
        <ele>116</ele>
        <time>2017-11-19T11:22:38.000Z</time>
      </trkpt>
      <trkpt lat="45.19191" lon="0.69847">
        <ele>115</ele>
        <time>2017-11-19T11:22:40.000Z</time>
      </trkpt>
      <trkpt lat="45.192" lon="0.69842">
        <ele>117</ele>
        <time>2017-11-19T11:22:42.000Z</time>
      </trkpt>
      <trkpt lat="45.19213" lon="0.6984">
        <ele>117</ele>
        <time>2017-11-19T11:22:45.000Z</time>
      </trkpt>
      <trkpt lat="45.19223" lon="0.69835">
        <ele>118</ele>
        <time>2017-11-19T11:22:48.000Z</time>
      </trkpt>
      <trkpt lat="45.19231" lon="0.69829">
        <ele>121</ele>
        <time>2017-11-19T11:22:52.000Z</time>
      </trkpt>
      <trkpt lat="45.1924" lon="0.69825">
        <ele>123</ele>
        <time>2017-11-19T11:22:56.000Z</time>
      </trkpt>
      <trkpt lat="45.19249" lon="0.69822">
        <ele>128</ele>
        <time>2017-11-19T11:23:01.000Z</time>
      </trkpt>
      <trkpt lat="45.19254" lon="0.6981">
        <ele>130</ele>
        <time>2017-11-19T11:23:05.000Z</time>
      </trkpt>
      <trkpt lat="45.19252" lon="0.69797">
        <ele>129</ele>
        <time>2017-11-19T11:23:09.000Z</time>
      </trkpt>
      <trkpt lat="45.19249" lon="0.69783">
        <ele>130</ele>
        <time>2017-11-19T11:23:13.000Z</time>
      </trkpt>
      <trkpt lat="45.19247" lon="0.69768">
        <ele>129</ele>
        <time>2017-11-19T11:23:17.000Z</time>
      </trkpt>
      <trkpt lat="45.19244" lon="0.69756">
        <ele>128</ele>
        <time>2017-11-19T11:23:20.000Z</time>
      </trkpt>
      <trkpt lat="45.19242" lon="0.69743">
        <ele>127</ele>
        <time>2017-11-19T11:23:23.000Z</time>
      </trkpt>
      <trkpt lat="45.19239" lon="0.69724">
        <ele>128</ele>
        <time>2017-11-19T11:23:27.000Z</time>
      </trkpt>
      <trkpt lat="45.19236" lon="0.69706">
        <ele>127</ele>
        <time>2017-11-19T11:23:30.000Z</time>
      </trkpt>
      <trkpt lat="45.19233" lon="0.69692">
        <ele>128</ele>
        <time>2017-11-19T11:23:32.000Z</time>
      </trkpt>
      <trkpt lat="45.19225" lon="0.69682">
        <ele>128</ele>
        <time>2017-11-19T11:23:35.000Z</time>
      </trkpt>
      <trkpt lat="45.19215" lon="0.69672">
        <ele>126</ele>
        <time>2017-11-19T11:23:40.000Z</time>
      </trkpt>
      <trkpt lat="45.19207" lon="0.69666">
        <ele>128</ele>
        <time>2017-11-19T11:23:45.000Z</time>
      </trkpt>
      <trkpt lat="45.19198" lon="0.6966">
        <ele>131</ele>
        <time>2017-11-19T11:23:51.000Z</time>
      </trkpt>
      <trkpt lat="45.1919" lon="0.69652">
        <ele>130</ele>
        <time>2017-11-19T11:23:57.000Z</time>
      </trkpt>
      <trkpt lat="45.19181" lon="0.69643">
        <ele>132</ele>
        <time>2017-11-19T11:24:03.000Z</time>
      </trkpt>
      <trkpt lat="45.19173" lon="0.69635">
        <ele>136</ele>
        <time>2017-11-19T11:24:08.000Z</time>
      </trkpt>
      <trkpt lat="45.19164" lon="0.69629">
        <ele>138</ele>
        <time>2017-11-19T11:24:14.000Z</time>
      </trkpt>
      <trkpt lat="45.19155" lon="0.69628">
        <ele>139</ele>
        <time>2017-11-19T11:24:19.000Z</time>
      </trkpt>
      <trkpt lat="45.19145" lon="0.69631">
        <ele>139</ele>
        <time>2017-11-19T11:24:24.000Z</time>
      </trkpt>
      <trkpt lat="45.19135" lon="0.69632">
        <ele>138</ele>
        <time>2017-11-19T11:24:30.000Z</time>
      </trkpt>
      <trkpt lat="45.19126" lon="0.69635">
        <ele>141</ele>
        <time>2017-11-19T11:24:35.000Z</time>
      </trkpt>
      <trkpt lat="45.19117" lon="0.69638">
        <ele>142</ele>
        <time>2017-11-19T11:24:40.000Z</time>
      </trkpt>
      <trkpt lat="45.19106" lon="0.69641">
        <ele>145</ele>
        <time>2017-11-19T11:24:46.000Z</time>
      </trkpt>
      <trkpt lat="45.19097" lon="0.69645">
        <ele>143</ele>
        <time>2017-11-19T11:24:50.000Z</time>
      </trkpt>
      <trkpt lat="45.19087" lon="0.69649">
        <ele>141</ele>
        <time>2017-11-19T11:24:55.000Z</time>
      </trkpt>
      <trkpt lat="45.19076" lon="0.69652">
        <ele>141</ele>
        <time>2017-11-19T11:24:59.000Z</time>
      </trkpt>
      <trkpt lat="45.19066" lon="0.69651">
        <ele>141</ele>
        <time>2017-11-19T11:25:04.000Z</time>
      </trkpt>
      <trkpt lat="45.19055" lon="0.69648">
        <ele>144</ele>
        <time>2017-11-19T11:25:09.000Z</time>
      </trkpt>
      <trkpt lat="45.19046" lon="0.69648">
        <ele>146</ele>
        <time>2017-11-19T11:25:14.000Z</time>
      </trkpt>
      <trkpt lat="45.19037" lon="0.69648">
        <ele>146</ele>
        <time>2017-11-19T11:25:19.000Z</time>
      </trkpt>
      <trkpt lat="45.19028" lon="0.69645">
        <ele>146</ele>
        <time>2017-11-19T11:25:24.000Z</time>
      </trkpt>
      <trkpt lat="45.19017" lon="0.69641">
        <ele>148</ele>
        <time>2017-11-19T11:25:29.000Z</time>
      </trkpt>
      <trkpt lat="45.19007" lon="0.69638">
        <ele>149</ele>
        <time>2017-11-19T11:25:34.000Z</time>
      </trkpt>
      <trkpt lat="45.18998" lon="0.69631">
        <ele>149</ele>
        <time>2017-11-19T11:25:40.000Z</time>
      </trkpt>
      <trkpt lat="45.19" lon="0.69617">
        <ele>148</ele>
        <time>2017-11-19T11:25:46.000Z</time>
      </trkpt>
      <trkpt lat="45.19006" lon="0.69606">
        <ele>149</ele>
        <time>2017-11-19T11:25:50.000Z</time>
      </trkpt>
      <trkpt lat="45.19016" lon="0.696">
        <ele>148</ele>
        <time>2017-11-19T11:25:54.000Z</time>
      </trkpt>
      <trkpt lat="45.19025" lon="0.69594">
        <ele>148</ele>
        <time>2017-11-19T11:25:58.000Z</time>
      </trkpt>
      <trkpt lat="45.19033" lon="0.69588">
        <ele>147</ele>
        <time>2017-11-19T11:26:01.000Z</time>
      </trkpt>
      <trkpt lat="45.1904" lon="0.69581">
        <ele>146</ele>
        <time>2017-11-19T11:26:04.000Z</time>
      </trkpt>
      <trkpt lat="45.19048" lon="0.69573">
        <ele>145</ele>
        <time>2017-11-19T11:26:07.000Z</time>
      </trkpt>
      <trkpt lat="45.19054" lon="0.69562">
        <ele>146</ele>
        <time>2017-11-19T11:26:11.000Z</time>
      </trkpt>
      <trkpt lat="45.19063" lon="0.69553">
        <ele>147</ele>
        <time>2017-11-19T11:26:15.000Z</time>
      </trkpt>
      <trkpt lat="45.1907" lon="0.69545">
        <ele>148</ele>
        <time>2017-11-19T11:26:18.000Z</time>
      </trkpt>
      <trkpt lat="45.19078" lon="0.69537">
        <ele>148</ele>
        <time>2017-11-19T11:26:21.000Z</time>
      </trkpt>
      <trkpt lat="45.19085" lon="0.69527">
        <ele>150</ele>
        <time>2017-11-19T11:26:24.000Z</time>
      </trkpt>
      <trkpt lat="45.19092" lon="0.69518">
        <ele>148</ele>
        <time>2017-11-19T11:26:27.000Z</time>
      </trkpt>
      <trkpt lat="45.191" lon="0.69507">
        <ele>147</ele>
        <time>2017-11-19T11:26:30.000Z</time>
      </trkpt>
      <trkpt lat="45.19107" lon="0.69498">
        <ele>147</ele>
        <time>2017-11-19T11:26:33.000Z</time>
      </trkpt>
      <trkpt lat="45.19113" lon="0.69489">
        <ele>148</ele>
        <time>2017-11-19T11:26:37.000Z</time>
      </trkpt>
      <trkpt lat="45.19119" lon="0.69477">
        <ele>150</ele>
        <time>2017-11-19T11:26:41.000Z</time>
      </trkpt>
      <trkpt lat="45.19125" lon="0.69466">
        <ele>151</ele>
        <time>2017-11-19T11:26:44.000Z</time>
      </trkpt>
      <trkpt lat="45.19123" lon="0.6945">
        <ele>150</ele>
        <time>2017-11-19T11:26:48.000Z</time>
      </trkpt>
      <trkpt lat="45.19114" lon="0.6946">
        <ele>160</ele>
        <time>2017-11-19T11:28:43.084Z</time>
      </trkpt>
      <trkpt lat="45.19118" lon="0.69448">
        <ele>151</ele>
        <time>2017-11-19T11:29:46.000Z</time>
      </trkpt>
      <trkpt lat="45.19127" lon="0.6945">
        <ele>158</ele>
        <time>2017-11-19T11:31:12.000Z</time>
      </trkpt>
      <trkpt lat="45.19134" lon="0.6944">
        <ele>157</ele>
        <time>2017-11-19T11:31:17.000Z</time>
      </trkpt>
      <trkpt lat="45.19144" lon="0.69434">
        <ele>155</ele>
        <time>2017-11-19T11:31:22.000Z</time>
      </trkpt>
      <trkpt lat="45.19153" lon="0.69441">
        <ele>153</ele>
        <time>2017-11-19T11:31:27.000Z</time>
      </trkpt>
      <trkpt lat="45.19154" lon="0.69456">
        <ele>151</ele>
        <time>2017-11-19T11:31:32.000Z</time>
      </trkpt>
      <trkpt lat="45.19147" lon="0.69469">
        <ele>153</ele>
        <time>2017-11-19T11:31:35.000Z</time>
      </trkpt>
      <trkpt lat="45.19139" lon="0.69476">
        <ele>153</ele>
        <time>2017-11-19T11:31:39.000Z</time>
      </trkpt>
    </trkseg>
  </trk>
</gpx>